<?xml version="1.0" encoding="UTF-8" standalone="no" ?>
<gpx xmlns="http://www.topografix.com/GPX/1/1" xmlns:xsi="http://www.w3.org/2001/XMLSchema-instance" xsi:schemaLocation="http://www.topografix.com/GPX/1/1 http://www.topografix.com/GPX/1/1/gpx.xsd" version="1.1" creator="VisuGPX - https://www.visugpx.com">
  <metadata>
    <name>Bize 11</name>
    <desc><![CDATA[Dimanche matin]]></desc>
  </metadata>
  <trk>
    <name><![CDATA[ROC]]></name>
    <trkseg>
      <trkpt lat="43.31253" lon="2.87227">
        <ele>62.62</ele>
        <time>2014-09-07T05:56:06Z</time>
      </trkpt>
      <trkpt lat="43.31253" lon="2.87226">
        <ele>62.62</ele>
        <time>2014-09-07T05:56:09Z</time>
      </trkpt>
      <trkpt lat="43.31255" lon="2.87227">
        <ele>61.18</ele>
        <time>2014-09-07T05:56:22Z</time>
      </trkpt>
      <trkpt lat="43.31312" lon="2.87235">
        <ele>60.7</ele>
        <time>2014-09-07T05:56:36Z</time>
      </trkpt>
      <trkpt lat="43.31319" lon="2.87235">
        <ele>60.22</ele>
        <time>2014-09-07T05:56:38Z</time>
      </trkpt>
      <trkpt lat="43.31322" lon="2.87222">
        <ele>59.74</ele>
        <time>2014-09-07T05:56:42Z</time>
      </trkpt>
      <trkpt lat="43.31321" lon="2.87215">
        <ele>59.74</ele>
        <time>2014-09-07T05:56:44Z</time>
      </trkpt>
      <trkpt lat="43.3132" lon="2.87204">
        <ele>59.74</ele>
        <time>2014-09-07T05:56:48Z</time>
      </trkpt>
      <trkpt lat="43.31293" lon="2.87189">
        <ele>60.7</ele>
        <time>2014-09-07T05:57:01Z</time>
      </trkpt>
      <trkpt lat="43.3128" lon="2.87164">
        <ele>60.22</ele>
        <time>2014-09-07T05:57:10Z</time>
      </trkpt>
      <trkpt lat="43.31284" lon="2.87119">
        <ele>59.26</ele>
        <time>2014-09-07T05:57:22Z</time>
      </trkpt>
      <trkpt lat="43.31282" lon="2.87116">
        <ele>59.26</ele>
        <time>2014-09-07T05:57:23Z</time>
      </trkpt>
      <trkpt lat="43.31279" lon="2.87115">
        <ele>59.26</ele>
        <time>2014-09-07T05:57:24Z</time>
      </trkpt>
      <trkpt lat="43.31251" lon="2.87109">
        <ele>58.3</ele>
        <time>2014-09-07T05:57:31Z</time>
      </trkpt>
      <trkpt lat="43.31232" lon="2.8711">
        <ele>57.82</ele>
        <time>2014-09-07T05:57:35Z</time>
      </trkpt>
      <trkpt lat="43.31226" lon="2.8711">
        <ele>57.34</ele>
        <time>2014-09-07T05:57:36Z</time>
      </trkpt>
      <trkpt lat="43.3114" lon="2.87109">
        <ele>54.93</ele>
        <time>2014-09-07T05:57:52Z</time>
      </trkpt>
      <trkpt lat="43.31067" lon="2.87103">
        <ele>55.41</ele>
        <time>2014-09-07T05:58:06Z</time>
      </trkpt>
      <trkpt lat="43.31054" lon="2.87101">
        <ele>55.41</ele>
        <time>2014-09-07T05:58:09Z</time>
      </trkpt>
      <trkpt lat="43.31007" lon="2.87093">
        <ele>55.89</ele>
        <time>2014-09-07T05:58:17Z</time>
      </trkpt>
      <trkpt lat="43.30988" lon="2.87096">
        <ele>55.89</ele>
        <time>2014-09-07T05:58:21Z</time>
      </trkpt>
      <trkpt lat="43.30984" lon="2.87098">
        <ele>56.37</ele>
        <time>2014-09-07T05:58:22Z</time>
      </trkpt>
      <trkpt lat="43.3098" lon="2.871">
        <ele>56.37</ele>
        <time>2014-09-07T05:58:23Z</time>
      </trkpt>
      <trkpt lat="43.30937" lon="2.87122">
        <ele>58.78</ele>
        <time>2014-09-07T05:58:37Z</time>
      </trkpt>
      <trkpt lat="43.3092" lon="2.87153">
        <ele>61.18</ele>
        <time>2014-09-07T05:58:49Z</time>
      </trkpt>
      <trkpt lat="43.30899" lon="2.87191">
        <ele>62.62</ele>
        <time>2014-09-07T05:59:02Z</time>
      </trkpt>
      <trkpt lat="43.30856" lon="2.87213">
        <ele>65.03</ele>
        <time>2014-09-07T05:59:19Z</time>
      </trkpt>
      <trkpt lat="43.30812" lon="2.87233">
        <ele>67.43</ele>
        <time>2014-09-07T05:59:36Z</time>
      </trkpt>
      <trkpt lat="43.30772" lon="2.87246">
        <ele>70.79</ele>
        <time>2014-09-07T05:59:53Z</time>
      </trkpt>
      <trkpt lat="43.3073" lon="2.87247">
        <ele>73.68</ele>
        <time>2014-09-07T06:00:10Z</time>
      </trkpt>
      <trkpt lat="43.3069" lon="2.8725">
        <ele>76.08</ele>
        <time>2014-09-07T06:00:26Z</time>
      </trkpt>
      <trkpt lat="43.30656" lon="2.87265">
        <ele>76.56</ele>
        <time>2014-09-07T06:00:40Z</time>
      </trkpt>
      <trkpt lat="43.30614" lon="2.87283">
        <ele>79.45</ele>
        <time>2014-09-07T06:00:57Z</time>
      </trkpt>
      <trkpt lat="43.30591" lon="2.87312">
        <ele>82.33</ele>
        <time>2014-09-07T06:01:11Z</time>
      </trkpt>
      <trkpt lat="43.30609" lon="2.87334">
        <ele>85.21</ele>
        <time>2014-09-07T06:01:23Z</time>
      </trkpt>
      <trkpt lat="43.3064" lon="2.87317">
        <ele>88.1</ele>
        <time>2014-09-07T06:01:39Z</time>
      </trkpt>
      <trkpt lat="43.30676" lon="2.87317">
        <ele>90.5</ele>
        <time>2014-09-07T06:01:56Z</time>
      </trkpt>
      <trkpt lat="43.30706" lon="2.87347">
        <ele>92.9</ele>
        <time>2014-09-07T06:02:13Z</time>
      </trkpt>
      <trkpt lat="43.3074" lon="2.87377">
        <ele>95.79</ele>
        <time>2014-09-07T06:02:31Z</time>
      </trkpt>
      <trkpt lat="43.30773" lon="2.87375">
        <ele>99.63</ele>
        <time>2014-09-07T06:02:46Z</time>
      </trkpt>
      <trkpt lat="43.30795" lon="2.87389">
        <ele>102.52</ele>
        <time>2014-09-07T06:02:59Z</time>
      </trkpt>
      <trkpt lat="43.30786" lon="2.87423">
        <ele>103</ele>
        <time>2014-09-07T06:03:12Z</time>
      </trkpt>
      <trkpt lat="43.30755" lon="2.87461">
        <ele>108.29</ele>
        <time>2014-09-07T06:03:31Z</time>
      </trkpt>
      <trkpt lat="43.30755" lon="2.87492">
        <ele>109.73</ele>
        <time>2014-09-07T06:03:43Z</time>
      </trkpt>
      <trkpt lat="43.30765" lon="2.87502">
        <ele>111.17</ele>
        <time>2014-09-07T06:03:51Z</time>
      </trkpt>
      <trkpt lat="43.30784" lon="2.87498">
        <ele>114.53</ele>
        <time>2014-09-07T06:04:04Z</time>
      </trkpt>
      <trkpt lat="43.30806" lon="2.87492">
        <ele>119.34</ele>
        <time>2014-09-07T06:04:17Z</time>
      </trkpt>
      <trkpt lat="43.30808" lon="2.87493">
        <ele>119.82</ele>
        <time>2014-09-07T06:04:18Z</time>
      </trkpt>
      <trkpt lat="43.30809" lon="2.87493">
        <ele>120.3</ele>
        <time>2014-09-07T06:04:19Z</time>
      </trkpt>
      <trkpt lat="43.3081" lon="2.87493">
        <ele>120.78</ele>
        <time>2014-09-07T06:04:20Z</time>
      </trkpt>
      <trkpt lat="43.30811" lon="2.87493">
        <ele>121.26</ele>
        <time>2014-09-07T06:04:21Z</time>
      </trkpt>
      <trkpt lat="43.30813" lon="2.87492">
        <ele>122.22</ele>
        <time>2014-09-07T06:04:22Z</time>
      </trkpt>
      <trkpt lat="43.30814" lon="2.87492">
        <ele>122.71</ele>
        <time>2014-09-07T06:04:23Z</time>
      </trkpt>
      <trkpt lat="43.30816" lon="2.87492">
        <ele>123.19</ele>
        <time>2014-09-07T06:04:24Z</time>
      </trkpt>
      <trkpt lat="43.30817" lon="2.87491">
        <ele>123.67</ele>
        <time>2014-09-07T06:04:25Z</time>
      </trkpt>
      <trkpt lat="43.30848" lon="2.87495">
        <ele>126.55</ele>
        <time>2014-09-07T06:04:40Z</time>
      </trkpt>
      <trkpt lat="43.30873" lon="2.87501">
        <ele>128.47</ele>
        <time>2014-09-07T06:04:51Z</time>
      </trkpt>
      <trkpt lat="43.30905" lon="2.87516">
        <ele>127.51</ele>
        <time>2014-09-07T06:05:04Z</time>
      </trkpt>
      <trkpt lat="43.30929" lon="2.87532">
        <ele>128.47</ele>
        <time>2014-09-07T06:05:17Z</time>
      </trkpt>
      <trkpt lat="43.30966" lon="2.87564">
        <ele>126.07</ele>
        <time>2014-09-07T06:05:35Z</time>
      </trkpt>
      <trkpt lat="43.31004" lon="2.876">
        <ele>127.03</ele>
        <time>2014-09-07T06:05:54Z</time>
      </trkpt>
      <trkpt lat="43.31033" lon="2.87638">
        <ele>131.36</ele>
        <time>2014-09-07T06:06:11Z</time>
      </trkpt>
      <trkpt lat="43.31061" lon="2.87646">
        <ele>134.24</ele>
        <time>2014-09-07T06:06:25Z</time>
      </trkpt>
      <trkpt lat="43.31082" lon="2.87642">
        <ele>136.16</ele>
        <time>2014-09-07T06:06:38Z</time>
      </trkpt>
      <trkpt lat="43.31117" lon="2.87625">
        <ele>137.61</ele>
        <time>2014-09-07T06:06:52Z</time>
      </trkpt>
      <trkpt lat="43.3115" lon="2.87605">
        <ele>140.97</ele>
        <time>2014-09-07T06:07:06Z</time>
      </trkpt>
      <trkpt lat="43.31155" lon="2.87599">
        <ele>143.37</ele>
        <time>2014-09-07T06:07:19Z</time>
      </trkpt>
      <trkpt lat="43.31161" lon="2.87601">
        <ele>140.49</ele>
        <time>2014-09-07T06:07:43Z</time>
      </trkpt>
      <trkpt lat="43.31184" lon="2.87595">
        <ele>142.89</ele>
        <time>2014-09-07T06:07:53Z</time>
      </trkpt>
      <trkpt lat="43.31218" lon="2.87607">
        <ele>139.53</ele>
        <time>2014-09-07T06:08:05Z</time>
      </trkpt>
      <trkpt lat="43.31252" lon="2.8764">
        <ele>140.01</ele>
        <time>2014-09-07T06:08:17Z</time>
      </trkpt>
      <trkpt lat="43.31259" lon="2.87652">
        <ele>140.49</ele>
        <time>2014-09-07T06:08:20Z</time>
      </trkpt>
      <trkpt lat="43.31287" lon="2.87723">
        <ele>140.97</ele>
        <time>2014-09-07T06:08:33Z</time>
      </trkpt>
      <trkpt lat="43.31289" lon="2.8778">
        <ele>136.64</ele>
        <time>2014-09-07T06:08:45Z</time>
      </trkpt>
      <trkpt lat="43.31286" lon="2.87823">
        <ele>133.28</ele>
        <time>2014-09-07T06:08:56Z</time>
      </trkpt>
      <trkpt lat="43.31275" lon="2.87847">
        <ele>131.84</ele>
        <time>2014-09-07T06:09:08Z</time>
      </trkpt>
      <trkpt lat="43.31265" lon="2.87862">
        <ele>130.88</ele>
        <time>2014-09-07T06:09:18Z</time>
      </trkpt>
      <trkpt lat="43.31264" lon="2.87864">
        <ele>130.88</ele>
        <time>2014-09-07T06:09:19Z</time>
      </trkpt>
      <trkpt lat="43.31263" lon="2.87865">
        <ele>130.88</ele>
        <time>2014-09-07T06:09:20Z</time>
      </trkpt>
      <trkpt lat="43.31262" lon="2.87867">
        <ele>130.4</ele>
        <time>2014-09-07T06:09:21Z</time>
      </trkpt>
      <trkpt lat="43.31262" lon="2.87869">
        <ele>130.4</ele>
        <time>2014-09-07T06:09:22Z</time>
      </trkpt>
      <trkpt lat="43.31261" lon="2.87871">
        <ele>129.92</ele>
        <time>2014-09-07T06:09:23Z</time>
      </trkpt>
      <trkpt lat="43.31251" lon="2.87895">
        <ele>132.32</ele>
        <time>2014-09-07T06:09:37Z</time>
      </trkpt>
      <trkpt lat="43.3125" lon="2.87897">
        <ele>132.8</ele>
        <time>2014-09-07T06:09:38Z</time>
      </trkpt>
      <trkpt lat="43.31248" lon="2.87899">
        <ele>133.28</ele>
        <time>2014-09-07T06:09:39Z</time>
      </trkpt>
      <trkpt lat="43.31248" lon="2.87901">
        <ele>133.28</ele>
        <time>2014-09-07T06:09:40Z</time>
      </trkpt>
      <trkpt lat="43.31248" lon="2.87903">
        <ele>133.76</ele>
        <time>2014-09-07T06:09:41Z</time>
      </trkpt>
      <trkpt lat="43.31247" lon="2.87905">
        <ele>133.76</ele>
        <time>2014-09-07T06:09:42Z</time>
      </trkpt>
      <trkpt lat="43.31247" lon="2.87907">
        <ele>133.76</ele>
        <time>2014-09-07T06:09:43Z</time>
      </trkpt>
      <trkpt lat="43.31242" lon="2.87919">
        <ele>134.24</ele>
        <time>2014-09-07T06:09:49Z</time>
      </trkpt>
      <trkpt lat="43.3124" lon="2.87921">
        <ele>134.24</ele>
        <time>2014-09-07T06:09:50Z</time>
      </trkpt>
      <trkpt lat="43.31239" lon="2.87922">
        <ele>133.76</ele>
        <time>2014-09-07T06:09:51Z</time>
      </trkpt>
      <trkpt lat="43.31239" lon="2.87924">
        <ele>133.76</ele>
        <time>2014-09-07T06:09:52Z</time>
      </trkpt>
      <trkpt lat="43.31238" lon="2.87926">
        <ele>133.28</ele>
        <time>2014-09-07T06:09:53Z</time>
      </trkpt>
      <trkpt lat="43.31237" lon="2.87927">
        <ele>133.28</ele>
        <time>2014-09-07T06:09:54Z</time>
      </trkpt>
      <trkpt lat="43.31234" lon="2.87939">
        <ele>132.8</ele>
        <time>2014-09-07T06:10:00Z</time>
      </trkpt>
      <trkpt lat="43.31234" lon="2.87941">
        <ele>132.8</ele>
        <time>2014-09-07T06:10:01Z</time>
      </trkpt>
      <trkpt lat="43.31234" lon="2.87944">
        <ele>132.8</ele>
        <time>2014-09-07T06:10:02Z</time>
      </trkpt>
      <trkpt lat="43.31234" lon="2.87946">
        <ele>132.8</ele>
        <time>2014-09-07T06:10:03Z</time>
      </trkpt>
      <trkpt lat="43.31234" lon="2.87948">
        <ele>132.8</ele>
        <time>2014-09-07T06:10:04Z</time>
      </trkpt>
      <trkpt lat="43.31234" lon="2.87951">
        <ele>132.8</ele>
        <time>2014-09-07T06:10:05Z</time>
      </trkpt>
      <trkpt lat="43.31234" lon="2.87953">
        <ele>132.8</ele>
        <time>2014-09-07T06:10:06Z</time>
      </trkpt>
      <trkpt lat="43.31234" lon="2.87955">
        <ele>132.8</ele>
        <time>2014-09-07T06:10:07Z</time>
      </trkpt>
      <trkpt lat="43.31234" lon="2.87958">
        <ele>132.8</ele>
        <time>2014-09-07T06:10:08Z</time>
      </trkpt>
      <trkpt lat="43.31233" lon="2.87968">
        <ele>132.8</ele>
        <time>2014-09-07T06:10:13Z</time>
      </trkpt>
      <trkpt lat="43.31232" lon="2.8797">
        <ele>132.8</ele>
        <time>2014-09-07T06:10:14Z</time>
      </trkpt>
      <trkpt lat="43.31232" lon="2.87972">
        <ele>132.32</ele>
        <time>2014-09-07T06:10:15Z</time>
      </trkpt>
      <trkpt lat="43.31231" lon="2.87976">
        <ele>132.32</ele>
        <time>2014-09-07T06:10:17Z</time>
      </trkpt>
      <trkpt lat="43.3123" lon="2.87978">
        <ele>132.32</ele>
        <time>2014-09-07T06:10:18Z</time>
      </trkpt>
      <trkpt lat="43.31229" lon="2.87991">
        <ele>132.32</ele>
        <time>2014-09-07T06:10:24Z</time>
      </trkpt>
      <trkpt lat="43.31229" lon="2.87993">
        <ele>132.8</ele>
        <time>2014-09-07T06:10:25Z</time>
      </trkpt>
      <trkpt lat="43.31229" lon="2.87995">
        <ele>132.8</ele>
        <time>2014-09-07T06:10:26Z</time>
      </trkpt>
      <trkpt lat="43.31219" lon="2.88023">
        <ele>134.72</ele>
        <time>2014-09-07T06:10:39Z</time>
      </trkpt>
      <trkpt lat="43.31217" lon="2.88031">
        <ele>135.2</ele>
        <time>2014-09-07T06:10:42Z</time>
      </trkpt>
      <trkpt lat="43.31216" lon="2.88033">
        <ele>135.68</ele>
        <time>2014-09-07T06:10:43Z</time>
      </trkpt>
      <trkpt lat="43.31215" lon="2.88035">
        <ele>135.68</ele>
        <time>2014-09-07T06:10:44Z</time>
      </trkpt>
      <trkpt lat="43.31214" lon="2.88037">
        <ele>135.68</ele>
        <time>2014-09-07T06:10:45Z</time>
      </trkpt>
      <trkpt lat="43.31214" lon="2.8804">
        <ele>135.68</ele>
        <time>2014-09-07T06:10:46Z</time>
      </trkpt>
      <trkpt lat="43.31214" lon="2.88042">
        <ele>136.16</ele>
        <time>2014-09-07T06:10:47Z</time>
      </trkpt>
      <trkpt lat="43.31211" lon="2.88059">
        <ele>137.13</ele>
        <time>2014-09-07T06:10:55Z</time>
      </trkpt>
      <trkpt lat="43.3121" lon="2.88061">
        <ele>137.61</ele>
        <time>2014-09-07T06:10:56Z</time>
      </trkpt>
      <trkpt lat="43.3121" lon="2.88063">
        <ele>137.61</ele>
        <time>2014-09-07T06:10:57Z</time>
      </trkpt>
      <trkpt lat="43.3121" lon="2.88066">
        <ele>137.61</ele>
        <time>2014-09-07T06:10:58Z</time>
      </trkpt>
      <trkpt lat="43.3121" lon="2.88068">
        <ele>138.09</ele>
        <time>2014-09-07T06:10:59Z</time>
      </trkpt>
      <trkpt lat="43.3121" lon="2.8807">
        <ele>138.09</ele>
        <time>2014-09-07T06:11:00Z</time>
      </trkpt>
      <trkpt lat="43.31209" lon="2.88072">
        <ele>138.09</ele>
        <time>2014-09-07T06:11:01Z</time>
      </trkpt>
      <trkpt lat="43.31209" lon="2.88074">
        <ele>138.09</ele>
        <time>2014-09-07T06:11:02Z</time>
      </trkpt>
      <trkpt lat="43.3121" lon="2.88089">
        <ele>140.01</ele>
        <time>2014-09-07T06:11:09Z</time>
      </trkpt>
      <trkpt lat="43.31209" lon="2.88091">
        <ele>141.93</ele>
        <time>2014-09-07T06:11:10Z</time>
      </trkpt>
      <trkpt lat="43.31209" lon="2.88093">
        <ele>143.37</ele>
        <time>2014-09-07T06:11:11Z</time>
      </trkpt>
      <trkpt lat="43.31209" lon="2.88096">
        <ele>143.85</ele>
        <time>2014-09-07T06:11:12Z</time>
      </trkpt>
      <trkpt lat="43.31209" lon="2.88097">
        <ele>144.82</ele>
        <time>2014-09-07T06:11:13Z</time>
      </trkpt>
      <trkpt lat="43.3121" lon="2.88102">
        <ele>145.78</ele>
        <time>2014-09-07T06:11:16Z</time>
      </trkpt>
      <trkpt lat="43.31211" lon="2.88103">
        <ele>146.26</ele>
        <time>2014-09-07T06:11:17Z</time>
      </trkpt>
      <trkpt lat="43.31211" lon="2.88104">
        <ele>146.74</ele>
        <time>2014-09-07T06:11:18Z</time>
      </trkpt>
      <trkpt lat="43.31212" lon="2.88105">
        <ele>147.7</ele>
        <time>2014-09-07T06:11:19Z</time>
      </trkpt>
      <trkpt lat="43.31212" lon="2.88107">
        <ele>148.18</ele>
        <time>2014-09-07T06:11:20Z</time>
      </trkpt>
      <trkpt lat="43.31213" lon="2.88108">
        <ele>149.14</ele>
        <time>2014-09-07T06:11:21Z</time>
      </trkpt>
      <trkpt lat="43.31224" lon="2.88126">
        <ele>156.35</ele>
        <time>2014-09-07T06:11:36Z</time>
      </trkpt>
      <trkpt lat="43.31242" lon="2.88152">
        <ele>165</ele>
        <time>2014-09-07T06:11:53Z</time>
      </trkpt>
      <trkpt lat="43.31262" lon="2.88179">
        <ele>171.25</ele>
        <time>2014-09-07T06:12:08Z</time>
      </trkpt>
      <trkpt lat="43.31273" lon="2.88197">
        <ele>174.14</ele>
        <time>2014-09-07T06:12:22Z</time>
      </trkpt>
      <trkpt lat="43.31276" lon="2.88206">
        <ele>175.1</ele>
        <time>2014-09-07T06:12:27Z</time>
      </trkpt>
      <trkpt lat="43.31278" lon="2.88208">
        <ele>177.02</ele>
        <time>2014-09-07T06:12:38Z</time>
      </trkpt>
      <trkpt lat="43.31278" lon="2.88212">
        <ele>176.54</ele>
        <time>2014-09-07T06:13:03Z</time>
      </trkpt>
      <trkpt lat="43.31277" lon="2.88209">
        <ele>177.98</ele>
        <time>2014-09-07T06:13:34Z</time>
      </trkpt>
      <trkpt lat="43.31279" lon="2.8821">
        <ele>176.54</ele>
        <time>2014-09-07T06:14:05Z</time>
      </trkpt>
      <trkpt lat="43.3128" lon="2.88207">
        <ele>179.9</ele>
        <time>2014-09-07T06:14:35Z</time>
      </trkpt>
      <trkpt lat="43.31281" lon="2.88209">
        <ele>179.42</ele>
        <time>2014-09-07T06:14:48Z</time>
      </trkpt>
      <trkpt lat="43.31297" lon="2.88219">
        <ele>179.9</ele>
        <time>2014-09-07T06:14:58Z</time>
      </trkpt>
      <trkpt lat="43.31325" lon="2.88234">
        <ele>183.75</ele>
        <time>2014-09-07T06:15:12Z</time>
      </trkpt>
      <trkpt lat="43.31334" lon="2.88246">
        <ele>186.15</ele>
        <time>2014-09-07T06:15:24Z</time>
      </trkpt>
      <trkpt lat="43.31343" lon="2.8826">
        <ele>186.63</ele>
        <time>2014-09-07T06:15:39Z</time>
      </trkpt>
      <trkpt lat="43.31345" lon="2.88262">
        <ele>186.63</ele>
        <time>2014-09-07T06:15:42Z</time>
      </trkpt>
      <trkpt lat="43.3135" lon="2.88264">
        <ele>187.59</ele>
        <time>2014-09-07T06:15:48Z</time>
      </trkpt>
      <trkpt lat="43.31362" lon="2.88271">
        <ele>189.52</ele>
        <time>2014-09-07T06:16:00Z</time>
      </trkpt>
      <trkpt lat="43.31364" lon="2.88273">
        <ele>190</ele>
        <time>2014-09-07T06:16:02Z</time>
      </trkpt>
      <trkpt lat="43.31364" lon="2.88275">
        <ele>190</ele>
        <time>2014-09-07T06:16:03Z</time>
      </trkpt>
      <trkpt lat="43.31365" lon="2.88278">
        <ele>190.48</ele>
        <time>2014-09-07T06:16:04Z</time>
      </trkpt>
      <trkpt lat="43.31368" lon="2.88288">
        <ele>190.48</ele>
        <time>2014-09-07T06:16:07Z</time>
      </trkpt>
      <trkpt lat="43.3137" lon="2.8829">
        <ele>190.96</ele>
        <time>2014-09-07T06:16:08Z</time>
      </trkpt>
      <trkpt lat="43.31372" lon="2.88292">
        <ele>190.96</ele>
        <time>2014-09-07T06:16:09Z</time>
      </trkpt>
      <trkpt lat="43.31373" lon="2.88295">
        <ele>190.96</ele>
        <time>2014-09-07T06:16:10Z</time>
      </trkpt>
      <trkpt lat="43.31375" lon="2.88297">
        <ele>191.44</ele>
        <time>2014-09-07T06:16:11Z</time>
      </trkpt>
      <trkpt lat="43.31377" lon="2.88299">
        <ele>191.92</ele>
        <time>2014-09-07T06:16:12Z</time>
      </trkpt>
      <trkpt lat="43.31395" lon="2.88324">
        <ele>192.88</ele>
        <time>2014-09-07T06:16:24Z</time>
      </trkpt>
      <trkpt lat="43.31414" lon="2.88366">
        <ele>190.48</ele>
        <time>2014-09-07T06:16:34Z</time>
      </trkpt>
      <trkpt lat="43.31437" lon="2.88388">
        <ele>190</ele>
        <time>2014-09-07T06:16:44Z</time>
      </trkpt>
      <trkpt lat="43.31437" lon="2.88388">
        <ele>190</ele>
        <time>2014-09-07T06:16:45Z</time>
      </trkpt>
      <trkpt lat="43.31449" lon="2.8841">
        <ele>187.11</ele>
        <time>2014-09-07T06:16:54Z</time>
      </trkpt>
      <trkpt lat="43.31475" lon="2.88438">
        <ele>187.11</ele>
        <time>2014-09-07T06:17:04Z</time>
      </trkpt>
      <trkpt lat="43.31499" lon="2.88473">
        <ele>186.15</ele>
        <time>2014-09-07T06:17:14Z</time>
      </trkpt>
      <trkpt lat="43.31525" lon="2.88496">
        <ele>186.63</ele>
        <time>2014-09-07T06:17:25Z</time>
      </trkpt>
      <trkpt lat="43.31549" lon="2.88511">
        <ele>187.59</ele>
        <time>2014-09-07T06:17:35Z</time>
      </trkpt>
      <trkpt lat="43.31582" lon="2.88525">
        <ele>187.59</ele>
        <time>2014-09-07T06:17:48Z</time>
      </trkpt>
      <trkpt lat="43.31622" lon="2.88533">
        <ele>188.08</ele>
        <time>2014-09-07T06:18:03Z</time>
      </trkpt>
      <trkpt lat="43.31651" lon="2.88542">
        <ele>187.59</ele>
        <time>2014-09-07T06:18:11Z</time>
      </trkpt>
      <trkpt lat="43.31684" lon="2.88548">
        <ele>185.67</ele>
        <time>2014-09-07T06:18:18Z</time>
      </trkpt>
      <trkpt lat="43.31718" lon="2.88555">
        <ele>184.71</ele>
        <time>2014-09-07T06:18:28Z</time>
      </trkpt>
      <trkpt lat="43.31721" lon="2.88556">
        <ele>184.23</ele>
        <time>2014-09-07T06:18:29Z</time>
      </trkpt>
      <trkpt lat="43.31738" lon="2.88594">
        <ele>184.23</ele>
        <time>2014-09-07T06:18:39Z</time>
      </trkpt>
      <trkpt lat="43.31766" lon="2.88625">
        <ele>185.19</ele>
        <time>2014-09-07T06:18:51Z</time>
      </trkpt>
      <trkpt lat="43.31795" lon="2.88658">
        <ele>188.56</ele>
        <time>2014-09-07T06:19:05Z</time>
      </trkpt>
      <trkpt lat="43.3183" lon="2.88694">
        <ele>187.59</ele>
        <time>2014-09-07T06:19:19Z</time>
      </trkpt>
      <trkpt lat="43.31861" lon="2.88721">
        <ele>187.11</ele>
        <time>2014-09-07T06:19:31Z</time>
      </trkpt>
      <trkpt lat="43.31881" lon="2.88737">
        <ele>182.79</ele>
        <time>2014-09-07T06:19:42Z</time>
      </trkpt>
      <trkpt lat="43.31884" lon="2.88741">
        <ele>182.31</ele>
        <time>2014-09-07T06:19:43Z</time>
      </trkpt>
      <trkpt lat="43.31887" lon="2.88744">
        <ele>182.31</ele>
        <time>2014-09-07T06:19:44Z</time>
      </trkpt>
      <trkpt lat="43.31889" lon="2.88746">
        <ele>182.31</ele>
        <time>2014-09-07T06:19:45Z</time>
      </trkpt>
      <trkpt lat="43.31891" lon="2.88746">
        <ele>182.31</ele>
        <time>2014-09-07T06:19:46Z</time>
      </trkpt>
      <trkpt lat="43.31893" lon="2.88747">
        <ele>182.31</ele>
        <time>2014-09-07T06:19:47Z</time>
      </trkpt>
      <trkpt lat="43.31919" lon="2.88762">
        <ele>184.71</ele>
        <time>2014-09-07T06:20:02Z</time>
      </trkpt>
      <trkpt lat="43.31948" lon="2.8878">
        <ele>188.08</ele>
        <time>2014-09-07T06:20:17Z</time>
      </trkpt>
      <trkpt lat="43.31997" lon="2.88812">
        <ele>190.48</ele>
        <time>2014-09-07T06:20:36Z</time>
      </trkpt>
      <trkpt lat="43.32034" lon="2.88835">
        <ele>190.96</ele>
        <time>2014-09-07T06:20:47Z</time>
      </trkpt>
      <trkpt lat="43.32075" lon="2.88858">
        <ele>190.96</ele>
        <time>2014-09-07T06:21:01Z</time>
      </trkpt>
      <trkpt lat="43.32108" lon="2.88873">
        <ele>189.04</ele>
        <time>2014-09-07T06:21:14Z</time>
      </trkpt>
      <trkpt lat="43.32131" lon="2.88885">
        <ele>189.04</ele>
        <time>2014-09-07T06:21:29Z</time>
      </trkpt>
      <trkpt lat="43.32134" lon="2.88888">
        <ele>189.04</ele>
        <time>2014-09-07T06:21:42Z</time>
      </trkpt>
      <trkpt lat="43.32141" lon="2.88894">
        <ele>187.11</ele>
        <time>2014-09-07T06:22:13Z</time>
      </trkpt>
      <trkpt lat="43.32189" lon="2.88932">
        <ele>184.23</ele>
        <time>2014-09-07T06:22:27Z</time>
      </trkpt>
      <trkpt lat="43.32206" lon="2.88949">
        <ele>183.27</ele>
        <time>2014-09-07T06:22:31Z</time>
      </trkpt>
      <trkpt lat="43.32243" lon="2.88996">
        <ele>181.83</ele>
        <time>2014-09-07T06:22:40Z</time>
      </trkpt>
      <trkpt lat="43.32246" lon="2.89003">
        <ele>181.35</ele>
        <time>2014-09-07T06:22:41Z</time>
      </trkpt>
      <trkpt lat="43.32259" lon="2.89037">
        <ele>179.9</ele>
        <time>2014-09-07T06:22:45Z</time>
      </trkpt>
      <trkpt lat="43.32261" lon="2.89046">
        <ele>179.42</ele>
        <time>2014-09-07T06:22:46Z</time>
      </trkpt>
      <trkpt lat="43.32266" lon="2.89077">
        <ele>178.46</ele>
        <time>2014-09-07T06:22:49Z</time>
      </trkpt>
      <trkpt lat="43.32272" lon="2.89117">
        <ele>177.5</ele>
        <time>2014-09-07T06:22:53Z</time>
      </trkpt>
      <trkpt lat="43.3231" lon="2.89253">
        <ele>172.21</ele>
        <time>2014-09-07T06:23:06Z</time>
      </trkpt>
      <trkpt lat="43.32323" lon="2.89283">
        <ele>170.77</ele>
        <time>2014-09-07T06:23:09Z</time>
      </trkpt>
      <trkpt lat="43.32329" lon="2.89291">
        <ele>170.77</ele>
        <time>2014-09-07T06:23:10Z</time>
      </trkpt>
      <trkpt lat="43.32335" lon="2.89296">
        <ele>170.77</ele>
        <time>2014-09-07T06:23:11Z</time>
      </trkpt>
      <trkpt lat="43.3243" lon="2.89371">
        <ele>163.08</ele>
        <time>2014-09-07T06:23:24Z</time>
      </trkpt>
      <trkpt lat="43.32467" lon="2.89401">
        <ele>161.64</ele>
        <time>2014-09-07T06:23:30Z</time>
      </trkpt>
      <trkpt lat="43.32476" lon="2.89411">
        <ele>162.12</ele>
        <time>2014-09-07T06:23:32Z</time>
      </trkpt>
      <trkpt lat="43.32478" lon="2.89417">
        <ele>162.6</ele>
        <time>2014-09-07T06:23:33Z</time>
      </trkpt>
      <trkpt lat="43.3248" lon="2.89422">
        <ele>162.6</ele>
        <time>2014-09-07T06:23:34Z</time>
      </trkpt>
      <trkpt lat="43.3248" lon="2.89428">
        <ele>162.6</ele>
        <time>2014-09-07T06:23:35Z</time>
      </trkpt>
      <trkpt lat="43.3248" lon="2.89432">
        <ele>163.08</ele>
        <time>2014-09-07T06:23:36Z</time>
      </trkpt>
      <trkpt lat="43.3248" lon="2.89437">
        <ele>163.56</ele>
        <time>2014-09-07T06:23:37Z</time>
      </trkpt>
      <trkpt lat="43.3248" lon="2.89442">
        <ele>164.04</ele>
        <time>2014-09-07T06:23:38Z</time>
      </trkpt>
      <trkpt lat="43.32479" lon="2.89447">
        <ele>164.04</ele>
        <time>2014-09-07T06:23:39Z</time>
      </trkpt>
      <trkpt lat="43.32475" lon="2.89472">
        <ele>166.45</ele>
        <time>2014-09-07T06:23:45Z</time>
      </trkpt>
      <trkpt lat="43.32451" lon="2.89506">
        <ele>170.77</ele>
        <time>2014-09-07T06:23:57Z</time>
      </trkpt>
      <trkpt lat="43.32437" lon="2.8955">
        <ele>173.66</ele>
        <time>2014-09-07T06:24:11Z</time>
      </trkpt>
      <trkpt lat="43.32409" lon="2.89594">
        <ele>176.06</ele>
        <time>2014-09-07T06:24:27Z</time>
      </trkpt>
      <trkpt lat="43.32386" lon="2.89643">
        <ele>177.98</ele>
        <time>2014-09-07T06:24:40Z</time>
      </trkpt>
      <trkpt lat="43.32378" lon="2.89674">
        <ele>177.98</ele>
        <time>2014-09-07T06:24:46Z</time>
      </trkpt>
      <trkpt lat="43.32376" lon="2.89692">
        <ele>177.98</ele>
        <time>2014-09-07T06:24:49Z</time>
      </trkpt>
      <trkpt lat="43.32376" lon="2.89698">
        <ele>177.5</ele>
        <time>2014-09-07T06:24:50Z</time>
      </trkpt>
      <trkpt lat="43.32378" lon="2.89716">
        <ele>177.5</ele>
        <time>2014-09-07T06:24:53Z</time>
      </trkpt>
      <trkpt lat="43.32379" lon="2.89722">
        <ele>177.5</ele>
        <time>2014-09-07T06:24:54Z</time>
      </trkpt>
      <trkpt lat="43.32379" lon="2.89728">
        <ele>177.02</ele>
        <time>2014-09-07T06:24:55Z</time>
      </trkpt>
      <trkpt lat="43.32379" lon="2.89734">
        <ele>177.02</ele>
        <time>2014-09-07T06:24:56Z</time>
      </trkpt>
      <trkpt lat="43.32378" lon="2.89741">
        <ele>177.02</ele>
        <time>2014-09-07T06:24:57Z</time>
      </trkpt>
      <trkpt lat="43.32379" lon="2.89747">
        <ele>176.54</ele>
        <time>2014-09-07T06:24:58Z</time>
      </trkpt>
      <trkpt lat="43.3238" lon="2.89752">
        <ele>176.54</ele>
        <time>2014-09-07T06:24:59Z</time>
      </trkpt>
      <trkpt lat="43.32382" lon="2.89758">
        <ele>177.02</ele>
        <time>2014-09-07T06:25:00Z</time>
      </trkpt>
      <trkpt lat="43.32397" lon="2.89826">
        <ele>175.58</ele>
        <time>2014-09-07T06:25:10Z</time>
      </trkpt>
      <trkpt lat="43.32399" lon="2.89833">
        <ele>175.1</ele>
        <time>2014-09-07T06:25:11Z</time>
      </trkpt>
      <trkpt lat="43.32402" lon="2.89849">
        <ele>174.62</ele>
        <time>2014-09-07T06:25:13Z</time>
      </trkpt>
      <trkpt lat="43.32411" lon="2.89898">
        <ele>173.66</ele>
        <time>2014-09-07T06:25:19Z</time>
      </trkpt>
      <trkpt lat="43.32412" lon="2.89923">
        <ele>172.69</ele>
        <time>2014-09-07T06:25:22Z</time>
      </trkpt>
      <trkpt lat="43.32414" lon="2.89931">
        <ele>172.69</ele>
        <time>2014-09-07T06:25:23Z</time>
      </trkpt>
      <trkpt lat="43.32416" lon="2.89939">
        <ele>172.21</ele>
        <time>2014-09-07T06:25:24Z</time>
      </trkpt>
      <trkpt lat="43.32422" lon="2.89961">
        <ele>172.21</ele>
        <time>2014-09-07T06:25:27Z</time>
      </trkpt>
      <trkpt lat="43.32424" lon="2.89969">
        <ele>172.21</ele>
        <time>2014-09-07T06:25:28Z</time>
      </trkpt>
      <trkpt lat="43.32429" lon="2.89983">
        <ele>172.21</ele>
        <time>2014-09-07T06:25:30Z</time>
      </trkpt>
      <trkpt lat="43.32431" lon="2.8999">
        <ele>172.21</ele>
        <time>2014-09-07T06:25:31Z</time>
      </trkpt>
      <trkpt lat="43.32432" lon="2.89997">
        <ele>172.69</ele>
        <time>2014-09-07T06:25:32Z</time>
      </trkpt>
      <trkpt lat="43.32441" lon="2.90034">
        <ele>172.69</ele>
        <time>2014-09-07T06:25:37Z</time>
      </trkpt>
      <trkpt lat="43.32444" lon="2.9004">
        <ele>173.17</ele>
        <time>2014-09-07T06:25:38Z</time>
      </trkpt>
      <trkpt lat="43.32446" lon="2.90046">
        <ele>172.69</ele>
        <time>2014-09-07T06:25:39Z</time>
      </trkpt>
      <trkpt lat="43.32448" lon="2.90052">
        <ele>172.69</ele>
        <time>2014-09-07T06:25:40Z</time>
      </trkpt>
      <trkpt lat="43.32451" lon="2.90058">
        <ele>172.69</ele>
        <time>2014-09-07T06:25:41Z</time>
      </trkpt>
      <trkpt lat="43.32454" lon="2.90073">
        <ele>172.69</ele>
        <time>2014-09-07T06:25:44Z</time>
      </trkpt>
      <trkpt lat="43.32456" lon="2.90075">
        <ele>172.69</ele>
        <time>2014-09-07T06:25:45Z</time>
      </trkpt>
      <trkpt lat="43.32458" lon="2.90077">
        <ele>172.69</ele>
        <time>2014-09-07T06:25:46Z</time>
      </trkpt>
      <trkpt lat="43.3246" lon="2.90078">
        <ele>172.69</ele>
        <time>2014-09-07T06:25:47Z</time>
      </trkpt>
      <trkpt lat="43.32461" lon="2.90079">
        <ele>172.69</ele>
        <time>2014-09-07T06:25:48Z</time>
      </trkpt>
      <trkpt lat="43.32463" lon="2.9008">
        <ele>173.17</ele>
        <time>2014-09-07T06:25:49Z</time>
      </trkpt>
      <trkpt lat="43.32465" lon="2.90079">
        <ele>173.66</ele>
        <time>2014-09-07T06:25:51Z</time>
      </trkpt>
      <trkpt lat="43.32467" lon="2.90081">
        <ele>174.62</ele>
        <time>2014-09-07T06:25:54Z</time>
      </trkpt>
      <trkpt lat="43.32466" lon="2.90082">
        <ele>175.1</ele>
        <time>2014-09-07T06:25:55Z</time>
      </trkpt>
      <trkpt lat="43.32465" lon="2.90084">
        <ele>175.1</ele>
        <time>2014-09-07T06:25:56Z</time>
      </trkpt>
      <trkpt lat="43.32465" lon="2.90086">
        <ele>175.1</ele>
        <time>2014-09-07T06:25:57Z</time>
      </trkpt>
      <trkpt lat="43.32465" lon="2.90088">
        <ele>175.1</ele>
        <time>2014-09-07T06:25:58Z</time>
      </trkpt>
      <trkpt lat="43.32466" lon="2.9009">
        <ele>175.1</ele>
        <time>2014-09-07T06:25:59Z</time>
      </trkpt>
      <trkpt lat="43.32469" lon="2.90094">
        <ele>176.06</ele>
        <time>2014-09-07T06:26:03Z</time>
      </trkpt>
      <trkpt lat="43.32469" lon="2.90096">
        <ele>175.58</ele>
        <time>2014-09-07T06:26:04Z</time>
      </trkpt>
      <trkpt lat="43.32468" lon="2.90099">
        <ele>176.06</ele>
        <time>2014-09-07T06:26:05Z</time>
      </trkpt>
      <trkpt lat="43.32468" lon="2.90101">
        <ele>176.06</ele>
        <time>2014-09-07T06:26:06Z</time>
      </trkpt>
      <trkpt lat="43.32468" lon="2.90104">
        <ele>176.54</ele>
        <time>2014-09-07T06:26:07Z</time>
      </trkpt>
      <trkpt lat="43.32468" lon="2.90106">
        <ele>176.54</ele>
        <time>2014-09-07T06:26:08Z</time>
      </trkpt>
      <trkpt lat="43.32469" lon="2.90108">
        <ele>176.54</ele>
        <time>2014-09-07T06:26:09Z</time>
      </trkpt>
      <trkpt lat="43.32469" lon="2.90111">
        <ele>176.54</ele>
        <time>2014-09-07T06:26:10Z</time>
      </trkpt>
      <trkpt lat="43.32472" lon="2.90114">
        <ele>177.02</ele>
        <time>2014-09-07T06:26:13Z</time>
      </trkpt>
      <trkpt lat="43.32478" lon="2.90122">
        <ele>175.58</ele>
        <time>2014-09-07T06:26:25Z</time>
      </trkpt>
      <trkpt lat="43.32479" lon="2.90123">
        <ele>175.1</ele>
        <time>2014-09-07T06:26:31Z</time>
      </trkpt>
      <trkpt lat="43.32481" lon="2.90123">
        <ele>174.62</ele>
        <time>2014-09-07T06:26:33Z</time>
      </trkpt>
      <trkpt lat="43.32489" lon="2.90125">
        <ele>174.62</ele>
        <time>2014-09-07T06:26:38Z</time>
      </trkpt>
      <trkpt lat="43.32499" lon="2.90131">
        <ele>173.17</ele>
        <time>2014-09-07T06:26:46Z</time>
      </trkpt>
      <trkpt lat="43.32528" lon="2.90103">
        <ele>167.89</ele>
        <time>2014-09-07T06:26:58Z</time>
      </trkpt>
      <trkpt lat="43.32558" lon="2.90075">
        <ele>163.56</ele>
        <time>2014-09-07T06:27:09Z</time>
      </trkpt>
      <trkpt lat="43.3256" lon="2.90072">
        <ele>163.56</ele>
        <time>2014-09-07T06:27:11Z</time>
      </trkpt>
      <trkpt lat="43.32566" lon="2.90071">
        <ele>162.12</ele>
        <time>2014-09-07T06:27:15Z</time>
      </trkpt>
      <trkpt lat="43.32568" lon="2.90065">
        <ele>161.16</ele>
        <time>2014-09-07T06:27:18Z</time>
      </trkpt>
      <trkpt lat="43.32569" lon="2.90062">
        <ele>161.16</ele>
        <time>2014-09-07T06:27:19Z</time>
      </trkpt>
      <trkpt lat="43.32571" lon="2.90059">
        <ele>160.68</ele>
        <time>2014-09-07T06:27:20Z</time>
      </trkpt>
      <trkpt lat="43.32572" lon="2.90055">
        <ele>160.68</ele>
        <time>2014-09-07T06:27:21Z</time>
      </trkpt>
      <trkpt lat="43.32574" lon="2.90052">
        <ele>160.68</ele>
        <time>2014-09-07T06:27:22Z</time>
      </trkpt>
      <trkpt lat="43.3259" lon="2.90025">
        <ele>161.16</ele>
        <time>2014-09-07T06:27:32Z</time>
      </trkpt>
      <trkpt lat="43.32591" lon="2.90022">
        <ele>161.16</ele>
        <time>2014-09-07T06:27:33Z</time>
      </trkpt>
      <trkpt lat="43.32591" lon="2.9002">
        <ele>161.64</ele>
        <time>2014-09-07T06:27:34Z</time>
      </trkpt>
      <trkpt lat="43.32593" lon="2.90019">
        <ele>162.6</ele>
        <time>2014-09-07T06:27:47Z</time>
      </trkpt>
      <trkpt lat="43.32596" lon="2.90017">
        <ele>165</ele>
        <time>2014-09-07T06:28:15Z</time>
      </trkpt>
      <trkpt lat="43.32597" lon="2.90014">
        <ele>164.52</ele>
        <time>2014-09-07T06:28:18Z</time>
      </trkpt>
      <trkpt lat="43.32598" lon="2.90012">
        <ele>165</ele>
        <time>2014-09-07T06:28:19Z</time>
      </trkpt>
      <trkpt lat="43.32598" lon="2.9001">
        <ele>165</ele>
        <time>2014-09-07T06:28:20Z</time>
      </trkpt>
      <trkpt lat="43.32599" lon="2.90009">
        <ele>165.48</ele>
        <time>2014-09-07T06:28:21Z</time>
      </trkpt>
      <trkpt lat="43.32601" lon="2.90007">
        <ele>165.48</ele>
        <time>2014-09-07T06:28:22Z</time>
      </trkpt>
      <trkpt lat="43.32602" lon="2.90004">
        <ele>165.48</ele>
        <time>2014-09-07T06:28:23Z</time>
      </trkpt>
      <trkpt lat="43.32603" lon="2.90001">
        <ele>165.96</ele>
        <time>2014-09-07T06:28:24Z</time>
      </trkpt>
      <trkpt lat="43.32604" lon="2.89999">
        <ele>165.96</ele>
        <time>2014-09-07T06:28:25Z</time>
      </trkpt>
      <trkpt lat="43.32604" lon="2.89997">
        <ele>166.45</ele>
        <time>2014-09-07T06:28:26Z</time>
      </trkpt>
      <trkpt lat="43.32604" lon="2.89995">
        <ele>165.96</ele>
        <time>2014-09-07T06:28:27Z</time>
      </trkpt>
      <trkpt lat="43.32604" lon="2.89993">
        <ele>165.96</ele>
        <time>2014-09-07T06:28:28Z</time>
      </trkpt>
      <trkpt lat="43.32604" lon="2.89991">
        <ele>165.96</ele>
        <time>2014-09-07T06:28:29Z</time>
      </trkpt>
      <trkpt lat="43.32606" lon="2.89989">
        <ele>165.96</ele>
        <time>2014-09-07T06:28:30Z</time>
      </trkpt>
      <trkpt lat="43.32608" lon="2.89987">
        <ele>165.96</ele>
        <time>2014-09-07T06:28:31Z</time>
      </trkpt>
      <trkpt lat="43.3261" lon="2.89984">
        <ele>165.96</ele>
        <time>2014-09-07T06:28:32Z</time>
      </trkpt>
      <trkpt lat="43.32612" lon="2.89981">
        <ele>165.96</ele>
        <time>2014-09-07T06:28:33Z</time>
      </trkpt>
      <trkpt lat="43.32613" lon="2.89978">
        <ele>166.45</ele>
        <time>2014-09-07T06:28:34Z</time>
      </trkpt>
      <trkpt lat="43.32614" lon="2.89975">
        <ele>166.45</ele>
        <time>2014-09-07T06:28:35Z</time>
      </trkpt>
      <trkpt lat="43.32615" lon="2.89973">
        <ele>166.45</ele>
        <time>2014-09-07T06:28:36Z</time>
      </trkpt>
      <trkpt lat="43.32615" lon="2.89971">
        <ele>166.45</ele>
        <time>2014-09-07T06:28:37Z</time>
      </trkpt>
      <trkpt lat="43.32617" lon="2.89969">
        <ele>166.45</ele>
        <time>2014-09-07T06:28:38Z</time>
      </trkpt>
      <trkpt lat="43.32618" lon="2.89966">
        <ele>166.45</ele>
        <time>2014-09-07T06:28:39Z</time>
      </trkpt>
      <trkpt lat="43.32619" lon="2.89963">
        <ele>166.93</ele>
        <time>2014-09-07T06:28:40Z</time>
      </trkpt>
      <trkpt lat="43.32622" lon="2.89954">
        <ele>167.41</ele>
        <time>2014-09-07T06:28:44Z</time>
      </trkpt>
      <trkpt lat="43.32623" lon="2.89952">
        <ele>167.89</ele>
        <time>2014-09-07T06:28:45Z</time>
      </trkpt>
      <trkpt lat="43.32625" lon="2.89951">
        <ele>167.89</ele>
        <time>2014-09-07T06:28:46Z</time>
      </trkpt>
      <trkpt lat="43.32626" lon="2.89949">
        <ele>168.37</ele>
        <time>2014-09-07T06:28:47Z</time>
      </trkpt>
      <trkpt lat="43.32627" lon="2.89947">
        <ele>168.37</ele>
        <time>2014-09-07T06:28:48Z</time>
      </trkpt>
      <trkpt lat="43.32629" lon="2.89945">
        <ele>168.37</ele>
        <time>2014-09-07T06:28:49Z</time>
      </trkpt>
      <trkpt lat="43.3263" lon="2.89943">
        <ele>168.37</ele>
        <time>2014-09-07T06:28:50Z</time>
      </trkpt>
      <trkpt lat="43.32631" lon="2.8994">
        <ele>168.85</ele>
        <time>2014-09-07T06:28:51Z</time>
      </trkpt>
      <trkpt lat="43.32633" lon="2.89938">
        <ele>168.85</ele>
        <time>2014-09-07T06:28:52Z</time>
      </trkpt>
      <trkpt lat="43.32634" lon="2.89936">
        <ele>169.33</ele>
        <time>2014-09-07T06:28:53Z</time>
      </trkpt>
      <trkpt lat="43.32637" lon="2.89934">
        <ele>169.33</ele>
        <time>2014-09-07T06:28:54Z</time>
      </trkpt>
      <trkpt lat="43.32641" lon="2.89933">
        <ele>169.33</ele>
        <time>2014-09-07T06:28:55Z</time>
      </trkpt>
      <trkpt lat="43.32645" lon="2.89931">
        <ele>169.33</ele>
        <time>2014-09-07T06:28:56Z</time>
      </trkpt>
      <trkpt lat="43.32647" lon="2.89929">
        <ele>169.33</ele>
        <time>2014-09-07T06:28:57Z</time>
      </trkpt>
      <trkpt lat="43.32648" lon="2.89926">
        <ele>169.33</ele>
        <time>2014-09-07T06:28:58Z</time>
      </trkpt>
      <trkpt lat="43.3265" lon="2.89925">
        <ele>169.33</ele>
        <time>2014-09-07T06:28:59Z</time>
      </trkpt>
      <trkpt lat="43.32674" lon="2.89889">
        <ele>168.37</ele>
        <time>2014-09-07T06:29:16Z</time>
      </trkpt>
      <trkpt lat="43.32683" lon="2.89876">
        <ele>165.48</ele>
        <time>2014-09-07T06:29:29Z</time>
      </trkpt>
      <trkpt lat="43.32684" lon="2.89878">
        <ele>165</ele>
        <time>2014-09-07T06:29:48Z</time>
      </trkpt>
      <trkpt lat="43.32684" lon="2.89875">
        <ele>165.96</ele>
        <time>2014-09-07T06:30:12Z</time>
      </trkpt>
      <trkpt lat="43.32685" lon="2.89875">
        <ele>164.04</ele>
        <time>2014-09-07T06:30:37Z</time>
      </trkpt>
      <trkpt lat="43.32683" lon="2.89874">
        <ele>167.41</ele>
        <time>2014-09-07T06:31:03Z</time>
      </trkpt>
      <trkpt lat="43.3268" lon="2.89873">
        <ele>165.48</ele>
        <time>2014-09-07T06:31:29Z</time>
      </trkpt>
      <trkpt lat="43.32682" lon="2.8987">
        <ele>165</ele>
        <time>2014-09-07T06:31:47Z</time>
      </trkpt>
      <trkpt lat="43.32682" lon="2.89867">
        <ele>165.48</ele>
        <time>2014-09-07T06:31:48Z</time>
      </trkpt>
      <trkpt lat="43.32683" lon="2.89865">
        <ele>165.48</ele>
        <time>2014-09-07T06:31:49Z</time>
      </trkpt>
      <trkpt lat="43.32684" lon="2.89861">
        <ele>165.48</ele>
        <time>2014-09-07T06:31:50Z</time>
      </trkpt>
      <trkpt lat="43.32685" lon="2.89857">
        <ele>165</ele>
        <time>2014-09-07T06:31:51Z</time>
      </trkpt>
      <trkpt lat="43.32687" lon="2.89852">
        <ele>165</ele>
        <time>2014-09-07T06:31:52Z</time>
      </trkpt>
      <trkpt lat="43.327" lon="2.89797">
        <ele>160.68</ele>
        <time>2014-09-07T06:31:59Z</time>
      </trkpt>
      <trkpt lat="43.32704" lon="2.89787">
        <ele>160.2</ele>
        <time>2014-09-07T06:32:00Z</time>
      </trkpt>
      <trkpt lat="43.32709" lon="2.89778">
        <ele>159.72</ele>
        <time>2014-09-07T06:32:01Z</time>
      </trkpt>
      <trkpt lat="43.32715" lon="2.89769">
        <ele>158.75</ele>
        <time>2014-09-07T06:32:02Z</time>
      </trkpt>
      <trkpt lat="43.3272" lon="2.89761">
        <ele>158.27</ele>
        <time>2014-09-07T06:32:03Z</time>
      </trkpt>
      <trkpt lat="43.32741" lon="2.89731">
        <ele>157.79</ele>
        <time>2014-09-07T06:32:07Z</time>
      </trkpt>
      <trkpt lat="43.32744" lon="2.89724">
        <ele>157.79</ele>
        <time>2014-09-07T06:32:08Z</time>
      </trkpt>
      <trkpt lat="43.32746" lon="2.89717">
        <ele>157.79</ele>
        <time>2014-09-07T06:32:09Z</time>
      </trkpt>
      <trkpt lat="43.32748" lon="2.89711">
        <ele>158.27</ele>
        <time>2014-09-07T06:32:10Z</time>
      </trkpt>
      <trkpt lat="43.32748" lon="2.89706">
        <ele>158.27</ele>
        <time>2014-09-07T06:32:11Z</time>
      </trkpt>
      <trkpt lat="43.32748" lon="2.89701">
        <ele>158.75</ele>
        <time>2014-09-07T06:32:12Z</time>
      </trkpt>
      <trkpt lat="43.32751" lon="2.89685">
        <ele>159.24</ele>
        <time>2014-09-07T06:32:16Z</time>
      </trkpt>
      <trkpt lat="43.32753" lon="2.89683">
        <ele>159.24</ele>
        <time>2014-09-07T06:32:17Z</time>
      </trkpt>
      <trkpt lat="43.32755" lon="2.89682">
        <ele>159.72</ele>
        <time>2014-09-07T06:32:18Z</time>
      </trkpt>
      <trkpt lat="43.32757" lon="2.89682">
        <ele>160.2</ele>
        <time>2014-09-07T06:32:19Z</time>
      </trkpt>
      <trkpt lat="43.32759" lon="2.89683">
        <ele>160.68</ele>
        <time>2014-09-07T06:32:20Z</time>
      </trkpt>
      <trkpt lat="43.3276" lon="2.89684">
        <ele>160.68</ele>
        <time>2014-09-07T06:32:21Z</time>
      </trkpt>
      <trkpt lat="43.32761" lon="2.89684">
        <ele>161.16</ele>
        <time>2014-09-07T06:32:22Z</time>
      </trkpt>
      <trkpt lat="43.32764" lon="2.89686">
        <ele>163.56</ele>
        <time>2014-09-07T06:32:35Z</time>
      </trkpt>
      <trkpt lat="43.32772" lon="2.89691">
        <ele>164.04</ele>
        <time>2014-09-07T06:32:42Z</time>
      </trkpt>
      <trkpt lat="43.32773" lon="2.89691">
        <ele>164.04</ele>
        <time>2014-09-07T06:32:43Z</time>
      </trkpt>
      <trkpt lat="43.32775" lon="2.8969">
        <ele>164.04</ele>
        <time>2014-09-07T06:32:44Z</time>
      </trkpt>
      <trkpt lat="43.32777" lon="2.89684">
        <ele>163.08</ele>
        <time>2014-09-07T06:32:47Z</time>
      </trkpt>
      <trkpt lat="43.32779" lon="2.89682">
        <ele>161.16</ele>
        <time>2014-09-07T06:33:03Z</time>
      </trkpt>
      <trkpt lat="43.32784" lon="2.89664">
        <ele>159.72</ele>
        <time>2014-09-07T06:33:22Z</time>
      </trkpt>
      <trkpt lat="43.32783" lon="2.8966">
        <ele>158.27</ele>
        <time>2014-09-07T06:33:24Z</time>
      </trkpt>
      <trkpt lat="43.3278" lon="2.89658">
        <ele>155.87</ele>
        <time>2014-09-07T06:33:36Z</time>
      </trkpt>
      <trkpt lat="43.3278" lon="2.89657">
        <ele>154.91</ele>
        <time>2014-09-07T06:33:43Z</time>
      </trkpt>
      <trkpt lat="43.32779" lon="2.89654">
        <ele>154.43</ele>
        <time>2014-09-07T06:33:45Z</time>
      </trkpt>
      <trkpt lat="43.32786" lon="2.89646">
        <ele>151.54</ele>
        <time>2014-09-07T06:33:53Z</time>
      </trkpt>
      <trkpt lat="43.3281" lon="2.89629">
        <ele>145.78</ele>
        <time>2014-09-07T06:34:02Z</time>
      </trkpt>
      <trkpt lat="43.32814" lon="2.89625">
        <ele>145.3</ele>
        <time>2014-09-07T06:34:03Z</time>
      </trkpt>
      <trkpt lat="43.32817" lon="2.89621">
        <ele>144.82</ele>
        <time>2014-09-07T06:34:04Z</time>
      </trkpt>
      <trkpt lat="43.32824" lon="2.89601">
        <ele>142.89</ele>
        <time>2014-09-07T06:34:08Z</time>
      </trkpt>
      <trkpt lat="43.32825" lon="2.8959">
        <ele>141.45</ele>
        <time>2014-09-07T06:34:10Z</time>
      </trkpt>
      <trkpt lat="43.32814" lon="2.89554">
        <ele>137.13</ele>
        <time>2014-09-07T06:34:18Z</time>
      </trkpt>
      <trkpt lat="43.32815" lon="2.89546">
        <ele>136.16</ele>
        <time>2014-09-07T06:34:20Z</time>
      </trkpt>
      <trkpt lat="43.32808" lon="2.89508">
        <ele>132.32</ele>
        <time>2014-09-07T06:34:29Z</time>
      </trkpt>
      <trkpt lat="43.3281" lon="2.89485">
        <ele>132.8</ele>
        <time>2014-09-07T06:34:33Z</time>
      </trkpt>
      <trkpt lat="43.3281" lon="2.89451">
        <ele>133.28</ele>
        <time>2014-09-07T06:34:39Z</time>
      </trkpt>
      <trkpt lat="43.32807" lon="2.8942">
        <ele>133.28</ele>
        <time>2014-09-07T06:34:44Z</time>
      </trkpt>
      <trkpt lat="43.32808" lon="2.89387">
        <ele>132.32</ele>
        <time>2014-09-07T06:34:50Z</time>
      </trkpt>
      <trkpt lat="43.32805" lon="2.89353">
        <ele>130.4</ele>
        <time>2014-09-07T06:34:55Z</time>
      </trkpt>
      <trkpt lat="43.32804" lon="2.89316">
        <ele>127.03</ele>
        <time>2014-09-07T06:35:02Z</time>
      </trkpt>
      <trkpt lat="43.32813" lon="2.89293">
        <ele>123.19</ele>
        <time>2014-09-07T06:35:07Z</time>
      </trkpt>
      <trkpt lat="43.32812" lon="2.89249">
        <ele>117.9</ele>
        <time>2014-09-07T06:35:15Z</time>
      </trkpt>
      <trkpt lat="43.32825" lon="2.89226">
        <ele>114.53</ele>
        <time>2014-09-07T06:35:20Z</time>
      </trkpt>
      <trkpt lat="43.32827" lon="2.89207">
        <ele>112.61</ele>
        <time>2014-09-07T06:35:24Z</time>
      </trkpt>
      <trkpt lat="43.3283" lon="2.89179">
        <ele>106.36</ele>
        <time>2014-09-07T06:35:31Z</time>
      </trkpt>
      <trkpt lat="43.32835" lon="2.8917">
        <ele>102.52</ele>
        <time>2014-09-07T06:35:35Z</time>
      </trkpt>
      <trkpt lat="43.32842" lon="2.89152">
        <ele>97.71</ele>
        <time>2014-09-07T06:35:42Z</time>
      </trkpt>
      <trkpt lat="43.32843" lon="2.89118">
        <ele>93.87</ele>
        <time>2014-09-07T06:35:47Z</time>
      </trkpt>
      <trkpt lat="43.3286" lon="2.89088">
        <ele>90.98</ele>
        <time>2014-09-07T06:35:54Z</time>
      </trkpt>
      <trkpt lat="43.32872" lon="2.89052">
        <ele>88.58</ele>
        <time>2014-09-07T06:36:01Z</time>
      </trkpt>
      <trkpt lat="43.32889" lon="2.89031">
        <ele>90.5</ele>
        <time>2014-09-07T06:36:09Z</time>
      </trkpt>
      <trkpt lat="43.32887" lon="2.89028">
        <ele>96.27</ele>
        <time>2014-09-07T06:36:27Z</time>
      </trkpt>
      <trkpt lat="43.32888" lon="2.89028">
        <ele>98.19</ele>
        <time>2014-09-07T06:36:34Z</time>
      </trkpt>
      <trkpt lat="43.32896" lon="2.89032">
        <ele>96.75</ele>
        <time>2014-09-07T06:36:38Z</time>
      </trkpt>
      <trkpt lat="43.32909" lon="2.8905">
        <ele>94.83</ele>
        <time>2014-09-07T06:36:43Z</time>
      </trkpt>
      <trkpt lat="43.3292" lon="2.89046">
        <ele>93.87</ele>
        <time>2014-09-07T06:36:46Z</time>
      </trkpt>
      <trkpt lat="43.32946" lon="2.89032">
        <ele>92.9</ele>
        <time>2014-09-07T06:36:51Z</time>
      </trkpt>
      <trkpt lat="43.32968" lon="2.89017">
        <ele>94.83</ele>
        <time>2014-09-07T06:37:00Z</time>
      </trkpt>
      <trkpt lat="43.32971" lon="2.89027">
        <ele>96.27</ele>
        <time>2014-09-07T06:37:07Z</time>
      </trkpt>
      <trkpt lat="43.32961" lon="2.89066">
        <ele>97.71</ele>
        <time>2014-09-07T06:37:17Z</time>
      </trkpt>
      <trkpt lat="43.32957" lon="2.89075">
        <ele>98.19</ele>
        <time>2014-09-07T06:37:19Z</time>
      </trkpt>
      <trkpt lat="43.32953" lon="2.89086">
        <ele>98.67</ele>
        <time>2014-09-07T06:37:21Z</time>
      </trkpt>
      <trkpt lat="43.32951" lon="2.89091">
        <ele>98.67</ele>
        <time>2014-09-07T06:37:22Z</time>
      </trkpt>
      <trkpt lat="43.32948" lon="2.89097">
        <ele>99.15</ele>
        <time>2014-09-07T06:37:23Z</time>
      </trkpt>
      <trkpt lat="43.32947" lon="2.89102">
        <ele>99.15</ele>
        <time>2014-09-07T06:37:24Z</time>
      </trkpt>
      <trkpt lat="43.32946" lon="2.89108">
        <ele>99.63</ele>
        <time>2014-09-07T06:37:25Z</time>
      </trkpt>
      <trkpt lat="43.32946" lon="2.89113">
        <ele>99.63</ele>
        <time>2014-09-07T06:37:26Z</time>
      </trkpt>
      <trkpt lat="43.32946" lon="2.89118">
        <ele>99.63</ele>
        <time>2014-09-07T06:37:27Z</time>
      </trkpt>
      <trkpt lat="43.32947" lon="2.89123">
        <ele>99.63</ele>
        <time>2014-09-07T06:37:28Z</time>
      </trkpt>
      <trkpt lat="43.3295" lon="2.89132">
        <ele>99.15</ele>
        <time>2014-09-07T06:37:30Z</time>
      </trkpt>
      <trkpt lat="43.32952" lon="2.89149">
        <ele>99.15</ele>
        <time>2014-09-07T06:37:33Z</time>
      </trkpt>
      <trkpt lat="43.32945" lon="2.89157">
        <ele>99.15</ele>
        <time>2014-09-07T06:37:36Z</time>
      </trkpt>
      <trkpt lat="43.32927" lon="2.89169">
        <ele>100.11</ele>
        <time>2014-09-07T06:37:44Z</time>
      </trkpt>
      <trkpt lat="43.32932" lon="2.89208">
        <ele>103.48</ele>
        <time>2014-09-07T06:37:55Z</time>
      </trkpt>
      <trkpt lat="43.32933" lon="2.89212">
        <ele>103.96</ele>
        <time>2014-09-07T06:37:57Z</time>
      </trkpt>
      <trkpt lat="43.32931" lon="2.89216">
        <ele>104.44</ele>
        <time>2014-09-07T06:38:00Z</time>
      </trkpt>
      <trkpt lat="43.32922" lon="2.89232">
        <ele>103.96</ele>
        <time>2014-09-07T06:38:09Z</time>
      </trkpt>
      <trkpt lat="43.32924" lon="2.89246">
        <ele>103.96</ele>
        <time>2014-09-07T06:38:14Z</time>
      </trkpt>
      <trkpt lat="43.32921" lon="2.89254">
        <ele>104.44</ele>
        <time>2014-09-07T06:38:18Z</time>
      </trkpt>
      <trkpt lat="43.32924" lon="2.89272">
        <ele>104.92</ele>
        <time>2014-09-07T06:38:23Z</time>
      </trkpt>
      <trkpt lat="43.32931" lon="2.89308">
        <ele>105.88</ele>
        <time>2014-09-07T06:38:32Z</time>
      </trkpt>
      <trkpt lat="43.32945" lon="2.89315">
        <ele>104.92</ele>
        <time>2014-09-07T06:38:36Z</time>
      </trkpt>
      <trkpt lat="43.32961" lon="2.89343">
        <ele>102.04</ele>
        <time>2014-09-07T06:38:43Z</time>
      </trkpt>
      <trkpt lat="43.32965" lon="2.8935">
        <ele>101.56</ele>
        <time>2014-09-07T06:38:45Z</time>
      </trkpt>
      <trkpt lat="43.32979" lon="2.89381">
        <ele>103.48</ele>
        <time>2014-09-07T06:38:55Z</time>
      </trkpt>
      <trkpt lat="43.32982" lon="2.89389">
        <ele>103.96</ele>
        <time>2014-09-07T06:38:57Z</time>
      </trkpt>
      <trkpt lat="43.32984" lon="2.8942">
        <ele>106.84</ele>
        <time>2014-09-07T06:39:06Z</time>
      </trkpt>
      <trkpt lat="43.32983" lon="2.89433">
        <ele>108.77</ele>
        <time>2014-09-07T06:39:10Z</time>
      </trkpt>
      <trkpt lat="43.32995" lon="2.89461">
        <ele>114.53</ele>
        <time>2014-09-07T06:39:22Z</time>
      </trkpt>
      <trkpt lat="43.32997" lon="2.89483">
        <ele>116.46</ele>
        <time>2014-09-07T06:39:28Z</time>
      </trkpt>
      <trkpt lat="43.32995" lon="2.895">
        <ele>116.94</ele>
        <time>2014-09-07T06:39:33Z</time>
      </trkpt>
      <trkpt lat="43.32999" lon="2.89507">
        <ele>116.94</ele>
        <time>2014-09-07T06:39:36Z</time>
      </trkpt>
      <trkpt lat="43.33001" lon="2.89507">
        <ele>117.42</ele>
        <time>2014-09-07T06:39:37Z</time>
      </trkpt>
      <trkpt lat="43.33003" lon="2.89508">
        <ele>117.42</ele>
        <time>2014-09-07T06:39:38Z</time>
      </trkpt>
      <trkpt lat="43.33005" lon="2.89508">
        <ele>118.38</ele>
        <time>2014-09-07T06:39:39Z</time>
      </trkpt>
      <trkpt lat="43.33024" lon="2.89506">
        <ele>123.67</ele>
        <time>2014-09-07T06:39:51Z</time>
      </trkpt>
      <trkpt lat="43.33023" lon="2.89508">
        <ele>128.47</ele>
        <time>2014-09-07T06:40:15Z</time>
      </trkpt>
      <trkpt lat="43.33024" lon="2.89504">
        <ele>127.51</ele>
        <time>2014-09-07T06:40:42Z</time>
      </trkpt>
      <trkpt lat="43.33029" lon="2.89503">
        <ele>127.99</ele>
        <time>2014-09-07T06:41:20Z</time>
      </trkpt>
      <trkpt lat="43.3303" lon="2.89503">
        <ele>126.55</ele>
        <time>2014-09-07T06:41:47Z</time>
      </trkpt>
      <trkpt lat="43.33028" lon="2.89504">
        <ele>124.63</ele>
        <time>2014-09-07T06:42:11Z</time>
      </trkpt>
      <trkpt lat="43.33027" lon="2.89504">
        <ele>124.15</ele>
        <time>2014-09-07T06:42:35Z</time>
      </trkpt>
      <trkpt lat="43.33028" lon="2.89503">
        <ele>126.55</ele>
        <time>2014-09-07T06:43:00Z</time>
      </trkpt>
      <trkpt lat="43.33024" lon="2.89506">
        <ele>132.8</ele>
        <time>2014-09-07T06:43:33Z</time>
      </trkpt>
      <trkpt lat="43.33027" lon="2.89505">
        <ele>127.99</ele>
        <time>2014-09-07T06:43:58Z</time>
      </trkpt>
      <trkpt lat="43.3303" lon="2.89508">
        <ele>124.15</ele>
        <time>2014-09-07T06:44:26Z</time>
      </trkpt>
      <trkpt lat="43.33026" lon="2.89501">
        <ele>123.67</ele>
        <time>2014-09-07T06:44:57Z</time>
      </trkpt>
      <trkpt lat="43.33024" lon="2.89506">
        <ele>124.15</ele>
        <time>2014-09-07T06:45:22Z</time>
      </trkpt>
      <trkpt lat="43.33026" lon="2.8951">
        <ele>125.59</ele>
        <time>2014-09-07T06:45:39Z</time>
      </trkpt>
      <trkpt lat="43.3303" lon="2.89517">
        <ele>125.59</ele>
        <time>2014-09-07T06:45:43Z</time>
      </trkpt>
      <trkpt lat="43.33032" lon="2.89524">
        <ele>126.55</ele>
        <time>2014-09-07T06:45:46Z</time>
      </trkpt>
      <trkpt lat="43.33029" lon="2.8954">
        <ele>127.51</ele>
        <time>2014-09-07T06:45:51Z</time>
      </trkpt>
      <trkpt lat="43.33017" lon="2.89582">
        <ele>128.95</ele>
        <time>2014-09-07T06:46:03Z</time>
      </trkpt>
      <trkpt lat="43.33001" lon="2.89627">
        <ele>128.95</ele>
        <time>2014-09-07T06:46:14Z</time>
      </trkpt>
      <trkpt lat="43.32982" lon="2.89654">
        <ele>131.36</ele>
        <time>2014-09-07T06:46:25Z</time>
      </trkpt>
      <trkpt lat="43.32977" lon="2.8966">
        <ele>132.32</ele>
        <time>2014-09-07T06:46:28Z</time>
      </trkpt>
      <trkpt lat="43.32971" lon="2.8967">
        <ele>134.72</ele>
        <time>2014-09-07T06:46:33Z</time>
      </trkpt>
      <trkpt lat="43.32957" lon="2.89705">
        <ele>143.37</ele>
        <time>2014-09-07T06:46:47Z</time>
      </trkpt>
      <trkpt lat="43.32953" lon="2.89725">
        <ele>145.78</ele>
        <time>2014-09-07T06:46:53Z</time>
      </trkpt>
      <trkpt lat="43.32953" lon="2.89744">
        <ele>145.78</ele>
        <time>2014-09-07T06:47:00Z</time>
      </trkpt>
      <trkpt lat="43.32947" lon="2.89757">
        <ele>145.3</ele>
        <time>2014-09-07T06:47:08Z</time>
      </trkpt>
      <trkpt lat="43.32948" lon="2.89761">
        <ele>144.82</ele>
        <time>2014-09-07T06:47:11Z</time>
      </trkpt>
      <trkpt lat="43.3296" lon="2.89759">
        <ele>145.3</ele>
        <time>2014-09-07T06:47:18Z</time>
      </trkpt>
      <trkpt lat="43.32963" lon="2.89751">
        <ele>145.3</ele>
        <time>2014-09-07T06:47:22Z</time>
      </trkpt>
      <trkpt lat="43.32964" lon="2.89737">
        <ele>144.34</ele>
        <time>2014-09-07T06:47:25Z</time>
      </trkpt>
      <trkpt lat="43.32972" lon="2.89718">
        <ele>142.41</ele>
        <time>2014-09-07T06:47:29Z</time>
      </trkpt>
      <trkpt lat="43.32995" lon="2.89708">
        <ele>141.45</ele>
        <time>2014-09-07T06:47:36Z</time>
      </trkpt>
      <trkpt lat="43.33004" lon="2.89699">
        <ele>142.41</ele>
        <time>2014-09-07T06:47:40Z</time>
      </trkpt>
      <trkpt lat="43.33012" lon="2.89691">
        <ele>142.41</ele>
        <time>2014-09-07T06:47:44Z</time>
      </trkpt>
      <trkpt lat="43.33012" lon="2.89682">
        <ele>141.45</ele>
        <time>2014-09-07T06:47:46Z</time>
      </trkpt>
      <trkpt lat="43.33034" lon="2.89665">
        <ele>139.05</ele>
        <time>2014-09-07T06:47:54Z</time>
      </trkpt>
      <trkpt lat="43.3306" lon="2.89662">
        <ele>140.49</ele>
        <time>2014-09-07T06:48:03Z</time>
      </trkpt>
      <trkpt lat="43.33062" lon="2.89662">
        <ele>140.49</ele>
        <time>2014-09-07T06:48:04Z</time>
      </trkpt>
      <trkpt lat="43.33084" lon="2.89651">
        <ele>138.09</ele>
        <time>2014-09-07T06:48:12Z</time>
      </trkpt>
      <trkpt lat="43.33087" lon="2.89653">
        <ele>138.09</ele>
        <time>2014-09-07T06:48:13Z</time>
      </trkpt>
      <trkpt lat="43.33092" lon="2.89656">
        <ele>138.09</ele>
        <time>2014-09-07T06:48:15Z</time>
      </trkpt>
      <trkpt lat="43.33099" lon="2.89655">
        <ele>137.61</ele>
        <time>2014-09-07T06:48:24Z</time>
      </trkpt>
      <trkpt lat="43.331" lon="2.89652">
        <ele>137.13</ele>
        <time>2014-09-07T06:48:26Z</time>
      </trkpt>
      <trkpt lat="43.33116" lon="2.89638">
        <ele>135.68</ele>
        <time>2014-09-07T06:48:34Z</time>
      </trkpt>
      <trkpt lat="43.33124" lon="2.89631">
        <ele>135.2</ele>
        <time>2014-09-07T06:48:38Z</time>
      </trkpt>
      <trkpt lat="43.33137" lon="2.89618">
        <ele>133.76</ele>
        <time>2014-09-07T06:48:44Z</time>
      </trkpt>
      <trkpt lat="43.33157" lon="2.89607">
        <ele>131.36</ele>
        <time>2014-09-07T06:48:51Z</time>
      </trkpt>
      <trkpt lat="43.33162" lon="2.89608">
        <ele>130.4</ele>
        <time>2014-09-07T06:48:53Z</time>
      </trkpt>
      <trkpt lat="43.33178" lon="2.89587">
        <ele>127.51</ele>
        <time>2014-09-07T06:49:00Z</time>
      </trkpt>
      <trkpt lat="43.33199" lon="2.89581">
        <ele>125.59</ele>
        <time>2014-09-07T06:49:07Z</time>
      </trkpt>
      <trkpt lat="43.33198" lon="2.89576">
        <ele>125.59</ele>
        <time>2014-09-07T06:49:10Z</time>
      </trkpt>
      <trkpt lat="43.33193" lon="2.89554">
        <ele>123.19</ele>
        <time>2014-09-07T06:49:20Z</time>
      </trkpt>
      <trkpt lat="43.33189" lon="2.89552">
        <ele>122.71</ele>
        <time>2014-09-07T06:49:23Z</time>
      </trkpt>
      <trkpt lat="43.33186" lon="2.89547">
        <ele>122.71</ele>
        <time>2014-09-07T06:49:25Z</time>
      </trkpt>
      <trkpt lat="43.33179" lon="2.89519">
        <ele>121.74</ele>
        <time>2014-09-07T06:49:29Z</time>
      </trkpt>
      <trkpt lat="43.33182" lon="2.89503">
        <ele>119.82</ele>
        <time>2014-09-07T06:49:32Z</time>
      </trkpt>
      <trkpt lat="43.33185" lon="2.89501">
        <ele>119.82</ele>
        <time>2014-09-07T06:49:33Z</time>
      </trkpt>
      <trkpt lat="43.33189" lon="2.89499">
        <ele>119.34</ele>
        <time>2014-09-07T06:49:34Z</time>
      </trkpt>
      <trkpt lat="43.33193" lon="2.89499">
        <ele>119.34</ele>
        <time>2014-09-07T06:49:35Z</time>
      </trkpt>
      <trkpt lat="43.33196" lon="2.89499">
        <ele>119.34</ele>
        <time>2014-09-07T06:49:36Z</time>
      </trkpt>
      <trkpt lat="43.33233" lon="2.89499">
        <ele>123.67</ele>
        <time>2014-09-07T06:49:48Z</time>
      </trkpt>
      <trkpt lat="43.33263" lon="2.89499">
        <ele>123.67</ele>
        <time>2014-09-07T06:49:58Z</time>
      </trkpt>
      <trkpt lat="43.33267" lon="2.89498">
        <ele>124.15</ele>
        <time>2014-09-07T06:49:59Z</time>
      </trkpt>
      <trkpt lat="43.33279" lon="2.89496">
        <ele>124.15</ele>
        <time>2014-09-07T06:50:01Z</time>
      </trkpt>
      <trkpt lat="43.33292" lon="2.89494">
        <ele>124.15</ele>
        <time>2014-09-07T06:50:03Z</time>
      </trkpt>
      <trkpt lat="43.33328" lon="2.89492">
        <ele>125.59</ele>
        <time>2014-09-07T06:50:12Z</time>
      </trkpt>
      <trkpt lat="43.33334" lon="2.89489">
        <ele>125.59</ele>
        <time>2014-09-07T06:50:14Z</time>
      </trkpt>
      <trkpt lat="43.33333" lon="2.89477">
        <ele>124.15</ele>
        <time>2014-09-07T06:50:17Z</time>
      </trkpt>
      <trkpt lat="43.3333" lon="2.89475">
        <ele>124.15</ele>
        <time>2014-09-07T06:50:18Z</time>
      </trkpt>
      <trkpt lat="43.33327" lon="2.89474">
        <ele>123.67</ele>
        <time>2014-09-07T06:50:19Z</time>
      </trkpt>
      <trkpt lat="43.33314" lon="2.89466">
        <ele>122.71</ele>
        <time>2014-09-07T06:50:23Z</time>
      </trkpt>
      <trkpt lat="43.33307" lon="2.89451">
        <ele>121.74</ele>
        <time>2014-09-07T06:50:27Z</time>
      </trkpt>
      <trkpt lat="43.33296" lon="2.89431">
        <ele>124.15</ele>
        <time>2014-09-07T06:50:32Z</time>
      </trkpt>
      <trkpt lat="43.33288" lon="2.89428">
        <ele>124.15</ele>
        <time>2014-09-07T06:50:35Z</time>
      </trkpt>
      <trkpt lat="43.33264" lon="2.89401">
        <ele>121.26</ele>
        <time>2014-09-07T06:50:41Z</time>
      </trkpt>
      <trkpt lat="43.3325" lon="2.89384">
        <ele>119.82</ele>
        <time>2014-09-07T06:50:44Z</time>
      </trkpt>
      <trkpt lat="43.33238" lon="2.89356">
        <ele>117.42</ele>
        <time>2014-09-07T06:50:50Z</time>
      </trkpt>
      <trkpt lat="43.33229" lon="2.8935">
        <ele>116.46</ele>
        <time>2014-09-07T06:50:53Z</time>
      </trkpt>
      <trkpt lat="43.33225" lon="2.8934">
        <ele>115.98</ele>
        <time>2014-09-07T06:50:55Z</time>
      </trkpt>
      <trkpt lat="43.33226" lon="2.89318">
        <ele>114.53</ele>
        <time>2014-09-07T06:51:00Z</time>
      </trkpt>
      <trkpt lat="43.33231" lon="2.89259">
        <ele>115.98</ele>
        <time>2014-09-07T06:51:14Z</time>
      </trkpt>
      <trkpt lat="43.33229" lon="2.89249">
        <ele>115.98</ele>
        <time>2014-09-07T06:51:16Z</time>
      </trkpt>
      <trkpt lat="43.33214" lon="2.89211">
        <ele>115.98</ele>
        <time>2014-09-07T06:51:23Z</time>
      </trkpt>
      <trkpt lat="43.33204" lon="2.89198">
        <ele>116.46</ele>
        <time>2014-09-07T06:51:26Z</time>
      </trkpt>
      <trkpt lat="43.3319" lon="2.89194">
        <ele>115.5</ele>
        <time>2014-09-07T06:51:30Z</time>
      </trkpt>
      <trkpt lat="43.33182" lon="2.89197">
        <ele>115.01</ele>
        <time>2014-09-07T06:51:32Z</time>
      </trkpt>
      <trkpt lat="43.33174" lon="2.89189">
        <ele>114.05</ele>
        <time>2014-09-07T06:51:36Z</time>
      </trkpt>
      <trkpt lat="43.33152" lon="2.89178">
        <ele>111.65</ele>
        <time>2014-09-07T06:51:43Z</time>
      </trkpt>
      <trkpt lat="43.33147" lon="2.89178">
        <ele>111.17</ele>
        <time>2014-09-07T06:51:44Z</time>
      </trkpt>
      <trkpt lat="43.3314" lon="2.89167">
        <ele>110.21</ele>
        <time>2014-09-07T06:51:47Z</time>
      </trkpt>
      <trkpt lat="43.3314" lon="2.89164">
        <ele>109.73</ele>
        <time>2014-09-07T06:51:48Z</time>
      </trkpt>
      <trkpt lat="43.33142" lon="2.89162">
        <ele>109.25</ele>
        <time>2014-09-07T06:51:49Z</time>
      </trkpt>
      <trkpt lat="43.33145" lon="2.89161">
        <ele>109.25</ele>
        <time>2014-09-07T06:51:50Z</time>
      </trkpt>
      <trkpt lat="43.33148" lon="2.8916">
        <ele>109.25</ele>
        <time>2014-09-07T06:51:51Z</time>
      </trkpt>
      <trkpt lat="43.33151" lon="2.89159">
        <ele>108.77</ele>
        <time>2014-09-07T06:51:52Z</time>
      </trkpt>
      <trkpt lat="43.33154" lon="2.89158">
        <ele>108.77</ele>
        <time>2014-09-07T06:51:53Z</time>
      </trkpt>
      <trkpt lat="43.33156" lon="2.89156">
        <ele>108.77</ele>
        <time>2014-09-07T06:51:54Z</time>
      </trkpt>
      <trkpt lat="43.33158" lon="2.89153">
        <ele>108.77</ele>
        <time>2014-09-07T06:51:55Z</time>
      </trkpt>
      <trkpt lat="43.33161" lon="2.8915">
        <ele>108.77</ele>
        <time>2014-09-07T06:51:56Z</time>
      </trkpt>
      <trkpt lat="43.33162" lon="2.89147">
        <ele>108.77</ele>
        <time>2014-09-07T06:51:57Z</time>
      </trkpt>
      <trkpt lat="43.33163" lon="2.89143">
        <ele>108.77</ele>
        <time>2014-09-07T06:51:58Z</time>
      </trkpt>
      <trkpt lat="43.33163" lon="2.89139">
        <ele>108.77</ele>
        <time>2014-09-07T06:51:59Z</time>
      </trkpt>
      <trkpt lat="43.33163" lon="2.89135">
        <ele>108.77</ele>
        <time>2014-09-07T06:52:00Z</time>
      </trkpt>
      <trkpt lat="43.33162" lon="2.89132">
        <ele>109.25</ele>
        <time>2014-09-07T06:52:01Z</time>
      </trkpt>
      <trkpt lat="43.33161" lon="2.89128">
        <ele>109.73</ele>
        <time>2014-09-07T06:52:02Z</time>
      </trkpt>
      <trkpt lat="43.33159" lon="2.89125">
        <ele>110.21</ele>
        <time>2014-09-07T06:52:03Z</time>
      </trkpt>
      <trkpt lat="43.33154" lon="2.89113">
        <ele>112.61</ele>
        <time>2014-09-07T06:52:07Z</time>
      </trkpt>
      <trkpt lat="43.33155" lon="2.89111">
        <ele>113.09</ele>
        <time>2014-09-07T06:52:08Z</time>
      </trkpt>
      <trkpt lat="43.33157" lon="2.89111">
        <ele>113.09</ele>
        <time>2014-09-07T06:52:09Z</time>
      </trkpt>
      <trkpt lat="43.33159" lon="2.89112">
        <ele>113.09</ele>
        <time>2014-09-07T06:52:10Z</time>
      </trkpt>
      <trkpt lat="43.33161" lon="2.89113">
        <ele>113.09</ele>
        <time>2014-09-07T06:52:11Z</time>
      </trkpt>
      <trkpt lat="43.33164" lon="2.89112">
        <ele>113.09</ele>
        <time>2014-09-07T06:52:12Z</time>
      </trkpt>
      <trkpt lat="43.33166" lon="2.8911">
        <ele>113.09</ele>
        <time>2014-09-07T06:52:13Z</time>
      </trkpt>
      <trkpt lat="43.33168" lon="2.89106">
        <ele>113.09</ele>
        <time>2014-09-07T06:52:14Z</time>
      </trkpt>
      <trkpt lat="43.33169" lon="2.89103">
        <ele>113.09</ele>
        <time>2014-09-07T06:52:15Z</time>
      </trkpt>
      <trkpt lat="43.3317" lon="2.89099">
        <ele>113.09</ele>
        <time>2014-09-07T06:52:16Z</time>
      </trkpt>
      <trkpt lat="43.3317" lon="2.89094">
        <ele>113.09</ele>
        <time>2014-09-07T06:52:17Z</time>
      </trkpt>
      <trkpt lat="43.33171" lon="2.8909">
        <ele>113.09</ele>
        <time>2014-09-07T06:52:18Z</time>
      </trkpt>
      <trkpt lat="43.33161" lon="2.89045">
        <ele>114.53</ele>
        <time>2014-09-07T06:52:29Z</time>
      </trkpt>
      <trkpt lat="43.33173" lon="2.89013">
        <ele>114.53</ele>
        <time>2014-09-07T06:52:38Z</time>
      </trkpt>
      <trkpt lat="43.33201" lon="2.88996">
        <ele>118.86</ele>
        <time>2014-09-07T06:52:49Z</time>
      </trkpt>
      <trkpt lat="43.33207" lon="2.88965">
        <ele>120.78</ele>
        <time>2014-09-07T06:52:59Z</time>
      </trkpt>
      <trkpt lat="43.33213" lon="2.88919">
        <ele>122.22</ele>
        <time>2014-09-07T06:53:14Z</time>
      </trkpt>
      <trkpt lat="43.33191" lon="2.8889">
        <ele>126.07</ele>
        <time>2014-09-07T06:53:27Z</time>
      </trkpt>
      <trkpt lat="43.33161" lon="2.88873">
        <ele>127.03</ele>
        <time>2014-09-07T06:53:39Z</time>
      </trkpt>
      <trkpt lat="43.33124" lon="2.88827">
        <ele>127.51</ele>
        <time>2014-09-07T06:53:52Z</time>
      </trkpt>
      <trkpt lat="43.33076" lon="2.88803">
        <ele>130.88</ele>
        <time>2014-09-07T06:54:07Z</time>
      </trkpt>
      <trkpt lat="43.33032" lon="2.88824">
        <ele>135.2</ele>
        <time>2014-09-07T06:54:22Z</time>
      </trkpt>
      <trkpt lat="43.33" lon="2.88842">
        <ele>137.61</ele>
        <time>2014-09-07T06:54:34Z</time>
      </trkpt>
      <trkpt lat="43.32969" lon="2.8881">
        <ele>141.93</ele>
        <time>2014-09-07T06:54:48Z</time>
      </trkpt>
      <trkpt lat="43.32946" lon="2.88773">
        <ele>143.85</ele>
        <time>2014-09-07T06:55:01Z</time>
      </trkpt>
      <trkpt lat="43.32936" lon="2.88715">
        <ele>144.82</ele>
        <time>2014-09-07T06:55:16Z</time>
      </trkpt>
      <trkpt lat="43.32943" lon="2.8865">
        <ele>143.37</ele>
        <time>2014-09-07T06:55:33Z</time>
      </trkpt>
      <trkpt lat="43.32972" lon="2.88602">
        <ele>143.37</ele>
        <time>2014-09-07T06:55:48Z</time>
      </trkpt>
      <trkpt lat="43.32995" lon="2.88563">
        <ele>142.89</ele>
        <time>2014-09-07T06:56:02Z</time>
      </trkpt>
      <trkpt lat="43.33025" lon="2.88526">
        <ele>145.78</ele>
        <time>2014-09-07T06:56:17Z</time>
      </trkpt>
      <trkpt lat="43.33038" lon="2.88508">
        <ele>150.1</ele>
        <time>2014-09-07T06:56:29Z</time>
      </trkpt>
      <trkpt lat="43.33041" lon="2.88507">
        <ele>154.91</ele>
        <time>2014-09-07T06:56:47Z</time>
      </trkpt>
      <trkpt lat="43.33042" lon="2.88507">
        <ele>155.39</ele>
        <time>2014-09-07T06:56:48Z</time>
      </trkpt>
      <trkpt lat="43.33043" lon="2.88506">
        <ele>155.39</ele>
        <time>2014-09-07T06:56:49Z</time>
      </trkpt>
      <trkpt lat="43.33068" lon="2.88485">
        <ele>160.68</ele>
        <time>2014-09-07T06:57:05Z</time>
      </trkpt>
      <trkpt lat="43.33101" lon="2.88466">
        <ele>167.41</ele>
        <time>2014-09-07T06:57:22Z</time>
      </trkpt>
      <trkpt lat="43.33135" lon="2.88456">
        <ele>173.17</ele>
        <time>2014-09-07T06:57:38Z</time>
      </trkpt>
      <trkpt lat="43.3317" lon="2.88449">
        <ele>178.94</ele>
        <time>2014-09-07T06:57:55Z</time>
      </trkpt>
      <trkpt lat="43.3321" lon="2.8845">
        <ele>183.75</ele>
        <time>2014-09-07T06:58:11Z</time>
      </trkpt>
      <trkpt lat="43.33247" lon="2.88487">
        <ele>186.15</ele>
        <time>2014-09-07T06:58:25Z</time>
      </trkpt>
      <trkpt lat="43.33272" lon="2.88517">
        <ele>187.11</ele>
        <time>2014-09-07T06:58:38Z</time>
      </trkpt>
      <trkpt lat="43.33297" lon="2.88553">
        <ele>185.19</ele>
        <time>2014-09-07T06:58:53Z</time>
      </trkpt>
      <trkpt lat="43.33311" lon="2.88561">
        <ele>184.23</ele>
        <time>2014-09-07T06:59:04Z</time>
      </trkpt>
      <trkpt lat="43.33316" lon="2.88562">
        <ele>180.87</ele>
        <time>2014-09-07T06:59:19Z</time>
      </trkpt>
      <trkpt lat="43.33318" lon="2.88563">
        <ele>183.75</ele>
        <time>2014-09-07T06:59:44Z</time>
      </trkpt>
      <trkpt lat="43.33315" lon="2.88561">
        <ele>178.94</ele>
        <time>2014-09-07T07:00:05Z</time>
      </trkpt>
      <trkpt lat="43.33318" lon="2.88562">
        <ele>179.42</ele>
        <time>2014-09-07T07:00:31Z</time>
      </trkpt>
      <trkpt lat="43.33315" lon="2.88565">
        <ele>179.9</ele>
        <time>2014-09-07T07:00:56Z</time>
      </trkpt>
      <trkpt lat="43.33317" lon="2.88565">
        <ele>180.38</ele>
        <time>2014-09-07T07:00:57Z</time>
      </trkpt>
      <trkpt lat="43.33319" lon="2.88564">
        <ele>179.42</ele>
        <time>2014-09-07T07:01:12Z</time>
      </trkpt>
      <trkpt lat="43.33322" lon="2.8856">
        <ele>177.5</ele>
        <time>2014-09-07T07:01:29Z</time>
      </trkpt>
      <trkpt lat="43.33348" lon="2.88529">
        <ele>179.9</ele>
        <time>2014-09-07T07:01:40Z</time>
      </trkpt>
      <trkpt lat="43.33361" lon="2.88495">
        <ele>184.71</ele>
        <time>2014-09-07T07:01:52Z</time>
      </trkpt>
      <trkpt lat="43.3337" lon="2.88448">
        <ele>188.08</ele>
        <time>2014-09-07T07:02:07Z</time>
      </trkpt>
      <trkpt lat="43.3338" lon="2.88399">
        <ele>190.96</ele>
        <time>2014-09-07T07:02:23Z</time>
      </trkpt>
      <trkpt lat="43.33367" lon="2.88365">
        <ele>191.44</ele>
        <time>2014-09-07T07:02:36Z</time>
      </trkpt>
      <trkpt lat="43.33359" lon="2.88333">
        <ele>190</ele>
        <time>2014-09-07T07:02:45Z</time>
      </trkpt>
      <trkpt lat="43.3336" lon="2.88327">
        <ele>189.52</ele>
        <time>2014-09-07T07:02:47Z</time>
      </trkpt>
      <trkpt lat="43.33364" lon="2.8832">
        <ele>189.04</ele>
        <time>2014-09-07T07:02:49Z</time>
      </trkpt>
      <trkpt lat="43.33365" lon="2.88316">
        <ele>189.52</ele>
        <time>2014-09-07T07:02:50Z</time>
      </trkpt>
      <trkpt lat="43.33365" lon="2.88311">
        <ele>189.04</ele>
        <time>2014-09-07T07:02:51Z</time>
      </trkpt>
      <trkpt lat="43.33365" lon="2.88307">
        <ele>189.04</ele>
        <time>2014-09-07T07:02:52Z</time>
      </trkpt>
      <trkpt lat="43.33364" lon="2.88259">
        <ele>188.56</ele>
        <time>2014-09-07T07:03:02Z</time>
      </trkpt>
      <trkpt lat="43.33363" lon="2.88253">
        <ele>188.56</ele>
        <time>2014-09-07T07:03:03Z</time>
      </trkpt>
      <trkpt lat="43.33357" lon="2.88234">
        <ele>187.59</ele>
        <time>2014-09-07T07:03:07Z</time>
      </trkpt>
      <trkpt lat="43.33357" lon="2.88228">
        <ele>187.59</ele>
        <time>2014-09-07T07:03:08Z</time>
      </trkpt>
      <trkpt lat="43.33359" lon="2.88222">
        <ele>187.59</ele>
        <time>2014-09-07T07:03:09Z</time>
      </trkpt>
      <trkpt lat="43.3336" lon="2.88217">
        <ele>187.59</ele>
        <time>2014-09-07T07:03:10Z</time>
      </trkpt>
      <trkpt lat="43.33361" lon="2.88211">
        <ele>187.59</ele>
        <time>2014-09-07T07:03:11Z</time>
      </trkpt>
      <trkpt lat="43.33363" lon="2.88205">
        <ele>187.59</ele>
        <time>2014-09-07T07:03:12Z</time>
      </trkpt>
      <trkpt lat="43.33367" lon="2.88194">
        <ele>187.59</ele>
        <time>2014-09-07T07:03:14Z</time>
      </trkpt>
      <trkpt lat="43.33368" lon="2.88188">
        <ele>187.59</ele>
        <time>2014-09-07T07:03:15Z</time>
      </trkpt>
      <trkpt lat="43.33367" lon="2.88176">
        <ele>187.59</ele>
        <time>2014-09-07T07:03:17Z</time>
      </trkpt>
      <trkpt lat="43.33366" lon="2.88169">
        <ele>187.59</ele>
        <time>2014-09-07T07:03:18Z</time>
      </trkpt>
      <trkpt lat="43.33364" lon="2.88163">
        <ele>187.11</ele>
        <time>2014-09-07T07:03:19Z</time>
      </trkpt>
      <trkpt lat="43.3336" lon="2.88159">
        <ele>187.11</ele>
        <time>2014-09-07T07:03:20Z</time>
      </trkpt>
      <trkpt lat="43.33356" lon="2.88154">
        <ele>187.11</ele>
        <time>2014-09-07T07:03:21Z</time>
      </trkpt>
      <trkpt lat="43.33353" lon="2.88148">
        <ele>186.63</ele>
        <time>2014-09-07T07:03:22Z</time>
      </trkpt>
      <trkpt lat="43.33349" lon="2.88142">
        <ele>186.63</ele>
        <time>2014-09-07T07:03:23Z</time>
      </trkpt>
      <trkpt lat="43.33345" lon="2.88137">
        <ele>186.15</ele>
        <time>2014-09-07T07:03:24Z</time>
      </trkpt>
      <trkpt lat="43.33341" lon="2.88131">
        <ele>186.15</ele>
        <time>2014-09-07T07:03:25Z</time>
      </trkpt>
      <trkpt lat="43.33337" lon="2.88125">
        <ele>185.67</ele>
        <time>2014-09-07T07:03:26Z</time>
      </trkpt>
      <trkpt lat="43.33333" lon="2.88119">
        <ele>185.19</ele>
        <time>2014-09-07T07:03:27Z</time>
      </trkpt>
      <trkpt lat="43.33329" lon="2.88114">
        <ele>185.19</ele>
        <time>2014-09-07T07:03:28Z</time>
      </trkpt>
      <trkpt lat="43.33325" lon="2.88111">
        <ele>184.71</ele>
        <time>2014-09-07T07:03:29Z</time>
      </trkpt>
      <trkpt lat="43.3332" lon="2.8811">
        <ele>184.71</ele>
        <time>2014-09-07T07:03:30Z</time>
      </trkpt>
      <trkpt lat="43.33317" lon="2.88111">
        <ele>184.71</ele>
        <time>2014-09-07T07:03:31Z</time>
      </trkpt>
      <trkpt lat="43.33314" lon="2.88113">
        <ele>184.71</ele>
        <time>2014-09-07T07:03:32Z</time>
      </trkpt>
      <trkpt lat="43.33311" lon="2.88116">
        <ele>185.19</ele>
        <time>2014-09-07T07:03:33Z</time>
      </trkpt>
      <trkpt lat="43.33308" lon="2.8812">
        <ele>185.67</ele>
        <time>2014-09-07T07:03:34Z</time>
      </trkpt>
      <trkpt lat="43.33306" lon="2.88125">
        <ele>185.67</ele>
        <time>2014-09-07T07:03:35Z</time>
      </trkpt>
      <trkpt lat="43.33304" lon="2.88129">
        <ele>186.15</ele>
        <time>2014-09-07T07:03:36Z</time>
      </trkpt>
      <trkpt lat="43.33299" lon="2.88135">
        <ele>187.11</ele>
        <time>2014-09-07T07:03:38Z</time>
      </trkpt>
      <trkpt lat="43.33296" lon="2.88136">
        <ele>187.11</ele>
        <time>2014-09-07T07:03:39Z</time>
      </trkpt>
      <trkpt lat="43.33275" lon="2.88127">
        <ele>189.04</ele>
        <time>2014-09-07T07:03:47Z</time>
      </trkpt>
      <trkpt lat="43.33263" lon="2.88127">
        <ele>190</ele>
        <time>2014-09-07T07:03:51Z</time>
      </trkpt>
      <trkpt lat="43.33251" lon="2.88121">
        <ele>191.92</ele>
        <time>2014-09-07T07:03:55Z</time>
      </trkpt>
      <trkpt lat="43.33236" lon="2.88114">
        <ele>193.84</ele>
        <time>2014-09-07T07:04:00Z</time>
      </trkpt>
      <trkpt lat="43.33231" lon="2.88113">
        <ele>194.32</ele>
        <time>2014-09-07T07:04:02Z</time>
      </trkpt>
      <trkpt lat="43.33206" lon="2.88106">
        <ele>198.17</ele>
        <time>2014-09-07T07:04:12Z</time>
      </trkpt>
      <trkpt lat="43.33189" lon="2.88108">
        <ele>199.13</ele>
        <time>2014-09-07T07:04:18Z</time>
      </trkpt>
      <trkpt lat="43.33171" lon="2.88114">
        <ele>199.61</ele>
        <time>2014-09-07T07:04:23Z</time>
      </trkpt>
      <trkpt lat="43.33145" lon="2.88123">
        <ele>199.61</ele>
        <time>2014-09-07T07:04:31Z</time>
      </trkpt>
      <trkpt lat="43.33135" lon="2.88123">
        <ele>200.09</ele>
        <time>2014-09-07T07:04:34Z</time>
      </trkpt>
      <trkpt lat="43.33124" lon="2.88124">
        <ele>200.09</ele>
        <time>2014-09-07T07:04:37Z</time>
      </trkpt>
      <trkpt lat="43.33098" lon="2.88133">
        <ele>201.53</ele>
        <time>2014-09-07T07:04:43Z</time>
      </trkpt>
      <trkpt lat="43.33076" lon="2.88149">
        <ele>202.01</ele>
        <time>2014-09-07T07:04:47Z</time>
      </trkpt>
      <trkpt lat="43.33058" lon="2.88155">
        <ele>201.53</ele>
        <time>2014-09-07T07:04:52Z</time>
      </trkpt>
      <trkpt lat="43.33028" lon="2.8818">
        <ele>196.73</ele>
        <time>2014-09-07T07:05:01Z</time>
      </trkpt>
      <trkpt lat="43.33025" lon="2.8819">
        <ele>194.8</ele>
        <time>2014-09-07T07:05:05Z</time>
      </trkpt>
      <trkpt lat="43.33022" lon="2.88198">
        <ele>194.8</ele>
        <time>2014-09-07T07:05:08Z</time>
      </trkpt>
      <trkpt lat="43.33014" lon="2.88212">
        <ele>194.32</ele>
        <time>2014-09-07T07:05:14Z</time>
      </trkpt>
      <trkpt lat="43.33017" lon="2.88225">
        <ele>191.92</ele>
        <time>2014-09-07T07:05:24Z</time>
      </trkpt>
      <trkpt lat="43.33024" lon="2.88234">
        <ele>190.48</ele>
        <time>2014-09-07T07:05:37Z</time>
      </trkpt>
      <trkpt lat="43.33025" lon="2.8824">
        <ele>190.48</ele>
        <time>2014-09-07T07:05:44Z</time>
      </trkpt>
      <trkpt lat="43.3302" lon="2.88268">
        <ele>184.71</ele>
        <time>2014-09-07T07:05:53Z</time>
      </trkpt>
      <trkpt lat="43.33005" lon="2.88278">
        <ele>181.83</ele>
        <time>2014-09-07T07:05:57Z</time>
      </trkpt>
      <trkpt lat="43.32987" lon="2.88295">
        <ele>176.54</ele>
        <time>2014-09-07T07:06:02Z</time>
      </trkpt>
      <trkpt lat="43.32975" lon="2.88322">
        <ele>170.77</ele>
        <time>2014-09-07T07:06:08Z</time>
      </trkpt>
      <trkpt lat="43.32981" lon="2.88349">
        <ele>165.48</ele>
        <time>2014-09-07T07:06:14Z</time>
      </trkpt>
      <trkpt lat="43.32987" lon="2.88399">
        <ele>158.75</ele>
        <time>2014-09-07T07:06:24Z</time>
      </trkpt>
      <trkpt lat="43.32996" lon="2.88414">
        <ele>155.39</ele>
        <time>2014-09-07T07:06:30Z</time>
      </trkpt>
      <trkpt lat="43.33005" lon="2.88422">
        <ele>152.51</ele>
        <time>2014-09-07T07:06:35Z</time>
      </trkpt>
      <trkpt lat="43.33014" lon="2.88433">
        <ele>148.66</ele>
        <time>2014-09-07T07:06:42Z</time>
      </trkpt>
      <trkpt lat="43.33025" lon="2.88446">
        <ele>145.3</ele>
        <time>2014-09-07T07:06:48Z</time>
      </trkpt>
      <trkpt lat="43.33036" lon="2.88459">
        <ele>143.85</ele>
        <time>2014-09-07T07:06:51Z</time>
      </trkpt>
      <trkpt lat="43.33039" lon="2.88462">
        <ele>143.85</ele>
        <time>2014-09-07T07:06:52Z</time>
      </trkpt>
      <trkpt lat="43.33039" lon="2.88467">
        <ele>141.45</ele>
        <time>2014-09-07T07:07:00Z</time>
      </trkpt>
      <trkpt lat="43.33039" lon="2.88465">
        <ele>142.41</ele>
        <time>2014-09-07T07:07:16Z</time>
      </trkpt>
      <trkpt lat="43.33037" lon="2.88467">
        <ele>142.41</ele>
        <time>2014-09-07T07:07:17Z</time>
      </trkpt>
      <trkpt lat="43.33026" lon="2.88476">
        <ele>143.37</ele>
        <time>2014-09-07T07:07:20Z</time>
      </trkpt>
      <trkpt lat="43.33021" lon="2.88478">
        <ele>143.37</ele>
        <time>2014-09-07T07:07:21Z</time>
      </trkpt>
      <trkpt lat="43.33016" lon="2.88481">
        <ele>143.85</ele>
        <time>2014-09-07T07:07:22Z</time>
      </trkpt>
      <trkpt lat="43.33012" lon="2.88483">
        <ele>143.85</ele>
        <time>2014-09-07T07:07:23Z</time>
      </trkpt>
      <trkpt lat="43.33007" lon="2.88484">
        <ele>143.85</ele>
        <time>2014-09-07T07:07:24Z</time>
      </trkpt>
      <trkpt lat="43.33001" lon="2.88485">
        <ele>143.85</ele>
        <time>2014-09-07T07:07:25Z</time>
      </trkpt>
      <trkpt lat="43.32996" lon="2.88486">
        <ele>143.85</ele>
        <time>2014-09-07T07:07:26Z</time>
      </trkpt>
      <trkpt lat="43.32993" lon="2.88485">
        <ele>143.85</ele>
        <time>2014-09-07T07:07:27Z</time>
      </trkpt>
      <trkpt lat="43.3299" lon="2.88483">
        <ele>143.37</ele>
        <time>2014-09-07T07:07:28Z</time>
      </trkpt>
      <trkpt lat="43.32986" lon="2.88481">
        <ele>143.37</ele>
        <time>2014-09-07T07:07:29Z</time>
      </trkpt>
      <trkpt lat="43.32981" lon="2.88481">
        <ele>143.37</ele>
        <time>2014-09-07T07:07:30Z</time>
      </trkpt>
      <trkpt lat="43.32976" lon="2.88481">
        <ele>142.89</ele>
        <time>2014-09-07T07:07:31Z</time>
      </trkpt>
      <trkpt lat="43.32971" lon="2.88481">
        <ele>142.41</ele>
        <time>2014-09-07T07:07:32Z</time>
      </trkpt>
      <trkpt lat="43.32952" lon="2.8848">
        <ele>140.49</ele>
        <time>2014-09-07T07:07:36Z</time>
      </trkpt>
      <trkpt lat="43.32948" lon="2.88476">
        <ele>140.01</ele>
        <time>2014-09-07T07:07:37Z</time>
      </trkpt>
      <trkpt lat="43.32946" lon="2.88471">
        <ele>140.01</ele>
        <time>2014-09-07T07:07:38Z</time>
      </trkpt>
      <trkpt lat="43.32944" lon="2.88466">
        <ele>139.53</ele>
        <time>2014-09-07T07:07:39Z</time>
      </trkpt>
      <trkpt lat="43.32941" lon="2.88461">
        <ele>139.05</ele>
        <time>2014-09-07T07:07:40Z</time>
      </trkpt>
      <trkpt lat="43.32937" lon="2.88457">
        <ele>138.57</ele>
        <time>2014-09-07T07:07:41Z</time>
      </trkpt>
      <trkpt lat="43.32933" lon="2.88453">
        <ele>138.09</ele>
        <time>2014-09-07T07:07:42Z</time>
      </trkpt>
      <trkpt lat="43.32929" lon="2.88448">
        <ele>137.61</ele>
        <time>2014-09-07T07:07:43Z</time>
      </trkpt>
      <trkpt lat="43.32925" lon="2.88443">
        <ele>137.13</ele>
        <time>2014-09-07T07:07:44Z</time>
      </trkpt>
      <trkpt lat="43.32921" lon="2.88437">
        <ele>136.16</ele>
        <time>2014-09-07T07:07:45Z</time>
      </trkpt>
      <trkpt lat="43.32917" lon="2.88432">
        <ele>135.2</ele>
        <time>2014-09-07T07:07:46Z</time>
      </trkpt>
      <trkpt lat="43.32914" lon="2.88426">
        <ele>134.72</ele>
        <time>2014-09-07T07:07:47Z</time>
      </trkpt>
      <trkpt lat="43.32912" lon="2.88419">
        <ele>133.76</ele>
        <time>2014-09-07T07:07:48Z</time>
      </trkpt>
      <trkpt lat="43.32909" lon="2.88415">
        <ele>132.8</ele>
        <time>2014-09-07T07:07:49Z</time>
      </trkpt>
      <trkpt lat="43.32905" lon="2.88414">
        <ele>131.84</ele>
        <time>2014-09-07T07:07:50Z</time>
      </trkpt>
      <trkpt lat="43.32902" lon="2.88416">
        <ele>130.88</ele>
        <time>2014-09-07T07:07:51Z</time>
      </trkpt>
      <trkpt lat="43.32899" lon="2.8842">
        <ele>129.92</ele>
        <time>2014-09-07T07:07:52Z</time>
      </trkpt>
      <trkpt lat="43.32897" lon="2.88426">
        <ele>128.95</ele>
        <time>2014-09-07T07:07:53Z</time>
      </trkpt>
      <trkpt lat="43.32896" lon="2.88431">
        <ele>128.47</ele>
        <time>2014-09-07T07:07:54Z</time>
      </trkpt>
      <trkpt lat="43.32895" lon="2.88437">
        <ele>127.99</ele>
        <time>2014-09-07T07:07:55Z</time>
      </trkpt>
      <trkpt lat="43.32895" lon="2.88443">
        <ele>127.03</ele>
        <time>2014-09-07T07:07:56Z</time>
      </trkpt>
      <trkpt lat="43.32897" lon="2.88449">
        <ele>126.55</ele>
        <time>2014-09-07T07:07:57Z</time>
      </trkpt>
      <trkpt lat="43.329" lon="2.88463">
        <ele>125.59</ele>
        <time>2014-09-07T07:07:59Z</time>
      </trkpt>
      <trkpt lat="43.32906" lon="2.88481">
        <ele>124.63</ele>
        <time>2014-09-07T07:08:02Z</time>
      </trkpt>
      <trkpt lat="43.32907" lon="2.88488">
        <ele>124.15</ele>
        <time>2014-09-07T07:08:03Z</time>
      </trkpt>
      <trkpt lat="43.3291" lon="2.88494">
        <ele>123.67</ele>
        <time>2014-09-07T07:08:04Z</time>
      </trkpt>
      <trkpt lat="43.32913" lon="2.885">
        <ele>123.19</ele>
        <time>2014-09-07T07:08:05Z</time>
      </trkpt>
      <trkpt lat="43.32918" lon="2.88504">
        <ele>122.22</ele>
        <time>2014-09-07T07:08:06Z</time>
      </trkpt>
      <trkpt lat="43.32923" lon="2.88506">
        <ele>121.74</ele>
        <time>2014-09-07T07:08:07Z</time>
      </trkpt>
      <trkpt lat="43.32928" lon="2.88507">
        <ele>121.26</ele>
        <time>2014-09-07T07:08:08Z</time>
      </trkpt>
      <trkpt lat="43.32931" lon="2.88508">
        <ele>120.78</ele>
        <time>2014-09-07T07:08:09Z</time>
      </trkpt>
      <trkpt lat="43.32933" lon="2.88513">
        <ele>120.3</ele>
        <time>2014-09-07T07:08:10Z</time>
      </trkpt>
      <trkpt lat="43.32931" lon="2.88517">
        <ele>120.3</ele>
        <time>2014-09-07T07:08:11Z</time>
      </trkpt>
      <trkpt lat="43.32927" lon="2.88518">
        <ele>119.82</ele>
        <time>2014-09-07T07:08:12Z</time>
      </trkpt>
      <trkpt lat="43.32922" lon="2.88517">
        <ele>119.82</ele>
        <time>2014-09-07T07:08:13Z</time>
      </trkpt>
      <trkpt lat="43.32917" lon="2.88517">
        <ele>119.34</ele>
        <time>2014-09-07T07:08:14Z</time>
      </trkpt>
      <trkpt lat="43.32912" lon="2.88517">
        <ele>118.86</ele>
        <time>2014-09-07T07:08:15Z</time>
      </trkpt>
      <trkpt lat="43.32909" lon="2.88515">
        <ele>118.86</ele>
        <time>2014-09-07T07:08:16Z</time>
      </trkpt>
      <trkpt lat="43.32904" lon="2.88511">
        <ele>118.38</ele>
        <time>2014-09-07T07:08:17Z</time>
      </trkpt>
      <trkpt lat="43.329" lon="2.88508">
        <ele>117.9</ele>
        <time>2014-09-07T07:08:18Z</time>
      </trkpt>
      <trkpt lat="43.32885" lon="2.88498">
        <ele>115.98</ele>
        <time>2014-09-07T07:08:21Z</time>
      </trkpt>
      <trkpt lat="43.32881" lon="2.88493">
        <ele>115.5</ele>
        <time>2014-09-07T07:08:22Z</time>
      </trkpt>
      <trkpt lat="43.32875" lon="2.88489">
        <ele>114.53</ele>
        <time>2014-09-07T07:08:23Z</time>
      </trkpt>
      <trkpt lat="43.3287" lon="2.88484">
        <ele>114.05</ele>
        <time>2014-09-07T07:08:24Z</time>
      </trkpt>
      <trkpt lat="43.32867" lon="2.88479">
        <ele>113.09</ele>
        <time>2014-09-07T07:08:25Z</time>
      </trkpt>
      <trkpt lat="43.32866" lon="2.88476">
        <ele>112.13</ele>
        <time>2014-09-07T07:08:26Z</time>
      </trkpt>
      <trkpt lat="43.32865" lon="2.88473">
        <ele>111.65</ele>
        <time>2014-09-07T07:08:27Z</time>
      </trkpt>
      <trkpt lat="43.32864" lon="2.88469">
        <ele>110.69</ele>
        <time>2014-09-07T07:08:28Z</time>
      </trkpt>
      <trkpt lat="43.32863" lon="2.88464">
        <ele>109.73</ele>
        <time>2014-09-07T07:08:29Z</time>
      </trkpt>
      <trkpt lat="43.32861" lon="2.8846">
        <ele>109.25</ele>
        <time>2014-09-07T07:08:30Z</time>
      </trkpt>
      <trkpt lat="43.32856" lon="2.88447">
        <ele>106.36</ele>
        <time>2014-09-07T07:08:33Z</time>
      </trkpt>
      <trkpt lat="43.32853" lon="2.88443">
        <ele>104.92</ele>
        <time>2014-09-07T07:08:34Z</time>
      </trkpt>
      <trkpt lat="43.32851" lon="2.88438">
        <ele>103.96</ele>
        <time>2014-09-07T07:08:35Z</time>
      </trkpt>
      <trkpt lat="43.3285" lon="2.88433">
        <ele>103</ele>
        <time>2014-09-07T07:08:36Z</time>
      </trkpt>
      <trkpt lat="43.32848" lon="2.88429">
        <ele>102.52</ele>
        <time>2014-09-07T07:08:37Z</time>
      </trkpt>
      <trkpt lat="43.32848" lon="2.88424">
        <ele>101.56</ele>
        <time>2014-09-07T07:08:38Z</time>
      </trkpt>
      <trkpt lat="43.32842" lon="2.88411">
        <ele>98.67</ele>
        <time>2014-09-07T07:08:42Z</time>
      </trkpt>
      <trkpt lat="43.32838" lon="2.88369">
        <ele>93.87</ele>
        <time>2014-09-07T07:08:51Z</time>
      </trkpt>
      <trkpt lat="43.32842" lon="2.88322">
        <ele>90.5</ele>
        <time>2014-09-07T07:09:00Z</time>
      </trkpt>
      <trkpt lat="43.32841" lon="2.88316">
        <ele>90.02</ele>
        <time>2014-09-07T07:09:01Z</time>
      </trkpt>
      <trkpt lat="43.3284" lon="2.88271">
        <ele>85.69</ele>
        <time>2014-09-07T07:09:11Z</time>
      </trkpt>
      <trkpt lat="43.32842" lon="2.88254">
        <ele>85.21</ele>
        <time>2014-09-07T07:09:15Z</time>
      </trkpt>
      <trkpt lat="43.32843" lon="2.8825">
        <ele>85.21</ele>
        <time>2014-09-07T07:09:16Z</time>
      </trkpt>
      <trkpt lat="43.32843" lon="2.88245">
        <ele>85.21</ele>
        <time>2014-09-07T07:09:17Z</time>
      </trkpt>
      <trkpt lat="43.32842" lon="2.8824">
        <ele>85.21</ele>
        <time>2014-09-07T07:09:18Z</time>
      </trkpt>
      <trkpt lat="43.32842" lon="2.88234">
        <ele>84.73</ele>
        <time>2014-09-07T07:09:19Z</time>
      </trkpt>
      <trkpt lat="43.32841" lon="2.88227">
        <ele>84.73</ele>
        <time>2014-09-07T07:09:20Z</time>
      </trkpt>
      <trkpt lat="43.3284" lon="2.8822">
        <ele>84.25</ele>
        <time>2014-09-07T07:09:21Z</time>
      </trkpt>
      <trkpt lat="43.3284" lon="2.88213">
        <ele>83.77</ele>
        <time>2014-09-07T07:09:22Z</time>
      </trkpt>
      <trkpt lat="43.3284" lon="2.88187">
        <ele>82.33</ele>
        <time>2014-09-07T07:09:26Z</time>
      </trkpt>
      <trkpt lat="43.3284" lon="2.88181">
        <ele>81.85</ele>
        <time>2014-09-07T07:09:27Z</time>
      </trkpt>
      <trkpt lat="43.32839" lon="2.88154">
        <ele>80.41</ele>
        <time>2014-09-07T07:09:31Z</time>
      </trkpt>
      <trkpt lat="43.32839" lon="2.88147">
        <ele>80.41</ele>
        <time>2014-09-07T07:09:32Z</time>
      </trkpt>
      <trkpt lat="43.32836" lon="2.88095">
        <ele>78.97</ele>
        <time>2014-09-07T07:09:39Z</time>
      </trkpt>
      <trkpt lat="43.32836" lon="2.88058">
        <ele>79.45</ele>
        <time>2014-09-07T07:09:44Z</time>
      </trkpt>
      <trkpt lat="43.32837" lon="2.88048">
        <ele>78.97</ele>
        <time>2014-09-07T07:09:45Z</time>
      </trkpt>
      <trkpt lat="43.32838" lon="2.88039">
        <ele>78.97</ele>
        <time>2014-09-07T07:09:46Z</time>
      </trkpt>
      <trkpt lat="43.32841" lon="2.88023">
        <ele>78</ele>
        <time>2014-09-07T07:09:49Z</time>
      </trkpt>
      <trkpt lat="43.32841" lon="2.88019">
        <ele>77.52</ele>
        <time>2014-09-07T07:09:50Z</time>
      </trkpt>
      <trkpt lat="43.32841" lon="2.88016">
        <ele>77.52</ele>
        <time>2014-09-07T07:09:51Z</time>
      </trkpt>
      <trkpt lat="43.3284" lon="2.88014">
        <ele>77.04</ele>
        <time>2014-09-07T07:09:52Z</time>
      </trkpt>
      <trkpt lat="43.32839" lon="2.88011">
        <ele>76.56</ele>
        <time>2014-09-07T07:09:53Z</time>
      </trkpt>
      <trkpt lat="43.32837" lon="2.88009">
        <ele>76.08</ele>
        <time>2014-09-07T07:09:54Z</time>
      </trkpt>
      <trkpt lat="43.32834" lon="2.88008">
        <ele>75.6</ele>
        <time>2014-09-07T07:09:55Z</time>
      </trkpt>
      <trkpt lat="43.32832" lon="2.88008">
        <ele>75.6</ele>
        <time>2014-09-07T07:09:56Z</time>
      </trkpt>
      <trkpt lat="43.32828" lon="2.88009">
        <ele>75.12</ele>
        <time>2014-09-07T07:09:57Z</time>
      </trkpt>
      <trkpt lat="43.32825" lon="2.8801">
        <ele>74.64</ele>
        <time>2014-09-07T07:09:58Z</time>
      </trkpt>
      <trkpt lat="43.32823" lon="2.88009">
        <ele>74.16</ele>
        <time>2014-09-07T07:09:59Z</time>
      </trkpt>
      <trkpt lat="43.32821" lon="2.88007">
        <ele>73.68</ele>
        <time>2014-09-07T07:10:00Z</time>
      </trkpt>
      <trkpt lat="43.32821" lon="2.88004">
        <ele>73.2</ele>
        <time>2014-09-07T07:10:01Z</time>
      </trkpt>
      <trkpt lat="43.3282" lon="2.88">
        <ele>72.24</ele>
        <time>2014-09-07T07:10:02Z</time>
      </trkpt>
      <trkpt lat="43.3282" lon="2.87991">
        <ele>70.31</ele>
        <time>2014-09-07T07:10:05Z</time>
      </trkpt>
      <trkpt lat="43.32821" lon="2.87988">
        <ele>69.35</ele>
        <time>2014-09-07T07:10:06Z</time>
      </trkpt>
      <trkpt lat="43.32821" lon="2.87986">
        <ele>68.87</ele>
        <time>2014-09-07T07:10:07Z</time>
      </trkpt>
      <trkpt lat="43.32822" lon="2.87983">
        <ele>67.91</ele>
        <time>2014-09-07T07:10:08Z</time>
      </trkpt>
      <trkpt lat="43.32822" lon="2.87979">
        <ele>67.43</ele>
        <time>2014-09-07T07:10:09Z</time>
      </trkpt>
      <trkpt lat="43.32822" lon="2.87974">
        <ele>66.47</ele>
        <time>2014-09-07T07:10:10Z</time>
      </trkpt>
      <trkpt lat="43.32821" lon="2.87969">
        <ele>65.99</ele>
        <time>2014-09-07T07:10:11Z</time>
      </trkpt>
      <trkpt lat="43.3282" lon="2.87957">
        <ele>64.07</ele>
        <time>2014-09-07T07:10:14Z</time>
      </trkpt>
      <trkpt lat="43.32817" lon="2.87956">
        <ele>63.1</ele>
        <time>2014-09-07T07:10:15Z</time>
      </trkpt>
      <trkpt lat="43.32814" lon="2.87955">
        <ele>62.62</ele>
        <time>2014-09-07T07:10:16Z</time>
      </trkpt>
      <trkpt lat="43.32811" lon="2.87954">
        <ele>61.66</ele>
        <time>2014-09-07T07:10:17Z</time>
      </trkpt>
      <trkpt lat="43.32809" lon="2.87951">
        <ele>62.62</ele>
        <time>2014-09-07T07:10:18Z</time>
      </trkpt>
      <trkpt lat="43.32808" lon="2.87947">
        <ele>63.1</ele>
        <time>2014-09-07T07:10:19Z</time>
      </trkpt>
      <trkpt lat="43.32809" lon="2.87943">
        <ele>63.1</ele>
        <time>2014-09-07T07:10:20Z</time>
      </trkpt>
      <trkpt lat="43.32811" lon="2.87933">
        <ele>63.1</ele>
        <time>2014-09-07T07:10:22Z</time>
      </trkpt>
      <trkpt lat="43.32815" lon="2.87929">
        <ele>63.1</ele>
        <time>2014-09-07T07:10:23Z</time>
      </trkpt>
      <trkpt lat="43.32825" lon="2.87917">
        <ele>63.58</ele>
        <time>2014-09-07T07:10:26Z</time>
      </trkpt>
      <trkpt lat="43.32832" lon="2.8791">
        <ele>63.58</ele>
        <time>2014-09-07T07:10:28Z</time>
      </trkpt>
      <trkpt lat="43.32839" lon="2.87898">
        <ele>64.55</ele>
        <time>2014-09-07T07:10:31Z</time>
      </trkpt>
      <trkpt lat="43.32839" lon="2.87895">
        <ele>65.03</ele>
        <time>2014-09-07T07:10:32Z</time>
      </trkpt>
      <trkpt lat="43.32838" lon="2.87892">
        <ele>65.51</ele>
        <time>2014-09-07T07:10:33Z</time>
      </trkpt>
      <trkpt lat="43.32835" lon="2.87889">
        <ele>65.99</ele>
        <time>2014-09-07T07:10:34Z</time>
      </trkpt>
      <trkpt lat="43.32832" lon="2.87888">
        <ele>65.99</ele>
        <time>2014-09-07T07:10:35Z</time>
      </trkpt>
      <trkpt lat="43.32829" lon="2.87887">
        <ele>65.99</ele>
        <time>2014-09-07T07:10:36Z</time>
      </trkpt>
      <trkpt lat="43.32825" lon="2.87887">
        <ele>65.99</ele>
        <time>2014-09-07T07:10:37Z</time>
      </trkpt>
      <trkpt lat="43.32783" lon="2.87882">
        <ele>64.55</ele>
        <time>2014-09-07T07:10:51Z</time>
      </trkpt>
      <trkpt lat="43.32782" lon="2.87878">
        <ele>64.07</ele>
        <time>2014-09-07T07:10:53Z</time>
      </trkpt>
      <trkpt lat="43.32784" lon="2.87873">
        <ele>63.1</ele>
        <time>2014-09-07T07:11:04Z</time>
      </trkpt>
      <trkpt lat="43.32785" lon="2.87872">
        <ele>65.03</ele>
        <time>2014-09-07T07:11:22Z</time>
      </trkpt>
      <trkpt lat="43.32789" lon="2.87871">
        <ele>64.55</ele>
        <time>2014-09-07T07:11:43Z</time>
      </trkpt>
      <trkpt lat="43.3279" lon="2.87868">
        <ele>64.07</ele>
        <time>2014-09-07T07:11:45Z</time>
      </trkpt>
      <trkpt lat="43.32792" lon="2.87863">
        <ele>63.58</ele>
        <time>2014-09-07T07:11:48Z</time>
      </trkpt>
      <trkpt lat="43.32795" lon="2.87857">
        <ele>63.1</ele>
        <time>2014-09-07T07:11:53Z</time>
      </trkpt>
      <trkpt lat="43.32798" lon="2.8785">
        <ele>58.78</ele>
        <time>2014-09-07T07:12:05Z</time>
      </trkpt>
      <trkpt lat="43.32796" lon="2.87847">
        <ele>55.89</ele>
        <time>2014-09-07T07:12:18Z</time>
      </trkpt>
      <trkpt lat="43.32797" lon="2.87844">
        <ele>54.93</ele>
        <time>2014-09-07T07:12:23Z</time>
      </trkpt>
      <trkpt lat="43.32786" lon="2.87817">
        <ele>56.86</ele>
        <time>2014-09-07T07:12:34Z</time>
      </trkpt>
      <trkpt lat="43.32763" lon="2.87788">
        <ele>62.14</ele>
        <time>2014-09-07T07:12:45Z</time>
      </trkpt>
      <trkpt lat="43.32753" lon="2.87784">
        <ele>62.62</ele>
        <time>2014-09-07T07:12:50Z</time>
      </trkpt>
      <trkpt lat="43.32749" lon="2.87774">
        <ele>62.62</ele>
        <time>2014-09-07T07:12:56Z</time>
      </trkpt>
      <trkpt lat="43.3275" lon="2.87768">
        <ele>62.14</ele>
        <time>2014-09-07T07:13:10Z</time>
      </trkpt>
      <trkpt lat="43.3275" lon="2.87766">
        <ele>62.14</ele>
        <time>2014-09-07T07:13:12Z</time>
      </trkpt>
      <trkpt lat="43.32755" lon="2.87755">
        <ele>63.1</ele>
        <time>2014-09-07T07:13:24Z</time>
      </trkpt>
      <trkpt lat="43.32755" lon="2.87754">
        <ele>63.1</ele>
        <time>2014-09-07T07:13:26Z</time>
      </trkpt>
      <trkpt lat="43.32746" lon="2.87743">
        <ele>64.55</ele>
        <time>2014-09-07T07:13:35Z</time>
      </trkpt>
      <trkpt lat="43.32713" lon="2.87724">
        <ele>66.95</ele>
        <time>2014-09-07T07:13:52Z</time>
      </trkpt>
      <trkpt lat="43.32715" lon="2.87713">
        <ele>67.43</ele>
        <time>2014-09-07T07:13:57Z</time>
      </trkpt>
      <trkpt lat="43.32717" lon="2.87713">
        <ele>67.43</ele>
        <time>2014-09-07T07:13:58Z</time>
      </trkpt>
      <trkpt lat="43.32719" lon="2.87712">
        <ele>67.43</ele>
        <time>2014-09-07T07:13:59Z</time>
      </trkpt>
      <trkpt lat="43.32721" lon="2.87712">
        <ele>67.43</ele>
        <time>2014-09-07T07:14:00Z</time>
      </trkpt>
      <trkpt lat="43.32723" lon="2.8771">
        <ele>67.91</ele>
        <time>2014-09-07T07:14:01Z</time>
      </trkpt>
      <trkpt lat="43.3276" lon="2.87686">
        <ele>68.39</ele>
        <time>2014-09-07T07:14:17Z</time>
      </trkpt>
      <trkpt lat="43.3281" lon="2.87664">
        <ele>67.91</ele>
        <time>2014-09-07T07:14:33Z</time>
      </trkpt>
      <trkpt lat="43.32873" lon="2.87633">
        <ele>69.35</ele>
        <time>2014-09-07T07:14:51Z</time>
      </trkpt>
      <trkpt lat="43.3289" lon="2.87604">
        <ele>69.35</ele>
        <time>2014-09-07T07:15:00Z</time>
      </trkpt>
      <trkpt lat="43.3287" lon="2.87553">
        <ele>71.76</ele>
        <time>2014-09-07T07:15:14Z</time>
      </trkpt>
      <trkpt lat="43.32848" lon="2.87482">
        <ele>76.08</ele>
        <time>2014-09-07T07:15:33Z</time>
      </trkpt>
      <trkpt lat="43.32863" lon="2.87438">
        <ele>78</ele>
        <time>2014-09-07T07:15:45Z</time>
      </trkpt>
      <trkpt lat="43.32862" lon="2.87374">
        <ele>78.97</ele>
        <time>2014-09-07T07:16:02Z</time>
      </trkpt>
      <trkpt lat="43.3287" lon="2.87299">
        <ele>79.45</ele>
        <time>2014-09-07T07:16:19Z</time>
      </trkpt>
      <trkpt lat="43.32872" lon="2.87242">
        <ele>78.97</ele>
        <time>2014-09-07T07:16:32Z</time>
      </trkpt>
      <trkpt lat="43.32865" lon="2.87199">
        <ele>79.45</ele>
        <time>2014-09-07T07:16:43Z</time>
      </trkpt>
      <trkpt lat="43.32851" lon="2.87156">
        <ele>81.37</ele>
        <time>2014-09-07T07:16:55Z</time>
      </trkpt>
      <trkpt lat="43.32852" lon="2.87106">
        <ele>84.73</ele>
        <time>2014-09-07T07:17:08Z</time>
      </trkpt>
      <trkpt lat="43.32848" lon="2.87072">
        <ele>85.69</ele>
        <time>2014-09-07T07:17:18Z</time>
      </trkpt>
      <trkpt lat="43.32847" lon="2.87065">
        <ele>86.66</ele>
        <time>2014-09-07T07:17:20Z</time>
      </trkpt>
      <trkpt lat="43.32845" lon="2.87061">
        <ele>87.62</ele>
        <time>2014-09-07T07:17:21Z</time>
      </trkpt>
      <trkpt lat="43.32844" lon="2.87058">
        <ele>88.1</ele>
        <time>2014-09-07T07:17:22Z</time>
      </trkpt>
      <trkpt lat="43.32842" lon="2.87055">
        <ele>88.58</ele>
        <time>2014-09-07T07:17:23Z</time>
      </trkpt>
      <trkpt lat="43.3284" lon="2.87052">
        <ele>89.06</ele>
        <time>2014-09-07T07:17:24Z</time>
      </trkpt>
      <trkpt lat="43.32823" lon="2.87031">
        <ele>92.9</ele>
        <time>2014-09-07T07:17:37Z</time>
      </trkpt>
      <trkpt lat="43.32812" lon="2.87024">
        <ele>94.83</ele>
        <time>2014-09-07T07:17:50Z</time>
      </trkpt>
      <trkpt lat="43.3281" lon="2.8702">
        <ele>95.31</ele>
        <time>2014-09-07T07:17:56Z</time>
      </trkpt>
      <trkpt lat="43.32805" lon="2.87001">
        <ele>94.83</ele>
        <time>2014-09-07T07:18:08Z</time>
      </trkpt>
      <trkpt lat="43.32794" lon="2.86979">
        <ele>99.63</ele>
        <time>2014-09-07T07:18:18Z</time>
      </trkpt>
      <trkpt lat="43.32783" lon="2.86959">
        <ele>104.44</ele>
        <time>2014-09-07T07:18:31Z</time>
      </trkpt>
      <trkpt lat="43.32773" lon="2.86931">
        <ele>108.29</ele>
        <time>2014-09-07T07:18:47Z</time>
      </trkpt>
      <trkpt lat="43.32769" lon="2.86916">
        <ele>109.25</ele>
        <time>2014-09-07T07:18:54Z</time>
      </trkpt>
      <trkpt lat="43.3277" lon="2.86914">
        <ele>109.73</ele>
        <time>2014-09-07T07:18:55Z</time>
      </trkpt>
      <trkpt lat="43.32784" lon="2.86896">
        <ele>109.73</ele>
        <time>2014-09-07T07:19:07Z</time>
      </trkpt>
      <trkpt lat="43.32786" lon="2.86894">
        <ele>109.73</ele>
        <time>2014-09-07T07:19:22Z</time>
      </trkpt>
      <trkpt lat="43.32787" lon="2.86893">
        <ele>108.29</ele>
        <time>2014-09-07T07:19:49Z</time>
      </trkpt>
      <trkpt lat="43.32786" lon="2.86892">
        <ele>109.25</ele>
        <time>2014-09-07T07:20:18Z</time>
      </trkpt>
      <trkpt lat="43.32788" lon="2.86896">
        <ele>109.25</ele>
        <time>2014-09-07T07:20:50Z</time>
      </trkpt>
      <trkpt lat="43.32791" lon="2.86895">
        <ele>109.25</ele>
        <time>2014-09-07T07:21:09Z</time>
      </trkpt>
      <trkpt lat="43.32792" lon="2.86895">
        <ele>109.25</ele>
        <time>2014-09-07T07:21:10Z</time>
      </trkpt>
      <trkpt lat="43.3282" lon="2.86896">
        <ele>111.17</ele>
        <time>2014-09-07T07:21:25Z</time>
      </trkpt>
      <trkpt lat="43.32846" lon="2.86916">
        <ele>109.73</ele>
        <time>2014-09-07T07:21:37Z</time>
      </trkpt>
      <trkpt lat="43.32848" lon="2.86916">
        <ele>109.73</ele>
        <time>2014-09-07T07:21:38Z</time>
      </trkpt>
      <trkpt lat="43.32849" lon="2.86916">
        <ele>109.73</ele>
        <time>2014-09-07T07:21:39Z</time>
      </trkpt>
      <trkpt lat="43.32851" lon="2.86916">
        <ele>109.73</ele>
        <time>2014-09-07T07:21:40Z</time>
      </trkpt>
      <trkpt lat="43.32852" lon="2.86915">
        <ele>109.73</ele>
        <time>2014-09-07T07:21:41Z</time>
      </trkpt>
      <trkpt lat="43.32853" lon="2.86913">
        <ele>109.73</ele>
        <time>2014-09-07T07:21:42Z</time>
      </trkpt>
      <trkpt lat="43.32853" lon="2.8691">
        <ele>109.25</ele>
        <time>2014-09-07T07:21:43Z</time>
      </trkpt>
      <trkpt lat="43.32852" lon="2.86907">
        <ele>109.73</ele>
        <time>2014-09-07T07:21:44Z</time>
      </trkpt>
      <trkpt lat="43.32851" lon="2.86906">
        <ele>109.73</ele>
        <time>2014-09-07T07:21:45Z</time>
      </trkpt>
      <trkpt lat="43.32849" lon="2.86904">
        <ele>109.73</ele>
        <time>2014-09-07T07:21:46Z</time>
      </trkpt>
      <trkpt lat="43.32848" lon="2.86902">
        <ele>109.73</ele>
        <time>2014-09-07T07:21:47Z</time>
      </trkpt>
      <trkpt lat="43.32846" lon="2.869">
        <ele>110.21</ele>
        <time>2014-09-07T07:21:48Z</time>
      </trkpt>
      <trkpt lat="43.32845" lon="2.86899">
        <ele>110.21</ele>
        <time>2014-09-07T07:21:49Z</time>
      </trkpt>
      <trkpt lat="43.32843" lon="2.86898">
        <ele>110.21</ele>
        <time>2014-09-07T07:21:50Z</time>
      </trkpt>
      <trkpt lat="43.32842" lon="2.86896">
        <ele>110.69</ele>
        <time>2014-09-07T07:21:51Z</time>
      </trkpt>
      <trkpt lat="43.32828" lon="2.86883">
        <ele>115.98</ele>
        <time>2014-09-07T07:22:07Z</time>
      </trkpt>
      <trkpt lat="43.32827" lon="2.86881">
        <ele>119.82</ele>
        <time>2014-09-07T07:22:24Z</time>
      </trkpt>
      <trkpt lat="43.32824" lon="2.86876">
        <ele>119.82</ele>
        <time>2014-09-07T07:22:31Z</time>
      </trkpt>
      <trkpt lat="43.32823" lon="2.86874">
        <ele>119.82</ele>
        <time>2014-09-07T07:22:32Z</time>
      </trkpt>
      <trkpt lat="43.32822" lon="2.86873">
        <ele>119.82</ele>
        <time>2014-09-07T07:22:33Z</time>
      </trkpt>
      <trkpt lat="43.32822" lon="2.86872">
        <ele>119.82</ele>
        <time>2014-09-07T07:22:34Z</time>
      </trkpt>
      <trkpt lat="43.32821" lon="2.8687">
        <ele>119.82</ele>
        <time>2014-09-07T07:22:35Z</time>
      </trkpt>
      <trkpt lat="43.32821" lon="2.86868">
        <ele>119.82</ele>
        <time>2014-09-07T07:22:36Z</time>
      </trkpt>
      <trkpt lat="43.32816" lon="2.86854">
        <ele>121.26</ele>
        <time>2014-09-07T07:22:47Z</time>
      </trkpt>
      <trkpt lat="43.32814" lon="2.86844">
        <ele>122.71</ele>
        <time>2014-09-07T07:22:55Z</time>
      </trkpt>
      <trkpt lat="43.32808" lon="2.86835">
        <ele>123.67</ele>
        <time>2014-09-07T07:23:04Z</time>
      </trkpt>
      <trkpt lat="43.32807" lon="2.86834">
        <ele>123.67</ele>
        <time>2014-09-07T07:23:05Z</time>
      </trkpt>
      <trkpt lat="43.32806" lon="2.86832">
        <ele>123.19</ele>
        <time>2014-09-07T07:23:06Z</time>
      </trkpt>
      <trkpt lat="43.32805" lon="2.8683">
        <ele>123.19</ele>
        <time>2014-09-07T07:23:07Z</time>
      </trkpt>
      <trkpt lat="43.32803" lon="2.86828">
        <ele>123.19</ele>
        <time>2014-09-07T07:23:08Z</time>
      </trkpt>
      <trkpt lat="43.32802" lon="2.86826">
        <ele>123.19</ele>
        <time>2014-09-07T07:23:09Z</time>
      </trkpt>
      <trkpt lat="43.32801" lon="2.86824">
        <ele>123.67</ele>
        <time>2014-09-07T07:23:10Z</time>
      </trkpt>
      <trkpt lat="43.32796" lon="2.86815">
        <ele>124.63</ele>
        <time>2014-09-07T07:23:15Z</time>
      </trkpt>
      <trkpt lat="43.32795" lon="2.86781">
        <ele>123.67</ele>
        <time>2014-09-07T07:23:31Z</time>
      </trkpt>
      <trkpt lat="43.32792" lon="2.86761">
        <ele>124.63</ele>
        <time>2014-09-07T07:23:40Z</time>
      </trkpt>
      <trkpt lat="43.32792" lon="2.86758">
        <ele>125.11</ele>
        <time>2014-09-07T07:23:41Z</time>
      </trkpt>
      <trkpt lat="43.32793" lon="2.86756">
        <ele>125.59</ele>
        <time>2014-09-07T07:23:42Z</time>
      </trkpt>
      <trkpt lat="43.32794" lon="2.86753">
        <ele>126.07</ele>
        <time>2014-09-07T07:23:43Z</time>
      </trkpt>
      <trkpt lat="43.32794" lon="2.86751">
        <ele>126.55</ele>
        <time>2014-09-07T07:23:44Z</time>
      </trkpt>
      <trkpt lat="43.32794" lon="2.86749">
        <ele>127.03</ele>
        <time>2014-09-07T07:23:45Z</time>
      </trkpt>
      <trkpt lat="43.32793" lon="2.86746">
        <ele>127.51</ele>
        <time>2014-09-07T07:23:46Z</time>
      </trkpt>
      <trkpt lat="43.32792" lon="2.86744">
        <ele>127.99</ele>
        <time>2014-09-07T07:23:47Z</time>
      </trkpt>
      <trkpt lat="43.32791" lon="2.86742">
        <ele>127.99</ele>
        <time>2014-09-07T07:23:48Z</time>
      </trkpt>
      <trkpt lat="43.3279" lon="2.8674">
        <ele>128.47</ele>
        <time>2014-09-07T07:23:49Z</time>
      </trkpt>
      <trkpt lat="43.3279" lon="2.86738">
        <ele>128.95</ele>
        <time>2014-09-07T07:23:50Z</time>
      </trkpt>
      <trkpt lat="43.3279" lon="2.86734">
        <ele>128.95</ele>
        <time>2014-09-07T07:23:51Z</time>
      </trkpt>
      <trkpt lat="43.3279" lon="2.8673">
        <ele>129.43</ele>
        <time>2014-09-07T07:23:52Z</time>
      </trkpt>
      <trkpt lat="43.3279" lon="2.86727">
        <ele>129.43</ele>
        <time>2014-09-07T07:23:53Z</time>
      </trkpt>
      <trkpt lat="43.3279" lon="2.86724">
        <ele>129.92</ele>
        <time>2014-09-07T07:23:54Z</time>
      </trkpt>
      <trkpt lat="43.32789" lon="2.8672">
        <ele>129.92</ele>
        <time>2014-09-07T07:23:55Z</time>
      </trkpt>
      <trkpt lat="43.32788" lon="2.86717">
        <ele>129.92</ele>
        <time>2014-09-07T07:23:56Z</time>
      </trkpt>
      <trkpt lat="43.32786" lon="2.86715">
        <ele>130.4</ele>
        <time>2014-09-07T07:23:57Z</time>
      </trkpt>
      <trkpt lat="43.32784" lon="2.86713">
        <ele>130.4</ele>
        <time>2014-09-07T07:23:58Z</time>
      </trkpt>
      <trkpt lat="43.32765" lon="2.86679">
        <ele>128.95</ele>
        <time>2014-09-07T07:24:09Z</time>
      </trkpt>
      <trkpt lat="43.32757" lon="2.86663">
        <ele>128.47</ele>
        <time>2014-09-07T07:24:13Z</time>
      </trkpt>
      <trkpt lat="43.32753" lon="2.8662">
        <ele>128.95</ele>
        <time>2014-09-07T07:24:25Z</time>
      </trkpt>
      <trkpt lat="43.32749" lon="2.86596">
        <ele>128.47</ele>
        <time>2014-09-07T07:24:31Z</time>
      </trkpt>
      <trkpt lat="43.32757" lon="2.86574">
        <ele>128.47</ele>
        <time>2014-09-07T07:24:42Z</time>
      </trkpt>
      <trkpt lat="43.32759" lon="2.86563">
        <ele>127.99</ele>
        <time>2014-09-07T07:24:52Z</time>
      </trkpt>
      <trkpt lat="43.3276" lon="2.86559">
        <ele>126.55</ele>
        <time>2014-09-07T07:24:58Z</time>
      </trkpt>
      <trkpt lat="43.32757" lon="2.86541">
        <ele>126.55</ele>
        <time>2014-09-07T07:25:08Z</time>
      </trkpt>
      <trkpt lat="43.32758" lon="2.86537">
        <ele>126.07</ele>
        <time>2014-09-07T07:25:09Z</time>
      </trkpt>
      <trkpt lat="43.32759" lon="2.86534">
        <ele>126.55</ele>
        <time>2014-09-07T07:25:10Z</time>
      </trkpt>
      <trkpt lat="43.3276" lon="2.86532">
        <ele>126.07</ele>
        <time>2014-09-07T07:25:11Z</time>
      </trkpt>
      <trkpt lat="43.3276" lon="2.86529">
        <ele>126.07</ele>
        <time>2014-09-07T07:25:12Z</time>
      </trkpt>
      <trkpt lat="43.3276" lon="2.86527">
        <ele>126.55</ele>
        <time>2014-09-07T07:25:13Z</time>
      </trkpt>
      <trkpt lat="43.32761" lon="2.86525">
        <ele>126.55</ele>
        <time>2014-09-07T07:25:14Z</time>
      </trkpt>
      <trkpt lat="43.32762" lon="2.86523">
        <ele>127.03</ele>
        <time>2014-09-07T07:25:15Z</time>
      </trkpt>
      <trkpt lat="43.32763" lon="2.86522">
        <ele>127.51</ele>
        <time>2014-09-07T07:25:16Z</time>
      </trkpt>
      <trkpt lat="43.32764" lon="2.8652">
        <ele>127.99</ele>
        <time>2014-09-07T07:25:17Z</time>
      </trkpt>
      <trkpt lat="43.32765" lon="2.86518">
        <ele>127.99</ele>
        <time>2014-09-07T07:25:18Z</time>
      </trkpt>
      <trkpt lat="43.32766" lon="2.86516">
        <ele>128.47</ele>
        <time>2014-09-07T07:25:19Z</time>
      </trkpt>
      <trkpt lat="43.32771" lon="2.86486">
        <ele>129.92</ele>
        <time>2014-09-07T07:25:29Z</time>
      </trkpt>
      <trkpt lat="43.32772" lon="2.86484">
        <ele>129.92</ele>
        <time>2014-09-07T07:25:30Z</time>
      </trkpt>
      <trkpt lat="43.32773" lon="2.86482">
        <ele>129.92</ele>
        <time>2014-09-07T07:25:31Z</time>
      </trkpt>
      <trkpt lat="43.32774" lon="2.8648">
        <ele>129.92</ele>
        <time>2014-09-07T07:25:32Z</time>
      </trkpt>
      <trkpt lat="43.32773" lon="2.86477">
        <ele>129.92</ele>
        <time>2014-09-07T07:25:33Z</time>
      </trkpt>
      <trkpt lat="43.32773" lon="2.86474">
        <ele>129.92</ele>
        <time>2014-09-07T07:25:34Z</time>
      </trkpt>
      <trkpt lat="43.32773" lon="2.86472">
        <ele>129.43</ele>
        <time>2014-09-07T07:25:35Z</time>
      </trkpt>
      <trkpt lat="43.32773" lon="2.8647">
        <ele>129.43</ele>
        <time>2014-09-07T07:25:36Z</time>
      </trkpt>
      <trkpt lat="43.32774" lon="2.86468">
        <ele>129.92</ele>
        <time>2014-09-07T07:25:37Z</time>
      </trkpt>
      <trkpt lat="43.32775" lon="2.86466">
        <ele>130.4</ele>
        <time>2014-09-07T07:25:38Z</time>
      </trkpt>
      <trkpt lat="43.32776" lon="2.86464">
        <ele>130.4</ele>
        <time>2014-09-07T07:25:39Z</time>
      </trkpt>
      <trkpt lat="43.32799" lon="2.8643">
        <ele>133.76</ele>
        <time>2014-09-07T07:25:55Z</time>
      </trkpt>
      <trkpt lat="43.32828" lon="2.86411">
        <ele>135.2</ele>
        <time>2014-09-07T07:26:09Z</time>
      </trkpt>
      <trkpt lat="43.32851" lon="2.86409">
        <ele>137.61</ele>
        <time>2014-09-07T07:26:21Z</time>
      </trkpt>
      <trkpt lat="43.32878" lon="2.86401">
        <ele>143.37</ele>
        <time>2014-09-07T07:26:36Z</time>
      </trkpt>
      <trkpt lat="43.3288" lon="2.864">
        <ele>143.37</ele>
        <time>2014-09-07T07:26:37Z</time>
      </trkpt>
      <trkpt lat="43.32881" lon="2.86398">
        <ele>143.85</ele>
        <time>2014-09-07T07:26:38Z</time>
      </trkpt>
      <trkpt lat="43.32883" lon="2.86396">
        <ele>143.85</ele>
        <time>2014-09-07T07:26:39Z</time>
      </trkpt>
      <trkpt lat="43.32884" lon="2.86394">
        <ele>144.34</ele>
        <time>2014-09-07T07:26:40Z</time>
      </trkpt>
      <trkpt lat="43.32886" lon="2.86393">
        <ele>144.34</ele>
        <time>2014-09-07T07:26:41Z</time>
      </trkpt>
      <trkpt lat="43.3292" lon="2.86375">
        <ele>144.82</ele>
        <time>2014-09-07T07:26:57Z</time>
      </trkpt>
      <trkpt lat="43.32948" lon="2.86355">
        <ele>146.26</ele>
        <time>2014-09-07T07:27:12Z</time>
      </trkpt>
      <trkpt lat="43.32972" lon="2.86342">
        <ele>149.14</ele>
        <time>2014-09-07T07:27:24Z</time>
      </trkpt>
      <trkpt lat="43.32974" lon="2.86342">
        <ele>149.62</ele>
        <time>2014-09-07T07:27:25Z</time>
      </trkpt>
      <trkpt lat="43.32976" lon="2.8634">
        <ele>150.58</ele>
        <time>2014-09-07T07:27:26Z</time>
      </trkpt>
      <trkpt lat="43.32991" lon="2.86325">
        <ele>156.83</ele>
        <time>2014-09-07T07:27:40Z</time>
      </trkpt>
      <trkpt lat="43.3301" lon="2.86317">
        <ele>158.27</ele>
        <time>2014-09-07T07:27:53Z</time>
      </trkpt>
      <trkpt lat="43.33011" lon="2.86316">
        <ele>158.27</ele>
        <time>2014-09-07T07:27:54Z</time>
      </trkpt>
      <trkpt lat="43.33011" lon="2.86315">
        <ele>158.27</ele>
        <time>2014-09-07T07:27:55Z</time>
      </trkpt>
      <trkpt lat="43.33018" lon="2.86286">
        <ele>159.72</ele>
        <time>2014-09-07T07:28:11Z</time>
      </trkpt>
      <trkpt lat="43.3302" lon="2.86281">
        <ele>160.2</ele>
        <time>2014-09-07T07:28:14Z</time>
      </trkpt>
      <trkpt lat="43.33024" lon="2.86273">
        <ele>161.16</ele>
        <time>2014-09-07T07:28:22Z</time>
      </trkpt>
      <trkpt lat="43.33023" lon="2.86271">
        <ele>161.64</ele>
        <time>2014-09-07T07:28:24Z</time>
      </trkpt>
      <trkpt lat="43.33016" lon="2.86272">
        <ele>161.16</ele>
        <time>2014-09-07T07:28:28Z</time>
      </trkpt>
      <trkpt lat="43.33012" lon="2.86273">
        <ele>160.68</ele>
        <time>2014-09-07T07:28:29Z</time>
      </trkpt>
      <trkpt lat="43.33009" lon="2.86274">
        <ele>160.68</ele>
        <time>2014-09-07T07:28:30Z</time>
      </trkpt>
      <trkpt lat="43.33006" lon="2.86276">
        <ele>160.2</ele>
        <time>2014-09-07T07:28:31Z</time>
      </trkpt>
      <trkpt lat="43.33003" lon="2.86279">
        <ele>159.72</ele>
        <time>2014-09-07T07:28:32Z</time>
      </trkpt>
      <trkpt lat="43.33" lon="2.86283">
        <ele>159.72</ele>
        <time>2014-09-07T07:28:33Z</time>
      </trkpt>
      <trkpt lat="43.32997" lon="2.86286">
        <ele>159.24</ele>
        <time>2014-09-07T07:28:34Z</time>
      </trkpt>
      <trkpt lat="43.32993" lon="2.86288">
        <ele>158.75</ele>
        <time>2014-09-07T07:28:35Z</time>
      </trkpt>
      <trkpt lat="43.32989" lon="2.8629">
        <ele>158.75</ele>
        <time>2014-09-07T07:28:36Z</time>
      </trkpt>
      <trkpt lat="43.32975" lon="2.863">
        <ele>157.79</ele>
        <time>2014-09-07T07:28:40Z</time>
      </trkpt>
      <trkpt lat="43.3297" lon="2.86302">
        <ele>157.31</ele>
        <time>2014-09-07T07:28:41Z</time>
      </trkpt>
      <trkpt lat="43.32964" lon="2.86304">
        <ele>157.31</ele>
        <time>2014-09-07T07:28:42Z</time>
      </trkpt>
      <trkpt lat="43.32959" lon="2.86306">
        <ele>156.83</ele>
        <time>2014-09-07T07:28:43Z</time>
      </trkpt>
      <trkpt lat="43.32954" lon="2.86308">
        <ele>156.83</ele>
        <time>2014-09-07T07:28:44Z</time>
      </trkpt>
      <trkpt lat="43.32949" lon="2.86308">
        <ele>156.83</ele>
        <time>2014-09-07T07:28:45Z</time>
      </trkpt>
      <trkpt lat="43.32945" lon="2.86307">
        <ele>156.83</ele>
        <time>2014-09-07T07:28:46Z</time>
      </trkpt>
      <trkpt lat="43.32942" lon="2.86306">
        <ele>156.83</ele>
        <time>2014-09-07T07:28:47Z</time>
      </trkpt>
      <trkpt lat="43.32939" lon="2.86305">
        <ele>156.35</ele>
        <time>2014-09-07T07:28:48Z</time>
      </trkpt>
      <trkpt lat="43.32936" lon="2.86301">
        <ele>156.35</ele>
        <time>2014-09-07T07:28:49Z</time>
      </trkpt>
      <trkpt lat="43.32935" lon="2.86298">
        <ele>156.35</ele>
        <time>2014-09-07T07:28:50Z</time>
      </trkpt>
      <trkpt lat="43.32935" lon="2.86294">
        <ele>156.35</ele>
        <time>2014-09-07T07:28:51Z</time>
      </trkpt>
      <trkpt lat="43.32935" lon="2.8629">
        <ele>156.35</ele>
        <time>2014-09-07T07:28:52Z</time>
      </trkpt>
      <trkpt lat="43.32936" lon="2.86267">
        <ele>157.79</ele>
        <time>2014-09-07T07:29:02Z</time>
      </trkpt>
      <trkpt lat="43.32911" lon="2.8625">
        <ele>160.68</ele>
        <time>2014-09-07T07:29:16Z</time>
      </trkpt>
      <trkpt lat="43.32904" lon="2.86251">
        <ele>161.16</ele>
        <time>2014-09-07T07:29:18Z</time>
      </trkpt>
      <trkpt lat="43.32891" lon="2.86257">
        <ele>160.68</ele>
        <time>2014-09-07T07:29:21Z</time>
      </trkpt>
      <trkpt lat="43.32887" lon="2.86257">
        <ele>160.2</ele>
        <time>2014-09-07T07:29:22Z</time>
      </trkpt>
      <trkpt lat="43.32882" lon="2.86258">
        <ele>159.72</ele>
        <time>2014-09-07T07:29:23Z</time>
      </trkpt>
      <trkpt lat="43.32877" lon="2.86257">
        <ele>159.24</ele>
        <time>2014-09-07T07:29:24Z</time>
      </trkpt>
      <trkpt lat="43.32872" lon="2.86255">
        <ele>158.75</ele>
        <time>2014-09-07T07:29:25Z</time>
      </trkpt>
      <trkpt lat="43.32868" lon="2.86253">
        <ele>158.27</ele>
        <time>2014-09-07T07:29:26Z</time>
      </trkpt>
      <trkpt lat="43.32865" lon="2.86251">
        <ele>157.79</ele>
        <time>2014-09-07T07:29:27Z</time>
      </trkpt>
      <trkpt lat="43.32863" lon="2.86248">
        <ele>157.31</ele>
        <time>2014-09-07T07:29:28Z</time>
      </trkpt>
      <trkpt lat="43.32873" lon="2.86219">
        <ele>158.75</ele>
        <time>2014-09-07T07:29:39Z</time>
      </trkpt>
      <trkpt lat="43.32887" lon="2.86194">
        <ele>159.72</ele>
        <time>2014-09-07T07:29:50Z</time>
      </trkpt>
      <trkpt lat="43.3289" lon="2.86189">
        <ele>159.72</ele>
        <time>2014-09-07T07:29:52Z</time>
      </trkpt>
      <trkpt lat="43.32907" lon="2.86158">
        <ele>162.12</ele>
        <time>2014-09-07T07:30:08Z</time>
      </trkpt>
      <trkpt lat="43.32922" lon="2.86142">
        <ele>164.04</ele>
        <time>2014-09-07T07:30:19Z</time>
      </trkpt>
      <trkpt lat="43.32909" lon="2.86115">
        <ele>162.12</ele>
        <time>2014-09-07T07:30:30Z</time>
      </trkpt>
      <trkpt lat="43.32894" lon="2.86085">
        <ele>160.2</ele>
        <time>2014-09-07T07:30:38Z</time>
      </trkpt>
      <trkpt lat="43.32888" lon="2.86075">
        <ele>159.72</ele>
        <time>2014-09-07T07:30:41Z</time>
      </trkpt>
      <trkpt lat="43.3288" lon="2.86063">
        <ele>159.24</ele>
        <time>2014-09-07T07:30:45Z</time>
      </trkpt>
      <trkpt lat="43.32879" lon="2.86056">
        <ele>158.27</ele>
        <time>2014-09-07T07:30:47Z</time>
      </trkpt>
      <trkpt lat="43.3288" lon="2.86054">
        <ele>157.79</ele>
        <time>2014-09-07T07:30:48Z</time>
      </trkpt>
      <trkpt lat="43.32898" lon="2.86024">
        <ele>157.79</ele>
        <time>2014-09-07T07:30:59Z</time>
      </trkpt>
      <trkpt lat="43.32902" lon="2.86024">
        <ele>157.79</ele>
        <time>2014-09-07T07:31:00Z</time>
      </trkpt>
      <trkpt lat="43.32905" lon="2.86025">
        <ele>157.79</ele>
        <time>2014-09-07T07:31:01Z</time>
      </trkpt>
      <trkpt lat="43.32936" lon="2.86026">
        <ele>157.79</ele>
        <time>2014-09-07T07:31:11Z</time>
      </trkpt>
      <trkpt lat="43.32938" lon="2.86028">
        <ele>157.79</ele>
        <time>2014-09-07T07:31:12Z</time>
      </trkpt>
      <trkpt lat="43.3294" lon="2.8603">
        <ele>157.31</ele>
        <time>2014-09-07T07:31:13Z</time>
      </trkpt>
      <trkpt lat="43.32942" lon="2.86033">
        <ele>157.31</ele>
        <time>2014-09-07T07:31:14Z</time>
      </trkpt>
      <trkpt lat="43.32944" lon="2.86035">
        <ele>157.79</ele>
        <time>2014-09-07T07:31:15Z</time>
      </trkpt>
      <trkpt lat="43.32958" lon="2.86041">
        <ele>158.27</ele>
        <time>2014-09-07T07:31:21Z</time>
      </trkpt>
      <trkpt lat="43.3296" lon="2.86041">
        <ele>158.27</ele>
        <time>2014-09-07T07:31:22Z</time>
      </trkpt>
      <trkpt lat="43.32984" lon="2.86006">
        <ele>158.27</ele>
        <time>2014-09-07T07:31:37Z</time>
      </trkpt>
      <trkpt lat="43.32999" lon="2.85958">
        <ele>161.16</ele>
        <time>2014-09-07T07:31:54Z</time>
      </trkpt>
      <trkpt lat="43.33" lon="2.85956">
        <ele>161.16</ele>
        <time>2014-09-07T07:31:55Z</time>
      </trkpt>
      <trkpt lat="43.33002" lon="2.85957">
        <ele>161.16</ele>
        <time>2014-09-07T07:31:56Z</time>
      </trkpt>
      <trkpt lat="43.33003" lon="2.85958">
        <ele>161.16</ele>
        <time>2014-09-07T07:31:57Z</time>
      </trkpt>
      <trkpt lat="43.33003" lon="2.85964">
        <ele>161.64</ele>
        <time>2014-09-07T07:32:02Z</time>
      </trkpt>
      <trkpt lat="43.33003" lon="2.85966">
        <ele>161.64</ele>
        <time>2014-09-07T07:32:03Z</time>
      </trkpt>
      <trkpt lat="43.33003" lon="2.85969">
        <ele>161.64</ele>
        <time>2014-09-07T07:32:04Z</time>
      </trkpt>
      <trkpt lat="43.33001" lon="2.85971">
        <ele>162.12</ele>
        <time>2014-09-07T07:32:05Z</time>
      </trkpt>
      <trkpt lat="43.33001" lon="2.85973">
        <ele>162.12</ele>
        <time>2014-09-07T07:32:06Z</time>
      </trkpt>
      <trkpt lat="43.33" lon="2.85975">
        <ele>162.12</ele>
        <time>2014-09-07T07:32:07Z</time>
      </trkpt>
      <trkpt lat="43.33" lon="2.85978">
        <ele>162.12</ele>
        <time>2014-09-07T07:32:08Z</time>
      </trkpt>
      <trkpt lat="43.32999" lon="2.85981">
        <ele>162.6</ele>
        <time>2014-09-07T07:32:09Z</time>
      </trkpt>
      <trkpt lat="43.33" lon="2.85984">
        <ele>162.6</ele>
        <time>2014-09-07T07:32:10Z</time>
      </trkpt>
      <trkpt lat="43.33" lon="2.85988">
        <ele>163.08</ele>
        <time>2014-09-07T07:32:11Z</time>
      </trkpt>
      <trkpt lat="43.33" lon="2.85992">
        <ele>163.08</ele>
        <time>2014-09-07T07:32:12Z</time>
      </trkpt>
      <trkpt lat="43.33" lon="2.85996">
        <ele>163.56</ele>
        <time>2014-09-07T07:32:13Z</time>
      </trkpt>
      <trkpt lat="43.33015" lon="2.86025">
        <ele>165.48</ele>
        <time>2014-09-07T07:32:23Z</time>
      </trkpt>
      <trkpt lat="43.33033" lon="2.86026">
        <ele>166.93</ele>
        <time>2014-09-07T07:32:31Z</time>
      </trkpt>
      <trkpt lat="43.33036" lon="2.86029">
        <ele>166.93</ele>
        <time>2014-09-07T07:32:33Z</time>
      </trkpt>
      <trkpt lat="43.33038" lon="2.86029">
        <ele>167.41</ele>
        <time>2014-09-07T07:32:34Z</time>
      </trkpt>
      <trkpt lat="43.33039" lon="2.86028">
        <ele>167.89</ele>
        <time>2014-09-07T07:32:35Z</time>
      </trkpt>
      <trkpt lat="43.3304" lon="2.86026">
        <ele>168.37</ele>
        <time>2014-09-07T07:32:36Z</time>
      </trkpt>
      <trkpt lat="43.33041" lon="2.86025">
        <ele>168.85</ele>
        <time>2014-09-07T07:32:37Z</time>
      </trkpt>
      <trkpt lat="43.33043" lon="2.86021">
        <ele>170.29</ele>
        <time>2014-09-07T07:32:40Z</time>
      </trkpt>
      <trkpt lat="43.33049" lon="2.86018">
        <ele>173.17</ele>
        <time>2014-09-07T07:32:45Z</time>
      </trkpt>
      <trkpt lat="43.33057" lon="2.86011">
        <ele>177.5</ele>
        <time>2014-09-07T07:32:51Z</time>
      </trkpt>
      <trkpt lat="43.33065" lon="2.86004">
        <ele>179.9</ele>
        <time>2014-09-07T07:32:57Z</time>
      </trkpt>
      <trkpt lat="43.33073" lon="2.85998">
        <ele>181.83</ele>
        <time>2014-09-07T07:33:04Z</time>
      </trkpt>
      <trkpt lat="43.33082" lon="2.85988">
        <ele>183.27</ele>
        <time>2014-09-07T07:33:14Z</time>
      </trkpt>
      <trkpt lat="43.33086" lon="2.85987">
        <ele>183.75</ele>
        <time>2014-09-07T07:33:19Z</time>
      </trkpt>
      <trkpt lat="43.33089" lon="2.85987">
        <ele>184.23</ele>
        <time>2014-09-07T07:33:21Z</time>
      </trkpt>
      <trkpt lat="43.33102" lon="2.85973">
        <ele>185.67</ele>
        <time>2014-09-07T07:33:31Z</time>
      </trkpt>
      <trkpt lat="43.33105" lon="2.85964">
        <ele>186.15</ele>
        <time>2014-09-07T07:33:35Z</time>
      </trkpt>
      <trkpt lat="43.33106" lon="2.85939">
        <ele>185.19</ele>
        <time>2014-09-07T07:33:43Z</time>
      </trkpt>
      <trkpt lat="43.33115" lon="2.85925">
        <ele>186.63</ele>
        <time>2014-09-07T07:33:50Z</time>
      </trkpt>
      <trkpt lat="43.33149" lon="2.85912">
        <ele>189.52</ele>
        <time>2014-09-07T07:34:01Z</time>
      </trkpt>
      <trkpt lat="43.33168" lon="2.85905">
        <ele>191.44</ele>
        <time>2014-09-07T07:34:05Z</time>
      </trkpt>
      <trkpt lat="43.33197" lon="2.8588">
        <ele>194.8</ele>
        <time>2014-09-07T07:34:15Z</time>
      </trkpt>
      <trkpt lat="43.33203" lon="2.85873">
        <ele>195.77</ele>
        <time>2014-09-07T07:34:17Z</time>
      </trkpt>
      <trkpt lat="43.33216" lon="2.85868">
        <ele>196.25</ele>
        <time>2014-09-07T07:34:20Z</time>
      </trkpt>
      <trkpt lat="43.33242" lon="2.85847">
        <ele>197.21</ele>
        <time>2014-09-07T07:34:30Z</time>
      </trkpt>
      <trkpt lat="43.33245" lon="2.85846">
        <ele>197.21</ele>
        <time>2014-09-07T07:34:31Z</time>
      </trkpt>
      <trkpt lat="43.3327" lon="2.85826">
        <ele>196.25</ele>
        <time>2014-09-07T07:34:41Z</time>
      </trkpt>
      <trkpt lat="43.33281" lon="2.85814">
        <ele>192.4</ele>
        <time>2014-09-07T07:34:45Z</time>
      </trkpt>
      <trkpt lat="43.33279" lon="2.85804">
        <ele>191.92</ele>
        <time>2014-09-07T07:34:49Z</time>
      </trkpt>
      <trkpt lat="43.33279" lon="2.85786">
        <ele>188.56</ele>
        <time>2014-09-07T07:34:56Z</time>
      </trkpt>
      <trkpt lat="43.33283" lon="2.85774">
        <ele>186.63</ele>
        <time>2014-09-07T07:35:00Z</time>
      </trkpt>
      <trkpt lat="43.33279" lon="2.85752">
        <ele>185.19</ele>
        <time>2014-09-07T07:35:07Z</time>
      </trkpt>
      <trkpt lat="43.33262" lon="2.85727">
        <ele>185.67</ele>
        <time>2014-09-07T07:35:21Z</time>
      </trkpt>
      <trkpt lat="43.33259" lon="2.85722">
        <ele>185.67</ele>
        <time>2014-09-07T07:35:24Z</time>
      </trkpt>
      <trkpt lat="43.33252" lon="2.85706">
        <ele>186.15</ele>
        <time>2014-09-07T07:35:31Z</time>
      </trkpt>
      <trkpt lat="43.33243" lon="2.85698">
        <ele>187.11</ele>
        <time>2014-09-07T07:35:36Z</time>
      </trkpt>
      <trkpt lat="43.33234" lon="2.85697">
        <ele>187.59</ele>
        <time>2014-09-07T07:35:41Z</time>
      </trkpt>
      <trkpt lat="43.33215" lon="2.857">
        <ele>189.52</ele>
        <time>2014-09-07T07:35:53Z</time>
      </trkpt>
      <trkpt lat="43.33214" lon="2.85699">
        <ele>189.52</ele>
        <time>2014-09-07T07:35:54Z</time>
      </trkpt>
      <trkpt lat="43.33187" lon="2.85678">
        <ele>191.92</ele>
        <time>2014-09-07T07:36:13Z</time>
      </trkpt>
      <trkpt lat="43.33179" lon="2.85673">
        <ele>191.92</ele>
        <time>2014-09-07T07:36:23Z</time>
      </trkpt>
      <trkpt lat="43.33178" lon="2.85674">
        <ele>189.04</ele>
        <time>2014-09-07T07:36:37Z</time>
      </trkpt>
      <trkpt lat="43.33177" lon="2.85657">
        <ele>190.96</ele>
        <time>2014-09-07T07:36:44Z</time>
      </trkpt>
      <trkpt lat="43.33181" lon="2.85642">
        <ele>195.77</ele>
        <time>2014-09-07T07:36:56Z</time>
      </trkpt>
      <trkpt lat="43.33181" lon="2.85637">
        <ele>196.73</ele>
        <time>2014-09-07T07:36:58Z</time>
      </trkpt>
      <trkpt lat="43.33177" lon="2.8563">
        <ele>197.69</ele>
        <time>2014-09-07T07:37:02Z</time>
      </trkpt>
      <trkpt lat="43.33168" lon="2.85624">
        <ele>198.65</ele>
        <time>2014-09-07T07:37:07Z</time>
      </trkpt>
      <trkpt lat="43.33141" lon="2.85629">
        <ele>200.57</ele>
        <time>2014-09-07T07:37:18Z</time>
      </trkpt>
      <trkpt lat="43.33114" lon="2.85609">
        <ele>200.57</ele>
        <time>2014-09-07T07:37:31Z</time>
      </trkpt>
      <trkpt lat="43.33097" lon="2.85576">
        <ele>200.09</ele>
        <time>2014-09-07T07:37:42Z</time>
      </trkpt>
      <trkpt lat="43.33081" lon="2.85545">
        <ele>198.65</ele>
        <time>2014-09-07T07:37:50Z</time>
      </trkpt>
      <trkpt lat="43.33079" lon="2.8554">
        <ele>198.17</ele>
        <time>2014-09-07T07:37:51Z</time>
      </trkpt>
      <trkpt lat="43.33068" lon="2.85519">
        <ele>197.69</ele>
        <time>2014-09-07T07:37:55Z</time>
      </trkpt>
      <trkpt lat="43.33065" lon="2.85515">
        <ele>197.21</ele>
        <time>2014-09-07T07:37:56Z</time>
      </trkpt>
      <trkpt lat="43.33061" lon="2.85512">
        <ele>197.21</ele>
        <time>2014-09-07T07:37:57Z</time>
      </trkpt>
      <trkpt lat="43.33057" lon="2.85509">
        <ele>197.21</ele>
        <time>2014-09-07T07:37:58Z</time>
      </trkpt>
      <trkpt lat="43.33053" lon="2.85507">
        <ele>197.21</ele>
        <time>2014-09-07T07:37:59Z</time>
      </trkpt>
      <trkpt lat="43.33049" lon="2.85505">
        <ele>197.21</ele>
        <time>2014-09-07T07:38:00Z</time>
      </trkpt>
      <trkpt lat="43.33025" lon="2.8548">
        <ele>201.05</ele>
        <time>2014-09-07T07:38:11Z</time>
      </trkpt>
      <trkpt lat="43.33007" lon="2.85448">
        <ele>208.26</ele>
        <time>2014-09-07T07:38:26Z</time>
      </trkpt>
      <trkpt lat="43.32989" lon="2.85425">
        <ele>212.59</ele>
        <time>2014-09-07T07:38:44Z</time>
      </trkpt>
      <trkpt lat="43.32971" lon="2.85407">
        <ele>216.43</ele>
        <time>2014-09-07T07:39:00Z</time>
      </trkpt>
      <trkpt lat="43.32954" lon="2.85417">
        <ele>218.84</ele>
        <time>2014-09-07T07:39:14Z</time>
      </trkpt>
      <trkpt lat="43.32935" lon="2.85439">
        <ele>221.24</ele>
        <time>2014-09-07T07:39:29Z</time>
      </trkpt>
      <trkpt lat="43.32911" lon="2.85462">
        <ele>223.16</ele>
        <time>2014-09-07T07:39:47Z</time>
      </trkpt>
      <trkpt lat="43.32882" lon="2.8547">
        <ele>224.61</ele>
        <time>2014-09-07T07:40:02Z</time>
      </trkpt>
      <trkpt lat="43.32843" lon="2.85476">
        <ele>225.57</ele>
        <time>2014-09-07T07:40:19Z</time>
      </trkpt>
      <trkpt lat="43.32804" lon="2.85497">
        <ele>228.93</ele>
        <time>2014-09-07T07:40:37Z</time>
      </trkpt>
      <trkpt lat="43.32769" lon="2.85481">
        <ele>232.3</ele>
        <time>2014-09-07T07:40:51Z</time>
      </trkpt>
      <trkpt lat="43.32729" lon="2.85445">
        <ele>233.74</ele>
        <time>2014-09-07T07:41:04Z</time>
      </trkpt>
      <trkpt lat="43.32716" lon="2.8543">
        <ele>233.26</ele>
        <time>2014-09-07T07:41:07Z</time>
      </trkpt>
      <trkpt lat="43.32701" lon="2.85417">
        <ele>233.26</ele>
        <time>2014-09-07T07:41:10Z</time>
      </trkpt>
      <trkpt lat="43.32697" lon="2.85412">
        <ele>233.26</ele>
        <time>2014-09-07T07:41:11Z</time>
      </trkpt>
      <trkpt lat="43.32694" lon="2.85408">
        <ele>233.26</ele>
        <time>2014-09-07T07:41:12Z</time>
      </trkpt>
      <trkpt lat="43.32669" lon="2.8535">
        <ele>234.22</ele>
        <time>2014-09-07T07:41:26Z</time>
      </trkpt>
      <trkpt lat="43.32678" lon="2.85328">
        <ele>234.22</ele>
        <time>2014-09-07T07:41:32Z</time>
      </trkpt>
      <trkpt lat="43.32678" lon="2.85324">
        <ele>234.7</ele>
        <time>2014-09-07T07:41:33Z</time>
      </trkpt>
      <trkpt lat="43.32679" lon="2.85321">
        <ele>234.7</ele>
        <time>2014-09-07T07:41:34Z</time>
      </trkpt>
      <trkpt lat="43.3268" lon="2.85318">
        <ele>235.18</ele>
        <time>2014-09-07T07:41:35Z</time>
      </trkpt>
      <trkpt lat="43.32681" lon="2.85316">
        <ele>235.18</ele>
        <time>2014-09-07T07:41:36Z</time>
      </trkpt>
      <trkpt lat="43.32683" lon="2.85314">
        <ele>235.66</ele>
        <time>2014-09-07T07:41:37Z</time>
      </trkpt>
      <trkpt lat="43.32685" lon="2.85313">
        <ele>235.66</ele>
        <time>2014-09-07T07:41:38Z</time>
      </trkpt>
      <trkpt lat="43.32692" lon="2.8531">
        <ele>237.58</ele>
        <time>2014-09-07T07:41:42Z</time>
      </trkpt>
      <trkpt lat="43.32709" lon="2.85298">
        <ele>243.83</ele>
        <time>2014-09-07T07:41:51Z</time>
      </trkpt>
      <trkpt lat="43.32713" lon="2.85297">
        <ele>244.79</ele>
        <time>2014-09-07T07:41:53Z</time>
      </trkpt>
      <trkpt lat="43.32718" lon="2.8529">
        <ele>246.23</ele>
        <time>2014-09-07T07:41:57Z</time>
      </trkpt>
      <trkpt lat="43.32721" lon="2.85285">
        <ele>246.72</ele>
        <time>2014-09-07T07:41:59Z</time>
      </trkpt>
      <trkpt lat="43.32719" lon="2.85268">
        <ele>247.68</ele>
        <time>2014-09-07T07:42:07Z</time>
      </trkpt>
      <trkpt lat="43.3272" lon="2.85265">
        <ele>247.68</ele>
        <time>2014-09-07T07:42:09Z</time>
      </trkpt>
      <trkpt lat="43.32726" lon="2.85257">
        <ele>248.16</ele>
        <time>2014-09-07T07:42:13Z</time>
      </trkpt>
      <trkpt lat="43.32746" lon="2.85248">
        <ele>248.64</ele>
        <time>2014-09-07T07:42:24Z</time>
      </trkpt>
      <trkpt lat="43.32754" lon="2.85253">
        <ele>247.2</ele>
        <time>2014-09-07T07:42:28Z</time>
      </trkpt>
      <trkpt lat="43.32775" lon="2.85239">
        <ele>245.27</ele>
        <time>2014-09-07T07:42:39Z</time>
      </trkpt>
      <trkpt lat="43.32781" lon="2.85232">
        <ele>246.23</ele>
        <time>2014-09-07T07:42:42Z</time>
      </trkpt>
      <trkpt lat="43.32784" lon="2.85216">
        <ele>247.68</ele>
        <time>2014-09-07T07:42:48Z</time>
      </trkpt>
      <trkpt lat="43.32785" lon="2.85208">
        <ele>247.2</ele>
        <time>2014-09-07T07:42:51Z</time>
      </trkpt>
      <trkpt lat="43.32781" lon="2.85183">
        <ele>246.72</ele>
        <time>2014-09-07T07:42:59Z</time>
      </trkpt>
      <trkpt lat="43.32784" lon="2.8516">
        <ele>244.79</ele>
        <time>2014-09-07T07:43:05Z</time>
      </trkpt>
      <trkpt lat="43.32786" lon="2.85154">
        <ele>243.35</ele>
        <time>2014-09-07T07:43:06Z</time>
      </trkpt>
      <trkpt lat="43.32788" lon="2.8515">
        <ele>242.39</ele>
        <time>2014-09-07T07:43:07Z</time>
      </trkpt>
      <trkpt lat="43.328" lon="2.85133">
        <ele>240.47</ele>
        <time>2014-09-07T07:43:17Z</time>
      </trkpt>
      <trkpt lat="43.32801" lon="2.85138">
        <ele>242.39</ele>
        <time>2014-09-07T07:43:58Z</time>
      </trkpt>
      <trkpt lat="43.32798" lon="2.85136">
        <ele>240.95</ele>
        <time>2014-09-07T07:44:35Z</time>
      </trkpt>
      <trkpt lat="43.32799" lon="2.85144">
        <ele>253.44</ele>
        <time>2014-09-07T07:45:16Z</time>
      </trkpt>
      <trkpt lat="43.32797" lon="2.85143">
        <ele>250.56</ele>
        <time>2014-09-07T07:45:54Z</time>
      </trkpt>
      <trkpt lat="43.32798" lon="2.85143">
        <ele>247.68</ele>
        <time>2014-09-07T07:46:39Z</time>
      </trkpt>
      <trkpt lat="43.32798" lon="2.85139">
        <ele>252</ele>
        <time>2014-09-07T07:47:11Z</time>
      </trkpt>
      <trkpt lat="43.32798" lon="2.85143">
        <ele>247.2</ele>
        <time>2014-09-07T07:47:53Z</time>
      </trkpt>
      <trkpt lat="43.328" lon="2.85139">
        <ele>246.23</ele>
        <time>2014-09-07T07:48:23Z</time>
      </trkpt>
      <trkpt lat="43.32799" lon="2.85139">
        <ele>252</ele>
        <time>2014-09-07T07:49:00Z</time>
      </trkpt>
      <trkpt lat="43.32798" lon="2.85137">
        <ele>243.35</ele>
        <time>2014-09-07T07:49:46Z</time>
      </trkpt>
      <trkpt lat="43.32796" lon="2.85137">
        <ele>238.06</ele>
        <time>2014-09-07T07:50:01Z</time>
      </trkpt>
      <trkpt lat="43.32795" lon="2.85137">
        <ele>244.31</ele>
        <time>2014-09-07T07:50:24Z</time>
      </trkpt>
      <trkpt lat="43.32797" lon="2.85135">
        <ele>239.51</ele>
        <time>2014-09-07T07:50:41Z</time>
      </trkpt>
      <trkpt lat="43.32796" lon="2.85135">
        <ele>237.58</ele>
        <time>2014-09-07T07:50:56Z</time>
      </trkpt>
      <trkpt lat="43.32796" lon="2.85133">
        <ele>237.1</ele>
        <time>2014-09-07T07:51:08Z</time>
      </trkpt>
      <trkpt lat="43.32795" lon="2.85131">
        <ele>237.1</ele>
        <time>2014-09-07T07:51:09Z</time>
      </trkpt>
      <trkpt lat="43.32794" lon="2.85129">
        <ele>236.62</ele>
        <time>2014-09-07T07:51:10Z</time>
      </trkpt>
      <trkpt lat="43.32793" lon="2.85126">
        <ele>237.1</ele>
        <time>2014-09-07T07:51:11Z</time>
      </trkpt>
      <trkpt lat="43.32792" lon="2.85122">
        <ele>237.1</ele>
        <time>2014-09-07T07:51:12Z</time>
      </trkpt>
      <trkpt lat="43.32786" lon="2.85077">
        <ele>234.22</ele>
        <time>2014-09-07T07:51:24Z</time>
      </trkpt>
      <trkpt lat="43.32777" lon="2.85025">
        <ele>232.3</ele>
        <time>2014-09-07T07:51:36Z</time>
      </trkpt>
      <trkpt lat="43.32763" lon="2.85001">
        <ele>231.81</ele>
        <time>2014-09-07T07:51:42Z</time>
      </trkpt>
      <trkpt lat="43.32749" lon="2.84967">
        <ele>231.81</ele>
        <time>2014-09-07T07:51:49Z</time>
      </trkpt>
      <trkpt lat="43.32744" lon="2.84957">
        <ele>231.33</ele>
        <time>2014-09-07T07:51:51Z</time>
      </trkpt>
      <trkpt lat="43.32742" lon="2.84951">
        <ele>230.85</ele>
        <time>2014-09-07T07:51:52Z</time>
      </trkpt>
      <trkpt lat="43.3274" lon="2.84946">
        <ele>230.85</ele>
        <time>2014-09-07T07:51:53Z</time>
      </trkpt>
      <trkpt lat="43.32738" lon="2.8494">
        <ele>230.37</ele>
        <time>2014-09-07T07:51:54Z</time>
      </trkpt>
      <trkpt lat="43.32736" lon="2.84934">
        <ele>230.37</ele>
        <time>2014-09-07T07:51:55Z</time>
      </trkpt>
      <trkpt lat="43.32735" lon="2.84928">
        <ele>229.89</ele>
        <time>2014-09-07T07:51:56Z</time>
      </trkpt>
      <trkpt lat="43.32733" lon="2.84921">
        <ele>229.89</ele>
        <time>2014-09-07T07:51:57Z</time>
      </trkpt>
      <trkpt lat="43.32726" lon="2.84903">
        <ele>228.93</ele>
        <time>2014-09-07T07:52:00Z</time>
      </trkpt>
      <trkpt lat="43.32718" lon="2.84886">
        <ele>227.97</ele>
        <time>2014-09-07T07:52:03Z</time>
      </trkpt>
      <trkpt lat="43.32715" lon="2.84881">
        <ele>227.49</ele>
        <time>2014-09-07T07:52:04Z</time>
      </trkpt>
      <trkpt lat="43.32712" lon="2.84878">
        <ele>227.01</ele>
        <time>2014-09-07T07:52:05Z</time>
      </trkpt>
      <trkpt lat="43.32706" lon="2.84877">
        <ele>227.01</ele>
        <time>2014-09-07T07:52:07Z</time>
      </trkpt>
      <trkpt lat="43.32685" lon="2.84874">
        <ele>224.61</ele>
        <time>2014-09-07T07:52:15Z</time>
      </trkpt>
      <trkpt lat="43.32669" lon="2.84857">
        <ele>220.76</ele>
        <time>2014-09-07T07:52:24Z</time>
      </trkpt>
      <trkpt lat="43.32657" lon="2.8484">
        <ele>217.88</ele>
        <time>2014-09-07T07:52:31Z</time>
      </trkpt>
      <trkpt lat="43.32652" lon="2.84817">
        <ele>214.99</ele>
        <time>2014-09-07T07:52:36Z</time>
      </trkpt>
      <trkpt lat="43.32641" lon="2.848">
        <ele>212.59</ele>
        <time>2014-09-07T07:52:43Z</time>
      </trkpt>
      <trkpt lat="43.32638" lon="2.84792">
        <ele>212.11</ele>
        <time>2014-09-07T07:52:45Z</time>
      </trkpt>
      <trkpt lat="43.32634" lon="2.8477">
        <ele>211.63</ele>
        <time>2014-09-07T07:52:50Z</time>
      </trkpt>
      <trkpt lat="43.32631" lon="2.84752">
        <ele>211.15</ele>
        <time>2014-09-07T07:52:56Z</time>
      </trkpt>
      <trkpt lat="43.3262" lon="2.84732">
        <ele>210.19</ele>
        <time>2014-09-07T07:53:04Z</time>
      </trkpt>
      <trkpt lat="43.3261" lon="2.84716">
        <ele>208.74</ele>
        <time>2014-09-07T07:53:10Z</time>
      </trkpt>
      <trkpt lat="43.32604" lon="2.847">
        <ele>207.3</ele>
        <time>2014-09-07T07:53:14Z</time>
      </trkpt>
      <trkpt lat="43.32597" lon="2.84693">
        <ele>206.82</ele>
        <time>2014-09-07T07:53:16Z</time>
      </trkpt>
      <trkpt lat="43.32594" lon="2.8469">
        <ele>206.82</ele>
        <time>2014-09-07T07:53:17Z</time>
      </trkpt>
      <trkpt lat="43.3259" lon="2.84689">
        <ele>206.34</ele>
        <time>2014-09-07T07:53:18Z</time>
      </trkpt>
      <trkpt lat="43.32588" lon="2.84685">
        <ele>206.34</ele>
        <time>2014-09-07T07:53:19Z</time>
      </trkpt>
      <trkpt lat="43.32588" lon="2.84681">
        <ele>205.86</ele>
        <time>2014-09-07T07:53:20Z</time>
      </trkpt>
      <trkpt lat="43.32587" lon="2.84677">
        <ele>205.86</ele>
        <time>2014-09-07T07:53:21Z</time>
      </trkpt>
      <trkpt lat="43.32586" lon="2.84662">
        <ele>205.38</ele>
        <time>2014-09-07T07:53:24Z</time>
      </trkpt>
      <trkpt lat="43.32586" lon="2.84657">
        <ele>205.38</ele>
        <time>2014-09-07T07:53:25Z</time>
      </trkpt>
      <trkpt lat="43.32585" lon="2.84651">
        <ele>205.38</ele>
        <time>2014-09-07T07:53:26Z</time>
      </trkpt>
      <trkpt lat="43.32584" lon="2.84645">
        <ele>205.38</ele>
        <time>2014-09-07T07:53:27Z</time>
      </trkpt>
      <trkpt lat="43.32583" lon="2.84639">
        <ele>204.9</ele>
        <time>2014-09-07T07:53:28Z</time>
      </trkpt>
      <trkpt lat="43.32582" lon="2.84631">
        <ele>204.42</ele>
        <time>2014-09-07T07:53:29Z</time>
      </trkpt>
      <trkpt lat="43.32581" lon="2.84615">
        <ele>202.98</ele>
        <time>2014-09-07T07:53:31Z</time>
      </trkpt>
      <trkpt lat="43.32579" lon="2.84607">
        <ele>202.49</ele>
        <time>2014-09-07T07:53:32Z</time>
      </trkpt>
      <trkpt lat="43.32579" lon="2.84601">
        <ele>202.01</ele>
        <time>2014-09-07T07:53:33Z</time>
      </trkpt>
      <trkpt lat="43.3258" lon="2.84597">
        <ele>202.01</ele>
        <time>2014-09-07T07:53:34Z</time>
      </trkpt>
      <trkpt lat="43.32583" lon="2.84589">
        <ele>201.53</ele>
        <time>2014-09-07T07:53:36Z</time>
      </trkpt>
      <trkpt lat="43.32584" lon="2.84584">
        <ele>201.05</ele>
        <time>2014-09-07T07:53:37Z</time>
      </trkpt>
      <trkpt lat="43.32583" lon="2.8458">
        <ele>201.05</ele>
        <time>2014-09-07T07:53:38Z</time>
      </trkpt>
      <trkpt lat="43.32582" lon="2.84576">
        <ele>200.57</ele>
        <time>2014-09-07T07:53:39Z</time>
      </trkpt>
      <trkpt lat="43.32579" lon="2.84573">
        <ele>200.57</ele>
        <time>2014-09-07T07:53:40Z</time>
      </trkpt>
      <trkpt lat="43.32576" lon="2.84571">
        <ele>200.57</ele>
        <time>2014-09-07T07:53:41Z</time>
      </trkpt>
      <trkpt lat="43.32566" lon="2.84563">
        <ele>200.09</ele>
        <time>2014-09-07T07:53:44Z</time>
      </trkpt>
      <trkpt lat="43.32565" lon="2.84541">
        <ele>200.09</ele>
        <time>2014-09-07T07:53:50Z</time>
      </trkpt>
      <trkpt lat="43.32552" lon="2.84535">
        <ele>201.53</ele>
        <time>2014-09-07T07:53:58Z</time>
      </trkpt>
      <trkpt lat="43.32546" lon="2.84529">
        <ele>201.05</ele>
        <time>2014-09-07T07:54:01Z</time>
      </trkpt>
      <trkpt lat="43.32543" lon="2.84526">
        <ele>201.53</ele>
        <time>2014-09-07T07:54:03Z</time>
      </trkpt>
      <trkpt lat="43.32542" lon="2.84523">
        <ele>201.53</ele>
        <time>2014-09-07T07:54:04Z</time>
      </trkpt>
      <trkpt lat="43.32542" lon="2.8452">
        <ele>201.53</ele>
        <time>2014-09-07T07:54:05Z</time>
      </trkpt>
      <trkpt lat="43.32543" lon="2.84517">
        <ele>201.05</ele>
        <time>2014-09-07T07:54:06Z</time>
      </trkpt>
      <trkpt lat="43.32543" lon="2.84514">
        <ele>201.53</ele>
        <time>2014-09-07T07:54:07Z</time>
      </trkpt>
      <trkpt lat="43.32555" lon="2.84457">
        <ele>203.46</ele>
        <time>2014-09-07T07:54:24Z</time>
      </trkpt>
      <trkpt lat="43.32557" lon="2.84407">
        <ele>205.38</ele>
        <time>2014-09-07T07:54:37Z</time>
      </trkpt>
      <trkpt lat="43.3256" lon="2.84365">
        <ele>207.78</ele>
        <time>2014-09-07T07:54:51Z</time>
      </trkpt>
      <trkpt lat="43.32562" lon="2.84351">
        <ele>206.82</ele>
        <time>2014-09-07T07:54:54Z</time>
      </trkpt>
      <trkpt lat="43.32573" lon="2.84304">
        <ele>205.86</ele>
        <time>2014-09-07T07:55:05Z</time>
      </trkpt>
      <trkpt lat="43.32576" lon="2.84295">
        <ele>205.86</ele>
        <time>2014-09-07T07:55:07Z</time>
      </trkpt>
      <trkpt lat="43.32591" lon="2.8428">
        <ele>204.42</ele>
        <time>2014-09-07T07:55:17Z</time>
      </trkpt>
      <trkpt lat="43.32598" lon="2.84279">
        <ele>203.94</ele>
        <time>2014-09-07T07:55:22Z</time>
      </trkpt>
      <trkpt lat="43.32611" lon="2.8427">
        <ele>201.53</ele>
        <time>2014-09-07T07:55:30Z</time>
      </trkpt>
      <trkpt lat="43.32618" lon="2.84265">
        <ele>200.57</ele>
        <time>2014-09-07T07:55:33Z</time>
      </trkpt>
      <trkpt lat="43.32622" lon="2.84265">
        <ele>199.61</ele>
        <time>2014-09-07T07:55:35Z</time>
      </trkpt>
      <trkpt lat="43.32629" lon="2.84253">
        <ele>194.8</ele>
        <time>2014-09-07T07:55:45Z</time>
      </trkpt>
      <trkpt lat="43.3263" lon="2.84249">
        <ele>193.36</ele>
        <time>2014-09-07T07:55:47Z</time>
      </trkpt>
      <trkpt lat="43.32631" lon="2.84242">
        <ele>191.92</ele>
        <time>2014-09-07T07:55:49Z</time>
      </trkpt>
      <trkpt lat="43.32631" lon="2.8424">
        <ele>191.44</ele>
        <time>2014-09-07T07:55:50Z</time>
      </trkpt>
      <trkpt lat="43.32627" lon="2.84233">
        <ele>190.48</ele>
        <time>2014-09-07T07:55:53Z</time>
      </trkpt>
      <trkpt lat="43.32626" lon="2.84229">
        <ele>189.52</ele>
        <time>2014-09-07T07:55:54Z</time>
      </trkpt>
      <trkpt lat="43.32623" lon="2.84211">
        <ele>187.11</ele>
        <time>2014-09-07T07:55:58Z</time>
      </trkpt>
      <trkpt lat="43.32619" lon="2.84186">
        <ele>182.79</ele>
        <time>2014-09-07T07:56:04Z</time>
      </trkpt>
      <trkpt lat="43.32616" lon="2.84175">
        <ele>179.42</ele>
        <time>2014-09-07T07:56:07Z</time>
      </trkpt>
      <trkpt lat="43.32626" lon="2.8415">
        <ele>172.21</ele>
        <time>2014-09-07T07:56:14Z</time>
      </trkpt>
      <trkpt lat="43.32632" lon="2.84145">
        <ele>170.77</ele>
        <time>2014-09-07T07:56:16Z</time>
      </trkpt>
      <trkpt lat="43.32629" lon="2.84123">
        <ele>167.41</ele>
        <time>2014-09-07T07:56:21Z</time>
      </trkpt>
      <trkpt lat="43.32609" lon="2.84079">
        <ele>165.48</ele>
        <time>2014-09-07T07:56:32Z</time>
      </trkpt>
      <trkpt lat="43.32591" lon="2.8406">
        <ele>165.48</ele>
        <time>2014-09-07T07:56:40Z</time>
      </trkpt>
      <trkpt lat="43.32589" lon="2.84053">
        <ele>164.52</ele>
        <time>2014-09-07T07:56:42Z</time>
      </trkpt>
      <trkpt lat="43.32589" lon="2.84037">
        <ele>163.56</ele>
        <time>2014-09-07T07:56:47Z</time>
      </trkpt>
      <trkpt lat="43.32605" lon="2.84009">
        <ele>159.24</ele>
        <time>2014-09-07T07:56:56Z</time>
      </trkpt>
      <trkpt lat="43.32621" lon="2.83984">
        <ele>157.79</ele>
        <time>2014-09-07T07:57:03Z</time>
      </trkpt>
      <trkpt lat="43.3262" lon="2.83979">
        <ele>157.79</ele>
        <time>2014-09-07T07:57:05Z</time>
      </trkpt>
      <trkpt lat="43.32614" lon="2.83967">
        <ele>157.31</ele>
        <time>2014-09-07T07:57:08Z</time>
      </trkpt>
      <trkpt lat="43.32606" lon="2.83932">
        <ele>154.43</ele>
        <time>2014-09-07T07:57:17Z</time>
      </trkpt>
      <trkpt lat="43.32609" lon="2.83925">
        <ele>153.95</ele>
        <time>2014-09-07T07:57:19Z</time>
      </trkpt>
      <trkpt lat="43.3261" lon="2.83908">
        <ele>153.47</ele>
        <time>2014-09-07T07:57:23Z</time>
      </trkpt>
      <trkpt lat="43.3261" lon="2.83879">
        <ele>152.03</ele>
        <time>2014-09-07T07:57:32Z</time>
      </trkpt>
      <trkpt lat="43.32602" lon="2.83859">
        <ele>150.58</ele>
        <time>2014-09-07T07:57:38Z</time>
      </trkpt>
      <trkpt lat="43.32602" lon="2.83854">
        <ele>150.1</ele>
        <time>2014-09-07T07:57:39Z</time>
      </trkpt>
      <trkpt lat="43.326" lon="2.83812">
        <ele>143.85</ele>
        <time>2014-09-07T07:57:48Z</time>
      </trkpt>
      <trkpt lat="43.326" lon="2.83797">
        <ele>143.85</ele>
        <time>2014-09-07T07:57:51Z</time>
      </trkpt>
      <trkpt lat="43.32599" lon="2.83791">
        <ele>144.34</ele>
        <time>2014-09-07T07:57:53Z</time>
      </trkpt>
      <trkpt lat="43.32599" lon="2.83771">
        <ele>145.78</ele>
        <time>2014-09-07T07:57:58Z</time>
      </trkpt>
      <trkpt lat="43.32601" lon="2.83755">
        <ele>145.78</ele>
        <time>2014-09-07T07:58:02Z</time>
      </trkpt>
      <trkpt lat="43.32597" lon="2.8375">
        <ele>145.3</ele>
        <time>2014-09-07T07:58:04Z</time>
      </trkpt>
      <trkpt lat="43.32593" lon="2.83727">
        <ele>144.34</ele>
        <time>2014-09-07T07:58:12Z</time>
      </trkpt>
      <trkpt lat="43.32602" lon="2.83698">
        <ele>146.74</ele>
        <time>2014-09-07T07:58:21Z</time>
      </trkpt>
      <trkpt lat="43.32606" lon="2.83688">
        <ele>147.22</ele>
        <time>2014-09-07T07:58:24Z</time>
      </trkpt>
      <trkpt lat="43.32613" lon="2.83674">
        <ele>146.74</ele>
        <time>2014-09-07T07:58:28Z</time>
      </trkpt>
      <trkpt lat="43.32609" lon="2.83653">
        <ele>144.82</ele>
        <time>2014-09-07T07:58:33Z</time>
      </trkpt>
      <trkpt lat="43.32594" lon="2.83621">
        <ele>140.97</ele>
        <time>2014-09-07T07:58:39Z</time>
      </trkpt>
      <trkpt lat="43.32591" lon="2.83575">
        <ele>137.13</ele>
        <time>2014-09-07T07:58:48Z</time>
      </trkpt>
      <trkpt lat="43.32602" lon="2.83556">
        <ele>134.24</ele>
        <time>2014-09-07T07:58:54Z</time>
      </trkpt>
      <trkpt lat="43.3261" lon="2.83572">
        <ele>133.28</ele>
        <time>2014-09-07T07:59:00Z</time>
      </trkpt>
      <trkpt lat="43.32611" lon="2.83575">
        <ele>133.28</ele>
        <time>2014-09-07T07:59:01Z</time>
      </trkpt>
      <trkpt lat="43.32614" lon="2.83579">
        <ele>132.8</ele>
        <time>2014-09-07T07:59:03Z</time>
      </trkpt>
      <trkpt lat="43.32617" lon="2.83574">
        <ele>131.84</ele>
        <time>2014-09-07T07:59:07Z</time>
      </trkpt>
      <trkpt lat="43.32623" lon="2.83551">
        <ele>129.92</ele>
        <time>2014-09-07T07:59:12Z</time>
      </trkpt>
      <trkpt lat="43.32635" lon="2.83552">
        <ele>129.92</ele>
        <time>2014-09-07T07:59:18Z</time>
      </trkpt>
      <trkpt lat="43.32667" lon="2.83574">
        <ele>130.88</ele>
        <time>2014-09-07T07:59:31Z</time>
      </trkpt>
      <trkpt lat="43.3269" lon="2.83583">
        <ele>130.4</ele>
        <time>2014-09-07T07:59:38Z</time>
      </trkpt>
      <trkpt lat="43.32704" lon="2.83605">
        <ele>129.92</ele>
        <time>2014-09-07T07:59:47Z</time>
      </trkpt>
      <trkpt lat="43.32713" lon="2.83602">
        <ele>130.88</ele>
        <time>2014-09-07T07:59:51Z</time>
      </trkpt>
      <trkpt lat="43.32715" lon="2.83604">
        <ele>130.88</ele>
        <time>2014-09-07T07:59:52Z</time>
      </trkpt>
      <trkpt lat="43.32716" lon="2.83607">
        <ele>131.36</ele>
        <time>2014-09-07T07:59:53Z</time>
      </trkpt>
      <trkpt lat="43.32719" lon="2.83615">
        <ele>132.32</ele>
        <time>2014-09-07T07:59:56Z</time>
      </trkpt>
      <trkpt lat="43.32729" lon="2.83624">
        <ele>134.24</ele>
        <time>2014-09-07T08:00:02Z</time>
      </trkpt>
      <trkpt lat="43.32738" lon="2.83611">
        <ele>135.68</ele>
        <time>2014-09-07T08:00:08Z</time>
      </trkpt>
      <trkpt lat="43.32756" lon="2.83607">
        <ele>135.68</ele>
        <time>2014-09-07T08:00:16Z</time>
      </trkpt>
      <trkpt lat="43.32784" lon="2.83622">
        <ele>137.61</ele>
        <time>2014-09-07T08:00:29Z</time>
      </trkpt>
      <trkpt lat="43.32813" lon="2.8363">
        <ele>141.45</ele>
        <time>2014-09-07T08:00:43Z</time>
      </trkpt>
      <trkpt lat="43.32835" lon="2.83607">
        <ele>142.89</ele>
        <time>2014-09-07T08:00:55Z</time>
      </trkpt>
      <trkpt lat="43.32859" lon="2.8358">
        <ele>140.01</ele>
        <time>2014-09-07T08:01:04Z</time>
      </trkpt>
      <trkpt lat="43.32862" lon="2.83581">
        <ele>140.01</ele>
        <time>2014-09-07T08:01:05Z</time>
      </trkpt>
      <trkpt lat="43.32864" lon="2.83584">
        <ele>140.01</ele>
        <time>2014-09-07T08:01:06Z</time>
      </trkpt>
      <trkpt lat="43.32886" lon="2.83625">
        <ele>141.45</ele>
        <time>2014-09-07T08:01:21Z</time>
      </trkpt>
      <trkpt lat="43.32907" lon="2.83661">
        <ele>145.78</ele>
        <time>2014-09-07T08:01:35Z</time>
      </trkpt>
      <trkpt lat="43.32915" lon="2.83679">
        <ele>148.18</ele>
        <time>2014-09-07T08:01:43Z</time>
      </trkpt>
      <trkpt lat="43.32916" lon="2.8368">
        <ele>148.18</ele>
        <time>2014-09-07T08:01:44Z</time>
      </trkpt>
      <trkpt lat="43.32918" lon="2.83682">
        <ele>148.66</ele>
        <time>2014-09-07T08:01:45Z</time>
      </trkpt>
      <trkpt lat="43.32919" lon="2.83684">
        <ele>148.66</ele>
        <time>2014-09-07T08:01:46Z</time>
      </trkpt>
      <trkpt lat="43.32921" lon="2.83685">
        <ele>148.66</ele>
        <time>2014-09-07T08:01:47Z</time>
      </trkpt>
      <trkpt lat="43.32923" lon="2.83686">
        <ele>149.14</ele>
        <time>2014-09-07T08:01:48Z</time>
      </trkpt>
      <trkpt lat="43.32925" lon="2.83686">
        <ele>149.14</ele>
        <time>2014-09-07T08:01:49Z</time>
      </trkpt>
      <trkpt lat="43.32927" lon="2.83688">
        <ele>149.14</ele>
        <time>2014-09-07T08:01:50Z</time>
      </trkpt>
      <trkpt lat="43.32938" lon="2.83699">
        <ele>150.1</ele>
        <time>2014-09-07T08:01:55Z</time>
      </trkpt>
      <trkpt lat="43.3294" lon="2.83699">
        <ele>150.1</ele>
        <time>2014-09-07T08:01:56Z</time>
      </trkpt>
      <trkpt lat="43.32943" lon="2.837">
        <ele>149.62</ele>
        <time>2014-09-07T08:01:57Z</time>
      </trkpt>
      <trkpt lat="43.32946" lon="2.837">
        <ele>149.62</ele>
        <time>2014-09-07T08:01:58Z</time>
      </trkpt>
      <trkpt lat="43.32948" lon="2.837">
        <ele>149.62</ele>
        <time>2014-09-07T08:01:59Z</time>
      </trkpt>
      <trkpt lat="43.32951" lon="2.837">
        <ele>149.62</ele>
        <time>2014-09-07T08:02:00Z</time>
      </trkpt>
      <trkpt lat="43.32953" lon="2.83699">
        <ele>149.62</ele>
        <time>2014-09-07T08:02:01Z</time>
      </trkpt>
      <trkpt lat="43.32976" lon="2.83683">
        <ele>152.51</ele>
        <time>2014-09-07T08:02:14Z</time>
      </trkpt>
      <trkpt lat="43.33004" lon="2.83662">
        <ele>156.35</ele>
        <time>2014-09-07T08:02:29Z</time>
      </trkpt>
      <trkpt lat="43.33024" lon="2.8366">
        <ele>159.72</ele>
        <time>2014-09-07T08:02:41Z</time>
      </trkpt>
      <trkpt lat="43.33039" lon="2.83639">
        <ele>160.68</ele>
        <time>2014-09-07T08:02:53Z</time>
      </trkpt>
      <trkpt lat="43.3304" lon="2.83637">
        <ele>160.68</ele>
        <time>2014-09-07T08:02:54Z</time>
      </trkpt>
      <trkpt lat="43.33042" lon="2.83637">
        <ele>161.16</ele>
        <time>2014-09-07T08:02:55Z</time>
      </trkpt>
      <trkpt lat="43.33062" lon="2.83622">
        <ele>162.12</ele>
        <time>2014-09-07T08:03:04Z</time>
      </trkpt>
      <trkpt lat="43.33067" lon="2.83621">
        <ele>162.12</ele>
        <time>2014-09-07T08:03:05Z</time>
      </trkpt>
      <trkpt lat="43.33071" lon="2.8362">
        <ele>161.64</ele>
        <time>2014-09-07T08:03:06Z</time>
      </trkpt>
      <trkpt lat="43.33074" lon="2.83618">
        <ele>161.64</ele>
        <time>2014-09-07T08:03:07Z</time>
      </trkpt>
      <trkpt lat="43.33075" lon="2.83614">
        <ele>162.12</ele>
        <time>2014-09-07T08:03:08Z</time>
      </trkpt>
      <trkpt lat="43.33075" lon="2.83611">
        <ele>162.12</ele>
        <time>2014-09-07T08:03:09Z</time>
      </trkpt>
      <trkpt lat="43.33075" lon="2.83608">
        <ele>162.12</ele>
        <time>2014-09-07T08:03:10Z</time>
      </trkpt>
      <trkpt lat="43.33075" lon="2.83606">
        <ele>162.12</ele>
        <time>2014-09-07T08:03:11Z</time>
      </trkpt>
      <trkpt lat="43.33075" lon="2.83603">
        <ele>162.12</ele>
        <time>2014-09-07T08:03:12Z</time>
      </trkpt>
      <trkpt lat="43.33074" lon="2.83601">
        <ele>162.12</ele>
        <time>2014-09-07T08:03:13Z</time>
      </trkpt>
      <trkpt lat="43.33074" lon="2.83598">
        <ele>162.12</ele>
        <time>2014-09-07T08:03:14Z</time>
      </trkpt>
      <trkpt lat="43.33074" lon="2.83596">
        <ele>162.12</ele>
        <time>2014-09-07T08:03:15Z</time>
      </trkpt>
      <trkpt lat="43.33074" lon="2.83593">
        <ele>162.12</ele>
        <time>2014-09-07T08:03:16Z</time>
      </trkpt>
      <trkpt lat="43.33068" lon="2.83557">
        <ele>162.12</ele>
        <time>2014-09-07T08:03:29Z</time>
      </trkpt>
      <trkpt lat="43.33063" lon="2.8352">
        <ele>163.08</ele>
        <time>2014-09-07T08:03:41Z</time>
      </trkpt>
      <trkpt lat="43.33061" lon="2.83517">
        <ele>163.56</ele>
        <time>2014-09-07T08:03:42Z</time>
      </trkpt>
      <trkpt lat="43.33039" lon="2.83498">
        <ele>163.08</ele>
        <time>2014-09-07T08:03:51Z</time>
      </trkpt>
      <trkpt lat="43.33035" lon="2.83494">
        <ele>162.6</ele>
        <time>2014-09-07T08:03:52Z</time>
      </trkpt>
      <trkpt lat="43.33031" lon="2.8349">
        <ele>162.12</ele>
        <time>2014-09-07T08:03:53Z</time>
      </trkpt>
      <trkpt lat="43.33028" lon="2.83485">
        <ele>161.64</ele>
        <time>2014-09-07T08:03:54Z</time>
      </trkpt>
      <trkpt lat="43.33026" lon="2.8348">
        <ele>161.16</ele>
        <time>2014-09-07T08:03:55Z</time>
      </trkpt>
      <trkpt lat="43.33024" lon="2.83474">
        <ele>160.68</ele>
        <time>2014-09-07T08:03:56Z</time>
      </trkpt>
      <trkpt lat="43.33023" lon="2.83468">
        <ele>160.2</ele>
        <time>2014-09-07T08:03:57Z</time>
      </trkpt>
      <trkpt lat="43.33022" lon="2.83463">
        <ele>159.72</ele>
        <time>2014-09-07T08:03:58Z</time>
      </trkpt>
      <trkpt lat="43.33022" lon="2.83457">
        <ele>159.24</ele>
        <time>2014-09-07T08:03:59Z</time>
      </trkpt>
      <trkpt lat="43.33016" lon="2.83428">
        <ele>158.27</ele>
        <time>2014-09-07T08:04:06Z</time>
      </trkpt>
      <trkpt lat="43.33007" lon="2.83429">
        <ele>157.79</ele>
        <time>2014-09-07T08:04:10Z</time>
      </trkpt>
      <trkpt lat="43.32982" lon="2.83411">
        <ele>157.31</ele>
        <time>2014-09-07T08:04:18Z</time>
      </trkpt>
      <trkpt lat="43.32966" lon="2.83398">
        <ele>156.83</ele>
        <time>2014-09-07T08:04:22Z</time>
      </trkpt>
      <trkpt lat="43.32955" lon="2.83367">
        <ele>154.91</ele>
        <time>2014-09-07T08:04:30Z</time>
      </trkpt>
      <trkpt lat="43.32962" lon="2.8335">
        <ele>154.43</ele>
        <time>2014-09-07T08:04:37Z</time>
      </trkpt>
      <trkpt lat="43.32961" lon="2.83338">
        <ele>155.39</ele>
        <time>2014-09-07T08:04:41Z</time>
      </trkpt>
      <trkpt lat="43.32956" lon="2.83328">
        <ele>154.91</ele>
        <time>2014-09-07T08:04:44Z</time>
      </trkpt>
      <trkpt lat="43.32946" lon="2.83314">
        <ele>153.95</ele>
        <time>2014-09-07T08:04:48Z</time>
      </trkpt>
      <trkpt lat="43.32942" lon="2.83307">
        <ele>152.99</ele>
        <time>2014-09-07T08:04:50Z</time>
      </trkpt>
      <trkpt lat="43.3293" lon="2.8329">
        <ele>152.51</ele>
        <time>2014-09-07T08:04:57Z</time>
      </trkpt>
      <trkpt lat="43.32916" lon="2.83275">
        <ele>152.99</ele>
        <time>2014-09-07T08:05:04Z</time>
      </trkpt>
      <trkpt lat="43.32908" lon="2.83278">
        <ele>153.95</ele>
        <time>2014-09-07T08:05:07Z</time>
      </trkpt>
      <trkpt lat="43.32902" lon="2.83273">
        <ele>153.95</ele>
        <time>2014-09-07T08:05:10Z</time>
      </trkpt>
      <trkpt lat="43.32895" lon="2.83248">
        <ele>152.03</ele>
        <time>2014-09-07T08:05:20Z</time>
      </trkpt>
      <trkpt lat="43.32888" lon="2.83239">
        <ele>150.1</ele>
        <time>2014-09-07T08:05:24Z</time>
      </trkpt>
      <trkpt lat="43.32883" lon="2.83224">
        <ele>149.62</ele>
        <time>2014-09-07T08:05:30Z</time>
      </trkpt>
      <trkpt lat="43.32865" lon="2.83211">
        <ele>147.7</ele>
        <time>2014-09-07T08:05:37Z</time>
      </trkpt>
      <trkpt lat="43.32847" lon="2.83194">
        <ele>145.78</ele>
        <time>2014-09-07T08:05:44Z</time>
      </trkpt>
      <trkpt lat="43.3284" lon="2.83169">
        <ele>146.26</ele>
        <time>2014-09-07T08:05:52Z</time>
      </trkpt>
      <trkpt lat="43.32837" lon="2.83158">
        <ele>146.74</ele>
        <time>2014-09-07T08:05:55Z</time>
      </trkpt>
      <trkpt lat="43.32825" lon="2.83142">
        <ele>146.74</ele>
        <time>2014-09-07T08:06:01Z</time>
      </trkpt>
      <trkpt lat="43.32814" lon="2.83126">
        <ele>145.78</ele>
        <time>2014-09-07T08:06:06Z</time>
      </trkpt>
      <trkpt lat="43.32813" lon="2.83113">
        <ele>146.74</ele>
        <time>2014-09-07T08:06:10Z</time>
      </trkpt>
      <trkpt lat="43.3282" lon="2.83105">
        <ele>148.66</ele>
        <time>2014-09-07T08:06:16Z</time>
      </trkpt>
      <trkpt lat="43.32818" lon="2.83095">
        <ele>149.14</ele>
        <time>2014-09-07T08:06:20Z</time>
      </trkpt>
      <trkpt lat="43.32811" lon="2.83075">
        <ele>147.7</ele>
        <time>2014-09-07T08:06:26Z</time>
      </trkpt>
      <trkpt lat="43.32814" lon="2.83043">
        <ele>149.62</ele>
        <time>2014-09-07T08:06:36Z</time>
      </trkpt>
      <trkpt lat="43.32802" lon="2.83023">
        <ele>149.62</ele>
        <time>2014-09-07T08:06:47Z</time>
      </trkpt>
      <trkpt lat="43.32798" lon="2.83025">
        <ele>143.37</ele>
        <time>2014-09-07T08:06:55Z</time>
      </trkpt>
      <trkpt lat="43.32798" lon="2.83025">
        <ele>143.37</ele>
        <time>2014-09-07T08:06:58Z</time>
      </trkpt>
      <trkpt lat="43.32794" lon="2.83025">
        <ele>144.34</ele>
        <time>2014-09-07T08:07:07Z</time>
      </trkpt>
      <trkpt lat="43.32794" lon="2.83025">
        <ele>144.82</ele>
        <time>2014-09-07T08:07:08Z</time>
      </trkpt>
      <trkpt lat="43.32793" lon="2.83025">
        <ele>146.26</ele>
        <time>2014-09-07T08:07:23Z</time>
      </trkpt>
      <trkpt lat="43.32794" lon="2.83026">
        <ele>145.78</ele>
        <time>2014-09-07T08:07:52Z</time>
      </trkpt>
      <trkpt lat="43.32795" lon="2.83027">
        <ele>146.74</ele>
        <time>2014-09-07T08:08:02Z</time>
      </trkpt>
      <trkpt lat="43.32794" lon="2.83028">
        <ele>143.85</ele>
        <time>2014-09-07T08:08:50Z</time>
      </trkpt>
      <trkpt lat="43.32794" lon="2.83028">
        <ele>143.85</ele>
        <time>2014-09-07T08:09:30Z</time>
      </trkpt>
      <trkpt lat="43.32795" lon="2.83028">
        <ele>143.37</ele>
        <time>2014-09-07T08:10:02Z</time>
      </trkpt>
      <trkpt lat="43.32797" lon="2.83029">
        <ele>144.82</ele>
        <time>2014-09-07T08:10:33Z</time>
      </trkpt>
      <trkpt lat="43.32794" lon="2.83025">
        <ele>149.14</ele>
        <time>2014-09-07T08:11:04Z</time>
      </trkpt>
      <trkpt lat="43.32794" lon="2.83027">
        <ele>151.06</ele>
        <time>2014-09-07T08:11:33Z</time>
      </trkpt>
      <trkpt lat="43.32793" lon="2.83027">
        <ele>152.51</ele>
        <time>2014-09-07T08:12:09Z</time>
      </trkpt>
      <trkpt lat="43.32792" lon="2.83026">
        <ele>152.51</ele>
        <time>2014-09-07T08:12:36Z</time>
      </trkpt>
      <trkpt lat="43.32792" lon="2.83027">
        <ele>153.95</ele>
        <time>2014-09-07T08:13:06Z</time>
      </trkpt>
      <trkpt lat="43.32794" lon="2.83026">
        <ele>153.95</ele>
        <time>2014-09-07T08:13:36Z</time>
      </trkpt>
      <trkpt lat="43.32796" lon="2.83025">
        <ele>153.95</ele>
        <time>2014-09-07T08:14:04Z</time>
      </trkpt>
      <trkpt lat="43.32796" lon="2.83033">
        <ele>152.03</ele>
        <time>2014-09-07T08:14:34Z</time>
      </trkpt>
      <trkpt lat="43.32798" lon="2.83031">
        <ele>149.14</ele>
        <time>2014-09-07T08:15:04Z</time>
      </trkpt>
      <trkpt lat="43.32799" lon="2.83032">
        <ele>147.22</ele>
        <time>2014-09-07T08:15:31Z</time>
      </trkpt>
      <trkpt lat="43.32792" lon="2.83024">
        <ele>148.66</ele>
        <time>2014-09-07T08:15:45Z</time>
      </trkpt>
      <trkpt lat="43.32792" lon="2.83025">
        <ele>147.7</ele>
        <time>2014-09-07T08:15:56Z</time>
      </trkpt>
      <trkpt lat="43.32792" lon="2.83024">
        <ele>146.26</ele>
        <time>2014-09-07T08:16:16Z</time>
      </trkpt>
      <trkpt lat="43.32792" lon="2.83024">
        <ele>145.78</ele>
        <time>2014-09-07T08:16:37Z</time>
      </trkpt>
      <trkpt lat="43.32791" lon="2.83021">
        <ele>146.26</ele>
        <time>2014-09-07T08:17:01Z</time>
      </trkpt>
      <trkpt lat="43.32791" lon="2.8302">
        <ele>146.26</ele>
        <time>2014-09-07T08:17:07Z</time>
      </trkpt>
      <trkpt lat="43.32778" lon="2.83">
        <ele>144.82</ele>
        <time>2014-09-07T08:17:17Z</time>
      </trkpt>
      <trkpt lat="43.32784" lon="2.82984">
        <ele>142.41</ele>
        <time>2014-09-07T08:17:24Z</time>
      </trkpt>
      <trkpt lat="43.32796" lon="2.82982">
        <ele>142.41</ele>
        <time>2014-09-07T08:17:29Z</time>
      </trkpt>
      <trkpt lat="43.32804" lon="2.82989">
        <ele>144.34</ele>
        <time>2014-09-07T08:17:34Z</time>
      </trkpt>
      <trkpt lat="43.32813" lon="2.8298">
        <ele>144.82</ele>
        <time>2014-09-07T08:17:40Z</time>
      </trkpt>
      <trkpt lat="43.32817" lon="2.82972">
        <ele>143.85</ele>
        <time>2014-09-07T08:17:43Z</time>
      </trkpt>
      <trkpt lat="43.32847" lon="2.82971">
        <ele>143.37</ele>
        <time>2014-09-07T08:17:56Z</time>
      </trkpt>
      <trkpt lat="43.32854" lon="2.82966">
        <ele>142.89</ele>
        <time>2014-09-07T08:18:00Z</time>
      </trkpt>
      <trkpt lat="43.32874" lon="2.8297">
        <ele>139.53</ele>
        <time>2014-09-07T08:18:09Z</time>
      </trkpt>
      <trkpt lat="43.32876" lon="2.8297">
        <ele>139.53</ele>
        <time>2014-09-07T08:18:10Z</time>
      </trkpt>
      <trkpt lat="43.32882" lon="2.82969">
        <ele>139.53</ele>
        <time>2014-09-07T08:18:12Z</time>
      </trkpt>
      <trkpt lat="43.32894" lon="2.82954">
        <ele>138.57</ele>
        <time>2014-09-07T08:18:18Z</time>
      </trkpt>
      <trkpt lat="43.3289" lon="2.82944">
        <ele>137.61</ele>
        <time>2014-09-07T08:18:27Z</time>
      </trkpt>
      <trkpt lat="43.32876" lon="2.82942">
        <ele>134.24</ele>
        <time>2014-09-07T08:18:33Z</time>
      </trkpt>
      <trkpt lat="43.3287" lon="2.82942">
        <ele>132.8</ele>
        <time>2014-09-07T08:18:35Z</time>
      </trkpt>
      <trkpt lat="43.32851" lon="2.82925">
        <ele>127.51</ele>
        <time>2014-09-07T08:18:45Z</time>
      </trkpt>
      <trkpt lat="43.32847" lon="2.8292">
        <ele>126.55</ele>
        <time>2014-09-07T08:18:49Z</time>
      </trkpt>
      <trkpt lat="43.32857" lon="2.82917">
        <ele>126.07</ele>
        <time>2014-09-07T08:18:55Z</time>
      </trkpt>
      <trkpt lat="43.32883" lon="2.82924">
        <ele>130.4</ele>
        <time>2014-09-07T08:19:09Z</time>
      </trkpt>
      <trkpt lat="43.32912" lon="2.82916">
        <ele>132.8</ele>
        <time>2014-09-07T08:19:24Z</time>
      </trkpt>
      <trkpt lat="43.3294" lon="2.82899">
        <ele>132.32</ele>
        <time>2014-09-07T08:19:38Z</time>
      </trkpt>
      <trkpt lat="43.32981" lon="2.82888">
        <ele>136.64</ele>
        <time>2014-09-07T08:19:54Z</time>
      </trkpt>
      <trkpt lat="43.33019" lon="2.82869">
        <ele>137.13</ele>
        <time>2014-09-07T08:20:07Z</time>
      </trkpt>
      <trkpt lat="43.33046" lon="2.82853">
        <ele>135.68</ele>
        <time>2014-09-07T08:20:16Z</time>
      </trkpt>
      <trkpt lat="43.33046" lon="2.8285">
        <ele>135.68</ele>
        <time>2014-09-07T08:20:17Z</time>
      </trkpt>
      <trkpt lat="43.33046" lon="2.82847">
        <ele>135.2</ele>
        <time>2014-09-07T08:20:18Z</time>
      </trkpt>
      <trkpt lat="43.33044" lon="2.82844">
        <ele>134.72</ele>
        <time>2014-09-07T08:20:19Z</time>
      </trkpt>
      <trkpt lat="43.33042" lon="2.8284">
        <ele>134.72</ele>
        <time>2014-09-07T08:20:20Z</time>
      </trkpt>
      <trkpt lat="43.33039" lon="2.82836">
        <ele>134.24</ele>
        <time>2014-09-07T08:20:21Z</time>
      </trkpt>
      <trkpt lat="43.3302" lon="2.82807">
        <ele>132.8</ele>
        <time>2014-09-07T08:20:27Z</time>
      </trkpt>
      <trkpt lat="43.33015" lon="2.82797">
        <ele>132.8</ele>
        <time>2014-09-07T08:20:29Z</time>
      </trkpt>
      <trkpt lat="43.33008" lon="2.82781">
        <ele>132.32</ele>
        <time>2014-09-07T08:20:32Z</time>
      </trkpt>
      <trkpt lat="43.33007" lon="2.82776">
        <ele>132.32</ele>
        <time>2014-09-07T08:20:33Z</time>
      </trkpt>
      <trkpt lat="43.33009" lon="2.827">
        <ele>132.8</ele>
        <time>2014-09-07T08:20:48Z</time>
      </trkpt>
      <trkpt lat="43.33009" lon="2.82684">
        <ele>132.8</ele>
        <time>2014-09-07T08:20:51Z</time>
      </trkpt>
      <trkpt lat="43.33008" lon="2.82679">
        <ele>132.8</ele>
        <time>2014-09-07T08:20:52Z</time>
      </trkpt>
      <trkpt lat="43.32999" lon="2.82609">
        <ele>132.32</ele>
        <time>2014-09-07T08:21:06Z</time>
      </trkpt>
      <trkpt lat="43.33" lon="2.82604">
        <ele>131.84</ele>
        <time>2014-09-07T08:21:07Z</time>
      </trkpt>
      <trkpt lat="43.33003" lon="2.82585">
        <ele>130.88</ele>
        <time>2014-09-07T08:21:11Z</time>
      </trkpt>
      <trkpt lat="43.33001" lon="2.82583">
        <ele>130.88</ele>
        <time>2014-09-07T08:21:12Z</time>
      </trkpt>
      <trkpt lat="43.32998" lon="2.82582">
        <ele>130.88</ele>
        <time>2014-09-07T08:21:13Z</time>
      </trkpt>
      <trkpt lat="43.32995" lon="2.82581">
        <ele>130.88</ele>
        <time>2014-09-07T08:21:14Z</time>
      </trkpt>
      <trkpt lat="43.32991" lon="2.82579">
        <ele>130.88</ele>
        <time>2014-09-07T08:21:15Z</time>
      </trkpt>
      <trkpt lat="43.32988" lon="2.82577">
        <ele>130.88</ele>
        <time>2014-09-07T08:21:16Z</time>
      </trkpt>
      <trkpt lat="43.32985" lon="2.82574">
        <ele>131.36</ele>
        <time>2014-09-07T08:21:17Z</time>
      </trkpt>
      <trkpt lat="43.32983" lon="2.82571">
        <ele>131.36</ele>
        <time>2014-09-07T08:21:18Z</time>
      </trkpt>
      <trkpt lat="43.32981" lon="2.82567">
        <ele>131.84</ele>
        <time>2014-09-07T08:21:19Z</time>
      </trkpt>
      <trkpt lat="43.32979" lon="2.82563">
        <ele>131.84</ele>
        <time>2014-09-07T08:21:20Z</time>
      </trkpt>
      <trkpt lat="43.32948" lon="2.82537">
        <ele>133.28</ele>
        <time>2014-09-07T08:21:31Z</time>
      </trkpt>
      <trkpt lat="43.32944" lon="2.82536">
        <ele>133.28</ele>
        <time>2014-09-07T08:21:32Z</time>
      </trkpt>
      <trkpt lat="43.32934" lon="2.82534">
        <ele>132.32</ele>
        <time>2014-09-07T08:21:34Z</time>
      </trkpt>
      <trkpt lat="43.32929" lon="2.82532">
        <ele>132.32</ele>
        <time>2014-09-07T08:21:35Z</time>
      </trkpt>
      <trkpt lat="43.32924" lon="2.82529">
        <ele>131.84</ele>
        <time>2014-09-07T08:21:36Z</time>
      </trkpt>
      <trkpt lat="43.329" lon="2.82517">
        <ele>129.43</ele>
        <time>2014-09-07T08:21:40Z</time>
      </trkpt>
      <trkpt lat="43.32888" lon="2.82512">
        <ele>127.99</ele>
        <time>2014-09-07T08:21:42Z</time>
      </trkpt>
      <trkpt lat="43.32883" lon="2.82509">
        <ele>127.51</ele>
        <time>2014-09-07T08:21:43Z</time>
      </trkpt>
      <trkpt lat="43.32879" lon="2.82505">
        <ele>127.03</ele>
        <time>2014-09-07T08:21:44Z</time>
      </trkpt>
      <trkpt lat="43.32876" lon="2.825">
        <ele>126.55</ele>
        <time>2014-09-07T08:21:45Z</time>
      </trkpt>
      <trkpt lat="43.32874" lon="2.82496">
        <ele>126.55</ele>
        <time>2014-09-07T08:21:46Z</time>
      </trkpt>
      <trkpt lat="43.32873" lon="2.82492">
        <ele>126.07</ele>
        <time>2014-09-07T08:21:47Z</time>
      </trkpt>
      <trkpt lat="43.32873" lon="2.8249">
        <ele>125.59</ele>
        <time>2014-09-07T08:21:48Z</time>
      </trkpt>
      <trkpt lat="43.32874" lon="2.82488">
        <ele>125.59</ele>
        <time>2014-09-07T08:21:49Z</time>
      </trkpt>
      <trkpt lat="43.32878" lon="2.82486">
        <ele>125.11</ele>
        <time>2014-09-07T08:21:51Z</time>
      </trkpt>
      <trkpt lat="43.32921" lon="2.82484">
        <ele>127.51</ele>
        <time>2014-09-07T08:22:05Z</time>
      </trkpt>
      <trkpt lat="43.32962" lon="2.82466">
        <ele>130.88</ele>
        <time>2014-09-07T08:22:19Z</time>
      </trkpt>
      <trkpt lat="43.32969" lon="2.82462">
        <ele>132.32</ele>
        <time>2014-09-07T08:22:29Z</time>
      </trkpt>
      <trkpt lat="43.32973" lon="2.82462">
        <ele>133.28</ele>
        <time>2014-09-07T08:22:42Z</time>
      </trkpt>
      <trkpt lat="43.32983" lon="2.82465">
        <ele>135.68</ele>
        <time>2014-09-07T08:22:55Z</time>
      </trkpt>
      <trkpt lat="43.32987" lon="2.82468">
        <ele>137.61</ele>
        <time>2014-09-07T08:23:07Z</time>
      </trkpt>
      <trkpt lat="43.32986" lon="2.82468">
        <ele>137.61</ele>
        <time>2014-09-07T08:23:09Z</time>
      </trkpt>
      <trkpt lat="43.32995" lon="2.8247">
        <ele>138.09</ele>
        <time>2014-09-07T08:23:15Z</time>
      </trkpt>
      <trkpt lat="43.33005" lon="2.8247">
        <ele>139.53</ele>
        <time>2014-09-07T08:23:20Z</time>
      </trkpt>
      <trkpt lat="43.33009" lon="2.82475">
        <ele>140.01</ele>
        <time>2014-09-07T08:23:24Z</time>
      </trkpt>
      <trkpt lat="43.33013" lon="2.82474">
        <ele>140.49</ele>
        <time>2014-09-07T08:23:27Z</time>
      </trkpt>
      <trkpt lat="43.33024" lon="2.82466">
        <ele>139.53</ele>
        <time>2014-09-07T08:23:35Z</time>
      </trkpt>
      <trkpt lat="43.33045" lon="2.82433">
        <ele>137.61</ele>
        <time>2014-09-07T08:23:46Z</time>
      </trkpt>
      <trkpt lat="43.33047" lon="2.82433">
        <ele>138.09</ele>
        <time>2014-09-07T08:23:47Z</time>
      </trkpt>
      <trkpt lat="43.3307" lon="2.82443">
        <ele>140.01</ele>
        <time>2014-09-07T08:23:57Z</time>
      </trkpt>
      <trkpt lat="43.33103" lon="2.82435">
        <ele>141.93</ele>
        <time>2014-09-07T08:24:10Z</time>
      </trkpt>
      <trkpt lat="43.33104" lon="2.82434">
        <ele>141.93</ele>
        <time>2014-09-07T08:24:11Z</time>
      </trkpt>
      <trkpt lat="43.33104" lon="2.82425">
        <ele>142.41</ele>
        <time>2014-09-07T08:24:16Z</time>
      </trkpt>
      <trkpt lat="43.33102" lon="2.824">
        <ele>142.41</ele>
        <time>2014-09-07T08:24:27Z</time>
      </trkpt>
      <trkpt lat="43.33094" lon="2.82359">
        <ele>142.41</ele>
        <time>2014-09-07T08:24:41Z</time>
      </trkpt>
      <trkpt lat="43.33069" lon="2.82314">
        <ele>142.41</ele>
        <time>2014-09-07T08:24:55Z</time>
      </trkpt>
      <trkpt lat="43.33067" lon="2.82308">
        <ele>141.93</ele>
        <time>2014-09-07T08:24:56Z</time>
      </trkpt>
      <trkpt lat="43.33065" lon="2.82302">
        <ele>141.45</ele>
        <time>2014-09-07T08:24:57Z</time>
      </trkpt>
      <trkpt lat="43.33064" lon="2.82295">
        <ele>140.97</ele>
        <time>2014-09-07T08:24:58Z</time>
      </trkpt>
      <trkpt lat="43.33064" lon="2.82287">
        <ele>140.49</ele>
        <time>2014-09-07T08:24:59Z</time>
      </trkpt>
      <trkpt lat="43.33063" lon="2.82278">
        <ele>139.53</ele>
        <time>2014-09-07T08:25:00Z</time>
      </trkpt>
      <trkpt lat="43.3306" lon="2.82238">
        <ele>136.16</ele>
        <time>2014-09-07T08:25:04Z</time>
      </trkpt>
      <trkpt lat="43.33058" lon="2.82228">
        <ele>135.2</ele>
        <time>2014-09-07T08:25:05Z</time>
      </trkpt>
      <trkpt lat="43.33043" lon="2.82139">
        <ele>129.92</ele>
        <time>2014-09-07T08:25:13Z</time>
      </trkpt>
      <trkpt lat="43.33042" lon="2.82103">
        <ele>129.92</ele>
        <time>2014-09-07T08:25:17Z</time>
      </trkpt>
      <trkpt lat="43.33043" lon="2.82097">
        <ele>130.4</ele>
        <time>2014-09-07T08:25:18Z</time>
      </trkpt>
      <trkpt lat="43.33045" lon="2.82091">
        <ele>130.88</ele>
        <time>2014-09-07T08:25:19Z</time>
      </trkpt>
      <trkpt lat="43.33046" lon="2.82087">
        <ele>131.36</ele>
        <time>2014-09-07T08:25:20Z</time>
      </trkpt>
      <trkpt lat="43.33049" lon="2.82085">
        <ele>131.36</ele>
        <time>2014-09-07T08:25:21Z</time>
      </trkpt>
      <trkpt lat="43.33051" lon="2.82086">
        <ele>131.84</ele>
        <time>2014-09-07T08:25:22Z</time>
      </trkpt>
      <trkpt lat="43.33053" lon="2.82088">
        <ele>131.84</ele>
        <time>2014-09-07T08:25:23Z</time>
      </trkpt>
      <trkpt lat="43.33053" lon="2.82092">
        <ele>131.84</ele>
        <time>2014-09-07T08:25:24Z</time>
      </trkpt>
      <trkpt lat="43.33054" lon="2.82095">
        <ele>132.32</ele>
        <time>2014-09-07T08:25:25Z</time>
      </trkpt>
      <trkpt lat="43.33053" lon="2.82099">
        <ele>132.32</ele>
        <time>2014-09-07T08:25:26Z</time>
      </trkpt>
      <trkpt lat="43.33055" lon="2.8212">
        <ele>133.76</ele>
        <time>2014-09-07T08:25:31Z</time>
      </trkpt>
      <trkpt lat="43.33057" lon="2.82124">
        <ele>134.24</ele>
        <time>2014-09-07T08:25:32Z</time>
      </trkpt>
      <trkpt lat="43.3306" lon="2.82126">
        <ele>134.24</ele>
        <time>2014-09-07T08:25:33Z</time>
      </trkpt>
      <trkpt lat="43.33062" lon="2.82128">
        <ele>134.72</ele>
        <time>2014-09-07T08:25:34Z</time>
      </trkpt>
      <trkpt lat="43.33065" lon="2.82128">
        <ele>135.2</ele>
        <time>2014-09-07T08:25:35Z</time>
      </trkpt>
      <trkpt lat="43.33067" lon="2.82129">
        <ele>135.2</ele>
        <time>2014-09-07T08:25:36Z</time>
      </trkpt>
      <trkpt lat="43.33117" lon="2.82133">
        <ele>140.01</ele>
        <time>2014-09-07T08:25:53Z</time>
      </trkpt>
      <trkpt lat="43.33136" lon="2.82134">
        <ele>141.93</ele>
        <time>2014-09-07T08:26:01Z</time>
      </trkpt>
      <trkpt lat="43.33139" lon="2.82118">
        <ele>141.93</ele>
        <time>2014-09-07T08:26:06Z</time>
      </trkpt>
      <trkpt lat="43.3314" lon="2.82052">
        <ele>143.37</ele>
        <time>2014-09-07T08:26:23Z</time>
      </trkpt>
      <trkpt lat="43.33126" lon="2.82006">
        <ele>147.22</ele>
        <time>2014-09-07T08:26:36Z</time>
      </trkpt>
      <trkpt lat="43.33112" lon="2.8197">
        <ele>149.62</ele>
        <time>2014-09-07T08:26:49Z</time>
      </trkpt>
      <trkpt lat="43.33081" lon="2.81945">
        <ele>152.03</ele>
        <time>2014-09-07T08:27:06Z</time>
      </trkpt>
      <trkpt lat="43.33063" lon="2.81917">
        <ele>155.87</ele>
        <time>2014-09-07T08:27:22Z</time>
      </trkpt>
      <trkpt lat="43.33045" lon="2.81897">
        <ele>157.31</ele>
        <time>2014-09-07T08:27:35Z</time>
      </trkpt>
      <trkpt lat="43.33027" lon="2.8187">
        <ele>156.83</ele>
        <time>2014-09-07T08:27:45Z</time>
      </trkpt>
      <trkpt lat="43.33013" lon="2.81843">
        <ele>155.39</ele>
        <time>2014-09-07T08:27:52Z</time>
      </trkpt>
      <trkpt lat="43.33009" lon="2.81838">
        <ele>154.91</ele>
        <time>2014-09-07T08:27:53Z</time>
      </trkpt>
      <trkpt lat="43.33005" lon="2.81834">
        <ele>154.43</ele>
        <time>2014-09-07T08:27:54Z</time>
      </trkpt>
      <trkpt lat="43.33002" lon="2.81831">
        <ele>153.95</ele>
        <time>2014-09-07T08:27:55Z</time>
      </trkpt>
      <trkpt lat="43.32998" lon="2.81829">
        <ele>153.47</ele>
        <time>2014-09-07T08:27:56Z</time>
      </trkpt>
      <trkpt lat="43.32995" lon="2.81827">
        <ele>152.99</ele>
        <time>2014-09-07T08:27:57Z</time>
      </trkpt>
      <trkpt lat="43.32991" lon="2.81826">
        <ele>152.51</ele>
        <time>2014-09-07T08:27:58Z</time>
      </trkpt>
      <trkpt lat="43.32986" lon="2.81825">
        <ele>152.51</ele>
        <time>2014-09-07T08:27:59Z</time>
      </trkpt>
      <trkpt lat="43.32978" lon="2.81822">
        <ele>151.54</ele>
        <time>2014-09-07T08:28:01Z</time>
      </trkpt>
      <trkpt lat="43.32974" lon="2.8182">
        <ele>151.06</ele>
        <time>2014-09-07T08:28:02Z</time>
      </trkpt>
      <trkpt lat="43.32972" lon="2.81815">
        <ele>150.58</ele>
        <time>2014-09-07T08:28:03Z</time>
      </trkpt>
      <trkpt lat="43.32971" lon="2.81811">
        <ele>150.1</ele>
        <time>2014-09-07T08:28:04Z</time>
      </trkpt>
      <trkpt lat="43.32972" lon="2.81807">
        <ele>150.1</ele>
        <time>2014-09-07T08:28:05Z</time>
      </trkpt>
      <trkpt lat="43.32967" lon="2.8178">
        <ele>152.03</ele>
        <time>2014-09-07T08:28:15Z</time>
      </trkpt>
      <trkpt lat="43.32961" lon="2.8177">
        <ele>153.47</ele>
        <time>2014-09-07T08:28:19Z</time>
      </trkpt>
      <trkpt lat="43.32961" lon="2.81768">
        <ele>153.47</ele>
        <time>2014-09-07T08:28:20Z</time>
      </trkpt>
      <trkpt lat="43.32935" lon="2.81749">
        <ele>154.43</ele>
        <time>2014-09-07T08:28:31Z</time>
      </trkpt>
      <trkpt lat="43.32912" lon="2.81744">
        <ele>154.43</ele>
        <time>2014-09-07T08:28:38Z</time>
      </trkpt>
      <trkpt lat="43.32888" lon="2.81748">
        <ele>153.47</ele>
        <time>2014-09-07T08:28:46Z</time>
      </trkpt>
      <trkpt lat="43.32885" lon="2.81753">
        <ele>152.99</ele>
        <time>2014-09-07T08:28:48Z</time>
      </trkpt>
      <trkpt lat="43.32881" lon="2.81772">
        <ele>152.03</ele>
        <time>2014-09-07T08:28:52Z</time>
      </trkpt>
      <trkpt lat="43.32872" lon="2.81785">
        <ele>150.58</ele>
        <time>2014-09-07T08:28:56Z</time>
      </trkpt>
      <trkpt lat="43.32861" lon="2.81788">
        <ele>149.62</ele>
        <time>2014-09-07T08:29:01Z</time>
      </trkpt>
      <trkpt lat="43.32853" lon="2.81784">
        <ele>149.14</ele>
        <time>2014-09-07T08:29:03Z</time>
      </trkpt>
      <trkpt lat="43.32842" lon="2.81787">
        <ele>147.7</ele>
        <time>2014-09-07T08:29:07Z</time>
      </trkpt>
      <trkpt lat="43.32838" lon="2.81792">
        <ele>146.74</ele>
        <time>2014-09-07T08:29:09Z</time>
      </trkpt>
      <trkpt lat="43.32829" lon="2.81818">
        <ele>143.37</ele>
        <time>2014-09-07T08:29:17Z</time>
      </trkpt>
      <trkpt lat="43.32848" lon="2.81841">
        <ele>143.37</ele>
        <time>2014-09-07T08:29:26Z</time>
      </trkpt>
      <trkpt lat="43.32848" lon="2.81844">
        <ele>142.89</ele>
        <time>2014-09-07T08:29:27Z</time>
      </trkpt>
      <trkpt lat="43.32833" lon="2.81867">
        <ele>141.45</ele>
        <time>2014-09-07T08:29:36Z</time>
      </trkpt>
      <trkpt lat="43.3281" lon="2.81881">
        <ele>138.57</ele>
        <time>2014-09-07T08:29:43Z</time>
      </trkpt>
      <trkpt lat="43.32798" lon="2.81883">
        <ele>136.64</ele>
        <time>2014-09-07T08:29:47Z</time>
      </trkpt>
      <trkpt lat="43.32787" lon="2.81883">
        <ele>135.2</ele>
        <time>2014-09-07T08:29:50Z</time>
      </trkpt>
      <trkpt lat="43.32766" lon="2.81878">
        <ele>131.36</ele>
        <time>2014-09-07T08:29:55Z</time>
      </trkpt>
      <trkpt lat="43.32747" lon="2.81876">
        <ele>129.43</ele>
        <time>2014-09-07T08:30:05Z</time>
      </trkpt>
      <trkpt lat="43.32742" lon="2.81873">
        <ele>129.92</ele>
        <time>2014-09-07T08:30:07Z</time>
      </trkpt>
      <trkpt lat="43.3274" lon="2.81889">
        <ele>128.47</ele>
        <time>2014-09-07T08:30:15Z</time>
      </trkpt>
      <trkpt lat="43.32745" lon="2.81904">
        <ele>128.47</ele>
        <time>2014-09-07T08:30:19Z</time>
      </trkpt>
      <trkpt lat="43.32739" lon="2.81929">
        <ele>127.03</ele>
        <time>2014-09-07T08:30:25Z</time>
      </trkpt>
      <trkpt lat="43.32732" lon="2.81958">
        <ele>125.59</ele>
        <time>2014-09-07T08:30:32Z</time>
      </trkpt>
      <trkpt lat="43.32728" lon="2.81966">
        <ele>125.11</ele>
        <time>2014-09-07T08:30:34Z</time>
      </trkpt>
      <trkpt lat="43.32727" lon="2.81968">
        <ele>125.59</ele>
        <time>2014-09-07T08:30:35Z</time>
      </trkpt>
      <trkpt lat="43.32722" lon="2.81965">
        <ele>125.11</ele>
        <time>2014-09-07T08:30:38Z</time>
      </trkpt>
      <trkpt lat="43.32708" lon="2.81927">
        <ele>123.19</ele>
        <time>2014-09-07T08:30:47Z</time>
      </trkpt>
      <trkpt lat="43.32702" lon="2.81923">
        <ele>123.19</ele>
        <time>2014-09-07T08:30:49Z</time>
      </trkpt>
      <trkpt lat="43.32702" lon="2.81904">
        <ele>123.67</ele>
        <time>2014-09-07T08:30:54Z</time>
      </trkpt>
      <trkpt lat="43.3271" lon="2.81863">
        <ele>127.03</ele>
        <time>2014-09-07T08:31:06Z</time>
      </trkpt>
      <trkpt lat="43.32708" lon="2.81863">
        <ele>127.03</ele>
        <time>2014-09-07T08:31:07Z</time>
      </trkpt>
      <trkpt lat="43.32694" lon="2.81864">
        <ele>126.55</ele>
        <time>2014-09-07T08:31:11Z</time>
      </trkpt>
      <trkpt lat="43.32687" lon="2.81862">
        <ele>125.59</ele>
        <time>2014-09-07T08:31:13Z</time>
      </trkpt>
      <trkpt lat="43.32682" lon="2.81863">
        <ele>125.59</ele>
        <time>2014-09-07T08:31:14Z</time>
      </trkpt>
      <trkpt lat="43.32678" lon="2.81864">
        <ele>125.11</ele>
        <time>2014-09-07T08:31:15Z</time>
      </trkpt>
      <trkpt lat="43.32673" lon="2.81866">
        <ele>124.63</ele>
        <time>2014-09-07T08:31:16Z</time>
      </trkpt>
      <trkpt lat="43.32669" lon="2.81869">
        <ele>124.63</ele>
        <time>2014-09-07T08:31:17Z</time>
      </trkpt>
      <trkpt lat="43.32664" lon="2.8187">
        <ele>124.15</ele>
        <time>2014-09-07T08:31:18Z</time>
      </trkpt>
      <trkpt lat="43.32659" lon="2.8187">
        <ele>124.15</ele>
        <time>2014-09-07T08:31:19Z</time>
      </trkpt>
      <trkpt lat="43.32655" lon="2.81871">
        <ele>123.67</ele>
        <time>2014-09-07T08:31:20Z</time>
      </trkpt>
      <trkpt lat="43.3265" lon="2.81871">
        <ele>123.67</ele>
        <time>2014-09-07T08:31:21Z</time>
      </trkpt>
      <trkpt lat="43.32646" lon="2.81872">
        <ele>123.67</ele>
        <time>2014-09-07T08:31:22Z</time>
      </trkpt>
      <trkpt lat="43.32642" lon="2.81872">
        <ele>123.67</ele>
        <time>2014-09-07T08:31:23Z</time>
      </trkpt>
      <trkpt lat="43.32639" lon="2.81872">
        <ele>123.67</ele>
        <time>2014-09-07T08:31:24Z</time>
      </trkpt>
      <trkpt lat="43.32636" lon="2.81873">
        <ele>123.67</ele>
        <time>2014-09-07T08:31:25Z</time>
      </trkpt>
      <trkpt lat="43.32634" lon="2.81875">
        <ele>123.67</ele>
        <time>2014-09-07T08:31:26Z</time>
      </trkpt>
      <trkpt lat="43.32633" lon="2.81878">
        <ele>123.67</ele>
        <time>2014-09-07T08:31:27Z</time>
      </trkpt>
      <trkpt lat="43.32632" lon="2.81882">
        <ele>123.67</ele>
        <time>2014-09-07T08:31:28Z</time>
      </trkpt>
      <trkpt lat="43.32632" lon="2.81887">
        <ele>123.19</ele>
        <time>2014-09-07T08:31:29Z</time>
      </trkpt>
      <trkpt lat="43.32631" lon="2.81904">
        <ele>121.74</ele>
        <time>2014-09-07T08:31:33Z</time>
      </trkpt>
      <trkpt lat="43.3263" lon="2.81908">
        <ele>121.26</ele>
        <time>2014-09-07T08:31:34Z</time>
      </trkpt>
      <trkpt lat="43.3263" lon="2.8191">
        <ele>121.26</ele>
        <time>2014-09-07T08:31:35Z</time>
      </trkpt>
      <trkpt lat="43.32629" lon="2.81921">
        <ele>119.34</ele>
        <time>2014-09-07T08:31:38Z</time>
      </trkpt>
      <trkpt lat="43.32624" lon="2.81926">
        <ele>117.9</ele>
        <time>2014-09-07T08:31:40Z</time>
      </trkpt>
      <trkpt lat="43.32622" lon="2.8193">
        <ele>117.42</ele>
        <time>2014-09-07T08:31:41Z</time>
      </trkpt>
      <trkpt lat="43.32621" lon="2.81933">
        <ele>116.94</ele>
        <time>2014-09-07T08:31:42Z</time>
      </trkpt>
      <trkpt lat="43.32619" lon="2.81936">
        <ele>116.46</ele>
        <time>2014-09-07T08:31:43Z</time>
      </trkpt>
      <trkpt lat="43.32616" lon="2.81939">
        <ele>115.98</ele>
        <time>2014-09-07T08:31:44Z</time>
      </trkpt>
      <trkpt lat="43.32614" lon="2.81943">
        <ele>115.01</ele>
        <time>2014-09-07T08:31:45Z</time>
      </trkpt>
      <trkpt lat="43.32611" lon="2.81948">
        <ele>114.53</ele>
        <time>2014-09-07T08:31:46Z</time>
      </trkpt>
      <trkpt lat="43.32592" lon="2.81959">
        <ele>111.65</ele>
        <time>2014-09-07T08:31:52Z</time>
      </trkpt>
      <trkpt lat="43.3259" lon="2.81961">
        <ele>110.69</ele>
        <time>2014-09-07T08:31:53Z</time>
      </trkpt>
      <trkpt lat="43.32588" lon="2.81963">
        <ele>110.21</ele>
        <time>2014-09-07T08:31:54Z</time>
      </trkpt>
      <trkpt lat="43.32585" lon="2.81964">
        <ele>109.25</ele>
        <time>2014-09-07T08:31:55Z</time>
      </trkpt>
      <trkpt lat="43.32581" lon="2.81965">
        <ele>108.77</ele>
        <time>2014-09-07T08:31:56Z</time>
      </trkpt>
      <trkpt lat="43.32573" lon="2.81961">
        <ele>107.81</ele>
        <time>2014-09-07T08:31:58Z</time>
      </trkpt>
      <trkpt lat="43.3257" lon="2.81958">
        <ele>107.32</ele>
        <time>2014-09-07T08:31:59Z</time>
      </trkpt>
      <trkpt lat="43.32562" lon="2.81954">
        <ele>106.84</ele>
        <time>2014-09-07T08:32:03Z</time>
      </trkpt>
      <trkpt lat="43.3256" lon="2.81947">
        <ele>107.32</ele>
        <time>2014-09-07T08:32:06Z</time>
      </trkpt>
      <trkpt lat="43.3256" lon="2.81945">
        <ele>107.81</ele>
        <time>2014-09-07T08:32:07Z</time>
      </trkpt>
      <trkpt lat="43.3256" lon="2.81942">
        <ele>108.29</ele>
        <time>2014-09-07T08:32:08Z</time>
      </trkpt>
      <trkpt lat="43.3256" lon="2.81939">
        <ele>108.29</ele>
        <time>2014-09-07T08:32:09Z</time>
      </trkpt>
      <trkpt lat="43.32559" lon="2.81936">
        <ele>108.29</ele>
        <time>2014-09-07T08:32:10Z</time>
      </trkpt>
      <trkpt lat="43.32555" lon="2.81935">
        <ele>108.29</ele>
        <time>2014-09-07T08:32:15Z</time>
      </trkpt>
      <trkpt lat="43.32555" lon="2.81937">
        <ele>108.29</ele>
        <time>2014-09-07T08:32:16Z</time>
      </trkpt>
      <trkpt lat="43.32555" lon="2.81939">
        <ele>108.29</ele>
        <time>2014-09-07T08:32:17Z</time>
      </trkpt>
      <trkpt lat="43.32555" lon="2.81942">
        <ele>108.29</ele>
        <time>2014-09-07T08:32:18Z</time>
      </trkpt>
      <trkpt lat="43.32555" lon="2.81945">
        <ele>108.29</ele>
        <time>2014-09-07T08:32:19Z</time>
      </trkpt>
      <trkpt lat="43.32554" lon="2.81951">
        <ele>108.29</ele>
        <time>2014-09-07T08:32:21Z</time>
      </trkpt>
      <trkpt lat="43.32552" lon="2.81954">
        <ele>107.81</ele>
        <time>2014-09-07T08:32:22Z</time>
      </trkpt>
      <trkpt lat="43.32547" lon="2.81957">
        <ele>107.32</ele>
        <time>2014-09-07T08:32:25Z</time>
      </trkpt>
      <trkpt lat="43.32541" lon="2.81954">
        <ele>109.25</ele>
        <time>2014-09-07T08:32:41Z</time>
      </trkpt>
      <trkpt lat="43.32544" lon="2.81955">
        <ele>107.32</ele>
        <time>2014-09-07T08:33:08Z</time>
      </trkpt>
      <trkpt lat="43.32542" lon="2.81951">
        <ele>107.32</ele>
        <time>2014-09-07T08:33:11Z</time>
      </trkpt>
      <trkpt lat="43.32539" lon="2.8195">
        <ele>106.84</ele>
        <time>2014-09-07T08:33:12Z</time>
      </trkpt>
      <trkpt lat="43.32536" lon="2.8195">
        <ele>106.84</ele>
        <time>2014-09-07T08:33:13Z</time>
      </trkpt>
      <trkpt lat="43.32532" lon="2.81951">
        <ele>106.36</ele>
        <time>2014-09-07T08:33:14Z</time>
      </trkpt>
      <trkpt lat="43.32528" lon="2.81952">
        <ele>106.36</ele>
        <time>2014-09-07T08:33:15Z</time>
      </trkpt>
      <trkpt lat="43.32524" lon="2.81953">
        <ele>105.88</ele>
        <time>2014-09-07T08:33:16Z</time>
      </trkpt>
      <trkpt lat="43.32496" lon="2.81957">
        <ele>103.48</ele>
        <time>2014-09-07T08:33:22Z</time>
      </trkpt>
      <trkpt lat="43.32491" lon="2.81956">
        <ele>102.52</ele>
        <time>2014-09-07T08:33:23Z</time>
      </trkpt>
      <trkpt lat="43.32432" lon="2.81947">
        <ele>97.23</ele>
        <time>2014-09-07T08:33:32Z</time>
      </trkpt>
      <trkpt lat="43.32427" lon="2.81946">
        <ele>97.23</ele>
        <time>2014-09-07T08:33:33Z</time>
      </trkpt>
      <trkpt lat="43.32422" lon="2.81944">
        <ele>96.75</ele>
        <time>2014-09-07T08:33:34Z</time>
      </trkpt>
      <trkpt lat="43.32416" lon="2.81942">
        <ele>96.75</ele>
        <time>2014-09-07T08:33:35Z</time>
      </trkpt>
      <trkpt lat="43.32411" lon="2.81939">
        <ele>96.27</ele>
        <time>2014-09-07T08:33:36Z</time>
      </trkpt>
      <trkpt lat="43.32366" lon="2.8191">
        <ele>94.35</ele>
        <time>2014-09-07T08:33:45Z</time>
      </trkpt>
      <trkpt lat="43.32362" lon="2.81908">
        <ele>94.35</ele>
        <time>2014-09-07T08:33:46Z</time>
      </trkpt>
      <trkpt lat="43.32344" lon="2.81902">
        <ele>93.39</ele>
        <time>2014-09-07T08:33:50Z</time>
      </trkpt>
      <trkpt lat="43.3234" lon="2.81899">
        <ele>93.39</ele>
        <time>2014-09-07T08:33:51Z</time>
      </trkpt>
      <trkpt lat="43.32337" lon="2.81897">
        <ele>92.9</ele>
        <time>2014-09-07T08:33:52Z</time>
      </trkpt>
      <trkpt lat="43.32333" lon="2.81897">
        <ele>92.9</ele>
        <time>2014-09-07T08:33:53Z</time>
      </trkpt>
      <trkpt lat="43.32329" lon="2.81899">
        <ele>92.9</ele>
        <time>2014-09-07T08:33:54Z</time>
      </trkpt>
      <trkpt lat="43.32325" lon="2.81902">
        <ele>92.9</ele>
        <time>2014-09-07T08:33:55Z</time>
      </trkpt>
      <trkpt lat="43.32321" lon="2.81905">
        <ele>92.9</ele>
        <time>2014-09-07T08:33:56Z</time>
      </trkpt>
      <trkpt lat="43.32315" lon="2.8191">
        <ele>93.39</ele>
        <time>2014-09-07T08:33:58Z</time>
      </trkpt>
      <trkpt lat="43.32311" lon="2.81913">
        <ele>93.39</ele>
        <time>2014-09-07T08:33:59Z</time>
      </trkpt>
      <trkpt lat="43.32288" lon="2.81925">
        <ele>92.9</ele>
        <time>2014-09-07T08:34:04Z</time>
      </trkpt>
      <trkpt lat="43.32283" lon="2.81926">
        <ele>92.9</ele>
        <time>2014-09-07T08:34:05Z</time>
      </trkpt>
      <trkpt lat="43.32277" lon="2.81927">
        <ele>92.42</ele>
        <time>2014-09-07T08:34:06Z</time>
      </trkpt>
      <trkpt lat="43.32272" lon="2.81926">
        <ele>92.42</ele>
        <time>2014-09-07T08:34:07Z</time>
      </trkpt>
      <trkpt lat="43.32267" lon="2.81925">
        <ele>92.42</ele>
        <time>2014-09-07T08:34:08Z</time>
      </trkpt>
      <trkpt lat="43.32263" lon="2.81923">
        <ele>92.42</ele>
        <time>2014-09-07T08:34:09Z</time>
      </trkpt>
      <trkpt lat="43.32249" lon="2.81918">
        <ele>91.94</ele>
        <time>2014-09-07T08:34:12Z</time>
      </trkpt>
      <trkpt lat="43.32244" lon="2.81917">
        <ele>91.94</ele>
        <time>2014-09-07T08:34:13Z</time>
      </trkpt>
      <trkpt lat="43.32239" lon="2.81917">
        <ele>91.94</ele>
        <time>2014-09-07T08:34:14Z</time>
      </trkpt>
      <trkpt lat="43.32234" lon="2.81918">
        <ele>91.94</ele>
        <time>2014-09-07T08:34:15Z</time>
      </trkpt>
      <trkpt lat="43.32229" lon="2.81919">
        <ele>91.94</ele>
        <time>2014-09-07T08:34:16Z</time>
      </trkpt>
      <trkpt lat="43.32201" lon="2.81927">
        <ele>92.42</ele>
        <time>2014-09-07T08:34:23Z</time>
      </trkpt>
      <trkpt lat="43.322" lon="2.81929">
        <ele>92.42</ele>
        <time>2014-09-07T08:34:24Z</time>
      </trkpt>
      <trkpt lat="43.32199" lon="2.8193">
        <ele>92.42</ele>
        <time>2014-09-07T08:34:25Z</time>
      </trkpt>
      <trkpt lat="43.32199" lon="2.81932">
        <ele>92.42</ele>
        <time>2014-09-07T08:34:26Z</time>
      </trkpt>
      <trkpt lat="43.32202" lon="2.81938">
        <ele>91.46</ele>
        <time>2014-09-07T08:34:32Z</time>
      </trkpt>
      <trkpt lat="43.32205" lon="2.8194">
        <ele>91.46</ele>
        <time>2014-09-07T08:34:34Z</time>
      </trkpt>
      <trkpt lat="43.32207" lon="2.8196">
        <ele>92.9</ele>
        <time>2014-09-07T08:34:42Z</time>
      </trkpt>
      <trkpt lat="43.322" lon="2.81957">
        <ele>94.35</ele>
        <time>2014-09-07T08:34:50Z</time>
      </trkpt>
      <trkpt lat="43.32199" lon="2.81954">
        <ele>93.87</ele>
        <time>2014-09-07T08:34:51Z</time>
      </trkpt>
      <trkpt lat="43.32193" lon="2.8195">
        <ele>93.87</ele>
        <time>2014-09-07T08:34:53Z</time>
      </trkpt>
      <trkpt lat="43.32189" lon="2.81949">
        <ele>93.87</ele>
        <time>2014-09-07T08:34:54Z</time>
      </trkpt>
      <trkpt lat="43.32185" lon="2.8195">
        <ele>93.87</ele>
        <time>2014-09-07T08:34:55Z</time>
      </trkpt>
      <trkpt lat="43.32182" lon="2.8195">
        <ele>93.39</ele>
        <time>2014-09-07T08:34:56Z</time>
      </trkpt>
      <trkpt lat="43.3217" lon="2.81951">
        <ele>93.39</ele>
        <time>2014-09-07T08:34:59Z</time>
      </trkpt>
      <trkpt lat="43.32147" lon="2.8196">
        <ele>92.42</ele>
        <time>2014-09-07T08:35:04Z</time>
      </trkpt>
      <trkpt lat="43.32127" lon="2.81978">
        <ele>90.98</ele>
        <time>2014-09-07T08:35:09Z</time>
      </trkpt>
      <trkpt lat="43.32083" lon="2.82053">
        <ele>90.98</ele>
        <time>2014-09-07T08:35:24Z</time>
      </trkpt>
      <trkpt lat="43.32061" lon="2.82108">
        <ele>90.98</ele>
        <time>2014-09-07T08:35:34Z</time>
      </trkpt>
      <trkpt lat="43.32052" lon="2.82135">
        <ele>90.98</ele>
        <time>2014-09-07T08:35:40Z</time>
      </trkpt>
      <trkpt lat="43.32049" lon="2.8214">
        <ele>90.98</ele>
        <time>2014-09-07T08:35:41Z</time>
      </trkpt>
      <trkpt lat="43.32023" lon="2.82194">
        <ele>90.98</ele>
        <time>2014-09-07T08:35:50Z</time>
      </trkpt>
      <trkpt lat="43.31994" lon="2.82302">
        <ele>89.06</ele>
        <time>2014-09-07T08:36:05Z</time>
      </trkpt>
      <trkpt lat="43.31993" lon="2.82309">
        <ele>88.58</ele>
        <time>2014-09-07T08:36:06Z</time>
      </trkpt>
      <trkpt lat="43.31992" lon="2.82323">
        <ele>88.1</ele>
        <time>2014-09-07T08:36:08Z</time>
      </trkpt>
      <trkpt lat="43.3199" lon="2.82329">
        <ele>88.1</ele>
        <time>2014-09-07T08:36:09Z</time>
      </trkpt>
      <trkpt lat="43.31988" lon="2.82335">
        <ele>87.62</ele>
        <time>2014-09-07T08:36:10Z</time>
      </trkpt>
      <trkpt lat="43.31985" lon="2.82341">
        <ele>87.62</ele>
        <time>2014-09-07T08:36:11Z</time>
      </trkpt>
      <trkpt lat="43.31981" lon="2.82346">
        <ele>87.62</ele>
        <time>2014-09-07T08:36:12Z</time>
      </trkpt>
      <trkpt lat="43.31978" lon="2.8235">
        <ele>87.14</ele>
        <time>2014-09-07T08:36:13Z</time>
      </trkpt>
      <trkpt lat="43.31975" lon="2.82355">
        <ele>87.14</ele>
        <time>2014-09-07T08:36:14Z</time>
      </trkpt>
      <trkpt lat="43.31971" lon="2.82359">
        <ele>87.14</ele>
        <time>2014-09-07T08:36:15Z</time>
      </trkpt>
      <trkpt lat="43.31967" lon="2.82363">
        <ele>87.14</ele>
        <time>2014-09-07T08:36:16Z</time>
      </trkpt>
      <trkpt lat="43.31962" lon="2.82365">
        <ele>87.14</ele>
        <time>2014-09-07T08:36:17Z</time>
      </trkpt>
      <trkpt lat="43.31958" lon="2.82367">
        <ele>87.14</ele>
        <time>2014-09-07T08:36:18Z</time>
      </trkpt>
      <trkpt lat="43.31953" lon="2.82368">
        <ele>87.14</ele>
        <time>2014-09-07T08:36:19Z</time>
      </trkpt>
      <trkpt lat="43.31948" lon="2.82367">
        <ele>86.66</ele>
        <time>2014-09-07T08:36:20Z</time>
      </trkpt>
      <trkpt lat="43.31924" lon="2.82371">
        <ele>86.18</ele>
        <time>2014-09-07T08:36:24Z</time>
      </trkpt>
      <trkpt lat="43.31877" lon="2.82393">
        <ele>88.1</ele>
        <time>2014-09-07T08:36:35Z</time>
      </trkpt>
      <trkpt lat="43.31873" lon="2.82396">
        <ele>88.58</ele>
        <time>2014-09-07T08:36:36Z</time>
      </trkpt>
      <trkpt lat="43.3187" lon="2.824">
        <ele>88.58</ele>
        <time>2014-09-07T08:36:37Z</time>
      </trkpt>
      <trkpt lat="43.31867" lon="2.82405">
        <ele>88.58</ele>
        <time>2014-09-07T08:36:38Z</time>
      </trkpt>
      <trkpt lat="43.31866" lon="2.82411">
        <ele>89.06</ele>
        <time>2014-09-07T08:36:39Z</time>
      </trkpt>
      <trkpt lat="43.31864" lon="2.82417">
        <ele>89.06</ele>
        <time>2014-09-07T08:36:40Z</time>
      </trkpt>
      <trkpt lat="43.31863" lon="2.82423">
        <ele>89.06</ele>
        <time>2014-09-07T08:36:41Z</time>
      </trkpt>
      <trkpt lat="43.31854" lon="2.82454">
        <ele>89.06</ele>
        <time>2014-09-07T08:36:46Z</time>
      </trkpt>
      <trkpt lat="43.31828" lon="2.82504">
        <ele>88.1</ele>
        <time>2014-09-07T08:36:54Z</time>
      </trkpt>
      <trkpt lat="43.31824" lon="2.82509">
        <ele>88.1</ele>
        <time>2014-09-07T08:36:55Z</time>
      </trkpt>
      <trkpt lat="43.3181" lon="2.82524">
        <ele>87.14</ele>
        <time>2014-09-07T08:36:58Z</time>
      </trkpt>
      <trkpt lat="43.31806" lon="2.82531">
        <ele>87.14</ele>
        <time>2014-09-07T08:36:59Z</time>
      </trkpt>
      <trkpt lat="43.31802" lon="2.82538">
        <ele>86.66</ele>
        <time>2014-09-07T08:37:00Z</time>
      </trkpt>
      <trkpt lat="43.31799" lon="2.82546">
        <ele>86.66</ele>
        <time>2014-09-07T08:37:01Z</time>
      </trkpt>
      <trkpt lat="43.31798" lon="2.82554">
        <ele>86.18</ele>
        <time>2014-09-07T08:37:02Z</time>
      </trkpt>
      <trkpt lat="43.31796" lon="2.82562">
        <ele>85.69</ele>
        <time>2014-09-07T08:37:03Z</time>
      </trkpt>
      <trkpt lat="43.31795" lon="2.8257">
        <ele>85.69</ele>
        <time>2014-09-07T08:37:04Z</time>
      </trkpt>
      <trkpt lat="43.31794" lon="2.82578">
        <ele>85.21</ele>
        <time>2014-09-07T08:37:05Z</time>
      </trkpt>
      <trkpt lat="43.31771" lon="2.82664">
        <ele>86.18</ele>
        <time>2014-09-07T08:37:18Z</time>
      </trkpt>
      <trkpt lat="43.31763" lon="2.82688">
        <ele>86.18</ele>
        <time>2014-09-07T08:37:23Z</time>
      </trkpt>
      <trkpt lat="43.31759" lon="2.82694">
        <ele>86.18</ele>
        <time>2014-09-07T08:37:24Z</time>
      </trkpt>
      <trkpt lat="43.31746" lon="2.82713">
        <ele>86.18</ele>
        <time>2014-09-07T08:37:27Z</time>
      </trkpt>
      <trkpt lat="43.31728" lon="2.82748">
        <ele>84.73</ele>
        <time>2014-09-07T08:37:31Z</time>
      </trkpt>
      <trkpt lat="43.31723" lon="2.82755">
        <ele>84.73</ele>
        <time>2014-09-07T08:37:32Z</time>
      </trkpt>
      <trkpt lat="43.31718" lon="2.8276">
        <ele>84.73</ele>
        <time>2014-09-07T08:37:33Z</time>
      </trkpt>
      <trkpt lat="43.31656" lon="2.82816">
        <ele>86.18</ele>
        <time>2014-09-07T08:37:46Z</time>
      </trkpt>
      <trkpt lat="43.31591" lon="2.82854">
        <ele>84.25</ele>
        <time>2014-09-07T08:37:58Z</time>
      </trkpt>
      <trkpt lat="43.31572" lon="2.82875">
        <ele>83.29</ele>
        <time>2014-09-07T08:38:02Z</time>
      </trkpt>
      <trkpt lat="43.31524" lon="2.82923">
        <ele>81.85</ele>
        <time>2014-09-07T08:38:12Z</time>
      </trkpt>
      <trkpt lat="43.31518" lon="2.82927">
        <ele>81.85</ele>
        <time>2014-09-07T08:38:13Z</time>
      </trkpt>
      <trkpt lat="43.31471" lon="2.82948">
        <ele>81.85</ele>
        <time>2014-09-07T08:38:22Z</time>
      </trkpt>
      <trkpt lat="43.31465" lon="2.82948">
        <ele>81.37</ele>
        <time>2014-09-07T08:38:23Z</time>
      </trkpt>
      <trkpt lat="43.31459" lon="2.82949">
        <ele>80.89</ele>
        <time>2014-09-07T08:38:24Z</time>
      </trkpt>
      <trkpt lat="43.31453" lon="2.82953">
        <ele>80.89</ele>
        <time>2014-09-07T08:38:25Z</time>
      </trkpt>
      <trkpt lat="43.31448" lon="2.82958">
        <ele>80.41</ele>
        <time>2014-09-07T08:38:26Z</time>
      </trkpt>
      <trkpt lat="43.31445" lon="2.82964">
        <ele>80.41</ele>
        <time>2014-09-07T08:38:27Z</time>
      </trkpt>
      <trkpt lat="43.31442" lon="2.8297">
        <ele>80.41</ele>
        <time>2014-09-07T08:38:28Z</time>
      </trkpt>
      <trkpt lat="43.3144" lon="2.82976">
        <ele>80.41</ele>
        <time>2014-09-07T08:38:29Z</time>
      </trkpt>
      <trkpt lat="43.31439" lon="2.82983">
        <ele>80.89</ele>
        <time>2014-09-07T08:38:30Z</time>
      </trkpt>
      <trkpt lat="43.31439" lon="2.82989">
        <ele>80.89</ele>
        <time>2014-09-07T08:38:31Z</time>
      </trkpt>
      <trkpt lat="43.31439" lon="2.82995">
        <ele>81.37</ele>
        <time>2014-09-07T08:38:32Z</time>
      </trkpt>
      <trkpt lat="43.31439" lon="2.83">
        <ele>81.85</ele>
        <time>2014-09-07T08:38:33Z</time>
      </trkpt>
      <trkpt lat="43.31439" lon="2.83005">
        <ele>82.33</ele>
        <time>2014-09-07T08:38:34Z</time>
      </trkpt>
      <trkpt lat="43.31434" lon="2.83042">
        <ele>84.25</ele>
        <time>2014-09-07T08:38:41Z</time>
      </trkpt>
      <trkpt lat="43.31435" lon="2.83047">
        <ele>84.25</ele>
        <time>2014-09-07T08:38:42Z</time>
      </trkpt>
      <trkpt lat="43.31433" lon="2.83113">
        <ele>86.66</ele>
        <time>2014-09-07T08:38:55Z</time>
      </trkpt>
      <trkpt lat="43.31421" lon="2.83167">
        <ele>88.1</ele>
        <time>2014-09-07T08:39:07Z</time>
      </trkpt>
      <trkpt lat="43.31434" lon="2.83199">
        <ele>91.46</ele>
        <time>2014-09-07T08:39:17Z</time>
      </trkpt>
      <trkpt lat="43.31436" lon="2.832">
        <ele>91.46</ele>
        <time>2014-09-07T08:39:18Z</time>
      </trkpt>
      <trkpt lat="43.31438" lon="2.83199">
        <ele>91.94</ele>
        <time>2014-09-07T08:39:19Z</time>
      </trkpt>
      <trkpt lat="43.31441" lon="2.83197">
        <ele>91.94</ele>
        <time>2014-09-07T08:39:20Z</time>
      </trkpt>
      <trkpt lat="43.31442" lon="2.83194">
        <ele>92.42</ele>
        <time>2014-09-07T08:39:21Z</time>
      </trkpt>
      <trkpt lat="43.31444" lon="2.83192">
        <ele>92.42</ele>
        <time>2014-09-07T08:39:22Z</time>
      </trkpt>
      <trkpt lat="43.31445" lon="2.83189">
        <ele>92.9</ele>
        <time>2014-09-07T08:39:23Z</time>
      </trkpt>
      <trkpt lat="43.31447" lon="2.83186">
        <ele>92.9</ele>
        <time>2014-09-07T08:39:24Z</time>
      </trkpt>
      <trkpt lat="43.31462" lon="2.8315">
        <ele>96.27</ele>
        <time>2014-09-07T08:39:36Z</time>
      </trkpt>
      <trkpt lat="43.31489" lon="2.8311">
        <ele>100.11</ele>
        <time>2014-09-07T08:39:50Z</time>
      </trkpt>
      <trkpt lat="43.31529" lon="2.83101">
        <ele>103.96</ele>
        <time>2014-09-07T08:40:03Z</time>
      </trkpt>
      <trkpt lat="43.31566" lon="2.83099">
        <ele>104.92</ele>
        <time>2014-09-07T08:40:15Z</time>
      </trkpt>
      <trkpt lat="43.31598" lon="2.8309">
        <ele>109.73</ele>
        <time>2014-09-07T08:40:27Z</time>
      </trkpt>
      <trkpt lat="43.31627" lon="2.83106">
        <ele>112.61</ele>
        <time>2014-09-07T08:40:41Z</time>
      </trkpt>
      <trkpt lat="43.3165" lon="2.83129">
        <ele>114.53</ele>
        <time>2014-09-07T08:40:56Z</time>
      </trkpt>
      <trkpt lat="43.3168" lon="2.83139">
        <ele>118.38</ele>
        <time>2014-09-07T08:41:12Z</time>
      </trkpt>
      <trkpt lat="43.31702" lon="2.8313">
        <ele>121.26</ele>
        <time>2014-09-07T08:41:25Z</time>
      </trkpt>
      <trkpt lat="43.31713" lon="2.83123">
        <ele>122.22</ele>
        <time>2014-09-07T08:41:33Z</time>
      </trkpt>
      <trkpt lat="43.31714" lon="2.83123">
        <ele>122.71</ele>
        <time>2014-09-07T08:41:34Z</time>
      </trkpt>
      <trkpt lat="43.31716" lon="2.83124">
        <ele>122.71</ele>
        <time>2014-09-07T08:41:35Z</time>
      </trkpt>
      <trkpt lat="43.31717" lon="2.83126">
        <ele>122.71</ele>
        <time>2014-09-07T08:41:36Z</time>
      </trkpt>
      <trkpt lat="43.31718" lon="2.83126">
        <ele>122.71</ele>
        <time>2014-09-07T08:41:37Z</time>
      </trkpt>
      <trkpt lat="43.3172" lon="2.83127">
        <ele>123.19</ele>
        <time>2014-09-07T08:41:38Z</time>
      </trkpt>
      <trkpt lat="43.31721" lon="2.83129">
        <ele>123.19</ele>
        <time>2014-09-07T08:41:39Z</time>
      </trkpt>
      <trkpt lat="43.31734" lon="2.83151">
        <ele>125.11</ele>
        <time>2014-09-07T08:41:52Z</time>
      </trkpt>
      <trkpt lat="43.31735" lon="2.83165">
        <ele>126.07</ele>
        <time>2014-09-07T08:41:59Z</time>
      </trkpt>
      <trkpt lat="43.31735" lon="2.83167">
        <ele>126.55</ele>
        <time>2014-09-07T08:42:00Z</time>
      </trkpt>
      <trkpt lat="43.31735" lon="2.83169">
        <ele>127.03</ele>
        <time>2014-09-07T08:42:01Z</time>
      </trkpt>
      <trkpt lat="43.31734" lon="2.8317">
        <ele>127.03</ele>
        <time>2014-09-07T08:42:02Z</time>
      </trkpt>
      <trkpt lat="43.31734" lon="2.83172">
        <ele>127.51</ele>
        <time>2014-09-07T08:42:03Z</time>
      </trkpt>
      <trkpt lat="43.31734" lon="2.83175">
        <ele>127.99</ele>
        <time>2014-09-07T08:42:04Z</time>
      </trkpt>
      <trkpt lat="43.31734" lon="2.83177">
        <ele>127.99</ele>
        <time>2014-09-07T08:42:05Z</time>
      </trkpt>
      <trkpt lat="43.31734" lon="2.83178">
        <ele>128.47</ele>
        <time>2014-09-07T08:42:06Z</time>
      </trkpt>
      <trkpt lat="43.31733" lon="2.83186">
        <ele>129.43</ele>
        <time>2014-09-07T08:42:10Z</time>
      </trkpt>
      <trkpt lat="43.31732" lon="2.83188">
        <ele>129.43</ele>
        <time>2014-09-07T08:42:11Z</time>
      </trkpt>
      <trkpt lat="43.31732" lon="2.8319">
        <ele>129.43</ele>
        <time>2014-09-07T08:42:12Z</time>
      </trkpt>
      <trkpt lat="43.31732" lon="2.83192">
        <ele>129.92</ele>
        <time>2014-09-07T08:42:13Z</time>
      </trkpt>
      <trkpt lat="43.31731" lon="2.83194">
        <ele>129.92</ele>
        <time>2014-09-07T08:42:14Z</time>
      </trkpt>
      <trkpt lat="43.31731" lon="2.83197">
        <ele>130.4</ele>
        <time>2014-09-07T08:42:15Z</time>
      </trkpt>
      <trkpt lat="43.31731" lon="2.83199">
        <ele>130.4</ele>
        <time>2014-09-07T08:42:16Z</time>
      </trkpt>
      <trkpt lat="43.31731" lon="2.83201">
        <ele>130.88</ele>
        <time>2014-09-07T08:42:17Z</time>
      </trkpt>
      <trkpt lat="43.31731" lon="2.83203">
        <ele>130.88</ele>
        <time>2014-09-07T08:42:18Z</time>
      </trkpt>
      <trkpt lat="43.31731" lon="2.83205">
        <ele>131.36</ele>
        <time>2014-09-07T08:42:19Z</time>
      </trkpt>
      <trkpt lat="43.31731" lon="2.83208">
        <ele>131.36</ele>
        <time>2014-09-07T08:42:20Z</time>
      </trkpt>
      <trkpt lat="43.3173" lon="2.83209">
        <ele>131.84</ele>
        <time>2014-09-07T08:42:21Z</time>
      </trkpt>
      <trkpt lat="43.3173" lon="2.83211">
        <ele>131.84</ele>
        <time>2014-09-07T08:42:22Z</time>
      </trkpt>
      <trkpt lat="43.31729" lon="2.83213">
        <ele>132.32</ele>
        <time>2014-09-07T08:42:23Z</time>
      </trkpt>
      <trkpt lat="43.31732" lon="2.83236">
        <ele>132.8</ele>
        <time>2014-09-07T08:42:35Z</time>
      </trkpt>
      <trkpt lat="43.31745" lon="2.83265">
        <ele>134.24</ele>
        <time>2014-09-07T08:42:48Z</time>
      </trkpt>
      <trkpt lat="43.31766" lon="2.83321">
        <ele>134.24</ele>
        <time>2014-09-07T08:43:02Z</time>
      </trkpt>
      <trkpt lat="43.31772" lon="2.83335">
        <ele>133.76</ele>
        <time>2014-09-07T08:43:05Z</time>
      </trkpt>
      <trkpt lat="43.31778" lon="2.83355">
        <ele>132.8</ele>
        <time>2014-09-07T08:43:09Z</time>
      </trkpt>
      <trkpt lat="43.31787" lon="2.83381">
        <ele>130.88</ele>
        <time>2014-09-07T08:43:14Z</time>
      </trkpt>
      <trkpt lat="43.31796" lon="2.83398">
        <ele>129.92</ele>
        <time>2014-09-07T08:43:17Z</time>
      </trkpt>
      <trkpt lat="43.31804" lon="2.83409">
        <ele>128.95</ele>
        <time>2014-09-07T08:43:19Z</time>
      </trkpt>
      <trkpt lat="43.31808" lon="2.83415">
        <ele>128.47</ele>
        <time>2014-09-07T08:43:20Z</time>
      </trkpt>
      <trkpt lat="43.31852" lon="2.83492">
        <ele>127.51</ele>
        <time>2014-09-07T08:43:35Z</time>
      </trkpt>
      <trkpt lat="43.31853" lon="2.83498">
        <ele>127.51</ele>
        <time>2014-09-07T08:43:36Z</time>
      </trkpt>
      <trkpt lat="43.31853" lon="2.83504">
        <ele>127.51</ele>
        <time>2014-09-07T08:43:37Z</time>
      </trkpt>
      <trkpt lat="43.31853" lon="2.8351">
        <ele>127.99</ele>
        <time>2014-09-07T08:43:38Z</time>
      </trkpt>
      <trkpt lat="43.31853" lon="2.83515">
        <ele>128.47</ele>
        <time>2014-09-07T08:43:39Z</time>
      </trkpt>
      <trkpt lat="43.31853" lon="2.8352">
        <ele>128.47</ele>
        <time>2014-09-07T08:43:40Z</time>
      </trkpt>
      <trkpt lat="43.31852" lon="2.83524">
        <ele>128.47</ele>
        <time>2014-09-07T08:43:41Z</time>
      </trkpt>
      <trkpt lat="43.31852" lon="2.83527">
        <ele>128.95</ele>
        <time>2014-09-07T08:43:42Z</time>
      </trkpt>
      <trkpt lat="43.31852" lon="2.8353">
        <ele>128.95</ele>
        <time>2014-09-07T08:43:43Z</time>
      </trkpt>
      <trkpt lat="43.31852" lon="2.83533">
        <ele>128.95</ele>
        <time>2014-09-07T08:43:44Z</time>
      </trkpt>
      <trkpt lat="43.31852" lon="2.83535">
        <ele>128.95</ele>
        <time>2014-09-07T08:43:45Z</time>
      </trkpt>
      <trkpt lat="43.31853" lon="2.83537">
        <ele>128.95</ele>
        <time>2014-09-07T08:43:46Z</time>
      </trkpt>
      <trkpt lat="43.31854" lon="2.8354">
        <ele>128.95</ele>
        <time>2014-09-07T08:43:47Z</time>
      </trkpt>
      <trkpt lat="43.31877" lon="2.83565">
        <ele>129.92</ele>
        <time>2014-09-07T08:43:59Z</time>
      </trkpt>
      <trkpt lat="43.3192" lon="2.83581">
        <ele>132.8</ele>
        <time>2014-09-07T08:44:16Z</time>
      </trkpt>
      <trkpt lat="43.31951" lon="2.83588">
        <ele>134.72</ele>
        <time>2014-09-07T08:44:32Z</time>
      </trkpt>
      <trkpt lat="43.31961" lon="2.83589">
        <ele>136.16</ele>
        <time>2014-09-07T08:44:45Z</time>
      </trkpt>
      <trkpt lat="43.31962" lon="2.83589">
        <ele>134.72</ele>
        <time>2014-09-07T08:45:12Z</time>
      </trkpt>
      <trkpt lat="43.31961" lon="2.83591">
        <ele>134.24</ele>
        <time>2014-09-07T08:45:39Z</time>
      </trkpt>
      <trkpt lat="43.31979" lon="2.83592">
        <ele>136.64</ele>
        <time>2014-09-07T08:45:49Z</time>
      </trkpt>
      <trkpt lat="43.32022" lon="2.83586">
        <ele>140.01</ele>
        <time>2014-09-07T08:46:03Z</time>
      </trkpt>
      <trkpt lat="43.32069" lon="2.8358">
        <ele>142.89</ele>
        <time>2014-09-07T08:46:19Z</time>
      </trkpt>
      <trkpt lat="43.32104" lon="2.83593">
        <ele>145.78</ele>
        <time>2014-09-07T08:46:34Z</time>
      </trkpt>
      <trkpt lat="43.32127" lon="2.83619">
        <ele>149.14</ele>
        <time>2014-09-07T08:46:48Z</time>
      </trkpt>
      <trkpt lat="43.3215" lon="2.83648">
        <ele>153.95</ele>
        <time>2014-09-07T08:47:04Z</time>
      </trkpt>
      <trkpt lat="43.32167" lon="2.83686">
        <ele>156.35</ele>
        <time>2014-09-07T08:47:20Z</time>
      </trkpt>
      <trkpt lat="43.32166" lon="2.8373">
        <ele>158.75</ele>
        <time>2014-09-07T08:47:35Z</time>
      </trkpt>
      <trkpt lat="43.32146" lon="2.83772">
        <ele>158.75</ele>
        <time>2014-09-07T08:47:47Z</time>
      </trkpt>
      <trkpt lat="43.3211" lon="2.83824">
        <ele>158.75</ele>
        <time>2014-09-07T08:48:02Z</time>
      </trkpt>
      <trkpt lat="43.32097" lon="2.83869">
        <ele>158.27</ele>
        <time>2014-09-07T08:48:13Z</time>
      </trkpt>
      <trkpt lat="43.32081" lon="2.8394">
        <ele>160.2</ele>
        <time>2014-09-07T08:48:29Z</time>
      </trkpt>
      <trkpt lat="43.32064" lon="2.84011">
        <ele>162.6</ele>
        <time>2014-09-07T08:48:47Z</time>
      </trkpt>
      <trkpt lat="43.3205" lon="2.84071">
        <ele>166.45</ele>
        <time>2014-09-07T08:49:04Z</time>
      </trkpt>
      <trkpt lat="43.32026" lon="2.84126">
        <ele>169.81</ele>
        <time>2014-09-07T08:49:21Z</time>
      </trkpt>
      <trkpt lat="43.32008" lon="2.84177">
        <ele>171.25</ele>
        <time>2014-09-07T08:49:38Z</time>
      </trkpt>
      <trkpt lat="43.31984" lon="2.84218">
        <ele>173.17</ele>
        <time>2014-09-07T08:49:53Z</time>
      </trkpt>
      <trkpt lat="43.31973" lon="2.84258">
        <ele>177.98</ele>
        <time>2014-09-07T08:50:05Z</time>
      </trkpt>
      <trkpt lat="43.31972" lon="2.84282">
        <ele>180.38</ele>
        <time>2014-09-07T08:50:18Z</time>
      </trkpt>
      <trkpt lat="43.31971" lon="2.84283">
        <ele>180.38</ele>
        <time>2014-09-07T08:50:36Z</time>
      </trkpt>
      <trkpt lat="43.31973" lon="2.84283">
        <ele>180.38</ele>
        <time>2014-09-07T08:50:55Z</time>
      </trkpt>
      <trkpt lat="43.31973" lon="2.84282">
        <ele>178.94</ele>
        <time>2014-09-07T08:51:23Z</time>
      </trkpt>
      <trkpt lat="43.31974" lon="2.8428">
        <ele>177.02</ele>
        <time>2014-09-07T08:51:47Z</time>
      </trkpt>
      <trkpt lat="43.31972" lon="2.84283">
        <ele>177.02</ele>
        <time>2014-09-07T08:51:57Z</time>
      </trkpt>
      <trkpt lat="43.31972" lon="2.84284">
        <ele>177.02</ele>
        <time>2014-09-07T08:51:58Z</time>
      </trkpt>
      <trkpt lat="43.31971" lon="2.84287">
        <ele>177.02</ele>
        <time>2014-09-07T08:51:59Z</time>
      </trkpt>
      <trkpt lat="43.31963" lon="2.84335">
        <ele>177.02</ele>
        <time>2014-09-07T08:52:11Z</time>
      </trkpt>
      <trkpt lat="43.31959" lon="2.84385">
        <ele>177.98</ele>
        <time>2014-09-07T08:52:24Z</time>
      </trkpt>
      <trkpt lat="43.31962" lon="2.84412">
        <ele>177.98</ele>
        <time>2014-09-07T08:52:31Z</time>
      </trkpt>
      <trkpt lat="43.31963" lon="2.84429">
        <ele>175.58</ele>
        <time>2014-09-07T08:52:37Z</time>
      </trkpt>
      <trkpt lat="43.31949" lon="2.84472">
        <ele>169.81</ele>
        <time>2014-09-07T08:52:46Z</time>
      </trkpt>
      <trkpt lat="43.31948" lon="2.84475">
        <ele>169.81</ele>
        <time>2014-09-07T08:52:47Z</time>
      </trkpt>
      <trkpt lat="43.31948" lon="2.84477">
        <ele>169.81</ele>
        <time>2014-09-07T08:52:48Z</time>
      </trkpt>
      <trkpt lat="43.31948" lon="2.84481">
        <ele>169.33</ele>
        <time>2014-09-07T08:52:49Z</time>
      </trkpt>
      <trkpt lat="43.3195" lon="2.84486">
        <ele>168.85</ele>
        <time>2014-09-07T08:52:50Z</time>
      </trkpt>
      <trkpt lat="43.31951" lon="2.8449">
        <ele>167.89</ele>
        <time>2014-09-07T08:52:51Z</time>
      </trkpt>
      <trkpt lat="43.31951" lon="2.84494">
        <ele>167.41</ele>
        <time>2014-09-07T08:52:52Z</time>
      </trkpt>
      <trkpt lat="43.31951" lon="2.84499">
        <ele>166.93</ele>
        <time>2014-09-07T08:52:53Z</time>
      </trkpt>
      <trkpt lat="43.31953" lon="2.84515">
        <ele>165.48</ele>
        <time>2014-09-07T08:52:56Z</time>
      </trkpt>
      <trkpt lat="43.31954" lon="2.8452">
        <ele>164.52</ele>
        <time>2014-09-07T08:52:57Z</time>
      </trkpt>
      <trkpt lat="43.31959" lon="2.84534">
        <ele>162.6</ele>
        <time>2014-09-07T08:52:59Z</time>
      </trkpt>
      <trkpt lat="43.31961" lon="2.84547">
        <ele>160.68</ele>
        <time>2014-09-07T08:53:01Z</time>
      </trkpt>
      <trkpt lat="43.31967" lon="2.8459">
        <ele>154.43</ele>
        <time>2014-09-07T08:53:07Z</time>
      </trkpt>
      <trkpt lat="43.31971" lon="2.84608">
        <ele>152.51</ele>
        <time>2014-09-07T08:53:09Z</time>
      </trkpt>
      <trkpt lat="43.3197" lon="2.84616">
        <ele>152.51</ele>
        <time>2014-09-07T08:53:10Z</time>
      </trkpt>
      <trkpt lat="43.31968" lon="2.84623">
        <ele>152.03</ele>
        <time>2014-09-07T08:53:11Z</time>
      </trkpt>
      <trkpt lat="43.31966" lon="2.84628">
        <ele>151.54</ele>
        <time>2014-09-07T08:53:12Z</time>
      </trkpt>
      <trkpt lat="43.31964" lon="2.8463">
        <ele>151.54</ele>
        <time>2014-09-07T08:53:13Z</time>
      </trkpt>
      <trkpt lat="43.31961" lon="2.84631">
        <ele>151.06</ele>
        <time>2014-09-07T08:53:14Z</time>
      </trkpt>
      <trkpt lat="43.31957" lon="2.84632">
        <ele>151.06</ele>
        <time>2014-09-07T08:53:15Z</time>
      </trkpt>
      <trkpt lat="43.31954" lon="2.84635">
        <ele>150.58</ele>
        <time>2014-09-07T08:53:16Z</time>
      </trkpt>
      <trkpt lat="43.31951" lon="2.84639">
        <ele>149.62</ele>
        <time>2014-09-07T08:53:17Z</time>
      </trkpt>
      <trkpt lat="43.31947" lon="2.84644">
        <ele>149.14</ele>
        <time>2014-09-07T08:53:18Z</time>
      </trkpt>
      <trkpt lat="43.31942" lon="2.84648">
        <ele>148.66</ele>
        <time>2014-09-07T08:53:19Z</time>
      </trkpt>
      <trkpt lat="43.31937" lon="2.8465">
        <ele>147.7</ele>
        <time>2014-09-07T08:53:20Z</time>
      </trkpt>
      <trkpt lat="43.31931" lon="2.84652">
        <ele>147.22</ele>
        <time>2014-09-07T08:53:21Z</time>
      </trkpt>
      <trkpt lat="43.31913" lon="2.84662">
        <ele>144.34</ele>
        <time>2014-09-07T08:53:24Z</time>
      </trkpt>
      <trkpt lat="43.31907" lon="2.84667">
        <ele>143.37</ele>
        <time>2014-09-07T08:53:25Z</time>
      </trkpt>
      <trkpt lat="43.31902" lon="2.84672">
        <ele>142.89</ele>
        <time>2014-09-07T08:53:26Z</time>
      </trkpt>
      <trkpt lat="43.31898" lon="2.84679">
        <ele>142.41</ele>
        <time>2014-09-07T08:53:27Z</time>
      </trkpt>
      <trkpt lat="43.31896" lon="2.84686">
        <ele>141.93</ele>
        <time>2014-09-07T08:53:28Z</time>
      </trkpt>
      <trkpt lat="43.31893" lon="2.84694">
        <ele>141.45</ele>
        <time>2014-09-07T08:53:29Z</time>
      </trkpt>
      <trkpt lat="43.31892" lon="2.84702">
        <ele>140.97</ele>
        <time>2014-09-07T08:53:30Z</time>
      </trkpt>
      <trkpt lat="43.31892" lon="2.8471">
        <ele>140.97</ele>
        <time>2014-09-07T08:53:31Z</time>
      </trkpt>
      <trkpt lat="43.31893" lon="2.84718">
        <ele>140.49</ele>
        <time>2014-09-07T08:53:32Z</time>
      </trkpt>
      <trkpt lat="43.31894" lon="2.84726">
        <ele>140.49</ele>
        <time>2014-09-07T08:53:33Z</time>
      </trkpt>
      <trkpt lat="43.31895" lon="2.84734">
        <ele>140.49</ele>
        <time>2014-09-07T08:53:34Z</time>
      </trkpt>
      <trkpt lat="43.31895" lon="2.84742">
        <ele>140.01</ele>
        <time>2014-09-07T08:53:35Z</time>
      </trkpt>
      <trkpt lat="43.31894" lon="2.8479">
        <ele>133.76</ele>
        <time>2014-09-07T08:53:41Z</time>
      </trkpt>
      <trkpt lat="43.31896" lon="2.848">
        <ele>132.8</ele>
        <time>2014-09-07T08:53:42Z</time>
      </trkpt>
      <trkpt lat="43.31901" lon="2.84826">
        <ele>130.88</ele>
        <time>2014-09-07T08:53:45Z</time>
      </trkpt>
      <trkpt lat="43.31903" lon="2.84833">
        <ele>130.88</ele>
        <time>2014-09-07T08:53:46Z</time>
      </trkpt>
      <trkpt lat="43.3191" lon="2.84861">
        <ele>130.88</ele>
        <time>2014-09-07T08:53:54Z</time>
      </trkpt>
      <trkpt lat="43.3191" lon="2.84859">
        <ele>132.8</ele>
        <time>2014-09-07T08:54:11Z</time>
      </trkpt>
      <trkpt lat="43.31909" lon="2.84862">
        <ele>133.28</ele>
        <time>2014-09-07T08:54:26Z</time>
      </trkpt>
      <trkpt lat="43.31909" lon="2.84864">
        <ele>132.8</ele>
        <time>2014-09-07T08:54:57Z</time>
      </trkpt>
      <trkpt lat="43.31909" lon="2.84863">
        <ele>135.68</ele>
        <time>2014-09-07T08:55:32Z</time>
      </trkpt>
      <trkpt lat="43.31908" lon="2.84863">
        <ele>136.64</ele>
        <time>2014-09-07T08:56:06Z</time>
      </trkpt>
      <trkpt lat="43.31908" lon="2.8486">
        <ele>135.68</ele>
        <time>2014-09-07T08:56:41Z</time>
      </trkpt>
      <trkpt lat="43.31909" lon="2.84861">
        <ele>137.61</ele>
        <time>2014-09-07T08:57:19Z</time>
      </trkpt>
      <trkpt lat="43.3191" lon="2.84863">
        <ele>136.16</ele>
        <time>2014-09-07T08:57:58Z</time>
      </trkpt>
      <trkpt lat="43.31911" lon="2.84862">
        <ele>135.2</ele>
        <time>2014-09-07T08:58:33Z</time>
      </trkpt>
      <trkpt lat="43.3191" lon="2.84864">
        <ele>134.72</ele>
        <time>2014-09-07T08:59:18Z</time>
      </trkpt>
      <trkpt lat="43.31911" lon="2.84864">
        <ele>133.76</ele>
        <time>2014-09-07T09:00:01Z</time>
      </trkpt>
      <trkpt lat="43.31911" lon="2.84864">
        <ele>134.72</ele>
        <time>2014-09-07T09:00:37Z</time>
      </trkpt>
      <trkpt lat="43.3191" lon="2.84862">
        <ele>136.64</ele>
        <time>2014-09-07T09:01:21Z</time>
      </trkpt>
      <trkpt lat="43.3191" lon="2.8486">
        <ele>136.64</ele>
        <time>2014-09-07T09:02:08Z</time>
      </trkpt>
      <trkpt lat="43.3191" lon="2.84861">
        <ele>136.16</ele>
        <time>2014-09-07T09:02:41Z</time>
      </trkpt>
      <trkpt lat="43.31912" lon="2.84861">
        <ele>135.68</ele>
        <time>2014-09-07T09:03:08Z</time>
      </trkpt>
      <trkpt lat="43.31909" lon="2.84861">
        <ele>136.64</ele>
        <time>2014-09-07T09:03:54Z</time>
      </trkpt>
      <trkpt lat="43.31909" lon="2.84861">
        <ele>136.64</ele>
        <time>2014-09-07T09:04:16Z</time>
      </trkpt>
      <trkpt lat="43.3191" lon="2.84867">
        <ele>136.16</ele>
        <time>2014-09-07T09:04:30Z</time>
      </trkpt>
      <trkpt lat="43.31911" lon="2.84897">
        <ele>132.32</ele>
        <time>2014-09-07T09:04:38Z</time>
      </trkpt>
      <trkpt lat="43.3192" lon="2.84905">
        <ele>131.84</ele>
        <time>2014-09-07T09:04:43Z</time>
      </trkpt>
      <trkpt lat="43.31933" lon="2.84907">
        <ele>131.84</ele>
        <time>2014-09-07T09:04:48Z</time>
      </trkpt>
      <trkpt lat="43.31939" lon="2.84905">
        <ele>130.4</ele>
        <time>2014-09-07T09:04:51Z</time>
      </trkpt>
      <trkpt lat="43.31941" lon="2.84906">
        <ele>129.92</ele>
        <time>2014-09-07T09:04:52Z</time>
      </trkpt>
      <trkpt lat="43.31943" lon="2.84907">
        <ele>129.43</ele>
        <time>2014-09-07T09:04:53Z</time>
      </trkpt>
      <trkpt lat="43.31945" lon="2.84908">
        <ele>128.95</ele>
        <time>2014-09-07T09:04:54Z</time>
      </trkpt>
      <trkpt lat="43.31947" lon="2.84909">
        <ele>128.47</ele>
        <time>2014-09-07T09:04:55Z</time>
      </trkpt>
      <trkpt lat="43.3195" lon="2.8491">
        <ele>127.51</ele>
        <time>2014-09-07T09:04:56Z</time>
      </trkpt>
      <trkpt lat="43.3197" lon="2.84919">
        <ele>125.11</ele>
        <time>2014-09-07T09:05:03Z</time>
      </trkpt>
      <trkpt lat="43.31974" lon="2.84953">
        <ele>124.15</ele>
        <time>2014-09-07T09:05:10Z</time>
      </trkpt>
      <trkpt lat="43.3197" lon="2.84958">
        <ele>124.15</ele>
        <time>2014-09-07T09:05:11Z</time>
      </trkpt>
      <trkpt lat="43.31968" lon="2.84961">
        <ele>124.15</ele>
        <time>2014-09-07T09:05:12Z</time>
      </trkpt>
      <trkpt lat="43.31966" lon="2.84966">
        <ele>124.15</ele>
        <time>2014-09-07T09:05:13Z</time>
      </trkpt>
      <trkpt lat="43.31952" lon="2.85008">
        <ele>123.19</ele>
        <time>2014-09-07T09:05:23Z</time>
      </trkpt>
      <trkpt lat="43.31948" lon="2.85024">
        <ele>122.22</ele>
        <time>2014-09-07T09:05:26Z</time>
      </trkpt>
      <trkpt lat="43.31938" lon="2.85058">
        <ele>120.3</ele>
        <time>2014-09-07T09:05:31Z</time>
      </trkpt>
      <trkpt lat="43.31936" lon="2.85065">
        <ele>119.82</ele>
        <time>2014-09-07T09:05:32Z</time>
      </trkpt>
      <trkpt lat="43.31932" lon="2.85071">
        <ele>119.82</ele>
        <time>2014-09-07T09:05:33Z</time>
      </trkpt>
      <trkpt lat="43.31927" lon="2.85082">
        <ele>120.3</ele>
        <time>2014-09-07T09:05:35Z</time>
      </trkpt>
      <trkpt lat="43.31925" lon="2.85087">
        <ele>120.3</ele>
        <time>2014-09-07T09:05:36Z</time>
      </trkpt>
      <trkpt lat="43.31924" lon="2.85093">
        <ele>120.3</ele>
        <time>2014-09-07T09:05:37Z</time>
      </trkpt>
      <trkpt lat="43.31932" lon="2.8513">
        <ele>124.15</ele>
        <time>2014-09-07T09:05:48Z</time>
      </trkpt>
      <trkpt lat="43.31944" lon="2.85158">
        <ele>127.99</ele>
        <time>2014-09-07T09:06:00Z</time>
      </trkpt>
      <trkpt lat="43.31954" lon="2.85196">
        <ele>132.32</ele>
        <time>2014-09-07T09:06:16Z</time>
      </trkpt>
      <trkpt lat="43.3197" lon="2.85228">
        <ele>137.13</ele>
        <time>2014-09-07T09:06:33Z</time>
      </trkpt>
      <trkpt lat="43.31992" lon="2.85246">
        <ele>140.01</ele>
        <time>2014-09-07T09:06:49Z</time>
      </trkpt>
      <trkpt lat="43.32007" lon="2.85271">
        <ele>143.37</ele>
        <time>2014-09-07T09:07:04Z</time>
      </trkpt>
      <trkpt lat="43.32018" lon="2.85299">
        <ele>147.7</ele>
        <time>2014-09-07T09:07:19Z</time>
      </trkpt>
      <trkpt lat="43.32024" lon="2.85329">
        <ele>150.58</ele>
        <time>2014-09-07T09:07:32Z</time>
      </trkpt>
      <trkpt lat="43.32027" lon="2.85361">
        <ele>152.51</ele>
        <time>2014-09-07T09:07:46Z</time>
      </trkpt>
      <trkpt lat="43.32039" lon="2.85408">
        <ele>152.03</ele>
        <time>2014-09-07T09:08:03Z</time>
      </trkpt>
      <trkpt lat="43.32067" lon="2.85444">
        <ele>148.66</ele>
        <time>2014-09-07T09:08:11Z</time>
      </trkpt>
      <trkpt lat="43.32094" lon="2.85487">
        <ele>146.74</ele>
        <time>2014-09-07T09:08:17Z</time>
      </trkpt>
      <trkpt lat="43.32119" lon="2.85528">
        <ele>148.66</ele>
        <time>2014-09-07T09:08:27Z</time>
      </trkpt>
      <trkpt lat="43.32152" lon="2.85568">
        <ele>151.54</ele>
        <time>2014-09-07T09:08:43Z</time>
      </trkpt>
      <trkpt lat="43.32175" lon="2.85572">
        <ele>151.54</ele>
        <time>2014-09-07T09:08:51Z</time>
      </trkpt>
      <trkpt lat="43.32178" lon="2.85573">
        <ele>151.54</ele>
        <time>2014-09-07T09:08:52Z</time>
      </trkpt>
      <trkpt lat="43.32181" lon="2.85573">
        <ele>151.54</ele>
        <time>2014-09-07T09:08:53Z</time>
      </trkpt>
      <trkpt lat="43.32184" lon="2.85574">
        <ele>151.06</ele>
        <time>2014-09-07T09:08:54Z</time>
      </trkpt>
      <trkpt lat="43.32187" lon="2.85574">
        <ele>151.06</ele>
        <time>2014-09-07T09:08:55Z</time>
      </trkpt>
      <trkpt lat="43.32208" lon="2.85561">
        <ele>150.58</ele>
        <time>2014-09-07T09:09:01Z</time>
      </trkpt>
      <trkpt lat="43.3224" lon="2.85547">
        <ele>150.58</ele>
        <time>2014-09-07T09:09:10Z</time>
      </trkpt>
      <trkpt lat="43.32244" lon="2.85549">
        <ele>150.58</ele>
        <time>2014-09-07T09:09:11Z</time>
      </trkpt>
      <trkpt lat="43.32246" lon="2.85554">
        <ele>150.58</ele>
        <time>2014-09-07T09:09:12Z</time>
      </trkpt>
      <trkpt lat="43.32247" lon="2.85559">
        <ele>150.58</ele>
        <time>2014-09-07T09:09:13Z</time>
      </trkpt>
      <trkpt lat="43.32246" lon="2.85564">
        <ele>150.58</ele>
        <time>2014-09-07T09:09:14Z</time>
      </trkpt>
      <trkpt lat="43.32245" lon="2.85569">
        <ele>150.58</ele>
        <time>2014-09-07T09:09:15Z</time>
      </trkpt>
      <trkpt lat="43.32243" lon="2.85585">
        <ele>150.58</ele>
        <time>2014-09-07T09:09:18Z</time>
      </trkpt>
      <trkpt lat="43.32242" lon="2.8559">
        <ele>150.58</ele>
        <time>2014-09-07T09:09:19Z</time>
      </trkpt>
      <trkpt lat="43.32241" lon="2.85596">
        <ele>150.1</ele>
        <time>2014-09-07T09:09:20Z</time>
      </trkpt>
      <trkpt lat="43.3224" lon="2.85602">
        <ele>150.1</ele>
        <time>2014-09-07T09:09:21Z</time>
      </trkpt>
      <trkpt lat="43.32239" lon="2.85607">
        <ele>150.1</ele>
        <time>2014-09-07T09:09:22Z</time>
      </trkpt>
      <trkpt lat="43.32237" lon="2.85613">
        <ele>150.1</ele>
        <time>2014-09-07T09:09:23Z</time>
      </trkpt>
      <trkpt lat="43.32235" lon="2.85619">
        <ele>149.62</ele>
        <time>2014-09-07T09:09:24Z</time>
      </trkpt>
      <trkpt lat="43.32231" lon="2.8563">
        <ele>149.62</ele>
        <time>2014-09-07T09:09:26Z</time>
      </trkpt>
      <trkpt lat="43.3223" lon="2.85637">
        <ele>149.62</ele>
        <time>2014-09-07T09:09:27Z</time>
      </trkpt>
      <trkpt lat="43.3223" lon="2.85642">
        <ele>149.62</ele>
        <time>2014-09-07T09:09:28Z</time>
      </trkpt>
      <trkpt lat="43.32229" lon="2.85648">
        <ele>149.62</ele>
        <time>2014-09-07T09:09:29Z</time>
      </trkpt>
      <trkpt lat="43.32229" lon="2.85654">
        <ele>149.62</ele>
        <time>2014-09-07T09:09:30Z</time>
      </trkpt>
      <trkpt lat="43.3223" lon="2.8566">
        <ele>149.14</ele>
        <time>2014-09-07T09:09:31Z</time>
      </trkpt>
      <trkpt lat="43.3223" lon="2.85666">
        <ele>149.14</ele>
        <time>2014-09-07T09:09:32Z</time>
      </trkpt>
      <trkpt lat="43.32241" lon="2.85738">
        <ele>148.66</ele>
        <time>2014-09-07T09:09:46Z</time>
      </trkpt>
      <trkpt lat="43.32253" lon="2.85766">
        <ele>148.18</ele>
        <time>2014-09-07T09:09:52Z</time>
      </trkpt>
      <trkpt lat="43.32255" lon="2.85772">
        <ele>148.18</ele>
        <time>2014-09-07T09:09:53Z</time>
      </trkpt>
      <trkpt lat="43.32256" lon="2.85778">
        <ele>147.7</ele>
        <time>2014-09-07T09:09:54Z</time>
      </trkpt>
      <trkpt lat="43.32256" lon="2.85785">
        <ele>147.7</ele>
        <time>2014-09-07T09:09:55Z</time>
      </trkpt>
      <trkpt lat="43.32256" lon="2.85791">
        <ele>147.22</ele>
        <time>2014-09-07T09:09:56Z</time>
      </trkpt>
      <trkpt lat="43.32255" lon="2.85798">
        <ele>147.22</ele>
        <time>2014-09-07T09:09:57Z</time>
      </trkpt>
      <trkpt lat="43.32253" lon="2.85805">
        <ele>146.74</ele>
        <time>2014-09-07T09:09:58Z</time>
      </trkpt>
      <trkpt lat="43.32253" lon="2.85812">
        <ele>146.74</ele>
        <time>2014-09-07T09:09:59Z</time>
      </trkpt>
      <trkpt lat="43.32251" lon="2.85833">
        <ele>146.26</ele>
        <time>2014-09-07T09:10:02Z</time>
      </trkpt>
      <trkpt lat="43.32249" lon="2.8584">
        <ele>145.78</ele>
        <time>2014-09-07T09:10:03Z</time>
      </trkpt>
      <trkpt lat="43.32246" lon="2.85846">
        <ele>145.78</ele>
        <time>2014-09-07T09:10:04Z</time>
      </trkpt>
      <trkpt lat="43.32243" lon="2.85851">
        <ele>145.78</ele>
        <time>2014-09-07T09:10:05Z</time>
      </trkpt>
      <trkpt lat="43.3224" lon="2.85857">
        <ele>145.78</ele>
        <time>2014-09-07T09:10:06Z</time>
      </trkpt>
      <trkpt lat="43.32238" lon="2.85862">
        <ele>145.78</ele>
        <time>2014-09-07T09:10:07Z</time>
      </trkpt>
      <trkpt lat="43.32236" lon="2.85868">
        <ele>145.78</ele>
        <time>2014-09-07T09:10:08Z</time>
      </trkpt>
      <trkpt lat="43.32235" lon="2.85873">
        <ele>146.26</ele>
        <time>2014-09-07T09:10:09Z</time>
      </trkpt>
      <trkpt lat="43.32236" lon="2.85878">
        <ele>146.26</ele>
        <time>2014-09-07T09:10:10Z</time>
      </trkpt>
      <trkpt lat="43.32236" lon="2.85883">
        <ele>146.26</ele>
        <time>2014-09-07T09:10:11Z</time>
      </trkpt>
      <trkpt lat="43.32239" lon="2.8591">
        <ele>146.26</ele>
        <time>2014-09-07T09:10:16Z</time>
      </trkpt>
      <trkpt lat="43.3224" lon="2.85915">
        <ele>146.26</ele>
        <time>2014-09-07T09:10:17Z</time>
      </trkpt>
      <trkpt lat="43.3224" lon="2.85921">
        <ele>146.26</ele>
        <time>2014-09-07T09:10:18Z</time>
      </trkpt>
      <trkpt lat="43.32241" lon="2.85927">
        <ele>146.26</ele>
        <time>2014-09-07T09:10:19Z</time>
      </trkpt>
      <trkpt lat="43.32243" lon="2.85934">
        <ele>145.78</ele>
        <time>2014-09-07T09:10:20Z</time>
      </trkpt>
      <trkpt lat="43.32244" lon="2.8594">
        <ele>145.78</ele>
        <time>2014-09-07T09:10:21Z</time>
      </trkpt>
      <trkpt lat="43.32247" lon="2.85946">
        <ele>145.78</ele>
        <time>2014-09-07T09:10:22Z</time>
      </trkpt>
      <trkpt lat="43.32251" lon="2.85953">
        <ele>145.3</ele>
        <time>2014-09-07T09:10:23Z</time>
      </trkpt>
      <trkpt lat="43.32254" lon="2.85959">
        <ele>145.3</ele>
        <time>2014-09-07T09:10:24Z</time>
      </trkpt>
      <trkpt lat="43.32258" lon="2.85966">
        <ele>145.3</ele>
        <time>2014-09-07T09:10:25Z</time>
      </trkpt>
      <trkpt lat="43.32262" lon="2.85971">
        <ele>144.82</ele>
        <time>2014-09-07T09:10:26Z</time>
      </trkpt>
      <trkpt lat="43.32266" lon="2.85977">
        <ele>144.34</ele>
        <time>2014-09-07T09:10:27Z</time>
      </trkpt>
      <trkpt lat="43.3227" lon="2.85982">
        <ele>144.34</ele>
        <time>2014-09-07T09:10:28Z</time>
      </trkpt>
      <trkpt lat="43.32297" lon="2.86019">
        <ele>140.01</ele>
        <time>2014-09-07T09:10:35Z</time>
      </trkpt>
      <trkpt lat="43.32301" lon="2.86023">
        <ele>139.05</ele>
        <time>2014-09-07T09:10:36Z</time>
      </trkpt>
      <trkpt lat="43.32306" lon="2.86028">
        <ele>138.09</ele>
        <time>2014-09-07T09:10:37Z</time>
      </trkpt>
      <trkpt lat="43.3231" lon="2.86032">
        <ele>137.13</ele>
        <time>2014-09-07T09:10:38Z</time>
      </trkpt>
      <trkpt lat="43.32316" lon="2.86036">
        <ele>136.16</ele>
        <time>2014-09-07T09:10:39Z</time>
      </trkpt>
      <trkpt lat="43.32321" lon="2.8604">
        <ele>135.2</ele>
        <time>2014-09-07T09:10:40Z</time>
      </trkpt>
      <trkpt lat="43.32327" lon="2.86043">
        <ele>134.24</ele>
        <time>2014-09-07T09:10:41Z</time>
      </trkpt>
      <trkpt lat="43.32333" lon="2.86044">
        <ele>133.28</ele>
        <time>2014-09-07T09:10:42Z</time>
      </trkpt>
      <trkpt lat="43.32339" lon="2.86045">
        <ele>132.32</ele>
        <time>2014-09-07T09:10:43Z</time>
      </trkpt>
      <trkpt lat="43.32345" lon="2.86046">
        <ele>131.36</ele>
        <time>2014-09-07T09:10:44Z</time>
      </trkpt>
      <trkpt lat="43.32351" lon="2.86049">
        <ele>130.88</ele>
        <time>2014-09-07T09:10:45Z</time>
      </trkpt>
      <trkpt lat="43.32356" lon="2.86054">
        <ele>130.4</ele>
        <time>2014-09-07T09:10:46Z</time>
      </trkpt>
      <trkpt lat="43.32361" lon="2.8606">
        <ele>129.92</ele>
        <time>2014-09-07T09:10:47Z</time>
      </trkpt>
      <trkpt lat="43.32364" lon="2.86065">
        <ele>129.92</ele>
        <time>2014-09-07T09:10:48Z</time>
      </trkpt>
      <trkpt lat="43.32366" lon="2.86071">
        <ele>129.92</ele>
        <time>2014-09-07T09:10:49Z</time>
      </trkpt>
      <trkpt lat="43.32366" lon="2.86076">
        <ele>129.92</ele>
        <time>2014-09-07T09:10:50Z</time>
      </trkpt>
      <trkpt lat="43.32366" lon="2.86081">
        <ele>129.92</ele>
        <time>2014-09-07T09:10:51Z</time>
      </trkpt>
      <trkpt lat="43.32366" lon="2.86084">
        <ele>129.43</ele>
        <time>2014-09-07T09:10:52Z</time>
      </trkpt>
      <trkpt lat="43.32368" lon="2.86087">
        <ele>129.43</ele>
        <time>2014-09-07T09:10:53Z</time>
      </trkpt>
      <trkpt lat="43.3237" lon="2.86089">
        <ele>128.95</ele>
        <time>2014-09-07T09:10:54Z</time>
      </trkpt>
      <trkpt lat="43.32372" lon="2.86091">
        <ele>128.95</ele>
        <time>2014-09-07T09:10:55Z</time>
      </trkpt>
      <trkpt lat="43.32374" lon="2.86092">
        <ele>128.95</ele>
        <time>2014-09-07T09:10:56Z</time>
      </trkpt>
      <trkpt lat="43.32376" lon="2.86094">
        <ele>128.95</ele>
        <time>2014-09-07T09:10:57Z</time>
      </trkpt>
      <trkpt lat="43.32378" lon="2.86096">
        <ele>128.95</ele>
        <time>2014-09-07T09:10:58Z</time>
      </trkpt>
      <trkpt lat="43.32379" lon="2.86098">
        <ele>128.95</ele>
        <time>2014-09-07T09:10:59Z</time>
      </trkpt>
      <trkpt lat="43.32381" lon="2.86099">
        <ele>128.95</ele>
        <time>2014-09-07T09:11:00Z</time>
      </trkpt>
      <trkpt lat="43.32382" lon="2.86101">
        <ele>128.95</ele>
        <time>2014-09-07T09:11:01Z</time>
      </trkpt>
      <trkpt lat="43.32384" lon="2.86103">
        <ele>128.95</ele>
        <time>2014-09-07T09:11:02Z</time>
      </trkpt>
      <trkpt lat="43.32386" lon="2.86104">
        <ele>129.43</ele>
        <time>2014-09-07T09:11:03Z</time>
      </trkpt>
      <trkpt lat="43.32388" lon="2.86104">
        <ele>129.92</ele>
        <time>2014-09-07T09:11:04Z</time>
      </trkpt>
      <trkpt lat="43.3239" lon="2.86104">
        <ele>130.4</ele>
        <time>2014-09-07T09:11:05Z</time>
      </trkpt>
      <trkpt lat="43.32393" lon="2.86104">
        <ele>130.88</ele>
        <time>2014-09-07T09:11:06Z</time>
      </trkpt>
      <trkpt lat="43.32395" lon="2.86105">
        <ele>131.36</ele>
        <time>2014-09-07T09:11:07Z</time>
      </trkpt>
      <trkpt lat="43.32397" lon="2.86105">
        <ele>131.36</ele>
        <time>2014-09-07T09:11:08Z</time>
      </trkpt>
      <trkpt lat="43.32416" lon="2.86105">
        <ele>133.76</ele>
        <time>2014-09-07T09:11:16Z</time>
      </trkpt>
      <trkpt lat="43.32418" lon="2.86107">
        <ele>134.24</ele>
        <time>2014-09-07T09:11:17Z</time>
      </trkpt>
      <trkpt lat="43.32444" lon="2.86144">
        <ele>136.16</ele>
        <time>2014-09-07T09:11:29Z</time>
      </trkpt>
      <trkpt lat="43.32454" lon="2.86175">
        <ele>136.16</ele>
        <time>2014-09-07T09:11:39Z</time>
      </trkpt>
      <trkpt lat="43.32456" lon="2.86177">
        <ele>135.2</ele>
        <time>2014-09-07T09:11:40Z</time>
      </trkpt>
      <trkpt lat="43.32464" lon="2.86184">
        <ele>133.76</ele>
        <time>2014-09-07T09:11:43Z</time>
      </trkpt>
      <trkpt lat="43.32465" lon="2.86187">
        <ele>132.8</ele>
        <time>2014-09-07T09:11:44Z</time>
      </trkpt>
      <trkpt lat="43.32468" lon="2.8619">
        <ele>132.32</ele>
        <time>2014-09-07T09:11:45Z</time>
      </trkpt>
      <trkpt lat="43.32471" lon="2.86192">
        <ele>131.36</ele>
        <time>2014-09-07T09:11:46Z</time>
      </trkpt>
      <trkpt lat="43.32474" lon="2.86193">
        <ele>130.88</ele>
        <time>2014-09-07T09:11:47Z</time>
      </trkpt>
      <trkpt lat="43.32477" lon="2.86195">
        <ele>130.4</ele>
        <time>2014-09-07T09:11:48Z</time>
      </trkpt>
      <trkpt lat="43.3248" lon="2.86195">
        <ele>129.92</ele>
        <time>2014-09-07T09:11:49Z</time>
      </trkpt>
      <trkpt lat="43.32482" lon="2.86195">
        <ele>128.95</ele>
        <time>2014-09-07T09:11:50Z</time>
      </trkpt>
      <trkpt lat="43.32484" lon="2.86196">
        <ele>128.47</ele>
        <time>2014-09-07T09:11:51Z</time>
      </trkpt>
      <trkpt lat="43.32486" lon="2.86198">
        <ele>127.99</ele>
        <time>2014-09-07T09:11:52Z</time>
      </trkpt>
      <trkpt lat="43.3249" lon="2.86201">
        <ele>127.51</ele>
        <time>2014-09-07T09:11:54Z</time>
      </trkpt>
      <trkpt lat="43.3249" lon="2.86203">
        <ele>127.51</ele>
        <time>2014-09-07T09:11:56Z</time>
      </trkpt>
      <trkpt lat="43.32485" lon="2.86206">
        <ele>127.99</ele>
        <time>2014-09-07T09:12:00Z</time>
      </trkpt>
      <trkpt lat="43.32461" lon="2.86222">
        <ele>127.51</ele>
        <time>2014-09-07T09:12:08Z</time>
      </trkpt>
      <trkpt lat="43.32454" lon="2.8623">
        <ele>127.51</ele>
        <time>2014-09-07T09:12:10Z</time>
      </trkpt>
      <trkpt lat="43.32448" lon="2.86239">
        <ele>127.51</ele>
        <time>2014-09-07T09:12:12Z</time>
      </trkpt>
      <trkpt lat="43.32443" lon="2.86249">
        <ele>127.03</ele>
        <time>2014-09-07T09:12:14Z</time>
      </trkpt>
      <trkpt lat="43.32441" lon="2.86255">
        <ele>127.03</ele>
        <time>2014-09-07T09:12:15Z</time>
      </trkpt>
      <trkpt lat="43.32441" lon="2.86262">
        <ele>127.03</ele>
        <time>2014-09-07T09:12:16Z</time>
      </trkpt>
      <trkpt lat="43.32443" lon="2.86268">
        <ele>127.03</ele>
        <time>2014-09-07T09:12:17Z</time>
      </trkpt>
      <trkpt lat="43.32445" lon="2.86275">
        <ele>126.55</ele>
        <time>2014-09-07T09:12:18Z</time>
      </trkpt>
      <trkpt lat="43.32448" lon="2.86281">
        <ele>126.07</ele>
        <time>2014-09-07T09:12:19Z</time>
      </trkpt>
      <trkpt lat="43.32468" lon="2.86322">
        <ele>123.67</ele>
        <time>2014-09-07T09:12:25Z</time>
      </trkpt>
      <trkpt lat="43.32487" lon="2.86369">
        <ele>121.74</ele>
        <time>2014-09-07T09:12:31Z</time>
      </trkpt>
      <trkpt lat="43.32488" lon="2.86377">
        <ele>121.74</ele>
        <time>2014-09-07T09:12:32Z</time>
      </trkpt>
      <trkpt lat="43.32487" lon="2.86384">
        <ele>121.74</ele>
        <time>2014-09-07T09:12:33Z</time>
      </trkpt>
      <trkpt lat="43.32485" lon="2.8639">
        <ele>121.74</ele>
        <time>2014-09-07T09:12:34Z</time>
      </trkpt>
      <trkpt lat="43.32483" lon="2.86395">
        <ele>121.74</ele>
        <time>2014-09-07T09:12:35Z</time>
      </trkpt>
      <trkpt lat="43.32482" lon="2.86399">
        <ele>121.74</ele>
        <time>2014-09-07T09:12:36Z</time>
      </trkpt>
      <trkpt lat="43.32482" lon="2.86403">
        <ele>121.74</ele>
        <time>2014-09-07T09:12:37Z</time>
      </trkpt>
      <trkpt lat="43.32482" lon="2.86405">
        <ele>121.26</ele>
        <time>2014-09-07T09:12:38Z</time>
      </trkpt>
      <trkpt lat="43.32484" lon="2.86404">
        <ele>121.26</ele>
        <time>2014-09-07T09:12:39Z</time>
      </trkpt>
      <trkpt lat="43.32486" lon="2.86401">
        <ele>120.78</ele>
        <time>2014-09-07T09:12:40Z</time>
      </trkpt>
      <trkpt lat="43.32487" lon="2.86398">
        <ele>120.78</ele>
        <time>2014-09-07T09:12:41Z</time>
      </trkpt>
      <trkpt lat="43.32492" lon="2.86388">
        <ele>120.3</ele>
        <time>2014-09-07T09:12:43Z</time>
      </trkpt>
      <trkpt lat="43.32495" lon="2.86384">
        <ele>119.82</ele>
        <time>2014-09-07T09:12:44Z</time>
      </trkpt>
      <trkpt lat="43.325" lon="2.8638">
        <ele>119.34</ele>
        <time>2014-09-07T09:12:45Z</time>
      </trkpt>
      <trkpt lat="43.32505" lon="2.86378">
        <ele>119.34</ele>
        <time>2014-09-07T09:12:46Z</time>
      </trkpt>
      <trkpt lat="43.3251" lon="2.86375">
        <ele>118.86</ele>
        <time>2014-09-07T09:12:47Z</time>
      </trkpt>
      <trkpt lat="43.3254" lon="2.8636">
        <ele>117.9</ele>
        <time>2014-09-07T09:12:53Z</time>
      </trkpt>
      <trkpt lat="43.32544" lon="2.86359">
        <ele>117.9</ele>
        <time>2014-09-07T09:12:54Z</time>
      </trkpt>
      <trkpt lat="43.32549" lon="2.86358">
        <ele>117.42</ele>
        <time>2014-09-07T09:12:55Z</time>
      </trkpt>
      <trkpt lat="43.32554" lon="2.86357">
        <ele>116.94</ele>
        <time>2014-09-07T09:12:56Z</time>
      </trkpt>
      <trkpt lat="43.32559" lon="2.86357">
        <ele>116.46</ele>
        <time>2014-09-07T09:12:57Z</time>
      </trkpt>
      <trkpt lat="43.32563" lon="2.86355">
        <ele>116.46</ele>
        <time>2014-09-07T09:12:58Z</time>
      </trkpt>
      <trkpt lat="43.32567" lon="2.86352">
        <ele>115.98</ele>
        <time>2014-09-07T09:12:59Z</time>
      </trkpt>
      <trkpt lat="43.32569" lon="2.86348">
        <ele>116.46</ele>
        <time>2014-09-07T09:13:00Z</time>
      </trkpt>
      <trkpt lat="43.32593" lon="2.86296">
        <ele>120.3</ele>
        <time>2014-09-07T09:13:14Z</time>
      </trkpt>
      <trkpt lat="43.32619" lon="2.86256">
        <ele>126.07</ele>
        <time>2014-09-07T09:13:30Z</time>
      </trkpt>
      <trkpt lat="43.32626" lon="2.86261">
        <ele>126.55</ele>
        <time>2014-09-07T09:13:33Z</time>
      </trkpt>
      <trkpt lat="43.32627" lon="2.86263">
        <ele>127.03</ele>
        <time>2014-09-07T09:13:34Z</time>
      </trkpt>
      <trkpt lat="43.32628" lon="2.86266">
        <ele>127.03</ele>
        <time>2014-09-07T09:13:35Z</time>
      </trkpt>
      <trkpt lat="43.32629" lon="2.86269">
        <ele>127.51</ele>
        <time>2014-09-07T09:13:36Z</time>
      </trkpt>
      <trkpt lat="43.3263" lon="2.86271">
        <ele>127.51</ele>
        <time>2014-09-07T09:13:37Z</time>
      </trkpt>
      <trkpt lat="43.32632" lon="2.86274">
        <ele>127.99</ele>
        <time>2014-09-07T09:13:38Z</time>
      </trkpt>
      <trkpt lat="43.32633" lon="2.86277">
        <ele>127.99</ele>
        <time>2014-09-07T09:13:39Z</time>
      </trkpt>
      <trkpt lat="43.32635" lon="2.8628">
        <ele>128.47</ele>
        <time>2014-09-07T09:13:40Z</time>
      </trkpt>
      <trkpt lat="43.32637" lon="2.86283">
        <ele>128.47</ele>
        <time>2014-09-07T09:13:41Z</time>
      </trkpt>
      <trkpt lat="43.32668" lon="2.86337">
        <ele>127.51</ele>
        <time>2014-09-07T09:13:57Z</time>
      </trkpt>
      <trkpt lat="43.32671" lon="2.86342">
        <ele>127.51</ele>
        <time>2014-09-07T09:13:58Z</time>
      </trkpt>
      <trkpt lat="43.32673" lon="2.86346">
        <ele>127.51</ele>
        <time>2014-09-07T09:13:59Z</time>
      </trkpt>
      <trkpt lat="43.32676" lon="2.86349">
        <ele>127.51</ele>
        <time>2014-09-07T09:14:00Z</time>
      </trkpt>
      <trkpt lat="43.32678" lon="2.86352">
        <ele>127.51</ele>
        <time>2014-09-07T09:14:01Z</time>
      </trkpt>
      <trkpt lat="43.3271" lon="2.86362">
        <ele>129.43</ele>
        <time>2014-09-07T09:14:13Z</time>
      </trkpt>
      <trkpt lat="43.32733" lon="2.86345">
        <ele>133.76</ele>
        <time>2014-09-07T09:14:24Z</time>
      </trkpt>
      <trkpt lat="43.32741" lon="2.86341">
        <ele>134.24</ele>
        <time>2014-09-07T09:14:28Z</time>
      </trkpt>
      <trkpt lat="43.32743" lon="2.86341">
        <ele>134.72</ele>
        <time>2014-09-07T09:14:29Z</time>
      </trkpt>
      <trkpt lat="43.32744" lon="2.86342">
        <ele>135.2</ele>
        <time>2014-09-07T09:14:30Z</time>
      </trkpt>
      <trkpt lat="43.32746" lon="2.86343">
        <ele>135.2</ele>
        <time>2014-09-07T09:14:31Z</time>
      </trkpt>
      <trkpt lat="43.32748" lon="2.86344">
        <ele>135.68</ele>
        <time>2014-09-07T09:14:32Z</time>
      </trkpt>
      <trkpt lat="43.32771" lon="2.86374">
        <ele>134.72</ele>
        <time>2014-09-07T09:14:42Z</time>
      </trkpt>
      <trkpt lat="43.32776" lon="2.86378">
        <ele>134.72</ele>
        <time>2014-09-07T09:14:43Z</time>
      </trkpt>
      <trkpt lat="43.32798" lon="2.86399">
        <ele>135.68</ele>
        <time>2014-09-07T09:14:52Z</time>
      </trkpt>
      <trkpt lat="43.32795" lon="2.86435">
        <ele>137.61</ele>
        <time>2014-09-07T09:15:04Z</time>
      </trkpt>
      <trkpt lat="43.32771" lon="2.86472">
        <ele>136.64</ele>
        <time>2014-09-07T09:15:15Z</time>
      </trkpt>
      <trkpt lat="43.32758" lon="2.86495">
        <ele>133.76</ele>
        <time>2014-09-07T09:15:21Z</time>
      </trkpt>
      <trkpt lat="43.32756" lon="2.865">
        <ele>132.8</ele>
        <time>2014-09-07T09:15:22Z</time>
      </trkpt>
      <trkpt lat="43.32754" lon="2.86505">
        <ele>132.32</ele>
        <time>2014-09-07T09:15:23Z</time>
      </trkpt>
      <trkpt lat="43.32736" lon="2.86551">
        <ele>128.95</ele>
        <time>2014-09-07T09:15:30Z</time>
      </trkpt>
      <trkpt lat="43.32733" lon="2.86559">
        <ele>128.47</ele>
        <time>2014-09-07T09:15:31Z</time>
      </trkpt>
      <trkpt lat="43.32731" lon="2.86567">
        <ele>127.99</ele>
        <time>2014-09-07T09:15:32Z</time>
      </trkpt>
      <trkpt lat="43.32727" lon="2.86583">
        <ele>127.51</ele>
        <time>2014-09-07T09:15:34Z</time>
      </trkpt>
      <trkpt lat="43.32723" lon="2.86611">
        <ele>127.03</ele>
        <time>2014-09-07T09:15:38Z</time>
      </trkpt>
      <trkpt lat="43.32707" lon="2.86696">
        <ele>124.63</ele>
        <time>2014-09-07T09:15:52Z</time>
      </trkpt>
      <trkpt lat="43.32704" lon="2.867">
        <ele>124.63</ele>
        <time>2014-09-07T09:15:53Z</time>
      </trkpt>
      <trkpt lat="43.327" lon="2.86703">
        <ele>124.15</ele>
        <time>2014-09-07T09:15:54Z</time>
      </trkpt>
      <trkpt lat="43.32683" lon="2.86714">
        <ele>123.19</ele>
        <time>2014-09-07T09:15:58Z</time>
      </trkpt>
      <trkpt lat="43.32623" lon="2.86777">
        <ele>118.86</ele>
        <time>2014-09-07T09:16:10Z</time>
      </trkpt>
      <trkpt lat="43.3257" lon="2.86833">
        <ele>115.01</ele>
        <time>2014-09-07T09:16:21Z</time>
      </trkpt>
      <trkpt lat="43.32568" lon="2.86837">
        <ele>114.53</ele>
        <time>2014-09-07T09:16:22Z</time>
      </trkpt>
      <trkpt lat="43.32567" lon="2.86841">
        <ele>114.53</ele>
        <time>2014-09-07T09:16:23Z</time>
      </trkpt>
      <trkpt lat="43.32568" lon="2.86844">
        <ele>114.53</ele>
        <time>2014-09-07T09:16:24Z</time>
      </trkpt>
      <trkpt lat="43.3257" lon="2.86848">
        <ele>115.01</ele>
        <time>2014-09-07T09:16:25Z</time>
      </trkpt>
      <trkpt lat="43.32572" lon="2.8685">
        <ele>115.01</ele>
        <time>2014-09-07T09:16:26Z</time>
      </trkpt>
      <trkpt lat="43.32574" lon="2.86852">
        <ele>115.5</ele>
        <time>2014-09-07T09:16:27Z</time>
      </trkpt>
      <trkpt lat="43.32576" lon="2.86854">
        <ele>115.5</ele>
        <time>2014-09-07T09:16:28Z</time>
      </trkpt>
      <trkpt lat="43.32578" lon="2.86856">
        <ele>115.98</ele>
        <time>2014-09-07T09:16:29Z</time>
      </trkpt>
      <trkpt lat="43.3258" lon="2.86858">
        <ele>115.98</ele>
        <time>2014-09-07T09:16:30Z</time>
      </trkpt>
      <trkpt lat="43.32603" lon="2.86898">
        <ele>117.42</ele>
        <time>2014-09-07T09:16:44Z</time>
      </trkpt>
      <trkpt lat="43.3263" lon="2.86964">
        <ele>115.98</ele>
        <time>2014-09-07T09:16:58Z</time>
      </trkpt>
      <trkpt lat="43.32669" lon="2.87047">
        <ele>115.01</ele>
        <time>2014-09-07T09:17:15Z</time>
      </trkpt>
      <trkpt lat="43.3268" lon="2.87067">
        <ele>114.53</ele>
        <time>2014-09-07T09:17:19Z</time>
      </trkpt>
      <trkpt lat="43.32683" lon="2.87072">
        <ele>114.53</ele>
        <time>2014-09-07T09:17:20Z</time>
      </trkpt>
      <trkpt lat="43.32687" lon="2.87076">
        <ele>114.53</ele>
        <time>2014-09-07T09:17:21Z</time>
      </trkpt>
      <trkpt lat="43.32691" lon="2.8708">
        <ele>114.53</ele>
        <time>2014-09-07T09:17:22Z</time>
      </trkpt>
      <trkpt lat="43.32694" lon="2.87082">
        <ele>114.53</ele>
        <time>2014-09-07T09:17:23Z</time>
      </trkpt>
      <trkpt lat="43.32698" lon="2.87086">
        <ele>114.53</ele>
        <time>2014-09-07T09:17:24Z</time>
      </trkpt>
      <trkpt lat="43.32701" lon="2.87089">
        <ele>114.53</ele>
        <time>2014-09-07T09:17:25Z</time>
      </trkpt>
      <trkpt lat="43.32704" lon="2.87094">
        <ele>114.53</ele>
        <time>2014-09-07T09:17:26Z</time>
      </trkpt>
      <trkpt lat="43.32706" lon="2.871">
        <ele>114.05</ele>
        <time>2014-09-07T09:17:27Z</time>
      </trkpt>
      <trkpt lat="43.32711" lon="2.87111">
        <ele>113.57</ele>
        <time>2014-09-07T09:17:29Z</time>
      </trkpt>
      <trkpt lat="43.32726" lon="2.87146">
        <ele>110.21</ele>
        <time>2014-09-07T09:17:34Z</time>
      </trkpt>
      <trkpt lat="43.32727" lon="2.87152">
        <ele>109.73</ele>
        <time>2014-09-07T09:17:35Z</time>
      </trkpt>
      <trkpt lat="43.32726" lon="2.87159">
        <ele>109.25</ele>
        <time>2014-09-07T09:17:36Z</time>
      </trkpt>
      <trkpt lat="43.32694" lon="2.87261">
        <ele>105.4</ele>
        <time>2014-09-07T09:17:49Z</time>
      </trkpt>
      <trkpt lat="43.32689" lon="2.87267">
        <ele>105.4</ele>
        <time>2014-09-07T09:17:50Z</time>
      </trkpt>
      <trkpt lat="43.32684" lon="2.87272">
        <ele>104.92</ele>
        <time>2014-09-07T09:17:51Z</time>
      </trkpt>
      <trkpt lat="43.32677" lon="2.87275">
        <ele>103.96</ele>
        <time>2014-09-07T09:17:52Z</time>
      </trkpt>
      <trkpt lat="43.32671" lon="2.87277">
        <ele>103.48</ele>
        <time>2014-09-07T09:17:53Z</time>
      </trkpt>
      <trkpt lat="43.32665" lon="2.8728">
        <ele>103</ele>
        <time>2014-09-07T09:17:54Z</time>
      </trkpt>
      <trkpt lat="43.32644" lon="2.8729">
        <ele>101.08</ele>
        <time>2014-09-07T09:17:57Z</time>
      </trkpt>
      <trkpt lat="43.32632" lon="2.87295">
        <ele>99.63</ele>
        <time>2014-09-07T09:17:59Z</time>
      </trkpt>
      <trkpt lat="43.32628" lon="2.873">
        <ele>98.19</ele>
        <time>2014-09-07T09:18:00Z</time>
      </trkpt>
      <trkpt lat="43.32624" lon="2.87305">
        <ele>97.23</ele>
        <time>2014-09-07T09:18:01Z</time>
      </trkpt>
      <trkpt lat="43.32621" lon="2.87313">
        <ele>96.75</ele>
        <time>2014-09-07T09:18:02Z</time>
      </trkpt>
      <trkpt lat="43.32619" lon="2.87321">
        <ele>95.79</ele>
        <time>2014-09-07T09:18:03Z</time>
      </trkpt>
      <trkpt lat="43.32617" lon="2.8733">
        <ele>94.83</ele>
        <time>2014-09-07T09:18:04Z</time>
      </trkpt>
      <trkpt lat="43.32615" lon="2.8734">
        <ele>94.35</ele>
        <time>2014-09-07T09:18:05Z</time>
      </trkpt>
      <trkpt lat="43.32614" lon="2.87351">
        <ele>93.39</ele>
        <time>2014-09-07T09:18:06Z</time>
      </trkpt>
      <trkpt lat="43.32609" lon="2.87399">
        <ele>89.54</ele>
        <time>2014-09-07T09:18:11Z</time>
      </trkpt>
      <trkpt lat="43.32606" lon="2.87413">
        <ele>88.58</ele>
        <time>2014-09-07T09:18:13Z</time>
      </trkpt>
      <trkpt lat="43.32603" lon="2.8742">
        <ele>87.62</ele>
        <time>2014-09-07T09:18:14Z</time>
      </trkpt>
      <trkpt lat="43.32592" lon="2.8744">
        <ele>85.69</ele>
        <time>2014-09-07T09:18:17Z</time>
      </trkpt>
      <trkpt lat="43.32583" lon="2.87465">
        <ele>83.77</ele>
        <time>2014-09-07T09:18:20Z</time>
      </trkpt>
      <trkpt lat="43.32578" lon="2.87472">
        <ele>83.29</ele>
        <time>2014-09-07T09:18:21Z</time>
      </trkpt>
      <trkpt lat="43.32573" lon="2.87479">
        <ele>82.33</ele>
        <time>2014-09-07T09:18:22Z</time>
      </trkpt>
      <trkpt lat="43.32546" lon="2.87511">
        <ele>80.41</ele>
        <time>2014-09-07T09:18:27Z</time>
      </trkpt>
      <trkpt lat="43.3254" lon="2.87516">
        <ele>79.93</ele>
        <time>2014-09-07T09:18:28Z</time>
      </trkpt>
      <trkpt lat="43.32534" lon="2.87521">
        <ele>79.45</ele>
        <time>2014-09-07T09:18:29Z</time>
      </trkpt>
      <trkpt lat="43.32527" lon="2.87525">
        <ele>78.97</ele>
        <time>2014-09-07T09:18:30Z</time>
      </trkpt>
      <trkpt lat="43.32521" lon="2.87529">
        <ele>78.97</ele>
        <time>2014-09-07T09:18:31Z</time>
      </trkpt>
      <trkpt lat="43.32514" lon="2.87532">
        <ele>78.48</ele>
        <time>2014-09-07T09:18:32Z</time>
      </trkpt>
      <trkpt lat="43.32508" lon="2.87533">
        <ele>78</ele>
        <time>2014-09-07T09:18:33Z</time>
      </trkpt>
      <trkpt lat="43.32501" lon="2.87533">
        <ele>78</ele>
        <time>2014-09-07T09:18:34Z</time>
      </trkpt>
      <trkpt lat="43.32495" lon="2.87531">
        <ele>77.52</ele>
        <time>2014-09-07T09:18:35Z</time>
      </trkpt>
      <trkpt lat="43.32488" lon="2.87529">
        <ele>77.52</ele>
        <time>2014-09-07T09:18:36Z</time>
      </trkpt>
      <trkpt lat="43.32482" lon="2.87526">
        <ele>77.04</ele>
        <time>2014-09-07T09:18:37Z</time>
      </trkpt>
      <trkpt lat="43.32476" lon="2.87524">
        <ele>76.56</ele>
        <time>2014-09-07T09:18:38Z</time>
      </trkpt>
      <trkpt lat="43.32469" lon="2.87524">
        <ele>76.56</ele>
        <time>2014-09-07T09:18:39Z</time>
      </trkpt>
      <trkpt lat="43.32463" lon="2.87525">
        <ele>76.56</ele>
        <time>2014-09-07T09:18:40Z</time>
      </trkpt>
      <trkpt lat="43.32457" lon="2.87527">
        <ele>76.56</ele>
        <time>2014-09-07T09:18:41Z</time>
      </trkpt>
      <trkpt lat="43.3244" lon="2.8753">
        <ele>76.56</ele>
        <time>2014-09-07T09:18:44Z</time>
      </trkpt>
      <trkpt lat="43.3243" lon="2.87531">
        <ele>77.52</ele>
        <time>2014-09-07T09:18:46Z</time>
      </trkpt>
      <trkpt lat="43.32426" lon="2.87531">
        <ele>77.52</ele>
        <time>2014-09-07T09:18:47Z</time>
      </trkpt>
      <trkpt lat="43.32421" lon="2.8753">
        <ele>78</ele>
        <time>2014-09-07T09:18:48Z</time>
      </trkpt>
      <trkpt lat="43.32357" lon="2.87513">
        <ele>80.41</ele>
        <time>2014-09-07T09:19:05Z</time>
      </trkpt>
      <trkpt lat="43.32333" lon="2.8751">
        <ele>78</ele>
        <time>2014-09-07T09:19:10Z</time>
      </trkpt>
      <trkpt lat="43.32327" lon="2.87511">
        <ele>77.04</ele>
        <time>2014-09-07T09:19:11Z</time>
      </trkpt>
      <trkpt lat="43.32321" lon="2.87514">
        <ele>76.56</ele>
        <time>2014-09-07T09:19:12Z</time>
      </trkpt>
      <trkpt lat="43.32244" lon="2.8755">
        <ele>69.35</ele>
        <time>2014-09-07T09:19:26Z</time>
      </trkpt>
      <trkpt lat="43.32229" lon="2.87551">
        <ele>67.91</ele>
        <time>2014-09-07T09:19:30Z</time>
      </trkpt>
      <trkpt lat="43.32223" lon="2.87544">
        <ele>66.95</ele>
        <time>2014-09-07T09:19:32Z</time>
      </trkpt>
      <trkpt lat="43.32172" lon="2.87489">
        <ele>65.03</ele>
        <time>2014-09-07T09:19:44Z</time>
      </trkpt>
      <trkpt lat="43.32165" lon="2.87486">
        <ele>65.03</ele>
        <time>2014-09-07T09:19:48Z</time>
      </trkpt>
      <trkpt lat="43.32164" lon="2.87489">
        <ele>64.55</ele>
        <time>2014-09-07T09:19:49Z</time>
      </trkpt>
      <trkpt lat="43.32163" lon="2.87493">
        <ele>64.55</ele>
        <time>2014-09-07T09:19:50Z</time>
      </trkpt>
      <trkpt lat="43.32162" lon="2.87497">
        <ele>64.55</ele>
        <time>2014-09-07T09:19:51Z</time>
      </trkpt>
      <trkpt lat="43.32162" lon="2.87503">
        <ele>64.55</ele>
        <time>2014-09-07T09:19:52Z</time>
      </trkpt>
      <trkpt lat="43.32151" lon="2.87596">
        <ele>61.66</ele>
        <time>2014-09-07T09:20:03Z</time>
      </trkpt>
      <trkpt lat="43.32147" lon="2.87623">
        <ele>61.18</ele>
        <time>2014-09-07T09:20:06Z</time>
      </trkpt>
      <trkpt lat="43.32139" lon="2.87663">
        <ele>61.18</ele>
        <time>2014-09-07T09:20:11Z</time>
      </trkpt>
      <trkpt lat="43.32139" lon="2.87671">
        <ele>61.18</ele>
        <time>2014-09-07T09:20:12Z</time>
      </trkpt>
      <trkpt lat="43.3214" lon="2.87679">
        <ele>61.18</ele>
        <time>2014-09-07T09:20:13Z</time>
      </trkpt>
      <trkpt lat="43.32163" lon="2.87779">
        <ele>61.66</ele>
        <time>2014-09-07T09:20:27Z</time>
      </trkpt>
      <trkpt lat="43.32162" lon="2.87834">
        <ele>62.14</ele>
        <time>2014-09-07T09:20:35Z</time>
      </trkpt>
      <trkpt lat="43.32161" lon="2.8784">
        <ele>62.14</ele>
        <time>2014-09-07T09:20:36Z</time>
      </trkpt>
      <trkpt lat="43.32158" lon="2.87853">
        <ele>61.66</ele>
        <time>2014-09-07T09:20:38Z</time>
      </trkpt>
      <trkpt lat="43.32158" lon="2.8786">
        <ele>61.18</ele>
        <time>2014-09-07T09:20:39Z</time>
      </trkpt>
      <trkpt lat="43.32159" lon="2.87867">
        <ele>60.7</ele>
        <time>2014-09-07T09:20:40Z</time>
      </trkpt>
      <trkpt lat="43.32162" lon="2.87874">
        <ele>60.22</ele>
        <time>2014-09-07T09:20:41Z</time>
      </trkpt>
      <trkpt lat="43.32168" lon="2.87881">
        <ele>59.74</ele>
        <time>2014-09-07T09:20:42Z</time>
      </trkpt>
      <trkpt lat="43.32173" lon="2.87887">
        <ele>59.74</ele>
        <time>2014-09-07T09:20:43Z</time>
      </trkpt>
      <trkpt lat="43.32213" lon="2.87953">
        <ele>56.86</ele>
        <time>2014-09-07T09:20:53Z</time>
      </trkpt>
      <trkpt lat="43.32222" lon="2.8799">
        <ele>59.26</ele>
        <time>2014-09-07T09:21:03Z</time>
      </trkpt>
      <trkpt lat="43.32242" lon="2.88051">
        <ele>62.14</ele>
        <time>2014-09-07T09:21:17Z</time>
      </trkpt>
      <trkpt lat="43.32259" lon="2.8811">
        <ele>65.99</ele>
        <time>2014-09-07T09:21:31Z</time>
      </trkpt>
      <trkpt lat="43.32261" lon="2.88113">
        <ele>66.47</ele>
        <time>2014-09-07T09:21:32Z</time>
      </trkpt>
      <trkpt lat="43.32263" lon="2.88114">
        <ele>66.95</ele>
        <time>2014-09-07T09:21:33Z</time>
      </trkpt>
      <trkpt lat="43.32265" lon="2.88115">
        <ele>66.95</ele>
        <time>2014-09-07T09:21:34Z</time>
      </trkpt>
      <trkpt lat="43.32268" lon="2.88115">
        <ele>66.95</ele>
        <time>2014-09-07T09:21:35Z</time>
      </trkpt>
      <trkpt lat="43.32271" lon="2.88114">
        <ele>67.43</ele>
        <time>2014-09-07T09:21:36Z</time>
      </trkpt>
      <trkpt lat="43.32275" lon="2.88113">
        <ele>66.95</ele>
        <time>2014-09-07T09:21:37Z</time>
      </trkpt>
      <trkpt lat="43.32278" lon="2.88111">
        <ele>66.95</ele>
        <time>2014-09-07T09:21:38Z</time>
      </trkpt>
      <trkpt lat="43.32321" lon="2.8809">
        <ele>67.43</ele>
        <time>2014-09-07T09:21:51Z</time>
      </trkpt>
      <trkpt lat="43.32353" lon="2.88074">
        <ele>65.51</ele>
        <time>2014-09-07T09:22:01Z</time>
      </trkpt>
      <trkpt lat="43.32357" lon="2.88077">
        <ele>65.51</ele>
        <time>2014-09-07T09:22:02Z</time>
      </trkpt>
      <trkpt lat="43.3241" lon="2.88117">
        <ele>68.39</ele>
        <time>2014-09-07T09:22:19Z</time>
      </trkpt>
      <trkpt lat="43.32461" lon="2.88173">
        <ele>68.87</ele>
        <time>2014-09-07T09:22:37Z</time>
      </trkpt>
      <trkpt lat="43.32501" lon="2.88227">
        <ele>70.31</ele>
        <time>2014-09-07T09:22:53Z</time>
      </trkpt>
      <trkpt lat="43.32544" lon="2.88269">
        <ele>71.27</ele>
        <time>2014-09-07T09:23:11Z</time>
      </trkpt>
      <trkpt lat="43.3255" lon="2.88275">
        <ele>71.27</ele>
        <time>2014-09-07T09:23:13Z</time>
      </trkpt>
      <trkpt lat="43.32586" lon="2.8832">
        <ele>75.12</ele>
        <time>2014-09-07T09:23:27Z</time>
      </trkpt>
      <trkpt lat="43.32592" lon="2.88328">
        <ele>77.04</ele>
        <time>2014-09-07T09:23:31Z</time>
      </trkpt>
      <trkpt lat="43.32592" lon="2.88331">
        <ele>77.52</ele>
        <time>2014-09-07T09:23:32Z</time>
      </trkpt>
      <trkpt lat="43.32592" lon="2.88334">
        <ele>78</ele>
        <time>2014-09-07T09:23:33Z</time>
      </trkpt>
      <trkpt lat="43.32591" lon="2.88374">
        <ele>83.29</ele>
        <time>2014-09-07T09:23:49Z</time>
      </trkpt>
      <trkpt lat="43.32593" lon="2.88408">
        <ele>87.14</ele>
        <time>2014-09-07T09:24:04Z</time>
      </trkpt>
      <trkpt lat="43.32594" lon="2.88414">
        <ele>88.1</ele>
        <time>2014-09-07T09:24:07Z</time>
      </trkpt>
      <trkpt lat="43.32593" lon="2.88416">
        <ele>88.58</ele>
        <time>2014-09-07T09:24:08Z</time>
      </trkpt>
      <trkpt lat="43.32594" lon="2.88418">
        <ele>89.06</ele>
        <time>2014-09-07T09:24:09Z</time>
      </trkpt>
      <trkpt lat="43.32594" lon="2.8842">
        <ele>89.54</ele>
        <time>2014-09-07T09:24:10Z</time>
      </trkpt>
      <trkpt lat="43.32595" lon="2.88423">
        <ele>90.02</ele>
        <time>2014-09-07T09:24:11Z</time>
      </trkpt>
      <trkpt lat="43.32607" lon="2.88459">
        <ele>92.42</ele>
        <time>2014-09-07T09:24:25Z</time>
      </trkpt>
      <trkpt lat="43.32608" lon="2.88464">
        <ele>92.42</ele>
        <time>2014-09-07T09:24:27Z</time>
      </trkpt>
      <trkpt lat="43.32607" lon="2.88467">
        <ele>92.42</ele>
        <time>2014-09-07T09:24:28Z</time>
      </trkpt>
      <trkpt lat="43.32607" lon="2.88469">
        <ele>92.9</ele>
        <time>2014-09-07T09:24:29Z</time>
      </trkpt>
      <trkpt lat="43.32601" lon="2.88488">
        <ele>95.79</ele>
        <time>2014-09-07T09:24:39Z</time>
      </trkpt>
      <trkpt lat="43.32601" lon="2.8849">
        <ele>95.79</ele>
        <time>2014-09-07T09:24:40Z</time>
      </trkpt>
      <trkpt lat="43.32601" lon="2.88492">
        <ele>95.79</ele>
        <time>2014-09-07T09:24:41Z</time>
      </trkpt>
      <trkpt lat="43.32602" lon="2.88495">
        <ele>95.79</ele>
        <time>2014-09-07T09:24:42Z</time>
      </trkpt>
      <trkpt lat="43.32602" lon="2.88497">
        <ele>95.79</ele>
        <time>2014-09-07T09:24:43Z</time>
      </trkpt>
      <trkpt lat="43.32602" lon="2.88523">
        <ele>97.71</ele>
        <time>2014-09-07T09:24:56Z</time>
      </trkpt>
      <trkpt lat="43.32602" lon="2.88558">
        <ele>99.63</ele>
        <time>2014-09-07T09:25:12Z</time>
      </trkpt>
      <trkpt lat="43.32608" lon="2.88593">
        <ele>102.52</ele>
        <time>2014-09-07T09:25:25Z</time>
      </trkpt>
      <trkpt lat="43.32609" lon="2.88634">
        <ele>105.88</ele>
        <time>2014-09-07T09:25:38Z</time>
      </trkpt>
      <trkpt lat="43.32611" lon="2.88639">
        <ele>105.88</ele>
        <time>2014-09-07T09:25:40Z</time>
      </trkpt>
      <trkpt lat="43.32613" lon="2.88642">
        <ele>106.36</ele>
        <time>2014-09-07T09:25:41Z</time>
      </trkpt>
      <trkpt lat="43.32615" lon="2.88643">
        <ele>106.36</ele>
        <time>2014-09-07T09:25:42Z</time>
      </trkpt>
      <trkpt lat="43.32616" lon="2.88646">
        <ele>106.36</ele>
        <time>2014-09-07T09:25:43Z</time>
      </trkpt>
      <trkpt lat="43.32617" lon="2.88648">
        <ele>106.36</ele>
        <time>2014-09-07T09:25:44Z</time>
      </trkpt>
      <trkpt lat="43.32618" lon="2.8865">
        <ele>106.36</ele>
        <time>2014-09-07T09:25:45Z</time>
      </trkpt>
      <trkpt lat="43.32632" lon="2.88676">
        <ele>113.57</ele>
        <time>2014-09-07T09:25:58Z</time>
      </trkpt>
      <trkpt lat="43.32647" lon="2.88705">
        <ele>113.57</ele>
        <time>2014-09-07T09:26:11Z</time>
      </trkpt>
      <trkpt lat="43.32647" lon="2.88708">
        <ele>113.57</ele>
        <time>2014-09-07T09:26:12Z</time>
      </trkpt>
      <trkpt lat="43.32648" lon="2.8871">
        <ele>113.57</ele>
        <time>2014-09-07T09:26:13Z</time>
      </trkpt>
      <trkpt lat="43.32649" lon="2.88712">
        <ele>113.57</ele>
        <time>2014-09-07T09:26:14Z</time>
      </trkpt>
      <trkpt lat="43.3265" lon="2.88714">
        <ele>114.05</ele>
        <time>2014-09-07T09:26:15Z</time>
      </trkpt>
      <trkpt lat="43.32651" lon="2.88716">
        <ele>114.05</ele>
        <time>2014-09-07T09:26:16Z</time>
      </trkpt>
      <trkpt lat="43.32652" lon="2.88719">
        <ele>114.53</ele>
        <time>2014-09-07T09:26:17Z</time>
      </trkpt>
      <trkpt lat="43.32653" lon="2.88722">
        <ele>114.53</ele>
        <time>2014-09-07T09:26:18Z</time>
      </trkpt>
      <trkpt lat="43.32667" lon="2.88761">
        <ele>116.46</ele>
        <time>2014-09-07T09:26:31Z</time>
      </trkpt>
      <trkpt lat="43.32669" lon="2.88809">
        <ele>118.86</ele>
        <time>2014-09-07T09:26:45Z</time>
      </trkpt>
      <trkpt lat="43.32661" lon="2.88846">
        <ele>120.78</ele>
        <time>2014-09-07T09:26:57Z</time>
      </trkpt>
      <trkpt lat="43.32651" lon="2.88879">
        <ele>123.67</ele>
        <time>2014-09-07T09:27:10Z</time>
      </trkpt>
      <trkpt lat="43.3265" lon="2.88889">
        <ele>124.15</ele>
        <time>2014-09-07T09:27:14Z</time>
      </trkpt>
      <trkpt lat="43.3265" lon="2.88891">
        <ele>124.63</ele>
        <time>2014-09-07T09:27:15Z</time>
      </trkpt>
      <trkpt lat="43.3265" lon="2.88893">
        <ele>124.63</ele>
        <time>2014-09-07T09:27:16Z</time>
      </trkpt>
      <trkpt lat="43.3265" lon="2.88895">
        <ele>124.63</ele>
        <time>2014-09-07T09:27:17Z</time>
      </trkpt>
      <trkpt lat="43.32649" lon="2.88897">
        <ele>125.11</ele>
        <time>2014-09-07T09:27:18Z</time>
      </trkpt>
      <trkpt lat="43.32649" lon="2.88899">
        <ele>125.11</ele>
        <time>2014-09-07T09:27:19Z</time>
      </trkpt>
      <trkpt lat="43.32649" lon="2.88901">
        <ele>125.11</ele>
        <time>2014-09-07T09:27:20Z</time>
      </trkpt>
      <trkpt lat="43.32649" lon="2.88904">
        <ele>125.11</ele>
        <time>2014-09-07T09:27:21Z</time>
      </trkpt>
      <trkpt lat="43.32647" lon="2.88926">
        <ele>126.55</ele>
        <time>2014-09-07T09:27:32Z</time>
      </trkpt>
      <trkpt lat="43.32647" lon="2.88929">
        <ele>126.55</ele>
        <time>2014-09-07T09:27:33Z</time>
      </trkpt>
      <trkpt lat="43.32646" lon="2.88932">
        <ele>126.55</ele>
        <time>2014-09-07T09:27:34Z</time>
      </trkpt>
      <trkpt lat="43.32645" lon="2.88934">
        <ele>126.55</ele>
        <time>2014-09-07T09:27:35Z</time>
      </trkpt>
      <trkpt lat="43.32644" lon="2.88937">
        <ele>127.03</ele>
        <time>2014-09-07T09:27:36Z</time>
      </trkpt>
      <trkpt lat="43.32644" lon="2.8894">
        <ele>127.03</ele>
        <time>2014-09-07T09:27:37Z</time>
      </trkpt>
      <trkpt lat="43.32644" lon="2.88943">
        <ele>127.51</ele>
        <time>2014-09-07T09:27:38Z</time>
      </trkpt>
      <trkpt lat="43.32644" lon="2.88947">
        <ele>127.51</ele>
        <time>2014-09-07T09:27:39Z</time>
      </trkpt>
      <trkpt lat="43.32645" lon="2.8895">
        <ele>127.99</ele>
        <time>2014-09-07T09:27:40Z</time>
      </trkpt>
      <trkpt lat="43.32647" lon="2.88953">
        <ele>127.99</ele>
        <time>2014-09-07T09:27:41Z</time>
      </trkpt>
      <trkpt lat="43.32648" lon="2.88955">
        <ele>128.47</ele>
        <time>2014-09-07T09:27:42Z</time>
      </trkpt>
      <trkpt lat="43.3265" lon="2.88958">
        <ele>128.47</ele>
        <time>2014-09-07T09:27:43Z</time>
      </trkpt>
      <trkpt lat="43.32652" lon="2.8896">
        <ele>128.95</ele>
        <time>2014-09-07T09:27:44Z</time>
      </trkpt>
      <trkpt lat="43.32653" lon="2.88961">
        <ele>128.95</ele>
        <time>2014-09-07T09:27:45Z</time>
      </trkpt>
      <trkpt lat="43.32655" lon="2.88962">
        <ele>128.95</ele>
        <time>2014-09-07T09:27:46Z</time>
      </trkpt>
      <trkpt lat="43.32656" lon="2.88963">
        <ele>129.43</ele>
        <time>2014-09-07T09:27:47Z</time>
      </trkpt>
      <trkpt lat="43.32658" lon="2.88964">
        <ele>129.43</ele>
        <time>2014-09-07T09:27:48Z</time>
      </trkpt>
      <trkpt lat="43.3266" lon="2.88965">
        <ele>129.43</ele>
        <time>2014-09-07T09:27:49Z</time>
      </trkpt>
      <trkpt lat="43.32661" lon="2.88966">
        <ele>129.43</ele>
        <time>2014-09-07T09:27:50Z</time>
      </trkpt>
      <trkpt lat="43.32663" lon="2.88968">
        <ele>129.43</ele>
        <time>2014-09-07T09:27:51Z</time>
      </trkpt>
      <trkpt lat="43.32677" lon="2.89002">
        <ele>128.95</ele>
        <time>2014-09-07T09:28:01Z</time>
      </trkpt>
      <trkpt lat="43.32669" lon="2.89044">
        <ele>127.03</ele>
        <time>2014-09-07T09:28:09Z</time>
      </trkpt>
      <trkpt lat="43.32664" lon="2.89095">
        <ele>128.95</ele>
        <time>2014-09-07T09:28:21Z</time>
      </trkpt>
      <trkpt lat="43.32644" lon="2.89133">
        <ele>135.68</ele>
        <time>2014-09-07T09:28:35Z</time>
      </trkpt>
      <trkpt lat="43.32628" lon="2.89159">
        <ele>137.61</ele>
        <time>2014-09-07T09:28:48Z</time>
      </trkpt>
      <trkpt lat="43.32632" lon="2.89191">
        <ele>136.64</ele>
        <time>2014-09-07T09:29:00Z</time>
      </trkpt>
      <trkpt lat="43.32631" lon="2.89211">
        <ele>136.64</ele>
        <time>2014-09-07T09:29:11Z</time>
      </trkpt>
      <trkpt lat="43.32628" lon="2.89226">
        <ele>137.61</ele>
        <time>2014-09-07T09:29:19Z</time>
      </trkpt>
      <trkpt lat="43.32627" lon="2.89228">
        <ele>137.61</ele>
        <time>2014-09-07T09:29:20Z</time>
      </trkpt>
      <trkpt lat="43.32628" lon="2.89229">
        <ele>137.61</ele>
        <time>2014-09-07T09:29:21Z</time>
      </trkpt>
      <trkpt lat="43.32627" lon="2.89232">
        <ele>137.61</ele>
        <time>2014-09-07T09:29:23Z</time>
      </trkpt>
      <trkpt lat="43.32623" lon="2.8924">
        <ele>138.57</ele>
        <time>2014-09-07T09:29:28Z</time>
      </trkpt>
      <trkpt lat="43.32622" lon="2.89241">
        <ele>138.57</ele>
        <time>2014-09-07T09:29:29Z</time>
      </trkpt>
      <trkpt lat="43.32621" lon="2.89242">
        <ele>139.05</ele>
        <time>2014-09-07T09:29:30Z</time>
      </trkpt>
      <trkpt lat="43.3262" lon="2.89244">
        <ele>139.05</ele>
        <time>2014-09-07T09:29:31Z</time>
      </trkpt>
      <trkpt lat="43.32619" lon="2.89245">
        <ele>139.53</ele>
        <time>2014-09-07T09:29:32Z</time>
      </trkpt>
      <trkpt lat="43.32618" lon="2.89247">
        <ele>140.01</ele>
        <time>2014-09-07T09:29:33Z</time>
      </trkpt>
      <trkpt lat="43.32617" lon="2.89248">
        <ele>140.01</ele>
        <time>2014-09-07T09:29:34Z</time>
      </trkpt>
      <trkpt lat="43.32616" lon="2.8925">
        <ele>140.49</ele>
        <time>2014-09-07T09:29:35Z</time>
      </trkpt>
      <trkpt lat="43.32605" lon="2.89266">
        <ele>142.89</ele>
        <time>2014-09-07T09:29:46Z</time>
      </trkpt>
      <trkpt lat="43.32605" lon="2.89268">
        <ele>142.41</ele>
        <time>2014-09-07T09:29:47Z</time>
      </trkpt>
      <trkpt lat="43.326" lon="2.89286">
        <ele>140.01</ele>
        <time>2014-09-07T09:29:58Z</time>
      </trkpt>
      <trkpt lat="43.32594" lon="2.89305">
        <ele>138.57</ele>
        <time>2014-09-07T09:30:10Z</time>
      </trkpt>
      <trkpt lat="43.32594" lon="2.89306">
        <ele>138.57</ele>
        <time>2014-09-07T09:30:11Z</time>
      </trkpt>
      <trkpt lat="43.32593" lon="2.89308">
        <ele>138.57</ele>
        <time>2014-09-07T09:30:12Z</time>
      </trkpt>
      <trkpt lat="43.32593" lon="2.89309">
        <ele>138.09</ele>
        <time>2014-09-07T09:30:13Z</time>
      </trkpt>
      <trkpt lat="43.32592" lon="2.89311">
        <ele>138.09</ele>
        <time>2014-09-07T09:30:14Z</time>
      </trkpt>
      <trkpt lat="43.32587" lon="2.89326">
        <ele>138.09</ele>
        <time>2014-09-07T09:30:23Z</time>
      </trkpt>
      <trkpt lat="43.32586" lon="2.89327">
        <ele>138.09</ele>
        <time>2014-09-07T09:30:24Z</time>
      </trkpt>
      <trkpt lat="43.32586" lon="2.89328">
        <ele>138.57</ele>
        <time>2014-09-07T09:30:25Z</time>
      </trkpt>
      <trkpt lat="43.32585" lon="2.8933">
        <ele>139.05</ele>
        <time>2014-09-07T09:30:26Z</time>
      </trkpt>
      <trkpt lat="43.32584" lon="2.89331">
        <ele>139.05</ele>
        <time>2014-09-07T09:30:27Z</time>
      </trkpt>
      <trkpt lat="43.32583" lon="2.89332">
        <ele>139.53</ele>
        <time>2014-09-07T09:30:28Z</time>
      </trkpt>
      <trkpt lat="43.32582" lon="2.89333">
        <ele>139.53</ele>
        <time>2014-09-07T09:30:29Z</time>
      </trkpt>
      <trkpt lat="43.32581" lon="2.89335">
        <ele>140.01</ele>
        <time>2014-09-07T09:30:30Z</time>
      </trkpt>
      <trkpt lat="43.32565" lon="2.89373">
        <ele>140.49</ele>
        <time>2014-09-07T09:30:51Z</time>
      </trkpt>
      <trkpt lat="43.32564" lon="2.89379">
        <ele>140.97</ele>
        <time>2014-09-07T09:30:54Z</time>
      </trkpt>
      <trkpt lat="43.32563" lon="2.89381">
        <ele>140.49</ele>
        <time>2014-09-07T09:30:55Z</time>
      </trkpt>
      <trkpt lat="43.32563" lon="2.89383">
        <ele>140.49</ele>
        <time>2014-09-07T09:30:56Z</time>
      </trkpt>
      <trkpt lat="43.32561" lon="2.89389">
        <ele>140.49</ele>
        <time>2014-09-07T09:30:59Z</time>
      </trkpt>
      <trkpt lat="43.32559" lon="2.8939">
        <ele>140.49</ele>
        <time>2014-09-07T09:31:00Z</time>
      </trkpt>
      <trkpt lat="43.32555" lon="2.89406">
        <ele>144.82</ele>
        <time>2014-09-07T09:31:12Z</time>
      </trkpt>
      <trkpt lat="43.32555" lon="2.89405">
        <ele>144.34</ele>
        <time>2014-09-07T09:31:42Z</time>
      </trkpt>
      <trkpt lat="43.32552" lon="2.89409">
        <ele>145.78</ele>
        <time>2014-09-07T09:31:49Z</time>
      </trkpt>
      <trkpt lat="43.32555" lon="2.89409">
        <ele>143.37</ele>
        <time>2014-09-07T09:32:04Z</time>
      </trkpt>
      <trkpt lat="43.32549" lon="2.8941">
        <ele>147.7</ele>
        <time>2014-09-07T09:32:37Z</time>
      </trkpt>
      <trkpt lat="43.32548" lon="2.89409">
        <ele>151.06</ele>
        <time>2014-09-07T09:33:01Z</time>
      </trkpt>
      <trkpt lat="43.32549" lon="2.89407">
        <ele>152.99</ele>
        <time>2014-09-07T09:33:30Z</time>
      </trkpt>
      <trkpt lat="43.32549" lon="2.8941">
        <ele>156.35</ele>
        <time>2014-09-07T09:33:56Z</time>
      </trkpt>
      <trkpt lat="43.32545" lon="2.89409">
        <ele>160.2</ele>
        <time>2014-09-07T09:34:23Z</time>
      </trkpt>
      <trkpt lat="43.32545" lon="2.89409">
        <ele>163.56</ele>
        <time>2014-09-07T09:34:46Z</time>
      </trkpt>
      <trkpt lat="43.32542" lon="2.8941">
        <ele>165.96</ele>
        <time>2014-09-07T09:35:07Z</time>
      </trkpt>
      <trkpt lat="43.32541" lon="2.8941">
        <ele>165.96</ele>
        <time>2014-09-07T09:35:10Z</time>
      </trkpt>
      <trkpt lat="43.32539" lon="2.8941">
        <ele>165.96</ele>
        <time>2014-09-07T09:35:12Z</time>
      </trkpt>
      <trkpt lat="43.32538" lon="2.89409">
        <ele>165.96</ele>
        <time>2014-09-07T09:35:13Z</time>
      </trkpt>
      <trkpt lat="43.32537" lon="2.89408">
        <ele>166.45</ele>
        <time>2014-09-07T09:35:14Z</time>
      </trkpt>
      <trkpt lat="43.32536" lon="2.89407">
        <ele>166.93</ele>
        <time>2014-09-07T09:35:15Z</time>
      </trkpt>
      <trkpt lat="43.32535" lon="2.89406">
        <ele>166.45</ele>
        <time>2014-09-07T09:35:16Z</time>
      </trkpt>
      <trkpt lat="43.32535" lon="2.89405">
        <ele>166.45</ele>
        <time>2014-09-07T09:35:17Z</time>
      </trkpt>
      <trkpt lat="43.32527" lon="2.89386">
        <ele>165</ele>
        <time>2014-09-07T09:35:30Z</time>
      </trkpt>
      <trkpt lat="43.32515" lon="2.8936">
        <ele>165.96</ele>
        <time>2014-09-07T09:35:42Z</time>
      </trkpt>
      <trkpt lat="43.32515" lon="2.89358">
        <ele>166.45</ele>
        <time>2014-09-07T09:35:43Z</time>
      </trkpt>
      <trkpt lat="43.32514" lon="2.89356">
        <ele>166.93</ele>
        <time>2014-09-07T09:35:44Z</time>
      </trkpt>
      <trkpt lat="43.32511" lon="2.89346">
        <ele>167.41</ele>
        <time>2014-09-07T09:35:49Z</time>
      </trkpt>
      <trkpt lat="43.3251" lon="2.89345">
        <ele>167.89</ele>
        <time>2014-09-07T09:35:50Z</time>
      </trkpt>
      <trkpt lat="43.32509" lon="2.89343">
        <ele>167.89</ele>
        <time>2014-09-07T09:35:51Z</time>
      </trkpt>
      <trkpt lat="43.32508" lon="2.89342">
        <ele>168.37</ele>
        <time>2014-09-07T09:35:52Z</time>
      </trkpt>
      <trkpt lat="43.32507" lon="2.8934">
        <ele>168.85</ele>
        <time>2014-09-07T09:35:53Z</time>
      </trkpt>
      <trkpt lat="43.32506" lon="2.89338">
        <ele>168.85</ele>
        <time>2014-09-07T09:35:54Z</time>
      </trkpt>
      <trkpt lat="43.32495" lon="2.89313">
        <ele>173.17</ele>
        <time>2014-09-07T09:36:08Z</time>
      </trkpt>
      <trkpt lat="43.3249" lon="2.89301">
        <ele>175.1</ele>
        <time>2014-09-07T09:36:15Z</time>
      </trkpt>
      <trkpt lat="43.32483" lon="2.89278">
        <ele>178.94</ele>
        <time>2014-09-07T09:36:31Z</time>
      </trkpt>
      <trkpt lat="43.32481" lon="2.89275">
        <ele>179.42</ele>
        <time>2014-09-07T09:36:36Z</time>
      </trkpt>
      <trkpt lat="43.32469" lon="2.89261">
        <ele>178.46</ele>
        <time>2014-09-07T09:36:44Z</time>
      </trkpt>
      <trkpt lat="43.32468" lon="2.89262">
        <ele>177.98</ele>
        <time>2014-09-07T09:37:12Z</time>
      </trkpt>
      <trkpt lat="43.32471" lon="2.89262">
        <ele>179.42</ele>
        <time>2014-09-07T09:37:43Z</time>
      </trkpt>
      <trkpt lat="43.3247" lon="2.89262">
        <ele>178.94</ele>
        <time>2014-09-07T09:38:14Z</time>
      </trkpt>
      <trkpt lat="43.32469" lon="2.8926">
        <ele>178.94</ele>
        <time>2014-09-07T09:38:18Z</time>
      </trkpt>
      <trkpt lat="43.32458" lon="2.89221">
        <ele>177.98</ele>
        <time>2014-09-07T09:38:29Z</time>
      </trkpt>
      <trkpt lat="43.3244" lon="2.89152">
        <ele>177.98</ele>
        <time>2014-09-07T09:38:43Z</time>
      </trkpt>
      <trkpt lat="43.32428" lon="2.89108">
        <ele>179.9</ele>
        <time>2014-09-07T09:38:54Z</time>
      </trkpt>
      <trkpt lat="43.32419" lon="2.89067">
        <ele>182.31</ele>
        <time>2014-09-07T09:39:08Z</time>
      </trkpt>
      <trkpt lat="43.32408" lon="2.89024">
        <ele>185.19</ele>
        <time>2014-09-07T09:39:24Z</time>
      </trkpt>
      <trkpt lat="43.32395" lon="2.88981">
        <ele>185.67</ele>
        <time>2014-09-07T09:39:38Z</time>
      </trkpt>
      <trkpt lat="43.32392" lon="2.88973">
        <ele>185.67</ele>
        <time>2014-09-07T09:39:40Z</time>
      </trkpt>
      <trkpt lat="43.3239" lon="2.8897">
        <ele>186.15</ele>
        <time>2014-09-07T09:39:41Z</time>
      </trkpt>
      <trkpt lat="43.32389" lon="2.88966">
        <ele>186.15</ele>
        <time>2014-09-07T09:39:42Z</time>
      </trkpt>
      <trkpt lat="43.32362" lon="2.88923">
        <ele>188.56</ele>
        <time>2014-09-07T09:39:55Z</time>
      </trkpt>
      <trkpt lat="43.32326" lon="2.8888">
        <ele>191.92</ele>
        <time>2014-09-07T09:40:12Z</time>
      </trkpt>
      <trkpt lat="43.32303" lon="2.88849">
        <ele>193.36</ele>
        <time>2014-09-07T09:40:25Z</time>
      </trkpt>
      <trkpt lat="43.32281" lon="2.8882">
        <ele>192.4</ele>
        <time>2014-09-07T09:40:36Z</time>
      </trkpt>
      <trkpt lat="43.3226" lon="2.88775">
        <ele>194.8</ele>
        <time>2014-09-07T09:40:50Z</time>
      </trkpt>
      <trkpt lat="43.3224" lon="2.88726">
        <ele>196.25</ele>
        <time>2014-09-07T09:41:03Z</time>
      </trkpt>
      <trkpt lat="43.3222" lon="2.88674">
        <ele>200.09</ele>
        <time>2014-09-07T09:41:17Z</time>
      </trkpt>
      <trkpt lat="43.3219" lon="2.88622">
        <ele>205.86</ele>
        <time>2014-09-07T09:41:34Z</time>
      </trkpt>
      <trkpt lat="43.32149" lon="2.88583">
        <ele>206.34</ele>
        <time>2014-09-07T09:41:49Z</time>
      </trkpt>
      <trkpt lat="43.32101" lon="2.88545">
        <ele>206.34</ele>
        <time>2014-09-07T09:42:05Z</time>
      </trkpt>
      <trkpt lat="43.32093" lon="2.88544">
        <ele>205.86</ele>
        <time>2014-09-07T09:42:07Z</time>
      </trkpt>
      <trkpt lat="43.32088" lon="2.88543">
        <ele>205.38</ele>
        <time>2014-09-07T09:42:08Z</time>
      </trkpt>
      <trkpt lat="43.32084" lon="2.88542">
        <ele>205.38</ele>
        <time>2014-09-07T09:42:09Z</time>
      </trkpt>
      <trkpt lat="43.32079" lon="2.88539">
        <ele>204.9</ele>
        <time>2014-09-07T09:42:10Z</time>
      </trkpt>
      <trkpt lat="43.32074" lon="2.88537">
        <ele>204.9</ele>
        <time>2014-09-07T09:42:11Z</time>
      </trkpt>
      <trkpt lat="43.32043" lon="2.88522">
        <ele>203.94</ele>
        <time>2014-09-07T09:42:18Z</time>
      </trkpt>
      <trkpt lat="43.32039" lon="2.8852">
        <ele>203.94</ele>
        <time>2014-09-07T09:42:19Z</time>
      </trkpt>
      <trkpt lat="43.3201" lon="2.88503">
        <ele>203.46</ele>
        <time>2014-09-07T09:42:26Z</time>
      </trkpt>
      <trkpt lat="43.31996" lon="2.88497">
        <ele>202.98</ele>
        <time>2014-09-07T09:42:29Z</time>
      </trkpt>
      <trkpt lat="43.31962" lon="2.88476">
        <ele>201.53</ele>
        <time>2014-09-07T09:42:36Z</time>
      </trkpt>
      <trkpt lat="43.31944" lon="2.88459">
        <ele>200.57</ele>
        <time>2014-09-07T09:42:40Z</time>
      </trkpt>
      <trkpt lat="43.31932" lon="2.88442">
        <ele>200.09</ele>
        <time>2014-09-07T09:42:43Z</time>
      </trkpt>
      <trkpt lat="43.31928" lon="2.88436">
        <ele>200.09</ele>
        <time>2014-09-07T09:42:44Z</time>
      </trkpt>
      <trkpt lat="43.31924" lon="2.8843">
        <ele>200.09</ele>
        <time>2014-09-07T09:42:45Z</time>
      </trkpt>
      <trkpt lat="43.31921" lon="2.88424">
        <ele>199.61</ele>
        <time>2014-09-07T09:42:46Z</time>
      </trkpt>
      <trkpt lat="43.31917" lon="2.88419">
        <ele>199.61</ele>
        <time>2014-09-07T09:42:47Z</time>
      </trkpt>
      <trkpt lat="43.31909" lon="2.88408">
        <ele>199.13</ele>
        <time>2014-09-07T09:42:49Z</time>
      </trkpt>
      <trkpt lat="43.31899" lon="2.88389">
        <ele>198.65</ele>
        <time>2014-09-07T09:42:52Z</time>
      </trkpt>
      <trkpt lat="43.31896" lon="2.88382">
        <ele>198.17</ele>
        <time>2014-09-07T09:42:53Z</time>
      </trkpt>
      <trkpt lat="43.31889" lon="2.88368">
        <ele>197.69</ele>
        <time>2014-09-07T09:42:55Z</time>
      </trkpt>
      <trkpt lat="43.3188" lon="2.88356">
        <ele>196.73</ele>
        <time>2014-09-07T09:42:57Z</time>
      </trkpt>
      <trkpt lat="43.31825" lon="2.88294">
        <ele>194.32</ele>
        <time>2014-09-07T09:43:10Z</time>
      </trkpt>
      <trkpt lat="43.31762" lon="2.88223">
        <ele>191.92</ele>
        <time>2014-09-07T09:43:24Z</time>
      </trkpt>
      <trkpt lat="43.31707" lon="2.88168">
        <ele>188.56</ele>
        <time>2014-09-07T09:43:35Z</time>
      </trkpt>
      <trkpt lat="43.31699" lon="2.88156">
        <ele>188.08</ele>
        <time>2014-09-07T09:43:38Z</time>
      </trkpt>
      <trkpt lat="43.31676" lon="2.88125">
        <ele>187.59</ele>
        <time>2014-09-07T09:43:45Z</time>
      </trkpt>
      <trkpt lat="43.31673" lon="2.88121">
        <ele>187.11</ele>
        <time>2014-09-07T09:43:46Z</time>
      </trkpt>
      <trkpt lat="43.31652" lon="2.8809">
        <ele>187.59</ele>
        <time>2014-09-07T09:43:52Z</time>
      </trkpt>
      <trkpt lat="43.3165" lon="2.88083">
        <ele>187.59</ele>
        <time>2014-09-07T09:43:53Z</time>
      </trkpt>
      <trkpt lat="43.31648" lon="2.88076">
        <ele>187.59</ele>
        <time>2014-09-07T09:43:54Z</time>
      </trkpt>
      <trkpt lat="43.31647" lon="2.88069">
        <ele>187.11</ele>
        <time>2014-09-07T09:43:55Z</time>
      </trkpt>
      <trkpt lat="43.31646" lon="2.88061">
        <ele>187.11</ele>
        <time>2014-09-07T09:43:56Z</time>
      </trkpt>
      <trkpt lat="43.31642" lon="2.88031">
        <ele>186.63</ele>
        <time>2014-09-07T09:44:00Z</time>
      </trkpt>
      <trkpt lat="43.31639" lon="2.88025">
        <ele>186.15</ele>
        <time>2014-09-07T09:44:01Z</time>
      </trkpt>
      <trkpt lat="43.31636" lon="2.88021">
        <ele>185.67</ele>
        <time>2014-09-07T09:44:02Z</time>
      </trkpt>
      <trkpt lat="43.31632" lon="2.88018">
        <ele>185.19</ele>
        <time>2014-09-07T09:44:03Z</time>
      </trkpt>
      <trkpt lat="43.31627" lon="2.88016">
        <ele>185.19</ele>
        <time>2014-09-07T09:44:04Z</time>
      </trkpt>
      <trkpt lat="43.31602" lon="2.88007">
        <ele>182.79</ele>
        <time>2014-09-07T09:44:09Z</time>
      </trkpt>
      <trkpt lat="43.31587" lon="2.88">
        <ele>181.83</ele>
        <time>2014-09-07T09:44:12Z</time>
      </trkpt>
      <trkpt lat="43.31583" lon="2.87998">
        <ele>181.35</ele>
        <time>2014-09-07T09:44:13Z</time>
      </trkpt>
      <trkpt lat="43.31574" lon="2.87996">
        <ele>180.87</ele>
        <time>2014-09-07T09:44:15Z</time>
      </trkpt>
      <trkpt lat="43.3156" lon="2.87995">
        <ele>180.38</ele>
        <time>2014-09-07T09:44:18Z</time>
      </trkpt>
      <trkpt lat="43.31523" lon="2.88003">
        <ele>181.35</ele>
        <time>2014-09-07T09:44:26Z</time>
      </trkpt>
      <trkpt lat="43.31468" lon="2.88025">
        <ele>180.38</ele>
        <time>2014-09-07T09:44:37Z</time>
      </trkpt>
      <trkpt lat="43.31465" lon="2.88028">
        <ele>179.9</ele>
        <time>2014-09-07T09:44:38Z</time>
      </trkpt>
      <trkpt lat="43.3146" lon="2.8803">
        <ele>179.9</ele>
        <time>2014-09-07T09:44:39Z</time>
      </trkpt>
      <trkpt lat="43.31456" lon="2.88031">
        <ele>179.9</ele>
        <time>2014-09-07T09:44:40Z</time>
      </trkpt>
      <trkpt lat="43.31452" lon="2.88033">
        <ele>179.9</ele>
        <time>2014-09-07T09:44:41Z</time>
      </trkpt>
      <trkpt lat="43.31443" lon="2.88035">
        <ele>179.9</ele>
        <time>2014-09-07T09:44:43Z</time>
      </trkpt>
      <trkpt lat="43.31439" lon="2.88035">
        <ele>180.38</ele>
        <time>2014-09-07T09:44:44Z</time>
      </trkpt>
      <trkpt lat="43.31435" lon="2.88035">
        <ele>180.38</ele>
        <time>2014-09-07T09:44:45Z</time>
      </trkpt>
      <trkpt lat="43.31432" lon="2.88034">
        <ele>179.9</ele>
        <time>2014-09-07T09:44:46Z</time>
      </trkpt>
      <trkpt lat="43.3143" lon="2.88032">
        <ele>179.9</ele>
        <time>2014-09-07T09:44:47Z</time>
      </trkpt>
      <trkpt lat="43.31429" lon="2.8803">
        <ele>179.9</ele>
        <time>2014-09-07T09:44:48Z</time>
      </trkpt>
      <trkpt lat="43.31429" lon="2.88027">
        <ele>179.9</ele>
        <time>2014-09-07T09:44:49Z</time>
      </trkpt>
      <trkpt lat="43.31439" lon="2.88011">
        <ele>179.42</ele>
        <time>2014-09-07T09:44:54Z</time>
      </trkpt>
      <trkpt lat="43.31426" lon="2.8798">
        <ele>177.02</ele>
        <time>2014-09-07T09:45:02Z</time>
      </trkpt>
      <trkpt lat="43.31425" lon="2.87977">
        <ele>176.54</ele>
        <time>2014-09-07T09:45:03Z</time>
      </trkpt>
      <trkpt lat="43.31421" lon="2.87964">
        <ele>174.14</ele>
        <time>2014-09-07T09:45:06Z</time>
      </trkpt>
      <trkpt lat="43.31417" lon="2.87957">
        <ele>173.17</ele>
        <time>2014-09-07T09:45:08Z</time>
      </trkpt>
      <trkpt lat="43.31403" lon="2.87941">
        <ele>170.77</ele>
        <time>2014-09-07T09:45:12Z</time>
      </trkpt>
      <trkpt lat="43.31392" lon="2.87921">
        <ele>166.45</ele>
        <time>2014-09-07T09:45:18Z</time>
      </trkpt>
      <trkpt lat="43.31368" lon="2.879">
        <ele>161.64</ele>
        <time>2014-09-07T09:45:27Z</time>
      </trkpt>
      <trkpt lat="43.31348" lon="2.87891">
        <ele>159.72</ele>
        <time>2014-09-07T09:45:33Z</time>
      </trkpt>
      <trkpt lat="43.31346" lon="2.87882">
        <ele>159.72</ele>
        <time>2014-09-07T09:45:36Z</time>
      </trkpt>
      <trkpt lat="43.31343" lon="2.87847">
        <ele>157.31</ele>
        <time>2014-09-07T09:45:42Z</time>
      </trkpt>
      <trkpt lat="43.31342" lon="2.87839">
        <ele>155.87</ele>
        <time>2014-09-07T09:45:44Z</time>
      </trkpt>
      <trkpt lat="43.31342" lon="2.87836">
        <ele>154.91</ele>
        <time>2014-09-07T09:45:45Z</time>
      </trkpt>
      <trkpt lat="43.31343" lon="2.87832">
        <ele>153.47</ele>
        <time>2014-09-07T09:45:46Z</time>
      </trkpt>
      <trkpt lat="43.31342" lon="2.87828">
        <ele>152.03</ele>
        <time>2014-09-07T09:45:47Z</time>
      </trkpt>
      <trkpt lat="43.31342" lon="2.87825">
        <ele>151.54</ele>
        <time>2014-09-07T09:45:48Z</time>
      </trkpt>
      <trkpt lat="43.31341" lon="2.87822">
        <ele>151.06</ele>
        <time>2014-09-07T09:45:49Z</time>
      </trkpt>
      <trkpt lat="43.31342" lon="2.87821">
        <ele>150.58</ele>
        <time>2014-09-07T09:45:50Z</time>
      </trkpt>
      <trkpt lat="43.31344" lon="2.87819">
        <ele>150.58</ele>
        <time>2014-09-07T09:45:51Z</time>
      </trkpt>
      <trkpt lat="43.31345" lon="2.87817">
        <ele>150.58</ele>
        <time>2014-09-07T09:45:52Z</time>
      </trkpt>
      <trkpt lat="43.31348" lon="2.87813">
        <ele>150.58</ele>
        <time>2014-09-07T09:45:55Z</time>
      </trkpt>
      <trkpt lat="43.31349" lon="2.87812">
        <ele>150.58</ele>
        <time>2014-09-07T09:45:56Z</time>
      </trkpt>
      <trkpt lat="43.31355" lon="2.87804">
        <ele>150.58</ele>
        <time>2014-09-07T09:46:07Z</time>
      </trkpt>
      <trkpt lat="43.31353" lon="2.87804">
        <ele>149.62</ele>
        <time>2014-09-07T09:46:35Z</time>
      </trkpt>
      <trkpt lat="43.31376" lon="2.87782">
        <ele>150.1</ele>
        <time>2014-09-07T09:46:44Z</time>
      </trkpt>
      <trkpt lat="43.31422" lon="2.87741">
        <ele>150.1</ele>
        <time>2014-09-07T09:46:53Z</time>
      </trkpt>
      <trkpt lat="43.31426" lon="2.87736">
        <ele>149.62</ele>
        <time>2014-09-07T09:46:54Z</time>
      </trkpt>
      <trkpt lat="43.3143" lon="2.87731">
        <ele>149.14</ele>
        <time>2014-09-07T09:46:55Z</time>
      </trkpt>
      <trkpt lat="43.31449" lon="2.87708">
        <ele>147.7</ele>
        <time>2014-09-07T09:46:59Z</time>
      </trkpt>
      <trkpt lat="43.31456" lon="2.87702">
        <ele>147.22</ele>
        <time>2014-09-07T09:47:00Z</time>
      </trkpt>
      <trkpt lat="43.31509" lon="2.87663">
        <ele>145.78</ele>
        <time>2014-09-07T09:47:08Z</time>
      </trkpt>
      <trkpt lat="43.31572" lon="2.87626">
        <ele>143.85</ele>
        <time>2014-09-07T09:47:16Z</time>
      </trkpt>
      <trkpt lat="43.31576" lon="2.87622">
        <ele>143.37</ele>
        <time>2014-09-07T09:47:17Z</time>
      </trkpt>
      <trkpt lat="43.31578" lon="2.87617">
        <ele>142.89</ele>
        <time>2014-09-07T09:47:18Z</time>
      </trkpt>
      <trkpt lat="43.31577" lon="2.87609">
        <ele>141.93</ele>
        <time>2014-09-07T09:47:20Z</time>
      </trkpt>
      <trkpt lat="43.31574" lon="2.87608">
        <ele>141.45</ele>
        <time>2014-09-07T09:47:21Z</time>
      </trkpt>
      <trkpt lat="43.31572" lon="2.87608">
        <ele>140.97</ele>
        <time>2014-09-07T09:47:22Z</time>
      </trkpt>
      <trkpt lat="43.31569" lon="2.87608">
        <ele>140.49</ele>
        <time>2014-09-07T09:47:23Z</time>
      </trkpt>
      <trkpt lat="43.31567" lon="2.87607">
        <ele>140.01</ele>
        <time>2014-09-07T09:47:24Z</time>
      </trkpt>
      <trkpt lat="43.31564" lon="2.87606">
        <ele>139.53</ele>
        <time>2014-09-07T09:47:25Z</time>
      </trkpt>
      <trkpt lat="43.31555" lon="2.87598">
        <ele>137.61</ele>
        <time>2014-09-07T09:47:28Z</time>
      </trkpt>
      <trkpt lat="43.31545" lon="2.87577">
        <ele>133.28</ele>
        <time>2014-09-07T09:47:35Z</time>
      </trkpt>
      <trkpt lat="43.31521" lon="2.87568">
        <ele>129.43</ele>
        <time>2014-09-07T09:47:39Z</time>
      </trkpt>
      <trkpt lat="43.31495" lon="2.87552">
        <ele>127.03</ele>
        <time>2014-09-07T09:47:43Z</time>
      </trkpt>
      <trkpt lat="43.31461" lon="2.87539">
        <ele>122.71</ele>
        <time>2014-09-07T09:47:50Z</time>
      </trkpt>
      <trkpt lat="43.31458" lon="2.8754">
        <ele>121.26</ele>
        <time>2014-09-07T09:47:51Z</time>
      </trkpt>
      <trkpt lat="43.31455" lon="2.87543">
        <ele>120.78</ele>
        <time>2014-09-07T09:47:52Z</time>
      </trkpt>
      <trkpt lat="43.31451" lon="2.87546">
        <ele>119.82</ele>
        <time>2014-09-07T09:47:53Z</time>
      </trkpt>
      <trkpt lat="43.31448" lon="2.8755">
        <ele>119.34</ele>
        <time>2014-09-07T09:47:54Z</time>
      </trkpt>
      <trkpt lat="43.31445" lon="2.87554">
        <ele>118.38</ele>
        <time>2014-09-07T09:47:55Z</time>
      </trkpt>
      <trkpt lat="43.31419" lon="2.876">
        <ele>113.09</ele>
        <time>2014-09-07T09:48:04Z</time>
      </trkpt>
      <trkpt lat="43.31417" lon="2.87605">
        <ele>113.09</ele>
        <time>2014-09-07T09:48:05Z</time>
      </trkpt>
      <trkpt lat="43.3141" lon="2.87621">
        <ele>112.61</ele>
        <time>2014-09-07T09:48:08Z</time>
      </trkpt>
      <trkpt lat="43.31408" lon="2.87626">
        <ele>112.61</ele>
        <time>2014-09-07T09:48:09Z</time>
      </trkpt>
      <trkpt lat="43.31384" lon="2.87652">
        <ele>112.13</ele>
        <time>2014-09-07T09:48:19Z</time>
      </trkpt>
      <trkpt lat="43.31369" lon="2.87649">
        <ele>111.17</ele>
        <time>2014-09-07T09:48:22Z</time>
      </trkpt>
      <trkpt lat="43.31366" lon="2.87646">
        <ele>110.69</ele>
        <time>2014-09-07T09:48:23Z</time>
      </trkpt>
      <trkpt lat="43.31364" lon="2.87642">
        <ele>110.69</ele>
        <time>2014-09-07T09:48:24Z</time>
      </trkpt>
      <trkpt lat="43.31364" lon="2.87637">
        <ele>110.21</ele>
        <time>2014-09-07T09:48:25Z</time>
      </trkpt>
      <trkpt lat="43.31365" lon="2.87631">
        <ele>109.25</ele>
        <time>2014-09-07T09:48:26Z</time>
      </trkpt>
      <trkpt lat="43.31366" lon="2.87628">
        <ele>108.77</ele>
        <time>2014-09-07T09:48:27Z</time>
      </trkpt>
      <trkpt lat="43.31367" lon="2.87626">
        <ele>108.29</ele>
        <time>2014-09-07T09:48:36Z</time>
      </trkpt>
      <trkpt lat="43.31369" lon="2.87622">
        <ele>106.36</ele>
        <time>2014-09-07T09:49:00Z</time>
      </trkpt>
      <trkpt lat="43.31376" lon="2.87604">
        <ele>103</ele>
        <time>2014-09-07T09:49:10Z</time>
      </trkpt>
      <trkpt lat="43.31375" lon="2.87603">
        <ele>102.04</ele>
        <time>2014-09-07T09:49:27Z</time>
      </trkpt>
      <trkpt lat="43.31389" lon="2.87583">
        <ele>100.11</ele>
        <time>2014-09-07T09:49:37Z</time>
      </trkpt>
      <trkpt lat="43.314" lon="2.87566">
        <ele>99.63</ele>
        <time>2014-09-07T09:49:41Z</time>
      </trkpt>
      <trkpt lat="43.31403" lon="2.8756">
        <ele>99.63</ele>
        <time>2014-09-07T09:49:42Z</time>
      </trkpt>
      <trkpt lat="43.31405" lon="2.87554">
        <ele>99.63</ele>
        <time>2014-09-07T09:49:43Z</time>
      </trkpt>
      <trkpt lat="43.31417" lon="2.87527">
        <ele>99.63</ele>
        <time>2014-09-07T09:49:47Z</time>
      </trkpt>
      <trkpt lat="43.31421" lon="2.87521">
        <ele>99.63</ele>
        <time>2014-09-07T09:49:48Z</time>
      </trkpt>
      <trkpt lat="43.31425" lon="2.87515">
        <ele>99.63</ele>
        <time>2014-09-07T09:49:49Z</time>
      </trkpt>
      <trkpt lat="43.31429" lon="2.87509">
        <ele>99.63</ele>
        <time>2014-09-07T09:49:50Z</time>
      </trkpt>
      <trkpt lat="43.31432" lon="2.87502">
        <ele>99.15</ele>
        <time>2014-09-07T09:49:51Z</time>
      </trkpt>
      <trkpt lat="43.31435" lon="2.87494">
        <ele>99.63</ele>
        <time>2014-09-07T09:49:52Z</time>
      </trkpt>
      <trkpt lat="43.31438" lon="2.87484">
        <ele>98.67</ele>
        <time>2014-09-07T09:49:53Z</time>
      </trkpt>
      <trkpt lat="43.31446" lon="2.87461">
        <ele>97.23</ele>
        <time>2014-09-07T09:49:56Z</time>
      </trkpt>
      <trkpt lat="43.31447" lon="2.87454">
        <ele>96.75</ele>
        <time>2014-09-07T09:49:57Z</time>
      </trkpt>
      <trkpt lat="43.31448" lon="2.87447">
        <ele>95.79</ele>
        <time>2014-09-07T09:49:58Z</time>
      </trkpt>
      <trkpt lat="43.31448" lon="2.87439">
        <ele>95.31</ele>
        <time>2014-09-07T09:49:59Z</time>
      </trkpt>
      <trkpt lat="43.31447" lon="2.87432">
        <ele>94.35</ele>
        <time>2014-09-07T09:50:00Z</time>
      </trkpt>
      <trkpt lat="43.31447" lon="2.87342">
        <ele>81.37</ele>
        <time>2014-09-07T09:50:12Z</time>
      </trkpt>
      <trkpt lat="43.31447" lon="2.87336">
        <ele>80.41</ele>
        <time>2014-09-07T09:50:13Z</time>
      </trkpt>
      <trkpt lat="43.31448" lon="2.8733">
        <ele>79.45</ele>
        <time>2014-09-07T09:50:14Z</time>
      </trkpt>
      <trkpt lat="43.31449" lon="2.87325">
        <ele>78.97</ele>
        <time>2014-09-07T09:50:15Z</time>
      </trkpt>
      <trkpt lat="43.31451" lon="2.87319">
        <ele>78.97</ele>
        <time>2014-09-07T09:50:16Z</time>
      </trkpt>
      <trkpt lat="43.31453" lon="2.87315">
        <ele>78.97</ele>
        <time>2014-09-07T09:50:17Z</time>
      </trkpt>
      <trkpt lat="43.31457" lon="2.87311">
        <ele>78.48</ele>
        <time>2014-09-07T09:50:18Z</time>
      </trkpt>
      <trkpt lat="43.31461" lon="2.87306">
        <ele>78.48</ele>
        <time>2014-09-07T09:50:19Z</time>
      </trkpt>
      <trkpt lat="43.31466" lon="2.87301">
        <ele>78.48</ele>
        <time>2014-09-07T09:50:20Z</time>
      </trkpt>
      <trkpt lat="43.3147" lon="2.87296">
        <ele>78</ele>
        <time>2014-09-07T09:50:21Z</time>
      </trkpt>
      <trkpt lat="43.31491" lon="2.87278">
        <ele>75.12</ele>
        <time>2014-09-07T09:50:25Z</time>
      </trkpt>
      <trkpt lat="43.31497" lon="2.87278">
        <ele>74.64</ele>
        <time>2014-09-07T09:50:26Z</time>
      </trkpt>
      <trkpt lat="43.31503" lon="2.87278">
        <ele>74.16</ele>
        <time>2014-09-07T09:50:27Z</time>
      </trkpt>
      <trkpt lat="43.31509" lon="2.87278">
        <ele>73.2</ele>
        <time>2014-09-07T09:50:28Z</time>
      </trkpt>
      <trkpt lat="43.31516" lon="2.87278">
        <ele>72.72</ele>
        <time>2014-09-07T09:50:29Z</time>
      </trkpt>
      <trkpt lat="43.31584" lon="2.87266">
        <ele>71.76</ele>
        <time>2014-09-07T09:50:39Z</time>
      </trkpt>
      <trkpt lat="43.3159" lon="2.87264">
        <ele>71.76</ele>
        <time>2014-09-07T09:50:40Z</time>
      </trkpt>
      <trkpt lat="43.31595" lon="2.87261">
        <ele>71.76</ele>
        <time>2014-09-07T09:50:41Z</time>
      </trkpt>
      <trkpt lat="43.316" lon="2.87257">
        <ele>71.76</ele>
        <time>2014-09-07T09:50:42Z</time>
      </trkpt>
      <trkpt lat="43.31642" lon="2.87218">
        <ele>71.27</ele>
        <time>2014-09-07T09:50:51Z</time>
      </trkpt>
      <trkpt lat="43.3166" lon="2.872">
        <ele>71.27</ele>
        <time>2014-09-07T09:50:56Z</time>
      </trkpt>
      <trkpt lat="43.31687" lon="2.87179">
        <ele>71.76</ele>
        <time>2014-09-07T09:51:03Z</time>
      </trkpt>
      <trkpt lat="43.31686" lon="2.87177">
        <ele>71.27</ele>
        <time>2014-09-07T09:51:04Z</time>
      </trkpt>
      <trkpt lat="43.31685" lon="2.87176">
        <ele>70.79</ele>
        <time>2014-09-07T09:51:05Z</time>
      </trkpt>
      <trkpt lat="43.31683" lon="2.87174">
        <ele>70.31</ele>
        <time>2014-09-07T09:51:06Z</time>
      </trkpt>
      <trkpt lat="43.31681" lon="2.87171">
        <ele>69.83</ele>
        <time>2014-09-07T09:51:07Z</time>
      </trkpt>
      <trkpt lat="43.31678" lon="2.87168">
        <ele>69.83</ele>
        <time>2014-09-07T09:51:08Z</time>
      </trkpt>
      <trkpt lat="43.31678" lon="2.87159">
        <ele>68.87</ele>
        <time>2014-09-07T09:51:10Z</time>
      </trkpt>
      <trkpt lat="43.31678" lon="2.87152">
        <ele>68.87</ele>
        <time>2014-09-07T09:51:11Z</time>
      </trkpt>
      <trkpt lat="43.31677" lon="2.87145">
        <ele>68.39</ele>
        <time>2014-09-07T09:51:12Z</time>
      </trkpt>
      <trkpt lat="43.31673" lon="2.87133">
        <ele>68.39</ele>
        <time>2014-09-07T09:51:14Z</time>
      </trkpt>
      <trkpt lat="43.31666" lon="2.87116">
        <ele>67.91</ele>
        <time>2014-09-07T09:51:17Z</time>
      </trkpt>
      <trkpt lat="43.31664" lon="2.8711">
        <ele>67.91</ele>
        <time>2014-09-07T09:51:18Z</time>
      </trkpt>
      <trkpt lat="43.31663" lon="2.87104">
        <ele>67.91</ele>
        <time>2014-09-07T09:51:19Z</time>
      </trkpt>
      <trkpt lat="43.31662" lon="2.87098">
        <ele>67.91</ele>
        <time>2014-09-07T09:51:20Z</time>
      </trkpt>
      <trkpt lat="43.3166" lon="2.87093">
        <ele>67.43</ele>
        <time>2014-09-07T09:51:21Z</time>
      </trkpt>
      <trkpt lat="43.31659" lon="2.87087">
        <ele>67.43</ele>
        <time>2014-09-07T09:51:22Z</time>
      </trkpt>
      <trkpt lat="43.31657" lon="2.87082">
        <ele>66.95</ele>
        <time>2014-09-07T09:51:23Z</time>
      </trkpt>
      <trkpt lat="43.31655" lon="2.87072">
        <ele>66.95</ele>
        <time>2014-09-07T09:51:25Z</time>
      </trkpt>
      <trkpt lat="43.31644" lon="2.87031">
        <ele>64.07</ele>
        <time>2014-09-07T09:51:33Z</time>
      </trkpt>
      <trkpt lat="43.31639" lon="2.87022">
        <ele>61.18</ele>
        <time>2014-09-07T09:51:46Z</time>
      </trkpt>
      <trkpt lat="43.3164" lon="2.87017">
        <ele>60.7</ele>
        <time>2014-09-07T09:52:07Z</time>
      </trkpt>
      <trkpt lat="43.31638" lon="2.87017">
        <ele>59.74</ele>
        <time>2014-09-07T09:52:19Z</time>
      </trkpt>
      <trkpt lat="43.31636" lon="2.87019">
        <ele>59.74</ele>
        <time>2014-09-07T09:52:24Z</time>
      </trkpt>
      <trkpt lat="43.31631" lon="2.87022">
        <ele>62.62</ele>
        <time>2014-09-07T09:52:39Z</time>
      </trkpt>
      <trkpt lat="43.31634" lon="2.87023">
        <ele>62.62</ele>
        <time>2014-09-07T09:53:15Z</time>
      </trkpt>
    </trkseg>
  </trk>
</gpx>